# Wetter Temperatur Luftdruck Luftfeuchtigkeit Sichtweite Windgeschwindigkeit Windrichtung Zeit
1 Clear 15 1022 79 10000 1.79 66 08:31 02.10.2022
2 Clear 15 1021 75 10000 1.03 110 05:32 02.10.2022
3 Clear 15 1021 75 10000 1.61 39 02:49 02.10.2022
4 Clear 16 1021 72 10000 1.54 80 00:39 02.10.2022
5 Clear 16 1021 72 10000 1.54 80 00:39 02.10.2022
6 Clear 17 1021 70 10000 1.54 340 23:36 01.10.2022
7 Clear 18 1020 68 10000 1.54 330 22:25 01.10.2022
8 Clouds 19 1019 72 10000 3.6 290 19:58 01.10.2022
9 Clouds 22 1017 56 10000 4.92 274 17:46 01.10.2022
10 Clouds 22 1017 54 10000 4.12 260 16:28 01.10.2022
11 Clouds 22 1017 51 10000 5.14 280 14:19 01.10.2022
12 Clouds 21 1018 57 10000 5.66 250 12:35 01.10.2022
13 Clouds 21 1017 62 10000 4.12 260 11:57 01.10.2022
14 Clouds 21 1017 71 10000 5.66 240 11:18 01.10.2022
15 Clouds 20 1017 83 10000 3.09 260 10:30 01.10.2022
16 Clouds 20 1017 82 10000 3.09 260 10:30 01.10.2022
17 Clouds 19 1016 83 10000 3.09 190 09:26 01.10.2022
18 Haze 18 1017 78 5000 2.57 210 08:40 01.10.2022
19 Clouds 18 1013 80 10000 0.45 211 03:52 01.10.2022
20 Clouds 18 1013 80 10000 2.57 250 03:24 01.10.2022
21 Rain 21 1012 76 10000 5.66 180 23:30 30.09.2022
22 Rain 21 1010 73 10000 6.17 170 22:19 30.09.2022
23 Clouds 21 1011 73 10000 3.13 169 21:22 30.09.2022
24 Clouds 21 1009 68 10000 7.72 170 20:42 30.09.2022
25 Clouds 22 1009 67 10000 8.23 160 19:30 30.09.2022
26 Clouds 24 1009 62 10000 8.75 170 17:27 30.09.2022
27 Clouds 23 1008 63 10000 8.75 180 14:55 30.09.2022
28 Clouds 23 1008 66 10000 8.23 170 13:24 30.09.2022
29 Clouds 21 1008 79 7000 9.26 170 11:56 30.09.2022
30 Clouds 20 1006 82 10000 5.66 170 09:50 30.09.2022
31 Clouds 18 1006 89 10000 3.09 170 08:20 30.09.2022
32 Clouds 17 1004 81 10000 3.11 123 04:24 30.09.2022
33 Clouds 17 1005 85 10000 2.57 190 02:23 30.09.2022
34 Clouds 17 1002 88 10000 2.57 190 22:24 29.09.2022
35 Clouds 18 1000 76 10000 3.29 152 21:26 29.09.2022
36 Rain 21 1002 74 9000 4.63 190 20:26 29.09.2022
37 Clouds 22 1002 74 10000 5.66 200 18:31 29.09.2022
38 Clouds 24 1002 62 10000 6.69 220 16:30 29.09.2022
39 Clouds 24 1002 62 10000 6.69 220 16:30 29.09.2022
40 Clouds 24 1002 61 10000 7.2 210 15:52 29.09.2022
41 Clouds 24 1002 61 10000 7.2 220 15:27 29.09.2022
42 Clouds 23 1003 64 10000 6.17 190 12:54 29.09.2022
43 Clear 20 1003 74 10000 3.6 190 08:52 29.09.2022
44 Clear 19 1003 74 10000 2.57 200 05:36 29.09.2022
45 Clouds 20 1003 76 10000 3.6 200 02:42 29.09.2022
46 Clouds 20 1003 76 10000 3.6 230 23:29 28.09.2022
47 Clouds 20 1003 77 9000 3.09 210 22:24 28.09.2022
48 Clouds 20 1003 77 10000 3.09 230 21:28 28.09.2022
49 Clouds 20 1003 77 10000 3.6 220 20:18 28.09.2022
50 Clouds 23 1002 53 10000 5.14 200 17:42 28.09.2022
51 Clouds 23 1004 54 10000 3.6 190 14:45 28.09.2022
52 Clouds 22 1004 55 10000 4.12 200 12:40 28.09.2022
53 Clear 20 1003 63 10000 5.14 160 10:24 28.09.2022
54 Clear 18 1001 73 10000 3.6 160 08:25 28.09.2022
55 Clouds 17 1001 78 10000 1.79 169 06:42 28.09.2022
56 Clouds 18 1003 76 10000 4.12 180 01:51 28.09.2022
57 Clouds 18 1003 76 10000 3.6 160 01:27 28.09.2022
58 Clouds 19 1002 69 10000 3.09 200 22:50 27.09.2022
59 Clouds 19 1003 63 10000 3.6 230 21:24 27.09.2022
60 Clouds 20 1002 65 10000 3.09 230 20:36 27.09.2022
61 Clouds 20 1003 61 9000 5.66 230 19:47 27.09.2022
62 Clouds 21 1003 67 9000 7.72 240 18:25 27.09.2022
63 Clouds 22 1003 63 9000 8.23 240 17:42 27.09.2022
64 Clouds 23 1003 59 8000 8.75 250 15:27 27.09.2022
65 Clouds 23 1003 54 10000 7.2 260 14:33 27.09.2022
66 Clouds 23 1004 53 10000 5.14 230 12:40 27.09.2022
67 Clouds 22 1003 65 10000 2.57 210 10:53 27.09.2022
68 Clouds 18 1003 79 10000 3.09 170 08:46 27.09.2022
69 Clouds 18 1003 83 10000 3.09 210 06:27 27.09.2022
70 Clouds 18 1005 88 10000 3.6 200 01:45 27.09.2022
71 Clouds 18 1005 82 10000 4.63 190 00:50 27.09.2022
72 Clouds 18 1006 86 10000 3.6 180 23:25 26.09.2022
73 Clouds 18 1006 88 10000 2.57 170 22:19 26.09.2022
74 Clouds 19 1005 83 10000 2.06 220 20:27 26.09.2022
75 Clouds 19 1006 87 10000 2.57 120 19:30 26.09.2022
76 Clouds 20 1006 84 10000 2.24 149 18:30 26.09.2022
77 Rain 21 1006 86 8000 2.06 90 15:52 26.09.2022
78 Clouds 20 1007 86 10000 2.68 166 13:28 26.09.2022
79 Rain 19 1008 74 10000 2.06 360 11:29 26.09.2022
80 Rain 18 1008 82 10000 0.51 0 10:37 26.09.2022
81 Rain 18 1008 86 10000 1.54 30 10:19 26.09.2022
82 Rain 18 1007 79 10000 2.06 120 09:53 26.09.2022
83 Rain 18 1008 81 9000 0.51 0 09:22 26.09.2022
84 Clear 16 1008 82 10000 1.54 70 06:21 26.09.2022
85 Clear 16 1010 84 10000 1.54 80 02:41 26.09.2022
86 Clouds 17 1011 85 10000 2.06 0 23:28 25.09.2022
87 Clouds 18 1011 81 10000 1.79 138 21:49 25.09.2022
88 Clouds 18 1011 81 10000 1.79 144 21:25 25.09.2022
89 Clouds 18 1010 77 10000 2.68 152 20:38 25.09.2022
90 Clear 19 1010 78 10000 3.6 190 19:30 25.09.2022
91 Clear 19 1010 83 10000 6.17 190 18:34 25.09.2022
92 Clouds 19 1010 85 10000 5.66 130 17:41 25.09.2022
93 Clouds 19 1012 84 5000 4.63 190 16:21 25.09.2022
94 Clouds 21 1012 75 10000 5.14 190 14:55 25.09.2022
95 Rain 22 1012 69 10000 6.17 190 14:20 25.09.2022
96 Clear 21 1012 76 10000 2.06 140 11:53 25.09.2022
97 Clouds 17 1012 88 10000 5.66 100 09:48 25.09.2022
98 Clouds 17 1011 80 10000 2.06 110 07:45 25.09.2022
99 Thunderstorm 17 1011 77 5000 7.72 170 05:29 25.09.2022
100 Clear 20 1015 56 10000 6.17 170 23:37 24.09.2022
101 Clear 20 1016 54 10000 6.69 170 21:50 24.09.2022
102 Rain 21 1015 52 10000 6.17 180 20:34 24.09.2022
103 Clouds 21 1015 51 10000 7.2 180 19:20 24.09.2022
104 Clouds 23 1016 48 10000 8.23 190 16:57 24.09.2022
105 Clouds 24 1016 46 10000 7.72 190 15:54 24.09.2022
106 Clouds 24 1016 46 10000 7.72 180 15:18 24.09.2022
107 Clouds 23 1018 50 10000 7.72 190 13:22 24.09.2022
108 Clouds 23 1018 51 10000 6.17 160 12:25 24.09.2022
109 Clouds 20 1019 60 10000 5.66 170 09:59 24.09.2022
110 Clouds 19 1019 66 10000 4.12 170 09:21 24.09.2022
111 Clouds 17 1019 73 10000 3.09 160 08:40 24.09.2022
112 Clear 16 1018 70 10000 1.03 160 04:55 24.09.2022
113 Clear 16 1018 70 10000 0.51 0 04:25 24.09.2022
114 Clouds 17 1018 73 10000 3.09 170 23:18 23.09.2022
115 Clouds 18 1018 68 10000 3.09 160 21:40 23.09.2022
116 Clouds 19 1018 66 10000 2.57 180 21:22 23.09.2022
117 Clear 19 1019 64 10000 2.57 200 20:45 23.09.2022
118 Clear 21 1018 56 10000 3.6 240 19:20 23.09.2022
119 Clouds 23 1018 49 10000 4.63 230 17:42 23.09.2022
120 Clear 23 1019 36 10000 2.06 0 13:40 23.09.2022
121 Clear 17 1019 57 10000 4.12 50 10:22 23.09.2022
122 Clear 12 1019 69 10000 3.09 60 07:30 23.09.2022
123 Clear 14 1018 64 10000 1.54 60 02:25 23.09.2022
124 Clear 16 1018 54 10000 1.54 30 23:29 22.09.2022
125 Clear 18 1017 58 10000 2.24 1 22:28 22.09.2022
126 Clear 19 1016 66 10000 0.51 0 21:30 22.09.2022
127 Clear 19 1017 64 10000 1.54 270 20:21 22.09.2022
128 Clouds 22 1016 52 10000 4.63 250 18:44 22.09.2022
129 Clouds 23 1017 42 10000 4.12 290 15:23 22.09.2022
130 Clouds 19 1017 51 10000 4.63 50 10:48 22.09.2022
131 Clouds 18 1017 52 10000 4.63 40 10:19 22.09.2022
132 Clouds 14 1017 64 10000 2.68 38 07:50 22.09.2022
133 Clear 15 1018 63 10000 1.79 60 04:38 22.09.2022
134 Clear 18 1018 54 10000 1.79 54 00:25 22.09.2022
135 Clear 19 1017 52 10000 2.24 34 22:28 21.09.2022
136 Clear 20 1016 49 10000 2.57 310 20:55 21.09.2022
137 Clouds 24 1015 42 10000 4.12 280 18:34 21.09.2022
138 Clear 25 1016 41 10000 5.14 270 17:39 21.09.2022
139 Clouds 25 1016 38 10000 4.63 290 15:35 21.09.2022
140 Clear 25 1016 36 10000 3.6 270 13:39 21.09.2022
141 Clear 22 1016 49 10000 3.09 40 11:34 21.09.2022
142 Clouds 21 1016 55 10000 4.12 50 10:52 21.09.2022
143 Clear 18 1016 65 10000 2.57 40 09:39 21.09.2022
144 Clear 16 1015 71 10000 2.06 50 08:24 21.09.2022
145 Clear 17 1015 75 10000 2.68 6 02:54 21.09.2022
146 Clear 18 1015 76 10000 2.24 354 02:34 21.09.2022
147 Clear 18 1015 77 10000 2.57 110 01:52 21.09.2022
148 Clear 19 1015 76 10000 2.06 160 23:58 20.09.2022
149 Clouds 21 1014 74 10000 0.51 0 21:52 20.09.2022
150 Clear 22 1012 68 10000 2.06 240 20:32 20.09.2022
151 Clouds 24 1013 66 10000 2.06 190 17:54 20.09.2022
152 Clouds 26 1012 51 10000 1.54 10 15:33 20.09.2022
153 Clouds 26 1013 51 10000 2.57 0 13:59 20.09.2022
154 Clear 24 1014 61 10000 2.57 360 11:29 20.09.2022
155 Clear 18 1014 83 10000 2.06 70 08:36 20.09.2022
156 Clear 17 1013 81 10000 1.03 0 07:37 20.09.2022
157 Clouds 18 1012 79 10000 0.51 0 04:35 20.09.2022
158 Clouds 19 1014 78 10000 2.57 120 01:33 20.09.2022
159 Clouds 20 1013 75 10000 1.03 0 22:42 19.09.2022
160 Clouds 22 1012 70 10000 2.06 210 21:28 19.09.2022
161 Clear 22 1012 68 10000 3.09 210 20:40 19.09.2022
162 Clouds 24 1011 61 10000 4.63 230 18:45 19.09.2022
163 Clouds 25 1012 54 10000 6.17 220 16:48 19.09.2022
164 Clouds 25 1012 50 10000 5.66 170 13:47 19.09.2022
165 Clouds 24 1014 51 10000 4.12 190 11:57 19.09.2022
166 Clear 20 1012 54 10000 1.54 70 09:44 19.09.2022
167 Clear 16 1013 66 10000 2.57 140 08:32 19.09.2022
168 Clear 15 1014 61 10000 2.06 150 03:37 19.09.2022
169 Clear 17 1015 54 10000 2.06 160 00:44 19.09.2022
170 Clear 18 1014 53 10000 2.06 160 22:33 18.09.2022
171 Clear 20 1016 48 10000 2.06 180 21:18 18.09.2022
172 Clear 23 1014 36 10000 3.6 270 19:33 18.09.2022
173 Clear 25 1014 28 10000 2.24 304 17:52 18.09.2022
174 Clear 26 1014 24 10000 3.58 252 16:47 18.09.2022
175 Clear 25 1015 22 10000 4.12 360 14:44 18.09.2022
176 Clear 25 1015 23 10000 3.6 10 13:34 18.09.2022
177 Clear 21 1015 37 10000 3.6 40 11:55 18.09.2022
178 Clear 13 1012 59 10000 4.63 70 07:46 18.09.2022
179 Clear 15 1009 54 10000 4.63 30 01:41 18.09.2022
180 Clear 15 1009 55 10000 3.6 40 01:19 18.09.2022
181 Clear 16 1008 55 10000 6.17 10 22:55 17.09.2022
182 Clear 18 1007 54 10000 8.75 10 20:51 17.09.2022
183 Clear 20 1006 51 10000 5.66 340 19:36 17.09.2022
184 Clear 22 1005 50 10000 9.26 10 17:36 17.09.2022
185 Clouds 27 1001 52 10000 5.14 250 14:22 17.09.2022
186 Clouds 26 1002 55 10000 7.2 280 12:46 17.09.2022
187 Clouds 25 1002 60 10000 5.66 230 10:48 17.09.2022
188 Clear 24 1001 64 10000 4.12 240 06:35 17.09.2022
189 Clear 23 1002 66 10000 2.24 250 04:35 17.09.2022
190 Clear 24 1005 70 10000 5.14 200 23:37 16.09.2022
191 Clear 25 1006 71 10000 4.63 210 21:57 16.09.2022
192 Clear 26 1006 65 10000 5.14 210 20:42 16.09.2022
193 Clouds 28 1006 54 10000 5.14 220 18:43 16.09.2022
194 Clouds 29 1006 56 10000 6.69 240 16:22 16.09.2022
195 Clouds 29 1007 55 10000 5.14 240 14:50 16.09.2022
196 Clouds 28 1009 61 10000 5.66 220 12:51 16.09.2022
197 Clouds 26 1007 80 10000 2.06 230 09:55 16.09.2022
198 Clouds 24 1009 82 10000 2.57 210 07:23 16.09.2022
199 Clouds 25 1009 54 10000 3.09 200 06:48 16.09.2022
200 Clouds 25 1009 45 10000 3.6 190 05:55 16.09.2022
201 Clouds 26 1010 70 10000 6.17 180 01:31 16.09.2022
202 Clouds 26 1010 78 10000 4.12 180 21:31 15.09.2022
203 Clouds 26 1009 76 10000 4.63 200 20:33 15.09.2022
204 Clouds 27 1010 74 10000 6.17 190 18:57 15.09.2022
205 Clouds 27 1010 72 10000 9.26 180 17:38 15.09.2022
206 Clouds 27 1009 71 10000 8.23 190 17:20 15.09.2022
207 Clouds 28 1010 68 10000 10.8 180 15:37 15.09.2022
208 Clouds 27 1010 65 10000 9.26 180 12:50 15.09.2022
209 Rain 25 1011 78 10000 8.23 170 11:47 15.09.2022
210 Rain 22 1013 89 8000 5.66 170 09:43 15.09.2022
211 Rain 24 1012 66 10000 4.12 200 05:37 15.09.2022
212 Clear 24 1013 61 10000 3.13 156 02:58 15.09.2022
213 Clear 25 1013 71 10000 5.14 150 22:51 14.09.2022
214 Clear 26 1013 64 10000 5.14 200 20:30 14.09.2022
215 Clear 27 1013 55 10000 6.17 190 19:32 14.09.2022
216 Clear 29 1013 48 10000 6.17 180 17:35 14.09.2022
217 Clear 30 1013 47 10000 5.14 190 16:36 14.09.2022
218 Clear 30 1013 47 10000 5.14 190 16:36 14.09.2022
219 Clear 30 1015 42 10000 4.63 200 14:47 14.09.2022
220 Clear 29 1014 37 10000 5.14 190 12:33 14.09.2022
221 Clear 24 1013 51 10000 1.54 20 09:51 14.09.2022
222 Clear 20 1013 52 10000 0.51 0 07:55 14.09.2022
223 Clear 20 1013 50 10000 1.54 160 06:49 14.09.2022
224 Clear 21 1013 53 10000 2.06 160 06:23 14.09.2022
225 Clear 21 1014 61 10000 2.57 130 02:19 14.09.2022
226 Clear 21 1014 61 10000 1.54 160 01:30 14.09.2022
227 Clear 22 1015 64 10000 2.06 150 00:52 14.09.2022
228 Clear 22 1014 68 10000 2.06 130 23:54 13.09.2022
229 Clear 22 1014 68 10000 2.06 130 23:36 13.09.2022
230 Clear 22 1014 67 10000 1.54 160 23:18 13.09.2022
231 Clear 23 1014 67 10000 0.51 0 22:22 13.09.2022
232 Clear 23 1014 67 10000 0.51 0 22:22 13.09.2022
233 Clear 25 1014 60 10000 2.06 210 20:41 13.09.2022
234 Clear 28 1013 45 10000 4.12 240 18:37 13.09.2022
235 Clear 30 1013 32 10000 3.6 250 16:19 13.09.2022
236 Clouds 31 1013 33 10000 3.09 250 14:50 13.09.2022
237 Clear 30 1014 37 10000 2.06 0 13:31 13.09.2022
238 Clear 23 1014 63 10000 1.03 0 09:51 13.09.2022
239 Clear 19 1013 67 10000 1.54 60 07:31 13.09.2022
240 Clear 21 1014 72 10000 2.06 160 00:52 13.09.2022
241 Clear 23 1014 70 10000 1.54 170 22:52 12.09.2022
242 Clear 24 1014 70 10000 1.03 210 22:26 12.09.2022
243 Clear 25 1013 65 10000 2.57 230 20:46 12.09.2022
244 Clear 27 1013 58 10000 3.6 230 19:22 12.09.2022
245 Clouds 29 1013 51 10000 4.63 240 17:46 12.09.2022
246 Clouds 30 1013 41 10000 4.12 240 15:22 12.09.2022
247 Clear 28 1015 53 10000 1.54 0 11:57 12.09.2022
248 Clear 25 1014 58 10000 3.6 50 10:24 12.09.2022
249 Clear 19 1013 77 10000 1.54 20 05:57 12.09.2022
250 Clear 19 1014 77 10000 1.54 40 04:32 12.09.2022
251 Clear 22 1013 70 10000 1.03 0 23:59 11.09.2022
252 Clear 24 1013 66 10000 0.51 0 22:45 11.09.2022
253 Clear 24 1013 62 10000 2.68 304 21:22 11.09.2022
254 Clear 25 1013 59 10000 3.09 300 20:43 11.09.2022
255 Clear 27 1012 54 10000 4.63 310 19:27 11.09.2022
256 Clear 27 1013 55 10000 4.63 300 18:58 11.09.2022
257 Clouds 30 1013 42 10000 4.12 10 16:58 11.09.2022
258 Clouds 29 1013 39 10000 3.6 360 15:46 11.09.2022
259 Clouds 28 1014 44 10000 5.14 360 13:19 11.09.2022
260 Clear 25 1013 62 10000 4.63 50 10:51 11.09.2022
261 Clear 20 1013 79 10000 1.34 23 07:49 11.09.2022
262 Clear 21 1012 77 10000 2.57 160 04:36 11.09.2022
263 Clear 23 1014 73 10000 3.6 170 23:48 10.09.2022
264 Clear 23 1013 71 10000 2.57 170 22:21 10.09.2022
265 Clear 25 1013 64 10000 3.09 230 20:24 10.09.2022
266 Clear 26 1013 60 10000 3.6 230 19:42 10.09.2022
267 Clear 26 1012 58 10000 3.6 230 19:24 10.09.2022
268 Clouds 29 1012 55 10000 5.66 250 17:19 10.09.2022
269 Clouds 29 1014 52 10000 5.14 230 15:35 10.09.2022
270 Clouds 29 1013 52 10000 5.14 210 13:29 10.09.2022
271 Clouds 28 1015 54 10000 4.12 210 12:29 10.09.2022
272 Clouds 27 1015 64 10000 3.6 200 10:28 10.09.2022
273 Clouds 24 1014 77 10000 2.06 180 08:41 10.09.2022
274 Clouds 23 1014 80 10000 2.57 190 08:20 10.09.2022
275 Clear 23 1015 72 10000 2.06 190 03:43 10.09.2022
276 Clear 23 1015 77 10000 1.54 180 23:36 09.09.2022
277 Clear 24 1014 73 10000 1.54 200 22:31 09.09.2022
278 Clear 26 1015 66 10000 2.57 280 20:50 09.09.2022
279 Clear 27 1014 58 10000 3.6 290 19:58 09.09.2022
280 Clear 28 1014 50 10000 5.14 310 19:22 09.09.2022
281 Clear 31 1013 37 10000 6.69 280 17:19 09.09.2022
282 Clouds 30 1012 51 10000 3.09 230 14:47 09.09.2022
283 Clouds 30 1013 52 8000 4.12 0 13:19 09.09.2022
284 Clouds 28 1012 69 10000 5.14 190 10:41 09.09.2022
285 Clouds 23 1013 78 10000 2.06 170 07:45 09.09.2022
286 Thunderstorm 24 1012 76 10000 5.14 190 03:34 09.09.2022
287 Clouds 26 1013 75 10000 4.12 190 22:34 08.09.2022
288 Clouds 26 1013 75 10000 4.12 170 21:51 08.09.2022
289 Clear 27 1013 76 10000 4.12 170 20:46 08.09.2022
290 Clear 27 1013 77 10000 4.12 190 20:24 08.09.2022
291 Clouds 28 1012 73 10000 6.17 200 18:43 08.09.2022
292 Clouds 29 1012 70 10000 7.72 190 17:23 08.09.2022
293 Clouds 28 1013 71 10000 8.75 190 15:18 08.09.2022
294 Clouds 27 1014 70 10000 2.57 140 13:28 08.09.2022
295 Clouds 23 1014 78 10000 6.69 110 12:39 08.09.2022
296 Rain 26 1014 74 10000 6.69 180 10:59 08.09.2022
297 Thunderstorm 25 1013 71 8000 6.69 180 09:26 08.09.2022
298 Clear 24 1012 74 10000 3.6 170 06:43 08.09.2022
299 Clouds 24 1014 79 10000 2.06 40 03:23 08.09.2022
300 Clear 24 1013 67 10000 1.54 50 02:36 08.09.2022
301 Clear 24 1013 66 10000 2.06 190 02:18 08.09.2022
302 Clear 25 1015 71 10000 3.09 180 22:56 07.09.2022
303 Clear 26 1014 76 10000 2.57 200 21:44 07.09.2022
304 Clear 26 1015 76 10000 3.09 210 21:21 07.09.2022
305 Clouds 27 1015 75 10000 3.09 230 20:22 07.09.2022
306 Clouds 29 1014 61 10000 5.14 230 18:41 07.09.2022
307 Clouds 31 1015 57 10000 5.66 220 15:41 07.09.2022
308 Clouds 29 1016 50 10000 1.54 0 10:51 07.09.2022
309 Clouds 28 1016 51 10000 1.54 0 10:32 07.09.2022
310 Clear 22 1016 77 10000 1.03 0 07:45 07.09.2022
311 Clear 22 1017 72 10000 1.03 0 04:59 07.09.2022
312 Clear 24 1017 75 10000 0.51 0 00:26 07.09.2022
313 Clear 26 1018 72 10000 3.6 190 21:48 06.09.2022
314 Clear 26 1017 68 10000 3.6 210 21:27 06.09.2022
315 Clear 29 1017 52 10000 3.6 230 19:22 06.09.2022
316 Clear 30 1016 48 10000 3.09 210 18:27 06.09.2022
317 Clear 30 1017 48 10000 5.66 210 17:23 06.09.2022
318 Clear 31 1018 47 10000 6.17 240 16:40 06.09.2022
319 Clear 32 1018 42 10000 6.17 240 15:26 06.09.2022
320 Clear 33 1018 38 10000 2.57 200 13:47 06.09.2022
321 Clear 32 1019 37 10000 2.06 140 13:26 06.09.2022
322 Clear 32 1018 41 10000 2.06 0 12:40 06.09.2022
323 Clear 29 1020 52 10000 1.03 0 10:52 06.09.2022
324 Clear 24 1020 74 10000 1.54 60 08:56 06.09.2022
325 Clear 21 1019 73 10000 1.03 50 07:52 06.09.2022
326 Clear 21 1020 78 10000 1.03 80 05:59 06.09.2022
327 Clear 23 1020 74 10000 2.57 160 00:20 06.09.2022
328 Clear 25 1020 74 10000 2.06 170 22:41 05.09.2022
329 Clear 26 1020 65 10000 2.06 240 20:59 05.09.2022
330 Clear 28 1019 57 10000 3.09 230 19:50 05.09.2022
331 Clear 29 1019 53 10000 5.14 260 18:49 05.09.2022
332 Clear 29 1019 53 10000 5.14 260 18:23 05.09.2022
333 Clouds 30 1019 52 10000 6.69 230 17:35 05.09.2022
334 Clouds 33 1018 38 10000 2.24 204 15:53 05.09.2022
335 Clear 31 1020 40 10000 2.06 0 13:54 05.09.2022
336 Clear 30 1021 51 10000 1.54 0 12:29 05.09.2022
337 Clear 26 1021 66 10000 2.06 20 10:34 05.09.2022
338 Clear 20 1020 72 10000 1.34 6 07:43 05.09.2022
339 Clear 21 1019 73 10000 2.57 90 02:58 05.09.2022
340 Clear 23 1020 77 10000 1.54 100 23:48 04.09.2022
341 Clear 24 1020 80 10000 0.51 0 22:28 04.09.2022
342 Clear 24 1020 77 10000 1.03 30 21:41 04.09.2022
343 Clear 27 1019 66 10000 4.12 230 19:39 04.09.2022
344 Clouds 28 1017 65 10000 5.14 230 18:21 04.09.2022
345 Clouds 29 1018 58 10000 4.12 240 17:22 04.09.2022
346 Clouds 28 1018 62 10000 3.09 340 14:56 04.09.2022
347 Clear 28 1018 66 10000 2.06 0 14:21 04.09.2022
348 Clouds 21 1018 92 10000 4.63 20 12:24 04.09.2022
349 Thunderstorm 23 1017 68 10000 3.09 30 10:51 04.09.2022
350 Rain 21 1016 78 10000 2.57 350 08:21 04.09.2022
351 Clouds 21 1015 78 10000 1.34 22 06:21 04.09.2022
352 Clear 22 1016 80 10000 0.51 0 01:56 04.09.2022
353 Rain 24 1015 74 10000 2.24 119 22:26 03.09.2022
354 Rain 25 1016 75 10000 2.68 144 21:24 03.09.2022
355 Clouds 26 1015 70 10000 1.79 150 20:42 03.09.2022
356 Clouds 28 1014 56 10000 6.17 200 17:36 03.09.2022
357 Clouds 29 1014 52 10000 6.69 200 16:34 03.09.2022
358 Clouds 29 1015 55 10000 5.14 180 14:47 03.09.2022
359 Clouds 28 1016 58 10000 4.63 200 14:26 03.09.2022
360 Clouds 27 1015 55 10000 2.06 0 13:39 03.09.2022
361 Rain 24 1017 77 8000 2.06 330 11:18 03.09.2022
362 Rain 22 1014 73 10000 2.06 90 08:41 03.09.2022
363 Clear 20 1014 73 10000 2.06 180 06:59 03.09.2022
364 Clear 21 1015 71 10000 2.06 130 04:43 03.09.2022
365 Clear 22 1014 68 10000 1.54 150 00:46 03.09.2022
366 Clear 23 1013 67 10000 2.57 150 23:28 02.09.2022
367 Clear 25 1013 68 10000 2.57 210 21:36 02.09.2022
368 Clear 26 1013 63 10000 2.57 220 20:40 02.09.2022
369 Clear 26 1013 58 10000 2.57 240 19:47 02.09.2022
370 Clear 28 1012 52 10000 4.63 250 18:43 02.09.2022
371 Clear 28 1012 51 10000 5.14 230 18:24 02.09.2022
372 Clouds 30 1011 44 10000 4.63 280 16:51 02.09.2022
373 Clear 30 1012 42 10000 2.57 0 15:48 02.09.2022
374 Clear 28 1014 48 10000 1.03 0 12:56 02.09.2022
375 Clear 23 1014 68 10000 3.6 360 10:25 02.09.2022
376 Clear 21 1013 75 10000 4.12 50 09:41 02.09.2022
377 Clear 20 1014 78 10000 3.09 50 08:42 02.09.2022
378 Clear 18 1012 82 10000 2.57 60 06:43 02.09.2022
379 Clear 19 1013 80 10000 3.6 40 04:58 02.09.2022
380 Clear 21 1012 81 10000 3.6 40 22:54 01.09.2022
381 Clear 22 1011 72 10000 3.6 60 21:45 01.09.2022
382 Clear 22 1011 70 10000 4.12 30 21:26 01.09.2022
383 Clouds 23 1011 73 10000 3.6 30 20:48 01.09.2022
384 Clear 24 1010 66 10000 3.09 40 19:23 01.09.2022
385 Clouds 24 1010 72 10000 3.09 30 17:48 01.09.2022
386 Clouds 23 1011 76 10000 3.09 20 16:41 01.09.2022
387 Thunderstorm 27 1010 52 10000 6.17 310 14:34 01.09.2022
388 Clouds 28 1010 60 10000 2.68 304 12:59 01.09.2022
389 Clouds 27 1010 65 10000 1.54 0 11:55 01.09.2022
390 Clouds 27 1010 66 10000 1.54 0 11:36 01.09.2022
391 Clouds 25 1011 77 10000 2.06 70 10:45 01.09.2022
392 Clouds 22 1010 79 10000 1.03 0 08:53 01.09.2022
393 Rain 21 1010 76 10000 4.12 210 06:26 01.09.2022
394 Rain 24 1011 76 10000 4.12 170 01:45 01.09.2022
395 Rain 25 1011 66 10000 3.09 150 00:19 01.09.2022
396 Clouds 26 1013 70 10000 2.06 210 21:45 31.08.2022
397 Clouds 27 1013 64 10000 4.12 240 19:59 31.08.2022
398 Clouds 28 1012 67 10000 4.63 230 18:19 31.08.2022
399 Clouds 29 1012 55 10000 5.14 240 16:31 31.08.2022
400 Clouds 30 1013 49 10000 4.63 250 14:44 31.08.2022
401 Clouds 30 1014 53 10000 4.12 240 12:24 31.08.2022
402 Clear 29 1015 56 10000 3.09 250 11:30 31.08.2022
403 Clear 25 1014 74 10000 2.06 340 09:20 31.08.2022
404 Clear 22 1013 73 10000 2.57 200 06:18 31.08.2022
405 Clear 25 1014 76 10000 2.06 210 23:21 30.08.2022
406 Clear 26 1015 74 10000 2.57 210 21:44 30.08.2022
407 Clear 27 1016 72 10000 2.57 230 20:58 30.08.2022
408 Clear 30 1014 51 10000 5.14 270 18:49 30.08.2022
409 Thunderstorm 33 1015 48 10000 6.17 310 15:29 30.08.2022
410 Clouds 32 1017 45 10000 3.09 0 13:24 30.08.2022
411 Clear 29 1017 58 10000 2.06 0 11:22 30.08.2022
412 Clear 28 1017 63 10000 2.06 30 10:49 30.08.2022
413 Clouds 22 1016 73 10000 1.03 0 07:46 30.08.2022
414 Clouds 23 1017 74 10000 2.57 150 02:34 30.08.2022
415 Clear 25 1016 71 10000 2.06 230 23:22 29.08.2022
416 Clear 25 1015 75 10000 2.06 190 22:28 29.08.2022
417 Clear 26 1016 73 10000 2.06 270 21:26 29.08.2022
418 Clear 28 1014 66 10000 3.6 280 19:54 29.08.2022
419 Rain 29 1014 60 10000 5.66 280 17:54 29.08.2022
420 Clouds 30 1014 59 10000 6.17 280 17:25 29.08.2022
421 Clouds 30 1015 57 10000 6.17 290 16:40 29.08.2022
422 Clouds 32 1015 46 10000 4.12 360 14:47 29.08.2022
423 Clouds 31 1016 47 10000 3.09 360 13:21 29.08.2022
424 Clear 28 1016 57 10000 2.06 0 11:20 29.08.2022
425 Clear 24 1016 68 10000 2.57 50 09:48 29.08.2022
426 Clear 21 1017 72 10000 2.06 50 08:29 29.08.2022
427 Clear 20 1015 77 10000 3.09 40 04:57 29.08.2022
428 Clouds 22 1015 73 10000 3.6 70 00:20 29.08.2022
429 Clear 23 1014 67 10000 1.03 0 22:41 28.08.2022
430 Clear 24 1014 66 10000 2.57 80 21:44 28.08.2022
431 Clouds 24 1015 61 10000 6.17 130 20:55 28.08.2022
432 Clouds 27 1014 57 10000 4.12 350 19:23 28.08.2022
433 Clouds 29 1014 55 10000 4.12 230 18:20 28.08.2022
434 Clouds 29 1013 50 10000 5.14 260 16:58 28.08.2022
435 Clouds 29 1013 52 10000 5.66 220 16:22 28.08.2022
436 Thunderstorm 31 1013 53 10000 4.12 210 14:36 28.08.2022
437 Clouds 30 1014 56 10000 2.57 220 12:32 28.08.2022
438 Clear 28 1014 58 10000 1.03 0 10:43 28.08.2022
439 Clear 25 1013 69 10000 2.06 10 09:42 28.08.2022
440 Clear 23 1013 77 10000 1.54 360 08:37 28.08.2022
441 Clear 22 1013 78 10000 0.89 31 07:42 28.08.2022
442 Clear 22 1013 77 10000 1.03 230 02:31 28.08.2022
443 Clear 23 1013 68 10000 1.54 30 00:26 28.08.2022
444 Clear 25 1012 66 10000 0.51 0 22:34 27.08.2022
445 Clear 25 1012 64 10000 1.54 260 21:28 27.08.2022
446 Clouds 27 1011 61 10000 3.09 360 19:40 27.08.2022
447 Clouds 29 1011 54 10000 4.63 0 16:48 27.08.2022
448 Clouds 30 1009 55 10000 4.63 230 15:52 27.08.2022
449 Clouds 31 1010 48 10000 5.66 210 15:23 27.08.2022
450 Clouds 30 1010 57 10000 2.57 290 12:23 27.08.2022
451 Clouds 29 1010 60 10000 2.57 230 11:24 27.08.2022
452 Clear 27 1010 67 10000 1.54 0 09:42 27.08.2022
453 Clear 23 1009 73 10000 2.57 150 07:31 27.08.2022
454 Clear 24 1009 74 10000 3.09 150 02:33 27.08.2022
455 Clear 26 1009 73 10000 2.06 220 23:55 26.08.2022
456 Clear 26 1010 73 10000 3.09 210 22:31 26.08.2022
457 Clear 28 1008 62 10000 3.6 220 20:39 26.08.2022
458 Clouds 30 1008 51 10000 4.63 230 19:20 26.08.2022
459 Thunderstorm 31 1008 44 10000 5.14 270 16:46 26.08.2022
460 Thunderstorm 32 1008 43 10000 3.6 240 15:27 26.08.2022
461 Thunderstorm 32 1008 43 10000 3.6 240 15:27 26.08.2022
462 Clouds 32 1010 43 10000 2.57 240 13:46 26.08.2022
463 Clear 31 1009 43 10000 2.57 0 12:47 26.08.2022
464 Clear 30 1010 46 10000 2.57 180 11:27 26.08.2022
465 Clear 28 1011 51 10000 2.57 260 10:25 26.08.2022
466 Clear 22 1010 71 10000 1.03 0 07:28 26.08.2022
467 Clear 24 1011 73 10000 1.54 200 01:28 26.08.2022
468 Clear 25 1012 61 10000 2.06 180 23:30 25.08.2022
469 Clear 26 1011 67 10000 2.06 210 21:26 25.08.2022
470 Clear 27 1010 56 10000 3.6 230 20:26 25.08.2022
471 Clear 30 1009 42 10000 3.6 230 18:49 25.08.2022
472 Clear 31 1010 45 10000 4.12 220 17:32 25.08.2022
473 Clouds 31 1010 43 10000 2.57 280 16:50 25.08.2022
474 Clouds 31 1010 43 10000 3.6 190 15:39 25.08.2022
475 Clouds 31 1011 44 10000 4.12 220 14:33 25.08.2022
476 Clear 29 1012 45 10000 1.54 0 11:53 25.08.2022
477 Clear 27 1011 57 10000 2.57 20 10:46 25.08.2022
478 Clear 23 1013 70 10000 2.57 30 08:52 25.08.2022
479 Clear 21 1012 74 10000 1.03 20 05:19 25.08.2022
480 Clear 24 1013 78 10000 2.57 170 00:30 25.08.2022
481 Clear 25 1012 73 10000 2.06 190 23:25 24.08.2022
482 Clear 25 1012 71 10000 2.57 170 22:22 24.08.2022
483 Clear 26 1013 66 10000 2.57 200 21:34 24.08.2022
484 Clear 27 1012 57 10000 3.09 230 20:32 24.08.2022
485 Clouds 29 1011 51 10000 5.14 240 18:46 24.08.2022
486 Clouds 30 1012 47 10000 5.14 260 16:28 24.08.2022
487 Clouds 30 1011 50 10000 4.12 250 15:51 24.08.2022
488 Clouds 30 1011 46 10000 1.54 0 12:55 24.08.2022
489 Clear 28 1012 53 10000 2.57 350 11:22 24.08.2022
490 Clear 24 1012 59 10000 3.6 40 09:20 24.08.2022
491 Clear 21 1012 67 10000 3.09 50 07:43 24.08.2022
492 Clear 24 1011 57 10000 2.06 30 01:43 24.08.2022
493 Clear 25 1011 50 10000 1.03 0 22:59 23.08.2022
494 Clear 26 1011 50 10000 0.51 0 22:29 23.08.2022
495 Clouds 27 1010 47 10000 2.06 280 21:27 23.08.2022
496 Clouds 29 1009 47 10000 4.12 290 19:54 23.08.2022
497 Clouds 30 1008 39 10000 4.12 260 18:30 23.08.2022
498 Clouds 30 1008 43 10000 4.63 290 17:47 23.08.2022
499 Clouds 32 1009 34 10000 5.14 290 16:35 23.08.2022
500 Clouds 32 1009 32 10000 6.17 340 15:20 23.08.2022
501 Clouds 31 1010 40 10000 3.6 20 13:25 23.08.2022
502 Clear 29 1009 54 10000 2.06 360 11:24 23.08.2022
503 Clear 28 1009 57 10000 2.06 10 10:35 23.08.2022
504 Clear 26 1010 67 10000 3.09 70 09:47 23.08.2022
505 Clear 24 1009 69 10000 2.57 40 08:49 23.08.2022
506 Clear 23 1009 72 10000 1.03 0 08:20 23.08.2022
507 Clear 22 1009 78 10000 2.06 120 07:34 23.08.2022
508 Clear 22 1009 82 10000 3.09 120 06:27 23.08.2022
509 Clear 24 1007 75 10000 1.03 0 02:28 23.08.2022
510 Clear 24 1008 81 10000 1.54 180 00:27 23.08.2022
511 Clear 25 1007 74 10000 1.54 290 23:33 22.08.2022
512 Clear 25 1007 79 10000 3.09 200 22:34 22.08.2022
513 Clouds 26 1007 70 10000 2.06 250 21:24 22.08.2022
514 Clouds 28 1006 65 10000 3.09 230 19:47 22.08.2022
515 Clouds 29 1006 66 10000 4.12 230 18:45 22.08.2022
516 Thunderstorm 29 1006 57 4000 5.14 200 16:47 22.08.2022
517 Thunderstorm 29 1007 59 10000 5.66 200 15:39 22.08.2022
518 Thunderstorm 29 1007 59 10000 5.66 200 15:39 22.08.2022
519 Clouds 31 1006 51 10000 5.66 230 13:47 22.08.2022
520 Clear 28 1007 51 10000 2.57 40 10:38 22.08.2022
521 Clear 22 1007 72 10000 2.06 60 07:58 22.08.2022
522 Clear 22 1008 72 10000 1.54 180 03:49 22.08.2022
523 Clear 24 1008 80 10000 2.06 240 00:41 22.08.2022
524 Clear 24 1008 78 10000 1.03 0 00:22 22.08.2022
525 Clouds 26 1008 76 10000 2.57 160 22:20 21.08.2022
526 Clouds 27 1007 69 10000 2.57 220 21:23 21.08.2022
527 Clear 27 1008 68 10000 4.12 270 20:36 21.08.2022
528 Clouds 29 1007 54 10000 5.14 290 19:24 21.08.2022
529 Clouds 31 1008 46 10000 5.66 280 17:24 21.08.2022
530 Clouds 30 1007 47 10000 6.17 270 15:53 21.08.2022
531 Clouds 30 1008 49 10000 6.69 290 15:20 21.08.2022
532 Clouds 32 1008 41 10000 3.09 350 13:52 21.08.2022
533 Clouds 32 1008 42 10000 3.09 0 13:26 21.08.2022
534 Clear 29 1010 52 10000 2.57 350 11:34 21.08.2022
535 Clear 25 1010 70 10000 3.09 40 09:31 21.08.2022
536 Clear 24 1011 74 10000 3.09 50 08:56 21.08.2022
537 Clear 24 1009 74 10000 3.09 50 08:38 21.08.2022
538 Clear 21 1011 88 10000 1.54 40 07:26 21.08.2022
539 Clear 22 1010 79 10000 0.51 0 03:39 21.08.2022
540 Clear 24 1011 77 10000 1.54 210 23:49 20.08.2022
541 Clear 25 1012 78 10000 0.51 0 22:37 20.08.2022
542 Clear 26 1010 73 10000 2.06 200 21:34 20.08.2022
543 Clear 27 1011 65 10000 4.12 260 20:28 20.08.2022
544 Clear 28 1011 65 10000 5.14 280 19:40 20.08.2022
545 Clouds 29 1009 53 10000 6.69 290 18:29 20.08.2022
546 Clouds 30 1010 53 10000 6.17 290 17:40 20.08.2022
547 Clouds 31 1010 44 10000 5.66 290 16:49 20.08.2022
548 Clouds 30 1010 48 10000 3.6 0 15:26 20.08.2022
549 Clouds 28 1011 57 10000 3.6 30 12:52 20.08.2022
550 Clouds 27 1012 61 10000 4.12 340 11:47 20.08.2022
551 Clouds 23 1011 77 10000 2.06 10 09:33 20.08.2022
552 Clear 21 1011 84 10000 2.06 40 08:29 20.08.2022
553 Clear 19 1011 76 10000 1.54 50 05:51 20.08.2022
554 Clear 21 1012 85 10000 2.06 80 00:58 20.08.2022
555 Clear 21 1012 83 10000 2.06 80 00:58 20.08.2022
556 Clear 21 1012 85 10000 1.03 160 00:30 20.08.2022
557 Clouds 22 1010 78 10000 4.12 60 22:53 19.08.2022
558 Clouds 23 1011 76 10000 1.03 220 21:38 19.08.2022
559 Clouds 26 1010 64 10000 4.12 210 19:43 19.08.2022
560 Clouds 27 1009 62 10000 6.69 250 16:47 19.08.2022
561 Clouds 28 1009 56 10000 5.14 240 14:51 19.08.2022
562 Clouds 28 1009 55 10000 6.69 230 12:49 19.08.2022
563 Clouds 27 1009 61 10000 5.14 200 10:44 19.08.2022
564 Clouds 26 1009 64 10000 4.63 240 09:59 19.08.2022
565 Clouds 24 1008 77 10000 2.57 220 05:30 19.08.2022
566 Rain 27 1008 71 10000 5.66 200 00:48 19.08.2022
567 Rain 28 1008 68 10000 6.17 200 00:23 19.08.2022
568 Rain 29 1006 57 10000 5.14 270 23:28 18.08.2022
569 Clouds 29 1007 54 10000 2.57 230 22:37 18.08.2022
570 Rain 29 1007 62 10000 3.6 210 21:53 18.08.2022
571 Clouds 30 1009 57 10000 5.66 180 21:23 18.08.2022
572 Clouds 31 1006 45 10000 8.23 160 19:55 18.08.2022
573 Clouds 31 1006 48 7000 6.17 210 19:25 18.08.2022
574 Clouds 31 1008 46 10000 5.14 230 17:49 18.08.2022
575 Rain 32 1008 55 10000 5.14 240 16:55 18.08.2022
576 Smoke 32 1008 48 5000 9.77 200 14:22 18.08.2022
577 Rain 33 1009 48 10000 8.23 190 13:58 18.08.2022
578 Clouds 34 1008 38 8000 9.77 180 12:46 18.08.2022
579 Rain 34 1009 28 8000 10.29 180 11:23 18.08.2022
580 Clouds 33 1008 39 10000 10.29 170 09:43 18.08.2022
581 Clouds 30 1008 40 10000 6.69 130 08:37 18.08.2022
582 Clouds 27 1009 58 8000 1.54 200 07:18 18.08.2022
583 Clear 25 1010 78 10000 1.54 110 03:23 18.08.2022
584 Clear 27 1011 72 10000 2.57 90 23:18 17.08.2022
585 Clear 28 1011 70 10000 3.09 230 21:39 17.08.2022
586 Clear 31 1010 61 10000 5.14 200 19:59 17.08.2022
587 Clear 33 1009 54 10000 5.14 190 18:58 17.08.2022
588 Clear 34 1010 48 10000 6.17 190 17:28 17.08.2022
589 Clear 36 1011 38 10000 5.14 210 16:21 17.08.2022
590 Clear 35 1011 45 10000 4.12 200 15:18 17.08.2022
591 Clear 33 1012 42 10000 4.63 200 12:52 17.08.2022
592 Clear 32 1011 49 10000 2.57 100 11:36 17.08.2022
593 Clear 32 1011 47 10000 2.57 100 11:36 17.08.2022
594 Clear 27 1013 68 10000 2.06 30 09:31 17.08.2022
595 Clear 23 1011 67 10000 1.03 0 07:55 17.08.2022
596 Clear 24 1012 62 10000 1.03 0 02:24 17.08.2022
597 Clear 26 1013 71 10000 2.06 170 23:49 16.08.2022
598 Clear 27 1012 77 10000 2.06 230 21:59 16.08.2022
599 Clear 28 1010 68 10000 3.09 230 20:51 16.08.2022
600 Clear 29 1011 70 10000 4.63 230 19:50 16.08.2022
601 Clouds 31 1009 61 10000 5.14 220 18:34 16.08.2022
602 Clouds 31 1010 60 10000 5.14 220 17:40 16.08.2022
603 Clouds 33 1010 57 10000 5.14 210 15:46 16.08.2022
604 Clouds 33 1010 56 10000 5.14 180 14:55 16.08.2022
605 Clouds 33 1010 50 10000 4.63 180 14:37 16.08.2022
606 Clear 32 1010 40 10000 4.63 210 12:43 16.08.2022
607 Clear 29 1010 51 10000 1.54 0 10:35 16.08.2022
608 Clear 27 1010 56 10000 1.54 50 09:43 16.08.2022
609 Clear 24 1009 68 10000 3.09 70 08:45 16.08.2022
610 Clouds 23 1009 65 10000 2.06 180 07:33 16.08.2022
611 Thunderstorm 24 1008 74 10000 5.66 220 01:42 16.08.2022
612 Rain 27 1008 61 10000 3.6 200 22:29 15.08.2022
613 Clear 27 1009 58 10000 3.09 190 21:53 15.08.2022
614 Clear 28 1008 50 10000 3.6 200 20:52 15.08.2022
615 Clear 28 1007 52 10000 5.14 200 20:19 15.08.2022
616 Clear 30 1007 54 10000 7.2 200 18:41 15.08.2022
617 Clear 31 1008 50 10000 6.69 220 17:23 15.08.2022
618 Clear 32 1008 47 10000 5.66 200 16:21 15.08.2022
619 Clouds 32 1009 43 10000 6.17 210 13:56 15.08.2022
620 Clouds 30 1009 44 10000 2.57 0 12:37 15.08.2022
621 Clear 27 1008 58 10000 5.14 180 10:18 15.08.2022
622 Clear 25 1009 62 10000 1.03 0 08:42 15.08.2022
623 Clear 21 1008 74 10000 1.03 60 06:27 15.08.2022
624 Clear 22 1009 72 10000 1.54 120 02:40 15.08.2022
625 Clear 24 1009 68 10000 2.06 210 22:40 14.08.2022
626 Clear 25 1008 64 10000 2.06 240 21:39 14.08.2022
627 Clear 27 1008 55 10000 3.09 210 20:24 14.08.2022
628 Clear 28 1008 51 10000 5.14 240 19:32 14.08.2022
629 Clear 30 1007 43 10000 5.14 220 18:20 14.08.2022
630 Clear 31 1008 34 10000 4.63 230 17:22 14.08.2022
631 Clear 31 1009 39 10000 4.12 260 15:51 14.08.2022
632 Clear 32 1009 34 10000 2.06 0 14:38 14.08.2022
633 Clear 31 1010 35 10000 1.03 0 13:50 14.08.2022
634 Clear 30 1010 35 10000 3.09 350 13:24 14.08.2022
635 Clear 29 1010 38 10000 3.6 20 12:34 14.08.2022
636 Clear 27 1010 46 10000 4.12 60 11:20 14.08.2022
637 Clear 22 1011 65 10000 3.6 30 08:56 14.08.2022
638 Clear 19 1010 70 10000 2.06 10 06:23 14.08.2022
639 Clear 19 1010 70 10000 2.06 10 06:23 14.08.2022
640 Clear 19 1010 70 10000 2.06 10 06:23 14.08.2022
641 Clear 20 1011 74 10000 2.57 50 04:21 14.08.2022
642 Clear 22 1011 78 10000 1.03 0 00:42 14.08.2022
643 Clear 24 1011 77 10000 2.06 200 22:56 13.08.2022
644 Clear 24 1010 75 10000 1.54 220 21:55 13.08.2022
645 Clear 25 1010 68 10000 3.6 270 20:49 13.08.2022
646 Clear 27 1010 63 10000 4.63 270 19:46 13.08.2022
647 Clouds 29 1010 54 10000 4.12 250 18:19 13.08.2022
648 Clouds 29 1011 52 10000 2.06 0 15:57 13.08.2022
649 Clouds 28 1011 55 10000 2.57 250 14:41 13.08.2022
650 Clouds 27 1012 60 10000 1.54 0 13:46 13.08.2022
651 Clouds 26 1012 63 10000 1.54 310 13:23 13.08.2022
652 Clouds 20 1012 76 9000 2.06 50 10:44 13.08.2022
653 Rain 19 1013 89 7000 2.68 200 09:22 13.08.2022
654 Clouds 19 1011 78 10000 2.06 80 06:26 13.08.2022
655 Clear 22 1013 72 10000 3.09 200 00:44 13.08.2022
656 Clear 23 1013 69 10000 2.57 140 22:37 12.08.2022
657 Clear 24 1011 66 10000 1.79 120 21:35 12.08.2022
658 Clouds 26 1011 54 10000 3.6 110 19:46 12.08.2022
659 Rain 27 1011 53 10000 5.66 170 19:22 12.08.2022
660 Clouds 28 1011 52 10000 4.63 240 17:59 12.08.2022
661 Clouds 30 1011 52 10000 5.14 200 16:25 12.08.2022
662 Clouds 31 1011 44 10000 4.63 200 14:50 12.08.2022
663 Clouds 31 1011 44 10000 4.12 270 13:26 12.08.2022
664 Clouds 28 1012 54 10000 2.57 10 11:40 12.08.2022
665 Clear 23 1011 71 10000 1.03 0 08:50 12.08.2022
666 Clear 22 1012 71 10000 3.6 80 07:45 12.08.2022
667 Clear 23 1013 70 10000 1.54 110 03:56 12.08.2022
668 Clear 25 1013 67 10000 2.57 120 00:31 12.08.2022
669 Clear 26 1012 66 10000 1.54 120 23:52 11.08.2022
670 Rain 27 1012 61 10000 2.06 160 22:42 11.08.2022
671 Clear 27 1013 63 10000 2.57 200 21:53 11.08.2022
672 Clouds 28 1013 55 10000 3.09 200 21:26 11.08.2022
673 Clouds 29 1011 48 10000 3.09 230 20:30 11.08.2022
674 Clouds 30 1011 46 10000 4.12 280 19:33 11.08.2022
675 Clouds 31 1010 46 10000 2.57 250 18:41 11.08.2022
676 Clouds 31 1011 51 10000 2.57 130 16:46 11.08.2022
677 Clouds 30 1013 55 10000 5.14 150 15:42 11.08.2022
678 Clouds 30 1012 52 10000 3.6 90 14:31 11.08.2022
679 Clouds 29 1013 55 10000 2.06 300 11:53 11.08.2022
680 Clear 24 1015 66 10000 3.6 40 08:48 11.08.2022
681 Clear 22 1013 73 10000 2.06 40 05:44 11.08.2022
682 Clear 23 1014 72 10000 1.54 350 02:26 11.08.2022
683 Clear 25 1015 59 10000 1.54 70 22:59 10.08.2022
684 Clear 26 1014 60 10000 1.54 30 21:46 10.08.2022
685 Clear 27 1015 57 10000 2.57 100 20:56 10.08.2022
686 Clouds 27 1014 56 10000 4.12 80 20:27 10.08.2022
687 Thunderstorm 29 1013 48 8000 3.09 130 18:48 10.08.2022
688 Clouds 32 1014 40 10000 5.14 240 17:27 10.08.2022
689 Clouds 34 1014 33 10000 5.14 260 14:36 10.08.2022
690 Clear 33 1014 34 10000 3.6 290 13:32 10.08.2022
691 Clear 28 1015 51 10000 3.09 30 10:47 10.08.2022
692 Clear 23 1015 70 10000 3.09 50 08:37 10.08.2022
693 Clear 21 1015 74 10000 3.09 50 07:23 10.08.2022
694 Clear 21 1015 77 10000 1.54 20 04:50 10.08.2022
695 Clear 21 1015 77 10000 1.54 20 04:50 10.08.2022
696 Clear 22 1016 72 10000 1.03 80 01:33 10.08.2022
697 Clear 23 1016 72 10000 1.54 300 23:31 09.08.2022
698 Clear 24 1015 70 10000 1.03 30 21:58 09.08.2022
699 Clear 24 1014 66 10000 1.54 70 21:23 09.08.2022
700 Clouds 24 1014 64 10000 1.03 0 19:18 09.08.2022
701 Rain 23 1015 71 10000 3.6 110 17:37 09.08.2022
702 Rain 24 1015 66 10000 3.6 110 17:19 09.08.2022
703 Thunderstorm 25 1015 62 10000 5.66 90 16:23 09.08.2022
704 Thunderstorm 28 1015 54 10000 6.17 30 15:23 09.08.2022
705 Clear 31 1015 50 10000 2.57 40 11:30 09.08.2022
706 Clouds 24 1014 65 10000 3.6 50 08:53 09.08.2022
707 Clear 23 1015 62 10000 1.34 52 07:58 09.08.2022
708 Clear 22 1013 70 10000 3.6 40 05:25 09.08.2022
709 Clear 24 1015 57 10000 2.57 10 00:59 09.08.2022
710 Clear 24 1015 57 10000 2.57 10 00:59 09.08.2022
711 Clear 25 1013 60 10000 4.12 10 23:25 08.08.2022
712 Clear 25 1014 59 10000 3.6 50 22:42 08.08.2022
713 Clear 26 1013 58 10000 4.12 40 21:47 08.08.2022
714 Thunderstorm 26 1013 56 10000 5.14 60 20:43 08.08.2022
715 Clouds 27 1013 56 10000 7.2 40 19:39 08.08.2022
716 Clouds 33 1012 38 6000 6.17 90 18:18 08.08.2022
717 Clouds 34 1010 45 10000 4.63 230 15:54 08.08.2022
718 Clouds 34 1010 44 10000 4.63 230 15:36 08.08.2022
719 Clear 34 1012 43 10000 2.57 10 12:31 08.08.2022
720 Clear 32 1012 46 10000 1.54 10 10:37 08.08.2022
721 Clear 25 1012 61 10000 2.06 50 07:59 08.08.2022
722 Clear 24 1011 62 10000 2.06 20 04:31 08.08.2022
723 Clear 25 1012 60 10000 3.09 60 01:29 08.08.2022
724 Clear 29 1011 49 10000 4.12 130 21:42 07.08.2022
725 Clear 29 1011 49 10000 4.63 140 21:24 07.08.2022
726 Clear 30 1010 46 10000 6.17 90 20:24 07.08.2022
727 Clouds 31 1010 43 10000 6.69 90 19:52 07.08.2022
728 Clouds 32 1010 40 10000 8.23 30 19:22 07.08.2022
729 Clear 34 1009 41 10000 6.17 250 17:45 07.08.2022
730 Clear 34 1008 42 10000 5.14 240 16:52 07.08.2022
731 Clouds 36 1008 34 10000 5.66 220 15:40 07.08.2022
732 Clear 36 1009 38 10000 3.6 0 14:27 07.08.2022
733 Clear 36 1010 39 10000 4.12 200 12:41 07.08.2022
734 Clear 32 1011 47 10000 2.06 350 10:53 07.08.2022
735 Clear 32 1011 49 10000 2.06 350 10:21 07.08.2022
736 Clear 26 1010 69 10000 2.06 190 04:38 07.08.2022
737 Clouds 27 1010 62 10000 0.45 180 02:25 07.08.2022
738 Clear 29 1011 67 10000 3.09 220 22:39 06.08.2022
739 Clear 29 1011 61 10000 3.09 220 22:18 06.08.2022
740 Clouds 32 1010 47 10000 4.63 240 19:46 06.08.2022
741 Clouds 34 1009 35 10000 5.14 300 18:50 06.08.2022
742 Clouds 35 1009 36 10000 5.66 230 17:48 06.08.2022
743 Clouds 36 1010 32 10000 6.69 280 16:29 06.08.2022
744 Clear 36 1010 37 10000 3.09 0 13:51 06.08.2022
745 Clear 35 1011 39 10000 2.57 280 12:38 06.08.2022
746 Clear 33 1011 48 10000 2.06 0 11:21 06.08.2022
747 Clear 29 1011 62 10000 2.06 50 09:41 06.08.2022
748 Clear 25 1011 76 10000 1.54 100 07:28 06.08.2022
749 Clear 27 1012 78 10000 1.03 0 01:59 06.08.2022
750 Clear 28 1012 71 10000 2.06 220 22:37 05.08.2022
751 Clear 29 1012 66 10000 2.06 250 21:34 05.08.2022
752 Clear 32 1012 52 10000 5.14 250 19:20 05.08.2022
753 Clear 33 1011 47 10000 5.66 250 18:44 05.08.2022
754 Clouds 34 1012 41 10000 6.17 250 16:53 05.08.2022
755 Clouds 35 1012 37 10000 5.14 270 15:55 05.08.2022
756 Clouds 35 1013 38 10000 5.36 285 14:54 05.08.2022
757 Clear 35 1012 34 10000 4.63 270 13:39 05.08.2022
758 Clear 35 1013 37 10000 3.09 300 13:19 05.08.2022
759 Clear 33 1014 38 10000 2.57 340 11:58 05.08.2022
760 Clear 30 1014 56 10000 1.03 0 10:24 05.08.2022
761 Clear 25 1013 65 10000 1.03 0 07:58 05.08.2022
762 Clear 25 1014 67 10000 0.51 0 05:20 05.08.2022
763 Clear 28 1014 56 10000 0.51 0 23:49 04.08.2022
764 Clear 29 1013 52 10000 1.03 0 21:37 04.08.2022
765 Clear 29 1013 49 10000 2.06 270 21:18 04.08.2022
766 Clear 31 1013 42 10000 4.12 230 20:38 04.08.2022
767 Clear 33 1013 43 10000 5.14 270 19:21 04.08.2022
768 Clear 33 1012 41 10000 6.69 250 18:34 04.08.2022
769 Clear 34 1012 42 10000 6.69 300 16:54 04.08.2022
770 Clear 35 1013 34 10000 4.12 240 13:34 04.08.2022
771 Clear 33 1015 38 10000 1.54 0 11:46 04.08.2022
772 Clear 31 1014 47 10000 1.54 0 10:27 04.08.2022
773 Clear 25 1013 61 10000 1.54 70 07:50 04.08.2022
774 Clear 25 1013 74 10000 2.57 170 03:33 04.08.2022
775 Clear 26 1014 69 10000 1.54 230 01:58 04.08.2022
776 Clear 28 1013 65 10000 1.54 200 23:42 03.08.2022
777 Clear 29 1013 62 10000 2.06 240 21:39 03.08.2022
778 Clear 31 1013 49 10000 3.09 240 20:22 03.08.2022
779 Clear 33 1011 35 10000 4.12 260 19:28 03.08.2022
780 Clear 34 1013 32 10000 5.66 250 17:41 03.08.2022
781 Clear 34 1013 34 10000 5.66 240 16:24 03.08.2022
782 Clouds 36 1013 30 10000 5.14 210 14:25 03.08.2022
783 Clear 34 1014 33 10000 2.57 270 11:53 03.08.2022
784 Clear 26 1013 56 10000 2.06 60 08:20 03.08.2022
785 Clear 25 1012 57 10000 2.06 60 04:46 03.08.2022
786 Clear 25 1014 57 10000 2.06 50 03:28 03.08.2022
787 Clear 27 1014 66 10000 1.03 80 01:18 03.08.2022
788 Clear 27 1014 66 10000 1.03 80 01:18 03.08.2022
789 Clear 27 1014 66 10000 1.03 80 01:18 03.08.2022
790 Clear 28 1013 60 10000 1.54 240 22:59 02.08.2022
791 Clouds 29 1013 60 10000 1.54 220 21:53 02.08.2022
792 Clouds 29 1013 59 10000 3.09 220 21:21 02.08.2022
793 Clear 33 1011 37 10000 6.17 260 18:52 02.08.2022
794 Clouds 35 1011 33 10000 6.69 250 16:24 02.08.2022
795 Clear 35 1012 31 10000 1.54 0 12:34 02.08.2022
796 Clear 28 1014 56 10000 3.6 50 09:34 02.08.2022
797 Clear 25 1013 65 10000 2.57 50 07:56 02.08.2022
798 Clear 23 1012 66 10000 1.34 21 06:43 02.08.2022
799 Clear 24 1012 71 10000 1.97 14 04:55 02.08.2022
800 Clear 27 1013 67 10000 1.03 0 23:52 01.08.2022
801 Clear 28 1013 65 10000 1.03 220 22:36 01.08.2022
802 Clear 29 1012 63 10000 2.06 250 20:53 01.08.2022
803 Clear 31 1011 50 10000 4.63 240 19:34 01.08.2022
804 Clear 32 1011 45 10000 4.63 250 18:42 01.08.2022
805 Clear 32 1011 45 10000 4.63 250 18:42 01.08.2022
806 Clear 34 1011 31 10000 6.17 230 16:54 01.08.2022
807 Clear 34 1011 30 10000 5.66 220 16:28 01.08.2022
808 Clouds 34 1011 31 10000 5.66 240 15:30 01.08.2022
809 Clear 35 1012 30 10000 4.12 260 14:43 01.08.2022
810 Clear 34 1013 28 10000 2.06 0 12:51 01.08.2022
811 Clear 30 1014 37 10000 3.09 350 10:29 01.08.2022
812 Clear 27 1013 56 10000 1.54 50 08:39 01.08.2022
813 Clear 24 1013 65 10000 2.57 130 06:21 01.08.2022
814 Clear 24 1013 63 10000 1.54 120 04:20 01.08.2022
815 Clear 26 1013 54 10000 1.54 160 00:55 01.08.2022
816 Clear 28 1012 53 10000 1.03 0 22:42 31.07.2022
817 Clear 29 1011 53 10000 3.6 200 21:35 31.07.2022
818 Clear 31 1010 39 10000 4.12 230 19:58 31.07.2022
819 Clear 32 1011 38 10000 5.66 220 18:36 31.07.2022
820 Clouds 33 1011 39 10000 4.12 250 15:54 31.07.2022
821 Clouds 34 1012 31 10000 2.57 260 13:53 31.07.2022
822 Clear 33 1012 39 10000 1.54 0 12:29 31.07.2022
823 Clear 29 1013 56 10000 2.06 0 10:22 31.07.2022
824 Clear 26 1013 67 10000 3.6 40 08:18 31.07.2022
825 Clear 24 1011 69 10000 1.03 100 04:30 31.07.2022
826 Clear 27 1012 67 10000 1.54 230 00:23 31.07.2022
827 Clear 28 1012 66 10000 1.79 264 22:19 30.07.2022
828 Clear 28 1014 69 10000 2.06 260 21:50 30.07.2022
829 Clouds 29 1012 62 10000 3.09 270 21:20 30.07.2022
830 Clouds 31 1010 52 10000 4.12 270 19:59 30.07.2022
831 Clouds 32 1011 50 10000 3.6 290 19:20 30.07.2022
832 Clouds 32 1011 51 10000 5.14 240 17:45 30.07.2022
833 Clouds 33 1011 48 10000 5.66 230 16:21 30.07.2022
834 Clouds 33 1011 47 10000 5.66 200 15:27 30.07.2022
835 Clouds 33 1011 45 10000 4.12 260 13:21 30.07.2022
836 Clouds 31 1012 47 10000 3.09 300 12:20 30.07.2022
837 Clouds 30 1013 64 10000 2.57 130 10:36 30.07.2022
838 Clouds 28 1013 68 10000 1.03 0 09:57 30.07.2022
839 Clouds 24 1012 75 10000 2.57 180 07:55 30.07.2022
840 Rain 23 1012 72 10000 1.03 150 05:29 30.07.2022
841 Clear 25 1012 76 10000 2.06 200 02:31 30.07.2022
842 Clear 27 1014 69 10000 1.54 230 22:57 29.07.2022
843 Clear 28 1013 64 10000 2.57 270 21:30 29.07.2022
844 Clear 28 1014 62 10000 2.57 230 20:50 29.07.2022
845 Clear 30 1012 58 10000 4.12 240 19:29 29.07.2022
846 Clear 33 1012 49 10000 5.14 230 16:43 29.07.2022
847 Clouds 33 1013 47 10000 5.66 230 14:23 29.07.2022
848 Clouds 32 1014 43 10000 2.57 360 12:32 29.07.2022
849 Clear 26 1014 67 10000 1.03 360 08:51 29.07.2022
850 Clear 25 1014 69 10000 1.03 360 08:21 29.07.2022
851 Clear 24 1014 76 10000 2.57 130 03:55 29.07.2022
852 Clear 26 1013 70 10000 2.06 180 23:30 28.07.2022
853 Clouds 27 1012 72 10000 2.57 220 21:31 28.07.2022
854 Clouds 28 1011 68 10000 3.09 230 20:50 28.07.2022
855 Clear 28 1011 65 10000 3.09 240 20:18 28.07.2022
856 Clouds 29 1012 64 10000 4.63 250 19:26 28.07.2022
857 Clear 31 1011 57 10000 5.66 230 17:46 28.07.2022
858 Clear 31 1011 56 10000 5.66 230 17:20 28.07.2022
859 Clouds 31 1011 52 10000 6.17 240 16:40 28.07.2022
860 Clear 34 1012 36 10000 5.14 230 13:56 28.07.2022
861 Clear 32 1010 48 10000 3.09 200 12:33 28.07.2022
862 Clear 24 1010 72 10000 0.51 0 07:33 28.07.2022
863 Clear 23 1009 70 10000 1.54 50 05:37 28.07.2022
864 Clear 24 1009 73 10000 2.57 70 05:19 28.07.2022
865 Clear 26 1010 72 10000 2.06 250 23:19 27.07.2022
866 Clouds 29 1008 56 10000 2.06 320 21:30 27.07.2022
867 Clouds 30 1008 65 10000 3.6 220 19:46 27.07.2022
868 Clouds 30 1008 62 10000 3.09 220 19:19 27.07.2022
869 Clouds 32 1007 57 10000 5.14 220 16:31 27.07.2022
870 Clouds 32 1007 58 10000 6.17 210 15:51 27.07.2022
871 Clouds 33 1009 52 10000 6.69 220 14:41 27.07.2022
872 Clouds 33 1009 50 10000 6.17 230 13:34 27.07.2022
873 Clouds 28 1010 63 10000 2.57 0 09:28 27.07.2022
874 Clear 26 1010 74 10000 2.06 210 07:40 27.07.2022
875 Clear 25 1009 77 10000 2.06 180 03:57 27.07.2022
876 Clear 27 1011 79 10000 2.57 220 22:49 26.07.2022
877 Clear 28 1010 77 10000 3.09 230 21:36 26.07.2022
878 Clear 29 1009 71 10000 3.6 230 20:49 26.07.2022
879 Clear 31 1009 60 10000 5.66 220 18:47 26.07.2022
880 Clear 32 1009 59 10000 6.17 210 18:28 26.07.2022
881 Clear 33 1008 53 10000 5.14 230 17:46 26.07.2022
882 Clear 33 1010 53 10000 6.17 220 15:43 26.07.2022
883 Clear 34 1009 45 10000 4.63 230 14:38 26.07.2022
884 Clear 32 1010 56 10000 3.09 190 11:47 26.07.2022
885 Clear 32 1010 56 10000 3.09 190 11:47 26.07.2022
886 Clear 28 1010 69 10000 2.57 220 09:44 26.07.2022
887 Clouds 26 1010 62 10000 3.09 190 08:18 26.07.2022
888 Clear 27 1012 70 10000 1.54 210 01:44 26.07.2022
889 Clear 27 1013 75 10000 2.06 210 23:44 25.07.2022
890 Clear 28 1011 67 10000 2.06 210 22:33 25.07.2022
891 Clear 29 1011 62 10000 2.57 240 21:43 25.07.2022
892 Clear 31 1011 52 10000 4.12 260 20:42 25.07.2022
893 Clear 33 1012 46 10000 4.12 290 19:51 25.07.2022
894 Clear 34 1011 38 10000 5.14 260 19:20 25.07.2022
895 Clear 35 1011 39 10000 5.66 240 17:34 25.07.2022
896 Clear 35 1012 35 10000 6.17 260 16:40 25.07.2022
897 Clear 34 1013 46 10000 3.13 225 12:47 25.07.2022
898 Clear 31 1013 51 10000 1.54 0 10:42 25.07.2022
899 Clear 24 1015 76 10000 1.03 0 07:29 25.07.2022
900 Clear 26 1015 77 10000 1.54 210 23:57 24.07.2022
901 Clear 27 1015 79 10000 1.54 220 23:22 24.07.2022
902 Clear 27 1016 79 10000 2.06 230 22:41 24.07.2022
903 Clear 28 1014 73 10000 2.57 250 21:30 24.07.2022
904 Clear 29 1013 68 10000 2.57 250 20:57 24.07.2022
905 Clear 30 1013 65 10000 3.09 240 20:32 24.07.2022
906 Clear 32 1013 54 10000 4.12 230 18:59 24.07.2022
907 Clear 33 1014 51 10000 5.14 230 16:53 24.07.2022
908 Clear 35 1016 43 10000 4.12 250 15:53 24.07.2022
909 Clear 35 1015 42 10000 4.12 230 14:41 24.07.2022
910 Clear 35 1015 42 10000 4.12 230 14:41 24.07.2022
911 Clear 35 1016 40 10000 2.57 210 13:43 24.07.2022
912 Clear 33 1016 42 10000 1.79 311 12:19 24.07.2022
913 Clear 32 1017 45 10000 1.79 173 11:28 24.07.2022
914 Clear 28 1017 64 10000 2.06 30 09:33 24.07.2022
915 Clear 24 1016 71 10000 1.03 0 07:53 24.07.2022
916 Clear 23 1017 68 10000 2.06 90 06:54 24.07.2022
917 Clear 24 1017 68 10000 1.03 0 02:41 24.07.2022
918 Clear 27 1017 75 10000 2.06 230 22:37 23.07.2022
919 Clear 30 1015 62 10000 2.57 240 20:47 23.07.2022
920 Clear 33 1014 44 10000 4.12 260 18:55 23.07.2022
921 Clear 34 1015 42 10000 4.63 240 17:58 23.07.2022
922 Clear 35 1015 34 10000 5.66 250 17:24 23.07.2022
923 Clear 36 1016 34 10000 4.63 270 15:55 23.07.2022
924 Clear 36 1016 36 10000 5.14 240 15:21 23.07.2022
925 Clear 36 1016 37 10000 4.63 280 14:50 23.07.2022
926 Clear 35 1017 40 10000 4.12 290 13:54 23.07.2022
927 Clear 34 1017 41 10000 2.06 0 11:48 23.07.2022
928 Clear 31 1016 47 10000 1.54 70 10:36 23.07.2022
929 Clear 29 1017 67 8000 2.06 350 09:28 23.07.2022
930 Clear 24 1017 61 10000 2.06 90 06:40 23.07.2022
931 Clear 25 1016 58 10000 1.03 90 03:37 23.07.2022
932 Clear 28 1017 70 10000 2.06 220 23:59 22.07.2022
933 Clear 30 1016 59 10000 3.09 230 21:28 22.07.2022
934 Clear 31 1015 45 10000 4.12 220 20:29 22.07.2022
935 Clear 34 1015 41 10000 1.34 180 18:41 22.07.2022
936 Clear 35 1014 38 10000 6.69 250 17:38 22.07.2022
937 Clouds 36 1014 36 10000 5.66 270 15:35 22.07.2022
938 Clear 35 1016 37 10000 3.09 0 12:47 22.07.2022
939 Clear 31 1017 61 10000 1.54 0 09:56 22.07.2022
940 Clear 29 1016 68 10000 2.06 50 09:21 22.07.2022
941 Clear 25 1015 72 10000 1.54 30 07:51 22.07.2022
942 Clouds 25 1015 69 10000 1.54 150 04:23 22.07.2022
943 Clear 27 1016 75 10000 3.09 200 23:36 21.07.2022
944 Clear 29 1015 67 10000 3.09 220 21:41 21.07.2022
945 Clear 32 1014 49 10000 5.14 240 19:42 21.07.2022
946 Clear 33 1014 45 10000 5.66 230 18:30 21.07.2022
947 Clear 34 1015 43 10000 6.17 240 17:21 21.07.2022
948 Clear 35 1015 40 10000 5.66 250 16:23 21.07.2022
949 Clear 35 1016 40 10000 6.17 250 14:46 21.07.2022
950 Clear 35 1015 35 10000 2.57 0 13:53 21.07.2022
951 Clear 34 1017 34 10000 2.06 330 11:54 21.07.2022
952 Clear 30 1016 60 10000 2.06 10 09:54 21.07.2022
953 Clear 27 1016 68 10000 2.06 50 08:53 21.07.2022
954 Clear 27 1016 68 10000 2.06 50 08:53 21.07.2022
955 Clear 25 1017 71 10000 1.54 90 07:50 21.07.2022
956 Clear 23 1016 73 10000 1.54 90 06:27 21.07.2022
957 Clear 25 1017 74 10000 1.54 10 02:49 21.07.2022
958 Clear 27 1018 75 10000 1.54 240 22:47 20.07.2022
959 Clear 27 1017 74 10000 2.06 260 22:19 20.07.2022
960 Clear 29 1016 66 10000 3.6 240 20:46 20.07.2022
961 Clear 31 1015 60 10000 4.12 230 19:46 20.07.2022
962 Clear 32 1015 53 10000 4.63 230 18:54 20.07.2022
963 Clear 33 1015 50 10000 4.63 220 18:31 20.07.2022
964 Clear 33 1016 43 10000 4.63 240 17:25 20.07.2022
965 Clear 35 1016 38 10000 5.66 220 15:33 20.07.2022
966 Clear 35 1017 39 10000 5.14 220 14:49 20.07.2022
967 Clear 34 1018 35 10000 2.06 250 12:54 20.07.2022
968 Clear 32 1018 41 10000 0.89 229 10:57 20.07.2022
969 Clear 23 1016 68 10000 1.03 80 06:35 20.07.2022
970 Clear 26 1016 68 10000 1.03 110 01:47 20.07.2022
971 Clear 26 1016 69 10000 0.51 300 00:42 20.07.2022
972 Clear 28 1015 64 10000 2.06 210 22:36 19.07.2022
973 Clear 29 1016 58 10000 2.57 220 22:18 19.07.2022
974 Clear 30 1014 54 10000 2.57 250 20:50 19.07.2022
975 Clear 32 1014 41 10000 4.12 230 19:32 19.07.2022
976 Clear 33 1015 42 10000 4.63 220 18:42 19.07.2022
977 Clear 33 1014 39 10000 4.63 240 17:54 19.07.2022
978 Clear 35 1015 34 10000 6.17 220 15:49 19.07.2022
979 Clear 36 1016 30 10000 5.14 230 13:46 19.07.2022
980 Clear 33 1016 37 10000 2.57 320 11:34 19.07.2022
981 Clear 30 1016 49 10000 2.06 10 09:53 19.07.2022
982 Clear 27 1017 56 10000 2.06 60 08:48 19.07.2022
983 Clear 26 1017 59 10000 2.06 40 07:57 19.07.2022
984 Clear 24 1017 61 10000 2.57 50 07:18 19.07.2022
985 Clear 24 1016 63 10000 2.06 30 05:19 19.07.2022
986 Clear 25 1016 60 10000 1.54 60 03:40 19.07.2022
987 Clear 27 1018 54 10000 1.54 80 23:57 18.07.2022
988 Clear 27 1018 53 10000 2.06 30 23:20 18.07.2022
989 Clear 28 1016 51 10000 3.6 40 22:27 18.07.2022
990 Clouds 29 1016 53 10000 2.24 314 21:26 18.07.2022
991 Clouds 31 1015 42 10000 1.54 310 20:45 18.07.2022
992 Clouds 33 1016 40 10000 3.09 220 18:50 18.07.2022
993 Clouds 35 1016 32 10000 5.66 220 16:45 18.07.2022
994 Clear 36 1016 27 10000 6.17 230 15:34 18.07.2022
995 Clouds 37 1017 28 10000 5.14 230 13:40 18.07.2022
996 Clear 36 1017 32 10000 2.06 0 12:21 18.07.2022
997 Clear 31 1017 43 10000 2.57 50 09:56 18.07.2022
998 Clear 27 1018 51 10000 2.06 60 08:20 18.07.2022
999 Clear 24 1016 57 10000 0.89 16 06:39 18.07.2022
1000 Clear 28 1018 54 10000 1.03 240 23:19 17.07.2022
1001 Clear 28 1017 48 10000 1.03 270 22:32 17.07.2022
1002 Clear 28 1018 50 10000 1.03 260 21:43 17.07.2022
1003 Clear 30 1017 40 10000 2.57 220 20:46 17.07.2022
1004 Clear 31 1016 35 10000 2.57 220 20:18 17.07.2022
1005 Clear 33 1015 31 10000 4.63 260 19:26 17.07.2022
1006 Clear 34 1016 31 10000 4.63 250 18:22 17.07.2022
1007 Clear 34 1016 31 10000 6.17 270 17:37 17.07.2022
1008 Clear 35 1016 33 10000 5.66 270 16:49 17.07.2022
1009 Clear 35 1016 34 10000 5.66 270 16:24 17.07.2022
1010 Clear 36 1017 29 10000 3.58 204 13:58 17.07.2022
1011 Clear 35 1017 27 10000 3.13 230 13:24 17.07.2022
1012 Clear 31 1016 39 10000 2.06 340 10:34 17.07.2022
1013 Clear 26 1018 57 10000 3.09 50 08:38 17.07.2022
1014 Clear 23 1016 64 10000 1.03 0 02:43 17.07.2022
1015 Clear 25 1016 70 10000 0.51 0 00:41 17.07.2022
1016 Clear 26 1017 64 10000 1.03 0 23:18 16.07.2022
1017 Clear 29 1016 47 10000 2.57 290 20:59 16.07.2022
1018 Clear 33 1014 33 10000 4.12 270 18:59 16.07.2022
1019 Clear 33 1014 32 10000 4.63 280 17:53 16.07.2022
1020 Clear 35 1014 33 10000 4.63 260 16:24 16.07.2022
1021 Clear 34 1015 35 10000 2.68 287 13:47 16.07.2022
1022 Clear 31 1015 43 10000 2.06 0 10:35 16.07.2022
1023 Clear 28 1015 56 10000 1.03 0 09:29 16.07.2022
1024 Clear 26 1015 58 10000 1.03 0 08:42 16.07.2022
1025 Clear 24 1014 64 10000 1.54 40 07:41 16.07.2022
1026 Clear 23 1015 69 10000 2.06 100 03:39 16.07.2022
1027 Clear 25 1014 73 10000 0.51 0 01:59 16.07.2022
1028 Clear 26 1014 67 10000 2.06 220 23:21 15.07.2022
1029 Clear 27 1013 62 10000 3.09 210 22:37 15.07.2022
1030 Clear 28 1013 56 10000 2.06 240 21:18 15.07.2022
1031 Clear 30 1012 46 10000 3.6 270 19:51 15.07.2022
1032 Clear 33 1012 36 10000 5.66 230 18:32 15.07.2022
1033 Clear 34 1012 29 10000 5.66 250 17:25 15.07.2022
1034 Clear 34 1013 38 10000 5.14 280 14:45 15.07.2022
1035 Clear 34 1013 38 10000 2.68 241 12:48 15.07.2022
1036 Clear 31 1014 45 10000 2.06 30 10:53 15.07.2022
1037 Clear 25 1014 70 10000 2.57 30 08:42 15.07.2022
1038 Clear 22 1013 75 10000 1.03 80 05:55 15.07.2022
1039 Clear 24 1016 74 10000 0.51 0 00:51 15.07.2022
1040 Clear 25 1017 77 10000 1.03 0 23:35 14.07.2022
1041 Clear 26 1016 71 10000 1.03 260 22:42 14.07.2022
1042 Clear 26 1016 68 10000 2.06 240 21:42 14.07.2022
1043 Clear 27 1016 65 10000 2.06 250 21:24 14.07.2022
1044 Clear 28 1015 60 10000 3.6 220 20:43 14.07.2022
1045 Clear 28 1015 60 10000 3.6 220 20:43 14.07.2022
1046 Clear 28 1015 57 10000 3.6 220 20:19 14.07.2022
1047 Clear 30 1016 51 10000 4.63 240 18:38 14.07.2022
1048 Clear 31 1016 48 10000 5.14 230 16:21 14.07.2022
1049 Clear 32 1017 44 10000 4.12 250 15:26 14.07.2022
1050 Clear 32 1018 41 10000 4.63 210 13:52 14.07.2022
1051 Clear 32 1019 37 10000 4.12 220 12:40 14.07.2022
1052 Clear 31 1018 41 10000 3.09 230 11:41 14.07.2022
1053 Clear 30 1019 40 10000 1.54 0 11:21 14.07.2022
1054 Clear 27 1019 54 10000 1.54 70 09:49 14.07.2022
1055 Clear 27 1019 54 10000 1.54 70 09:49 14.07.2022
1056 Clear 21 1018 68 10000 0.51 0 05:20 14.07.2022
1057 Clear 24 1019 72 10000 2.06 160 01:22 14.07.2022
1058 Clear 24 1020 73 10000 1.54 220 00:52 14.07.2022
1059 Clear 25 1021 58 10000 1.54 240 22:32 13.07.2022
1060 Clear 26 1019 57 10000 2.06 220 21:54 13.07.2022
1061 Clear 27 1019 49 10000 3.6 250 20:45 13.07.2022
1062 Clear 29 1018 40 10000 4.63 240 19:19 13.07.2022
1063 Clear 30 1018 42 10000 5.66 250 17:35 13.07.2022
1064 Clouds 31 1018 41 10000 5.66 240 16:23 13.07.2022
1065 Clouds 31 1019 39 10000 5.14 230 15:24 13.07.2022
1066 Clouds 31 1020 42 10000 2.57 210 12:39 13.07.2022
1067 Clear 29 1020 50 10000 2.57 240 10:45 13.07.2022
1068 Clear 28 1019 54 10000 2.57 190 09:57 13.07.2022
1069 Clear 26 1021 63 10000 3.6 180 09:21 13.07.2022
1070 Clear 21 1018 75 10000 1.03 0 05:52 13.07.2022
1071 Clear 23 1017 72 10000 1.53 6 01:27 13.07.2022
1072 Clear 25 1019 76 10000 0.51 0 23:39 12.07.2022
1073 Clear 26 1018 64 10000 2.57 220 21:55 12.07.2022
1074 Clear 26 1018 61 10000 3.09 230 21:19 12.07.2022
1075 Clear 27 1017 59 10000 4.12 240 20:41 12.07.2022
1076 Clear 29 1017 50 10000 3.6 250 19:25 12.07.2022
1077 Clear 31 1017 47 10000 5.14 270 17:49 12.07.2022
1078 Clear 32 1019 37 10000 5.14 240 15:43 12.07.2022
1079 Clear 32 1018 34 10000 4.63 240 14:23 12.07.2022
1080 Clouds 32 1019 33 10000 3.6 300 12:19 12.07.2022
1081 Clear 30 1018 43 10000 1.54 20 10:51 12.07.2022
1082 Clear 27 1019 61 10000 1.03 0 09:28 12.07.2022
1083 Clear 24 1018 69 10000 2.06 50 08:18 12.07.2022
1084 Clear 21 1018 73 10000 1.03 90 06:24 12.07.2022
1085 Clear 21 1017 70 10000 0.51 0 05:39 12.07.2022
1086 Clear 23 1017 74 10000 1.54 150 01:57 12.07.2022
1087 Clear 23 1017 74 10000 1.54 150 01:57 12.07.2022
1088 Clear 23 1017 74 10000 1.54 150 01:57 12.07.2022
1089 Clear 24 1018 73 10000 2.06 240 22:59 11.07.2022
1090 Clear 25 1017 73 10000 2.06 230 22:29 11.07.2022
1091 Clear 28 1016 55 10000 4.12 230 20:33 11.07.2022
1092 Clear 29 1016 41 10000 3.6 270 19:36 11.07.2022
1093 Clear 30 1015 42 10000 4.63 240 18:32 11.07.2022
1094 Clear 30 1015 40 10000 6.69 260 17:39 11.07.2022
1095 Clouds 31 1015 38 10000 6.17 250 16:18 11.07.2022
1096 Clouds 32 1015 36 10000 4.12 270 14:32 11.07.2022
1097 Clear 30 1016 41 10000 2.06 0 11:40 11.07.2022
1098 Clear 28 1016 47 10000 1.54 0 10:22 11.07.2022
1099 Clear 27 1016 53 10000 1.54 330 09:42 11.07.2022
1100 Clear 24 1016 65 10000 1.54 350 08:33 11.07.2022
1101 Clear 20 1014 70 10000 1.54 160 04:34 11.07.2022
1102 Clear 23 1014 70 10000 1.54 210 00:20 11.07.2022
1103 Clear 24 1014 68 10000 2.06 210 22:56 10.07.2022
1104 Clear 25 1014 63 10000 2.06 240 21:51 10.07.2022
1105 Clear 25 1014 61 10000 3.09 270 20:54 10.07.2022
1106 Clear 26 1014 54 10000 4.63 280 19:50 10.07.2022
1107 Clouds 28 1013 46 10000 6.17 270 18:48 10.07.2022
1108 Clear 29 1013 42 10000 7.2 270 17:37 10.07.2022
1109 Clear 29 1013 39 10000 6.69 270 16:45 10.07.2022
1110 Clear 30 1013 36 10000 7.2 270 15:28 10.07.2022
1111 Clear 31 1013 29 10000 4.12 340 14:21 10.07.2022
1112 Clear 29 1015 33 10000 3.6 360 12:28 10.07.2022
1113 Clear 27 1015 34 10000 3.09 50 10:20 10.07.2022
1114 Clear 23 1015 41 10000 3.09 50 08:45 10.07.2022
1115 Clear 23 1015 41 10000 3.09 50 08:45 10.07.2022
1116 Clear 21 1014 48 10000 3.6 30 07:39 10.07.2022
1117 Clear 21 1015 43 10000 2.06 50 02:47 10.07.2022
1118 Clear 25 1015 32 10000 4.12 40 22:51 09.07.2022
1119 Clear 26 1014 26 10000 4.63 20 22:24 09.07.2022
1120 Clear 28 1014 24 10000 8.23 10 20:50 09.07.2022
1121 Clear 32 1014 20 10000 7.72 360 18:43 09.07.2022
1122 Clear 32 1013 21 10000 6.69 350 17:45 09.07.2022
1123 Clear 33 1014 23 10000 4.63 360 16:44 09.07.2022
1124 Clear 32 1015 23 10000 4.63 10 15:41 09.07.2022
1125 Clear 32 1015 24 10000 4.92 319 14:44 09.07.2022
1126 Clear 31 1017 28 10000 4.12 30 13:51 09.07.2022
1127 Clear 30 1017 31 10000 5.14 360 12:48 09.07.2022
1128 Clear 29 1018 36 10000 7.2 360 11:32 09.07.2022
1129 Clear 27 1017 42 10000 5.14 10 10:23 09.07.2022
1130 Clear 22 1017 53 10000 3.6 50 07:54 09.07.2022
1131 Clear 20 1017 53 10000 3.09 50 05:37 09.07.2022
1132 Clear 21 1018 54 10000 4.12 40 03:29 09.07.2022
1133 Clear 24 1017 44 10000 4.63 30 23:18 08.07.2022
1134 Clear 24 1017 44 10000 4.63 30 23:18 08.07.2022
1135 Clear 25 1017 39 10000 6.17 30 21:59 08.07.2022
1136 Clear 26 1016 34 10000 7.2 40 20:55 08.07.2022
1137 Clear 27 1015 33 10000 8.23 30 20:24 08.07.2022
1138 Clear 30 1014 30 10000 9.77 30 18:32 08.07.2022
1139 Clear 31 1014 27 10000 7.72 40 17:25 08.07.2022
1140 Clear 31 1014 28 10000 8.75 40 14:55 08.07.2022
1141 Clear 31 1013 30 10000 8.75 40 13:56 08.07.2022
1142 Clear 29 1015 35 10000 7.2 30 12:28 08.07.2022
1143 Clear 27 1013 42 10000 6.69 40 10:45 08.07.2022
1144 Clear 22 1013 70 10000 4.63 360 08:51 08.07.2022
1145 Clear 19 1014 86 10000 4.12 50 06:54 08.07.2022
1146 Clouds 18 1013 83 6000 7.72 130 02:53 08.07.2022
1147 Clouds 26 1013 69 10000 2.06 230 23:45 07.07.2022
1148 Clear 25 1014 83 10000 1.54 230 22:40 07.07.2022
1149 Clear 28 1013 71 10000 2.57 230 20:56 07.07.2022
1150 Clouds 29 1012 56 10000 5.66 300 18:37 07.07.2022
1151 Clouds 30 1012 55 10000 5.66 260 17:19 07.07.2022
1152 Clear 33 1012 53 10000 5.66 260 15:22 07.07.2022
1153 Clouds 33 1013 44 10000 4.63 210 13:25 07.07.2022
1154 Clear 33 1014 42 10000 2.06 0 12:39 07.07.2022
1155 Clear 32 1014 44 10000 2.06 0 12:19 07.07.2022
1156 Clear 31 1013 53 10000 2.06 0 11:30 07.07.2022
1157 Clear 30 1014 58 10000 2.57 0 10:43 07.07.2022
1158 Clear 29 1014 60 10000 4.12 180 10:25 07.07.2022
1159 Clear 24 1015 75 10000 1.54 100 07:40 07.07.2022
1160 Clear 23 1013 79 10000 0.51 0 04:18 07.07.2022
1161 Clouds 25 1014 62 10000 0.21 26 23:37 06.07.2022
1162 Clear 26 1014 66 10000 1.54 260 23:18 06.07.2022
1163 Clear 26 1013 73 10000 1.54 260 22:56 06.07.2022
1164 Clear 26 1013 72 10000 1.54 260 22:38 06.07.2022
1165 Clear 28 1013 66 10000 3.09 220 21:27 06.07.2022
1166 Clear 31 1012 51 10000 4.12 210 19:35 06.07.2022
1167 Clear 35 1013 33 10000 5.14 220 17:32 06.07.2022
1168 Clear 35 1013 30 10000 5.14 210 16:19 06.07.2022
1169 Clear 36 1013 28 10000 5.66 260 14:46 06.07.2022
1170 Clear 35 1014 29 10000 2.06 240 12:35 06.07.2022
1171 Clear 33 1013 35 10000 2.57 280 11:48 06.07.2022
1172 Clear 31 1013 40 10000 3.09 60 10:18 06.07.2022
1173 Clear 24 1015 53 10000 2.57 50 07:44 06.07.2022
1174 Clear 23 1014 60 10000 1.54 70 07:23 06.07.2022
1175 Clear 24 1014 59 10000 1.03 230 02:55 06.07.2022
1176 Clear 28 1014 46 10000 3.6 190 22:45 05.07.2022
1177 Clear 28 1014 40 10000 3.09 200 21:36 05.07.2022
1178 Clear 30 1012 38 10000 3.6 240 20:38 05.07.2022
1179 Clear 33 1012 29 10000 3.6 260 19:41 05.07.2022
1180 Clear 34 1012 28 10000 3.6 250 19:21 05.07.2022
1181 Clear 34 1012 26 10000 5.66 240 17:46 05.07.2022
1182 Clear 34 1013 36 10000 5.14 240 16:39 05.07.2022
1183 Clear 35 1013 42 10000 5.66 250 15:24 05.07.2022
1184 Clear 35 1014 30 10000 3.09 0 13:47 05.07.2022
1185 Clear 34 1014 31 10000 2.57 270 12:42 05.07.2022
1186 Clear 32 1013 33 10000 1.54 160 11:24 05.07.2022
1187 Clear 31 1015 40 10000 2.57 220 10:31 05.07.2022
1188 Clear 26 1015 61 10000 1.54 10 08:25 05.07.2022
1189 Clear 24 1014 66 10000 1.03 260 07:31 05.07.2022
1190 Clear 23 1014 69 10000 1.54 220 04:46 05.07.2022
1191 Clear 25 1013 75 10000 1.54 170 02:48 05.07.2022
1192 Clear 27 1013 58 10000 2.06 200 23:42 04.07.2022
1193 Clear 28 1015 54 10000 2.06 250 22:59 04.07.2022
1194 Clear 28 1014 58 10000 2.57 230 22:20 04.07.2022
1195 Clear 31 1014 45 10000 2.57 250 20:59 04.07.2022
1196 Clear 31 1012 40 10000 4.63 250 20:38 04.07.2022
1197 Clear 33 1012 34 10000 4.63 250 20:18 04.07.2022
1198 Clear 34 1012 30 10000 5.14 270 19:43 04.07.2022
1199 Clear 35 1012 32 10000 4.63 240 19:24 04.07.2022
1200 Clear 37 1012 30 10000 6.17 260 17:40 04.07.2022
1201 Clear 37 1013 32 10000 5.66 260 15:42 04.07.2022
1202 Clear 38 1014 33 10000 4.63 290 14:39 04.07.2022
1203 Clear 37 1014 32 10000 3.09 260 13:20 04.07.2022
1204 Clear 34 1014 34 10000 2.06 190 11:43 04.07.2022
1205 Clear 33 1015 43 10000 2.06 220 10:33 04.07.2022
1206 Clear 30 1015 51 10000 1.54 340 09:33 04.07.2022
1207 Clear 24 1014 68 10000 0.51 0 06:42 04.07.2022
1208 Clear 25 1015 75 10000 1.03 220 03:23 04.07.2022
1209 Clear 27 1015 58 10000 1.03 0 23:53 03.07.2022
1210 Clear 28 1014 46 10000 1.03 0 22:48 03.07.2022
1211 Clear 31 1015 45 10000 2.06 210 20:46 03.07.2022
1212 Clear 32 1015 40 10000 2.57 230 20:20 03.07.2022
1213 Clear 33 1014 42 10000 4.12 260 19:25 03.07.2022
1214 Clear 33 1014 41 10000 5.14 260 18:31 03.07.2022
1215 Clear 35 1014 37 10000 5.66 280 17:42 03.07.2022
1216 Clear 37 1014 30 10000 5.14 230 15:28 03.07.2022
1217 Clear 38 1014 28 10000 4.12 250 14:57 03.07.2022
1218 Clear 37 1014 28 10000 2.57 230 13:50 03.07.2022
1219 Clear 36 1015 31 10000 2.57 220 12:51 03.07.2022
1220 Clear 35 1015 32 10000 2.06 0 12:21 03.07.2022
1221 Clear 34 1016 35 10000 2.57 280 10:55 03.07.2022
1222 Clear 33 1016 37 10000 2.57 280 10:36 03.07.2022
1223 Clear 27 1015 52 10000 1.54 30 08:21 03.07.2022
1224 Clear 26 1016 51 10000 1.54 10 07:34 03.07.2022
1225 Clear 26 1016 56 10000 1.03 0 00:41 03.07.2022
1226 Clear 27 1015 53 10000 2.06 240 23:38 02.07.2022
1227 Clear 28 1016 48 10000 2.57 200 22:31 02.07.2022
1228 Clear 32 1015 37 10000 2.57 250 20:31 02.07.2022
1229 Clear 33 1014 32 10000 5.66 250 19:49 02.07.2022
1230 Clear 35 1015 30 10000 5.14 280 18:48 02.07.2022
1231 Clear 36 1014 28 10000 5.14 250 17:40 02.07.2022
1232 Clear 36 1015 29 10000 5.66 230 16:32 02.07.2022
1233 Clear 35 1014 24 10000 2.06 0 13:51 02.07.2022
1234 Clear 33 1015 25 10000 3.09 340 11:51 02.07.2022
1235 Clear 32 1015 30 10000 2.57 50 10:52 02.07.2022
1236 Clear 30 1016 34 10000 2.57 30 10:28 02.07.2022
1237 Clear 24 1015 49 10000 2.06 40 08:39 02.07.2022
1238 Clear 24 1015 50 10000 2.06 30 08:19 02.07.2022
1239 Clear 22 1014 49 10000 1.95 8 05:51 02.07.2022
1240 Clear 24 1014 51 10000 1.03 0 00:34 02.07.2022
1241 Clear 26 1014 45 10000 1.03 0 23:30 01.07.2022
1242 Clear 27 1013 44 10000 1.54 240 22:35 01.07.2022
1243 Clear 27 1015 36 10000 1.03 0 21:38 01.07.2022
1244 Clear 29 1015 32 10000 2.06 280 20:59 01.07.2022
1245 Clear 30 1013 33 10000 2.06 270 20:37 01.07.2022
1246 Clear 31 1012 30 10000 2.57 240 19:40 01.07.2022
1247 Clouds 32 1013 29 10000 4.12 240 17:39 01.07.2022
1248 Clear 33 1013 31 10000 6.69 250 14:59 01.07.2022
1249 Clear 34 1012 30 10000 6.17 210 13:54 01.07.2022
1250 Clear 33 1012 34 10000 6.17 220 11:22 01.07.2022
1251 Clear 30 1011 40 10000 3.09 230 10:19 01.07.2022
1252 Clear 24 1012 52 10000 3.6 80 07:40 01.07.2022
1253 Clear 22 1011 56 10000 1.54 180 02:43 01.07.2022
1254 Clear 24 1011 52 10000 1.03 0 00:22 01.07.2022
1255 Clear 25 1013 48 10000 2.06 230 22:52 30.06.2022
1256 Clear 27 1011 43 10000 2.06 230 22:32 30.06.2022
1257 Clear 28 1012 41 10000 2.06 230 21:55 30.06.2022
1258 Clear 29 1012 31 10000 2.57 250 20:58 30.06.2022
1259 Clear 31 1011 33 10000 4.12 280 20:22 30.06.2022
1260 Clear 32 1010 29 10000 4.63 270 19:51 30.06.2022
1261 Clear 33 1010 26 10000 4.12 280 19:18 30.06.2022
1262 Clear 33 1010 28 10000 4.63 280 18:34 30.06.2022
1263 Clear 33 1010 31 10000 4.63 270 17:37 30.06.2022
1264 Clear 34 1011 35 10000 4.12 260 16:28 30.06.2022
1265 Clear 34 1010 33 10000 2.57 250 14:31 30.06.2022
1266 Clear 34 1011 34 10000 3.09 240 13:29 30.06.2022
1267 Clear 33 1011 34 10000 2.57 0 12:34 30.06.2022
1268 Clear 32 1011 43 10000 1.54 0 11:23 30.06.2022
1269 Clear 29 1011 52 10000 1.54 0 09:53 30.06.2022
1270 Clear 28 1011 55 10000 1.54 350 09:31 30.06.2022
1271 Clear 23 1010 69 10000 3.09 40 07:41 30.06.2022
1272 Clear 22 1011 80 10000 0.51 250 05:47 30.06.2022
1273 Clear 24 1011 75 10000 1.03 0 00:27 30.06.2022
1274 Clear 25 1010 72 10000 2.57 240 23:19 29.06.2022
1275 Clear 26 1010 70 10000 2.57 230 22:38 29.06.2022
1276 Clear 26 1010 66 10000 2.06 210 21:34 29.06.2022
1277 Clear 28 1009 56 10000 3.6 260 20:33 29.06.2022
1278 Clear 30 1010 49 10000 4.63 250 19:36 29.06.2022
1279 Clear 32 1011 48 10000 5.14 250 17:42 29.06.2022
1280 Clear 32 1011 43 10000 5.66 270 16:35 29.06.2022
1281 Clouds 33 1012 43 10000 4.63 320 14:56 29.06.2022
1282 Clouds 31 1012 47 10000 2.06 0 12:39 29.06.2022
1283 Clouds 28 1012 64 10000 2.06 350 10:37 29.06.2022
1284 Clear 26 1013 78 10000 1.54 70 09:32 29.06.2022
1285 Clouds 24 1012 81 10000 1.54 240 07:36 29.06.2022
1286 Clear 23 1012 87 10000 2.06 200 04:50 29.06.2022
1287 Clear 25 1013 83 10000 2.57 210 00:56 29.06.2022
1288 Clear 26 1014 76 10000 2.57 210 00:35 29.06.2022
1289 Clouds 26 1014 81 8000 2.57 250 22:53 28.06.2022
1290 Clouds 26 1014 81 9000 3.09 250 22:23 28.06.2022
1291 Clouds 27 1012 71 9000 4.63 180 21:53 28.06.2022
1292 Clouds 27 1012 76 10000 5.66 230 21:31 28.06.2022
1293 Clouds 28 1013 69 10000 1.79 180 20:27 28.06.2022
1294 Clouds 31 1010 47 10000 5.36 209 19:33 28.06.2022
1295 Clouds 31 1010 47 10000 5.36 209 19:33 28.06.2022
1296 Clouds 32 1009 42 10000 2.68 191 18:45 28.06.2022
1297 Clouds 32 1009 42 10000 2.68 191 18:45 28.06.2022
1298 Clouds 31 1012 51 8000 5.66 140 17:39 28.06.2022
1299 Clouds 32 1014 51 10000 3.6 200 15:57 28.06.2022
1300 Clouds 31 1014 54 8000 5.14 280 15:21 28.06.2022
1301 Rain 37 1012 21 8000 7.72 200 14:20 28.06.2022
1302 Clouds 39 1011 16 10000 6.69 180 13:50 28.06.2022
1303 Clouds 39 1011 14 10000 4.12 170 12:54 28.06.2022
1304 Clear 37 1011 18 10000 5.66 110 11:18 28.06.2022
1305 Clear 34 1012 23 10000 5.66 160 09:28 28.06.2022
1306 Clear 32 1014 28 10000 3.6 170 08:43 28.06.2022
1307 Clear 29 1014 37 10000 0.51 0 07:42 28.06.2022
1308 Clear 25 1013 46 10000 1.03 0 05:58 28.06.2022
1309 Clouds 30 1012 31 10000 0.89 183 00:00 28.06.2022
1310 Clouds 30 1013 35 10000 1.59 72 23:37 27.06.2022
1311 Clear 31 1015 26 10000 4.63 210 22:52 27.06.2022
1312 Clouds 31 1015 30 10000 2.57 200 21:33 27.06.2022
1313 Clear 33 1015 24 8000 3.6 220 20:48 27.06.2022
1314 Clear 34 1014 22 10000 6.17 200 18:58 27.06.2022
1315 Clear 35 1014 20 8000 7.2 200 18:19 27.06.2022
1316 Clear 38 1012 18 10000 8.23 190 16:19 27.06.2022
1317 Clear 40 1012 15 10000 8.23 190 14:44 27.06.2022
1318 Clear 39 1012 17 10000 6.17 170 13:35 27.06.2022
1319 Clear 38 1012 18 10000 6.69 180 12:52 27.06.2022
1320 Clear 34 1013 29 10000 4.63 180 10:23 27.06.2022
1321 Clear 30 1015 36 10000 0.51 0 08:48 27.06.2022
1322 Clear 27 1014 50 10000 1.54 10 08:19 27.06.2022
1323 Clear 25 1012 43 10000 1.03 0 06:38 27.06.2022
1324 Clouds 25 1013 45 10000 1.03 0 02:23 27.06.2022
1325 Clouds 27 1015 44 10000 1.54 120 23:49 26.06.2022
1326 Clear 30 1012 32 10000 2.57 190 21:58 26.06.2022
1327 Clear 32 1012 31 10000 3.6 200 20:43 26.06.2022
1328 Clear 34 1012 24 10000 3.6 190 19:27 26.06.2022
1329 Clear 35 1011 26 10000 5.66 220 18:28 26.06.2022
1330 Clouds 35 1011 29 10000 3.58 171 16:21 26.06.2022
1331 Clear 36 1012 25 10000 4.12 230 14:34 26.06.2022
1332 Clouds 36 1013 28 10000 2.68 318 13:30 26.06.2022
1333 Clouds 36 1013 28 10000 2.68 318 13:30 26.06.2022
1334 Clouds 36 1012 25 10000 2.24 205 12:52 26.06.2022
1335 Clear 34 1013 36 10000 2.06 0 11:21 26.06.2022
1336 Clear 31 1014 42 10000 2.57 20 10:23 26.06.2022
1337 Clear 26 1014 58 10000 1.54 10 08:46 26.06.2022
1338 Clear 23 1014 66 10000 2.06 50 07:23 26.06.2022
1339 Clear 24 1014 64 10000 1.54 110 00:49 26.06.2022
1340 Clear 24 1014 62 10000 1.03 140 00:20 26.06.2022
1341 Clear 25 1013 61 10000 2.06 120 23:33 25.06.2022
1342 Clear 26 1014 55 10000 1.03 0 22:55 25.06.2022
1343 Clear 26 1015 56 10000 1.54 230 22:27 25.06.2022
1344 Clear 27 1013 57 10000 1.54 240 21:37 25.06.2022
1345 Clear 27 1013 51 10000 2.06 260 21:18 25.06.2022
1346 Clear 28 1013 52 10000 3.6 270 20:25 25.06.2022
1347 Clear 30 1013 46 10000 4.63 250 18:45 25.06.2022
1348 Clear 31 1012 38 10000 4.63 240 17:28 25.06.2022
1349 Clear 31 1012 41 10000 4.63 240 16:44 25.06.2022
1350 Clear 32 1013 38 10000 3.6 250 14:59 25.06.2022
1351 Clear 30 1013 45 10000 3.09 220 12:57 25.06.2022
1352 Clouds 29 1015 49 10000 3.09 220 12:37 25.06.2022
1353 Rain 25 1015 69 10000 2.06 220 10:32 25.06.2022
1354 Rain 25 1016 64 10000 3.09 190 08:57 25.06.2022
1355 Clouds 24 1015 74 10000 3.09 170 08:29 25.06.2022
1356 Rain 22 1014 67 10000 1.54 170 06:53 25.06.2022
1357 Clear 23 1014 68 10000 2.57 200 03:26 25.06.2022
1358 Clear 24 1013 58 10000 2.06 210 00:33 25.06.2022
1359 Clear 26 1014 56 10000 1.54 220 22:51 24.06.2022
1360 Clear 27 1013 50 10000 2.06 270 21:31 24.06.2022
1361 Clear 29 1014 44 10000 2.06 240 20:25 24.06.2022
1362 Clear 30 1013 43 10000 2.06 300 19:52 24.06.2022
1363 Clear 30 1013 44 10000 3.6 240 19:19 24.06.2022
1364 Clear 30 1013 44 10000 3.6 240 18:47 24.06.2022
1365 Clear 30 1012 44 10000 5.14 280 18:29 24.06.2022
1366 Clear 31 1012 37 10000 4.12 260 16:57 24.06.2022
1367 Clear 32 1013 41 10000 4.63 230 15:28 24.06.2022
1368 Clear 31 1014 46 10000 4.63 210 14:25 24.06.2022
1369 Clear 31 1013 50 10000 1.79 262 13:53 24.06.2022
1370 Clouds 28 1014 68 10000 3.6 190 11:42 24.06.2022
1371 Mist 27 1014 73 5000 2.06 170 10:43 24.06.2022
1372 Clouds 25 1015 84 6000 2.06 220 09:42 24.06.2022
1373 Rain 25 1014 80 10000 3.09 240 08:58 24.06.2022
1374 Rain 25 1014 73 10000 3.09 240 08:40 24.06.2022
1375 Clear 23 1013 79 10000 2.06 230 06:47 24.06.2022
1376 Clear 22 1013 75 10000 1.03 0 06:27 24.06.2022
1377 Clear 22 1012 79 10000 1.03 220 05:21 24.06.2022
1378 Clear 24 1015 78 10000 2.57 170 00:47 24.06.2022
1379 Clear 25 1015 80 10000 3.09 210 22:43 23.06.2022
1380 Clear 26 1014 76 10000 3.09 240 21:40 23.06.2022
1381 Clear 27 1014 76 10000 4.12 220 20:42 23.06.2022
1382 Clouds 27 1013 68 10000 5.14 220 19:55 23.06.2022
1383 Clouds 29 1014 67 10000 4.63 240 18:43 23.06.2022
1384 Clouds 31 1014 55 10000 5.14 240 17:35 23.06.2022
1385 Clear 32 1013 41 10000 1.54 0 16:32 23.06.2022
1386 Clear 31 1014 43 10000 3.6 50 15:26 23.06.2022
1387 Clear 30 1013 49 10000 5.14 70 14:36 23.06.2022
1388 Rain 28 1015 54 10000 4.63 220 11:49 23.06.2022
1389 Clear 28 1014 53 10000 4.63 220 10:42 23.06.2022
1390 Clear 27 1013 50 10000 2.06 230 09:19 23.06.2022
1391 Clear 22 1013 66 10000 1.54 90 05:37 23.06.2022
1392 Clear 24 1010 43 10000 1.54 250 00:28 23.06.2022
1393 Clear 25 1013 35 10000 2.06 230 23:59 22.06.2022
1394 Clear 26 1013 31 10000 1.03 0 23:18 22.06.2022
1395 Clear 27 1013 38 10000 2.06 260 21:44 22.06.2022
1396 Clear 29 1011 27 10000 2.57 180 20:52 22.06.2022
1397 Clear 30 1011 28 10000 3.6 190 20:19 22.06.2022
1398 Clear 31 1011 25 10000 4.12 180 19:30 22.06.2022
1399 Clear 31 1012 24 10000 5.14 230 17:40 22.06.2022
1400 Clear 32 1012 28 10000 6.17 240 16:41 22.06.2022
1401 Clear 34 1012 23 10000 5.14 200 15:29 22.06.2022
1402 Clear 34 1011 26 10000 5.66 200 14:47 22.06.2022
1403 Clear 33 1012 28 10000 5.14 190 13:47 22.06.2022
1404 Clear 33 1012 30 10000 4.12 200 13:24 22.06.2022
1405 Clear 32 1013 30 10000 4.12 180 11:54 22.06.2022
1406 Clear 31 1013 32 10000 4.12 210 11:29 22.06.2022
1407 Clear 30 1012 40 10000 3.6 230 10:43 22.06.2022
1408 Clear 27 1013 51 10000 1.54 80 09:18 22.06.2022
1409 Clear 21 1011 60 10000 0.76 54 06:55 22.06.2022
1410 Clouds 22 1012 60 10000 0.18 78 02:26 22.06.2022
1411 Clouds 24 1013 56 10000 1.34 169 00:57 22.06.2022
1412 Clear 25 1014 57 10000 2.06 200 22:49 21.06.2022
1413 Clear 27 1014 48 10000 3.09 240 20:47 21.06.2022
1414 Clear 29 1013 42 10000 4.63 240 19:23 21.06.2022
1415 Clear 30 1013 41 10000 6.17 230 17:54 21.06.2022
1416 Clear 31 1013 40 10000 5.66 230 16:38 21.06.2022
1417 Clear 31 1014 29 10000 1.54 0 11:57 21.06.2022
1418 Clear 29 1015 36 10000 1.54 0 10:38 21.06.2022
1419 Clear 26 1015 46 10000 2.06 60 09:24 21.06.2022
1420 Clear 22 1014 55 10000 1.34 87 07:44 21.06.2022
1421 Clouds 20 1015 69 10000 1.59 34 04:57 21.06.2022
1422 Clear 22 1016 70 10000 1.54 140 00:23 21.06.2022
1423 Clear 24 1016 62 10000 1.44 259 22:21 20.06.2022
1424 Clear 24 1016 62 10000 1.44 259 22:21 20.06.2022
1425 Clear 25 1014 58 10000 2.57 220 21:37 20.06.2022
1426 Clear 27 1014 42 10000 3.09 240 20:28 20.06.2022
1427 Clear 29 1013 35 10000 4.12 240 19:35 20.06.2022
1428 Clear 30 1014 30 10000 4.63 240 18:26 20.06.2022
1429 Clear 31 1013 26 10000 5.14 250 17:49 20.06.2022
1430 Clear 31 1014 30 10000 5.66 240 16:26 20.06.2022
1431 Clear 32 1014 31 10000 5.14 240 15:20 20.06.2022
1432 Clear 32 1014 27 10000 2.68 217 12:32 20.06.2022
1433 Clear 29 1015 35 10000 2.06 200 10:21 20.06.2022
1434 Clear 29 1015 35 10000 2.06 200 10:21 20.06.2022
1435 Clear 25 1014 46 10000 2.06 350 08:54 20.06.2022
1436 Clear 22 1013 51 10000 1.54 350 07:51 20.06.2022
1437 Clear 20 1013 54 10000 2.06 10 05:18 20.06.2022
1438 Clear 22 1015 51 10000 1.54 90 01:32 20.06.2022
1439 Clear 22 1015 46 10000 2.57 110 23:57 19.06.2022
1440 Clear 24 1016 42 10000 0.51 0 22:40 19.06.2022
1441 Clear 25 1016 38 10000 1.03 0 21:43 19.06.2022
1442 Clear 27 1015 35 10000 2.06 270 20:55 19.06.2022
1443 Clear 28 1014 30 10000 3.09 270 20:25 19.06.2022
1444 Clear 29 1014 30 10000 4.63 230 19:45 19.06.2022
1445 Clear 30 1014 28 10000 4.63 250 18:33 19.06.2022
1446 Clear 31 1013 26 10000 5.14 240 17:48 19.06.2022
1447 Clear 31 1013 25 10000 5.14 260 17:20 19.06.2022
1448 Clear 31 1014 28 10000 5.14 230 16:34 19.06.2022
1449 Clear 31 1014 26 10000 5.66 220 15:35 19.06.2022
1450 Clear 32 1014 27 10000 4.63 240 14:43 19.06.2022
1451 Clear 31 1014 30 10000 4.12 250 13:54 19.06.2022
1452 Clear 31 1014 32 10000 2.06 0 12:26 19.06.2022
1453 Clear 29 1015 39 10000 2.06 90 10:53 19.06.2022
1454 Clear 27 1015 45 10000 1.03 0 09:34 19.06.2022
1455 Clear 25 1016 51 10000 1.03 0 08:35 19.06.2022
1456 Clear 22 1015 51 10000 0.51 0 07:36 19.06.2022
1457 Clear 21 1014 60 10000 1.03 0 04:33 19.06.2022
1458 Clear 23 1016 59 10000 1.03 0 01:28 19.06.2022
1459 Clear 24 1015 65 10000 1.54 230 00:23 19.06.2022
1460 Clear 25 1014 58 10000 4.63 200 23:35 18.06.2022
1461 Clear 25 1014 62 10000 4.63 200 22:36 18.06.2022
1462 Clouds 27 1013 48 10000 0.45 180 20:55 18.06.2022
1463 Clouds 28 1012 41 10000 0.89 180 20:26 18.06.2022
1464 Clear 30 1014 34 10000 4.63 230 19:25 18.06.2022
1465 Clear 31 1013 33 10000 4.63 230 18:44 18.06.2022
1466 Clear 33 1014 30 10000 5.66 230 17:30 18.06.2022
1467 Clear 33 1014 30 10000 5.66 230 17:30 18.06.2022
1468 Clear 34 1014 25 10000 4.63 220 16:23 18.06.2022
1469 Clouds 33 1015 26 10000 3.6 0 15:18 18.06.2022
1470 Clear 33 1016 25 10000 6.69 20 14:42 18.06.2022
1471 Clear 32 1017 28 10000 5.66 40 12:51 18.06.2022
1472 Clear 31 1017 29 10000 6.17 20 11:31 18.06.2022
1473 Clear 29 1018 34 10000 6.17 30 10:26 18.06.2022
1474 Clear 27 1018 46 10000 3.6 60 09:19 18.06.2022
1475 Clear 24 1017 60 10000 3.6 50 08:18 18.06.2022
1476 Clear 21 1017 71 10000 3.09 60 06:26 18.06.2022
1477 Clear 22 1017 74 10000 1.03 50 03:24 18.06.2022
1478 Clear 22 1018 75 10000 2.06 50 01:24 18.06.2022
1479 Clear 23 1019 73 10000 0.51 0 00:42 18.06.2022
1480 Clear 23 1018 66 10000 1.03 0 23:45 17.06.2022
1481 Clear 24 1019 63 10000 1.54 170 22:55 17.06.2022
1482 Clear 25 1018 68 10000 3.6 120 20:42 17.06.2022
1483 Clear 27 1016 60 10000 3.6 100 19:29 17.06.2022
1484 Rain 27 1016 57 10000 6.17 140 18:25 17.06.2022
1485 Clear 28 1016 54 10000 10.29 100 17:34 17.06.2022
1486 Rain 29 1015 52 10000 4.12 250 16:38 17.06.2022
1487 Rain 30 1015 44 10000 6.17 260 15:42 17.06.2022
1488 Clear 32 1015 40 10000 6.17 240 14:46 17.06.2022
1489 Clear 33 1014 38 10000 5.66 240 14:19 17.06.2022
1490 Clear 33 1015 35 10000 2.68 230 13:42 17.06.2022
1491 Clear 33 1016 32 10000 2.06 0 12:42 17.06.2022
1492 Clear 31 1016 37 10000 1.54 0 11:56 17.06.2022
1493 Clear 31 1016 37 10000 1.54 0 11:35 17.06.2022
1494 Clear 29 1017 44 10000 1.54 10 09:59 17.06.2022
1495 Clear 24 1016 60 10000 2.06 50 08:27 17.06.2022
1496 Clear 21 1015 65 10000 2.06 40 06:57 17.06.2022
1497 Clear 20 1017 66 10000 1.03 0 04:52 17.06.2022
1498 Clear 22 1016 67 10000 0.51 0 02:41 17.06.2022
1499 Clear 24 1016 55 10000 2.06 200 00:33 17.06.2022
1500 Clear 25 1017 48 10000 2.57 230 22:44 16.06.2022
1501 Clear 26 1015 40 10000 2.06 240 21:26 16.06.2022
1502 Clear 27 1017 44 10000 2.57 250 20:59 16.06.2022
1503 Clear 28 1016 41 10000 3.09 220 20:36 16.06.2022
1504 Clear 29 1015 38 10000 3.09 270 19:53 16.06.2022
1505 Clear 31 1014 36 10000 5.66 270 18:27 16.06.2022
1506 Clear 31 1015 37 10000 4.63 300 17:43 16.06.2022
1507 Clear 32 1015 35 10000 5.14 230 16:39 16.06.2022
1508 Clear 33 1015 34 10000 5.14 280 15:24 16.06.2022
1509 Clear 32 1015 35 10000 5.14 290 14:46 16.06.2022
1510 Clear 33 1015 32 10000 5.14 290 13:32 16.06.2022
1511 Clear 33 1016 29 10000 3.09 290 12:36 16.06.2022
1512 Clear 32 1016 29 10000 2.57 340 11:52 16.06.2022
1513 Clear 30 1017 33 10000 1.54 0 10:56 16.06.2022
1514 Clear 29 1017 39 10000 1.54 30 10:27 16.06.2022
1515 Clear 27 1016 48 10000 2.06 340 09:22 16.06.2022
1516 Clear 25 1016 56 10000 1.54 330 08:36 16.06.2022
1517 Clear 22 1016 61 10000 2.06 70 07:28 16.06.2022
1518 Clouds 22 1017 66 10000 2.5 10 05:29 16.06.2022
1519 Rain 23 1017 65 10000 1.03 0 02:50 16.06.2022
1520 Clear 23 1017 61 10000 2.06 60 01:50 16.06.2022
1521 Clear 23 1018 60 10000 1.54 300 01:21 16.06.2022
1522 Clouds 24 1018 61 10000 2.42 6 23:47 15.06.2022
1523 Clear 25 1018 54 10000 4.12 80 22:42 15.06.2022
1524 Clear 25 1019 62 10000 2.57 80 21:23 15.06.2022
1525 Clear 26 1018 62 10000 1.03 0 20:56 15.06.2022
1526 Clouds 25 1018 62 9000 1.54 330 20:35 15.06.2022
1527 Clouds 27 1016 57 9000 4.63 260 19:30 15.06.2022
1528 Clear 29 1015 48 10000 5.14 220 17:58 15.06.2022
1529 Clear 30 1016 42 10000 5.14 220 17:33 15.06.2022
1530 Clear 31 1016 35 10000 4.63 240 15:46 15.06.2022
1531 Clear 32 1017 36 10000 5.14 240 14:26 15.06.2022
1532 Clear 32 1017 37 10000 3.09 250 12:54 15.06.2022
1533 Clear 32 1017 38 10000 3.09 250 12:32 15.06.2022
1534 Clear 29 1017 47 10000 1.54 0 10:27 15.06.2022
1535 Clear 28 1017 46 10000 1.03 0 09:53 15.06.2022
1536 Clear 25 1016 60 10000 1.54 50 08:50 15.06.2022
1537 Clear 21 1016 63 10000 0.51 0 06:42 15.06.2022
1538 Clear 20 1016 76 10000 0.51 0 04:47 15.06.2022
1539 Clear 22 1016 73 10000 1.54 230 01:55 15.06.2022
1540 Clear 22 1017 74 10000 1.03 200 00:54 15.06.2022
1541 Clear 23 1016 66 10000 1.54 230 23:55 14.06.2022
1542 Clear 23 1016 66 10000 1.54 230 23:37 14.06.2022
1543 Clear 23 1017 72 10000 1.54 250 22:28 14.06.2022
1544 Clouds 24 1016 67 10000 1.54 250 21:40 14.06.2022
1545 Clouds 25 1014 59 10000 2.57 230 20:57 14.06.2022
1546 Clouds 26 1014 58 10000 2.57 230 20:32 14.06.2022
1547 Clear 28 1014 52 10000 5.14 240 19:22 14.06.2022
1548 Clear 29 1014 47 10000 6.17 210 18:25 14.06.2022
1549 Clear 30 1013 43 10000 4.63 230 16:48 14.06.2022
1550 Clouds 31 1014 38 10000 4.63 260 15:50 14.06.2022
1551 Clear 32 1015 41 10000 5.14 240 15:28 14.06.2022
1552 Clear 32 1014 37 10000 4.63 260 14:40 14.06.2022
1553 Clear 32 1014 34 10000 3.09 210 13:46 14.06.2022
1554 Clear 31 1015 34 10000 2.57 0 12:48 14.06.2022
1555 Clear 30 1015 35 10000 2.06 0 11:41 14.06.2022
1556 Clear 29 1015 39 10000 1.54 30 10:49 14.06.2022
1557 Clear 28 1015 41 10000 1.54 30 10:22 14.06.2022
1558 Clear 24 1014 55 10000 0.51 0 08:49 14.06.2022
1559 Clear 22 1014 57 10000 1.54 340 07:49 14.06.2022
1560 Clear 20 1014 66 10000 2.06 130 05:46 14.06.2022
1561 Clear 20 1014 66 10000 1.51 21 03:20 14.06.2022
1562 Clear 22 1014 56 10000 1.03 190 00:54 14.06.2022
1563 Clear 22 1014 60 10000 0.51 0 23:41 13.06.2022
1564 Clear 24 1015 56 10000 1.54 250 22:26 13.06.2022
1565 Clear 24 1013 53 10000 1.54 250 21:52 13.06.2022
1566 Clear 26 1014 47 10000 3.09 200 20:42 13.06.2022
1567 Clear 28 1013 41 10000 4.12 230 19:35 13.06.2022
1568 Clear 30 1012 36 10000 4.12 240 18:28 13.06.2022
1569 Clear 30 1013 36 10000 4.63 230 17:47 13.06.2022
1570 Clear 31 1012 35 10000 5.14 240 16:53 13.06.2022
1571 Clear 31 1013 32 10000 5.14 250 15:40 13.06.2022
1572 Clear 32 1014 30 10000 4.12 240 14:47 13.06.2022
1573 Clear 32 1013 29 10000 3.6 270 13:55 13.06.2022
1574 Clear 31 1015 30 10000 2.06 0 12:49 13.06.2022
1575 Clear 29 1015 36 10000 2.06 150 11:37 13.06.2022
1576 Clear 27 1015 38 10000 1.54 350 10:27 13.06.2022
1577 Clear 26 1015 40 10000 2.06 360 09:42 13.06.2022
1578 Clear 23 1014 48 10000 2.57 70 08:24 13.06.2022
1579 Clear 20 1016 56 10000 2.06 70 06:33 13.06.2022
1580 Clear 21 1015 53 10000 2.06 70 03:28 13.06.2022
1581 Clear 23 1014 45 10000 2.57 30 01:38 13.06.2022
1582 Clear 23 1016 36 10000 1.54 30 00:48 13.06.2022
1583 Clear 25 1014 35 10000 2.57 50 23:31 12.06.2022
1584 Clear 26 1016 38 10000 0.51 0 22:23 12.06.2022
1585 Clear 26 1016 38 10000 1.54 270 21:39 12.06.2022
1586 Clear 29 1013 25 10000 5.14 350 20:39 12.06.2022
1587 Clear 30 1014 33 10000 6.17 360 19:41 12.06.2022
1588 Clear 31 1013 29 10000 5.66 360 18:43 12.06.2022
1589 Clear 32 1014 27 10000 6.17 200 16:42 12.06.2022
1590 Clouds 33 1015 27 10000 4.12 350 15:30 12.06.2022
1591 Clear 32 1014 29 10000 4.63 10 14:32 12.06.2022
1592 Clear 32 1015 29 10000 4.12 30 13:55 12.06.2022
1593 Clear 31 1016 33 10000 2.24 46 12:58 12.06.2022
1594 Clear 29 1017 36 10000 3.6 20 11:48 12.06.2022
1595 Clear 28 1017 39 10000 4.63 10 10:45 12.06.2022
1596 Clear 26 1017 48 10000 1.79 71 09:28 12.06.2022
1597 Clear 25 1016 46 10000 3.09 40 08:49 12.06.2022
1598 Clear 22 1017 51 10000 2.57 40 07:40 12.06.2022
1599 Clear 20 1016 61 10000 2.06 50 05:39 12.06.2022
1600 Clear 21 1016 55 10000 2.06 30 03:38 12.06.2022
1601 Clear 23 1017 52 10000 3.6 60 01:43 12.06.2022
1602 Clear 24 1016 48 10000 3.6 40 00:59 12.06.2022
1603 Clear 24 1016 47 10000 3.09 30 00:28 12.06.2022
1604 Clear 25 1016 45 10000 3.6 40 23:53 11.06.2022
1605 Clear 25 1016 38 10000 2.57 30 22:49 11.06.2022
1606 Clear 26 1016 42 10000 2.57 40 22:28 11.06.2022
1607 Clear 28 1013 35 10000 5.66 360 20:55 11.06.2022
1608 Clear 29 1013 34 10000 6.17 360 20:24 11.06.2022
1609 Clear 30 1015 33 10000 6.17 10 19:32 11.06.2022
1610 Clear 30 1014 35 10000 4.63 270 18:36 11.06.2022
1611 Clear 30 1015 40 10000 5.14 260 17:52 11.06.2022
1612 Clear 31 1013 35 10000 5.66 250 17:29 11.06.2022
1613 Clouds 30 1015 40 10000 5.66 270 16:59 11.06.2022
1614 Clouds 31 1014 35 10000 5.66 270 16:38 11.06.2022
1615 Clear 32 1013 31 10000 5.14 260 15:45 11.06.2022
1616 Clear 32 1013 31 10000 5.14 260 15:45 11.06.2022
1617 Clouds 31 1014 32 10000 2.57 0 13:54 11.06.2022
1618 Clear 31 1014 33 10000 3.09 360 13:25 11.06.2022
1619 Clear 29 1016 41 10000 4.63 360 11:18 11.06.2022
1620 Clear 27 1015 46 10000 4.12 20 10:22 11.06.2022
1621 Clear 26 1015 49 10000 3.6 20 09:38 11.06.2022
1622 Clear 21 1014 60 10000 2.57 50 07:52 11.06.2022
1623 Clear 19 1014 68 10000 2.57 30 06:31 11.06.2022
1624 Clear 20 1013 64 10000 3.09 40 05:21 11.06.2022
1625 Clear 21 1014 61 10000 3.09 60 01:53 11.06.2022
1626 Clear 21 1014 61 10000 3.09 60 01:53 11.06.2022
1627 Clear 21 1014 61 10000 3.09 60 01:34 11.06.2022
1628 Clear 22 1013 59 10000 4.63 20 00:22 11.06.2022
1629 Clear 23 1013 55 10000 5.14 20 22:35 10.06.2022
1630 Clear 23 1013 54 10000 6.17 20 21:54 10.06.2022
1631 Clear 25 1011 49 10000 6.69 360 20:43 10.06.2022
1632 Clear 26 1011 48 10000 7.72 20 20:23 10.06.2022
1633 Clear 27 1011 45 10000 6.17 30 19:48 10.06.2022
1634 Clear 28 1010 41 10000 6.69 30 19:18 10.06.2022
1635 Clear 28 1010 40 10000 8.23 20 18:19 10.06.2022
1636 Clouds 28 1009 41 10000 6.69 50 17:36 10.06.2022
1637 Clouds 29 1009 38 10000 7.72 30 16:56 10.06.2022
1638 Clear 28 1009 43 10000 7.72 20 15:48 10.06.2022
1639 Clear 28 1009 43 10000 8.75 10 15:19 10.06.2022
1640 Clear 27 1009 43 10000 8.23 30 13:44 10.06.2022
1641 Clear 26 1009 46 10000 8.75 20 12:28 10.06.2022
1642 Clear 25 1009 48 10000 7.72 30 11:40 10.06.2022
1643 Clear 24 1008 51 10000 7.2 10 10:40 10.06.2022
1644 Clear 23 1008 53 10000 7.2 10 09:43 10.06.2022
1645 Clear 21 1007 62 10000 6.17 350 08:23 10.06.2022
1646 Clouds 19 1006 66 10000 4.12 30 06:52 10.06.2022
1647 Clouds 19 1006 66 10000 4.12 30 06:32 10.06.2022
1648 Clear 19 1005 68 10000 5.14 40 05:45 10.06.2022
1649 Clear 18 1005 72 10000 3.6 30 03:41 10.06.2022
1650 Clear 18 1005 72 10000 6.69 30 01:38 10.06.2022
1651 Clear 18 1007 73 10000 5.66 10 00:25 10.06.2022
1652 Clear 19 1005 69 10000 4.63 360 23:25 09.06.2022
1653 Clear 20 1006 69 10000 2.68 42 21:47 09.06.2022
1654 Clouds 20 1005 68 10000 2.06 30 21:29 09.06.2022
1655 Clear 21 1004 72 10000 2.57 40 20:47 09.06.2022
1656 Clouds 22 1003 69 10000 3.09 40 19:54 09.06.2022
1657 Clouds 21 1004 75 10000 2.57 350 18:47 09.06.2022
1658 Rain 20 1003 78 10000 4.63 60 17:56 09.06.2022
1659 Clouds 19 1004 87 8000 3.6 120 16:44 09.06.2022
1660 Thunderstorm 20 1005 83 7000 4.12 340 15:44 09.06.2022
1661 Rain 22 1004 68 10000 2.57 50 14:34 09.06.2022
1662 Rain 24 1003 59 10000 2.06 330 13:46 09.06.2022
1663 Thunderstorm 24 1003 60 10000 2.24 34 13:26 09.06.2022
1664 Clouds 25 1003 60 10000 2.57 290 11:53 09.06.2022
1665 Clouds 24 1005 65 10000 3.6 210 10:40 09.06.2022
1666 Clouds 24 1004 67 10000 3.6 210 09:41 09.06.2022
1667 Clouds 23 1003 67 10000 2.57 240 09:23 09.06.2022
1668 Clouds 22 1004 73 10000 3.09 210 07:34 09.06.2022
1669 Clouds 22 1005 79 10000 3.6 170 05:27 09.06.2022
1670 Clouds 22 1006 70 10000 3.6 210 01:44 09.06.2022
1671 Rain 23 1007 75 10000 2.57 200 23:34 08.06.2022
1672 Clear 23 1008 70 10000 2.57 200 22:51 08.06.2022
1673 Clouds 23 1008 73 10000 2.57 220 22:26 08.06.2022
1674 Clouds 24 1007 67 10000 3.09 230 21:49 08.06.2022
1675 Clear 25 1007 60 10000 2.57 240 20:43 08.06.2022
1676 Clear 26 1007 53 10000 3.6 260 19:49 08.06.2022
1677 Clouds 27 1008 50 10000 3.6 290 18:58 08.06.2022
1678 Clear 27 1008 48 10000 3.6 240 18:40 08.06.2022
1679 Clear 29 1008 44 10000 5.14 260 16:34 08.06.2022
1680 Clouds 30 1007 41 10000 5.66 260 14:54 08.06.2022
1681 Clear 30 1008 39 10000 4.12 300 13:36 08.06.2022
1682 Clear 29 1009 40 10000 2.06 0 11:50 08.06.2022
1683 Clear 28 1009 40 10000 1.54 0 11:24 08.06.2022
1684 Clear 26 1009 59 10000 2.06 360 09:47 08.06.2022
1685 Clear 25 1009 64 10000 2.06 360 09:20 08.06.2022
1686 Clear 21 1008 76 10000 0.51 0 07:32 08.06.2022
1687 Clouds 20 1009 80 10000 1.54 80 05:20 08.06.2022
1688 Clear 21 1009 74 10000 1.54 200 02:38 08.06.2022
1689 Clear 23 1009 76 10000 2.06 200 23:42 07.06.2022
1690 Clear 23 1009 76 10000 3.09 230 23:24 07.06.2022
1691 Clear 22 1011 82 10000 2.06 230 22:39 07.06.2022
1692 Clear 24 1009 75 10000 3.09 220 21:52 07.06.2022
1693 Clear 24 1009 69 10000 3.09 220 21:27 07.06.2022
1694 Clear 26 1009 57 10000 4.12 230 20:46 07.06.2022
1695 Clear 27 1009 52 10000 3.6 230 20:23 07.06.2022
1696 Clear 29 1008 38 10000 4.12 250 18:51 07.06.2022
1697 Clear 31 1008 35 10000 5.14 260 17:55 07.06.2022
1698 Clear 32 1009 33 10000 3.13 254 16:56 07.06.2022
1699 Clear 32 1009 30 10000 4.63 240 16:33 07.06.2022
1700 Clear 32 1010 32 10000 5.14 280 15:40 07.06.2022
1701 Clear 32 1010 32 10000 5.14 270 15:22 07.06.2022
1702 Clear 32 1010 30 10000 5.14 270 14:46 07.06.2022
1703 Clear 32 1010 25 10000 3.6 310 13:46 07.06.2022
1704 Clear 32 1010 25 10000 3.6 310 13:46 07.06.2022
1705 Clear 32 1010 25 10000 4.12 270 13:27 07.06.2022
1706 Clear 32 1011 28 10000 2.57 0 12:22 07.06.2022
1707 Clear 30 1011 33 10000 1.79 207 10:57 07.06.2022
1708 Clear 28 1011 49 10000 1.54 10 09:58 07.06.2022
1709 Clear 24 1012 60 10000 2.06 40 08:32 07.06.2022
1710 Clear 21 1012 70 10000 1.54 40 07:21 07.06.2022
1711 Clear 20 1011 74 10000 1.03 0 05:47 07.06.2022
1712 Clear 22 1012 75 10000 1.54 200 02:28 07.06.2022
1713 Clear 23 1013 68 10000 2.06 220 00:33 07.06.2022
1714 Clear 24 1013 65 10000 2.06 210 23:32 06.06.2022
1715 Clear 25 1013 61 10000 2.57 190 22:37 06.06.2022
1716 Clear 26 1013 60 10000 2.57 200 21:36 06.06.2022
1717 Clear 29 1012 46 10000 5.14 280 19:53 06.06.2022
1718 Clear 30 1012 44 10000 6.17 280 19:19 06.06.2022
1719 Clear 31 1012 38 10000 5.66 290 18:34 06.06.2022
1720 Clear 33 1012 29 10000 5.66 290 17:36 06.06.2022
1721 Clear 33 1013 25 10000 6.69 300 16:33 06.06.2022
1722 Clear 34 1013 29 10000 5.66 290 15:39 06.06.2022
1723 Clear 34 1013 27 10000 5.14 330 14:39 06.06.2022
1724 Clear 34 1014 26 10000 3.6 360 13:27 06.06.2022
1725 Clear 33 1014 30 10000 3.09 350 12:37 06.06.2022
1726 Clear 32 1013 32 10000 2.57 350 11:58 06.06.2022
1727 Clear 32 1014 32 10000 2.24 6 11:28 06.06.2022
1728 Clear 28 1013 42 10000 3.6 40 09:40 06.06.2022
1729 Clear 25 1014 50 10000 2.06 30 08:35 06.06.2022
1730 Clear 22 1013 54 10000 2.57 50 07:37 06.06.2022
1731 Clear 21 1013 59 10000 1.03 40 05:29 06.06.2022
1732 Clear 21 1013 59 10000 1.03 40 05:29 06.06.2022
1733 Clear 23 1014 59 10000 2.06 160 03:46 06.06.2022
1734 Clear 24 1015 60 10000 1.03 0 01:29 06.06.2022
1735 Clear 24 1016 60 10000 1.54 170 00:42 06.06.2022
1736 Clear 25 1017 55 10000 4.12 280 23:49 05.06.2022
1737 Clear 26 1016 50 10000 4.63 300 22:52 05.06.2022
1738 Clouds 27 1015 52 10000 1.26 286 20:59 05.06.2022
1739 Clouds 30 1013 34 10000 3.09 320 19:50 05.06.2022
1740 Clear 30 1014 33 10000 4.63 130 18:30 05.06.2022
1741 Clear 30 1015 33 10000 2.57 340 17:55 05.06.2022
1742 Clear 31 1016 33 10000 4.63 310 17:27 05.06.2022
1743 Clear 31 1017 33 10000 4.63 270 16:57 05.06.2022
1744 Clear 31 1017 32 10000 4.63 270 16:37 05.06.2022
1745 Clear 31 1017 32 10000 4.63 270 16:37 05.06.2022
1746 Clear 33 1017 31 10000 5.14 240 14:34 05.06.2022
1747 Clear 34 1016 29 10000 3.13 240 12:59 05.06.2022
1748 Clouds 32 1016 27 10000 3.09 110 11:49 05.06.2022
1749 Clear 26 1019 48 10000 3.6 60 10:42 05.06.2022
1750 Clouds 29 1019 34 10000 3.6 30 10:22 05.06.2022
1751 Clouds 23 1017 53 10000 3.6 110 08:40 05.06.2022
1752 Clouds 23 1017 56 10000 2.68 123 08:20 05.06.2022
1753 Clear 22 1015 49 10000 1.03 0 05:23 05.06.2022
1754 Clear 23 1015 46 10000 1.34 45 04:30 05.06.2022
1755 Clear 24 1017 46 10000 2.06 100 01:33 05.06.2022
1756 Clear 24 1018 47 10000 0.51 0 00:52 05.06.2022
1757 Clear 26 1017 41 10000 0.51 0 22:43 04.06.2022
1758 Clear 29 1016 34 10000 2.57 270 20:42 04.06.2022
1759 Clear 32 1015 28 10000 3.09 230 18:53 04.06.2022
1760 Clear 34 1017 28 10000 3.6 200 16:47 04.06.2022
1761 Clear 34 1017 29 10000 3.6 190 16:19 04.06.2022
1762 Clear 31 1019 30 10000 3.6 320 14:54 04.06.2022
1763 Clear 33 1019 31 10000 4.12 280 13:37 04.06.2022
1764 Clear 31 1017 33 10000 2.06 290 11:23 04.06.2022
1765 Clear 31 1017 35 10000 1.03 0 10:50 04.06.2022
1766 Clear 29 1017 42 10000 2.57 60 09:45 04.06.2022
1767 Clear 26 1017 53 10000 1.03 0 08:44 04.06.2022
1768 Clear 24 1018 56 10000 1.03 0 07:51 04.06.2022
1769 Clear 22 1018 69 10000 1.54 40 05:38 04.06.2022
1770 Clear 23 1017 61 10000 0.51 0 02:36 04.06.2022
1771 Clouds 24 1017 54 10000 0.65 86 00:20 04.06.2022
1772 Clear 26 1017 37 10000 1.54 260 22:41 03.06.2022
1773 Clear 28 1016 43 10000 2.57 110 21:39 03.06.2022
1774 Clear 29 1017 39 10000 1.03 350 20:38 03.06.2022
1775 Clear 31 1017 33 10000 1.54 270 18:54 03.06.2022
1776 Clear 32 1018 34 10000 5.66 250 16:54 03.06.2022
1777 Clear 33 1017 33 10000 5.66 240 15:40 03.06.2022
1778 Clear 32 1016 42 10000 6.69 230 13:49 03.06.2022
1779 Clear 33 1016 39 10000 4.12 230 11:51 03.06.2022
1780 Clear 29 1018 45 10000 2.06 50 09:53 03.06.2022
1781 Clear 27 1018 50 10000 1.03 0 09:28 03.06.2022
1782 Clear 21 1016 68 10000 1.03 0 07:27 03.06.2022
1783 Clear 20 1016 71 10000 1.54 20 06:45 03.06.2022
1784 Clear 20 1016 70 10000 1.54 80 06:27 03.06.2022
1785 Clear 22 1017 63 10000 1.03 170 02:24 03.06.2022
1786 Clear 23 1016 62 10000 1.54 80 23:34 02.06.2022
1787 Clear 24 1017 66 10000 2.06 320 21:57 02.06.2022
1788 Clear 27 1016 57 10000 2.57 240 20:26 02.06.2022
1789 Clear 28 1017 49 10000 3.09 250 19:53 02.06.2022
1790 Clear 27 1017 48 10000 4.63 240 19:35 02.06.2022
1791 Clear 29 1015 47 10000 5.14 240 18:34 02.06.2022
1792 Clear 32 1015 43 10000 4.63 220 16:28 02.06.2022
1793 Clear 33 1015 36 10000 4.63 250 15:30 02.06.2022
1794 Clear 34 1016 26 10000 2.57 0 13:30 02.06.2022
1795 Clear 33 1016 31 10000 2.06 240 12:46 02.06.2022
1796 Clear 29 1016 49 10000 3.6 50 10:32 02.06.2022
1797 Clear 26 1016 60 10000 2.06 30 09:29 02.06.2022
1798 Clear 23 1016 68 10000 1.03 0 08:30 02.06.2022
1799 Clear 21 1016 72 10000 1.54 70 07:58 02.06.2022
1800 Clear 19 1015 78 10000 1.34 87 06:20 02.06.2022
1801 Rain 19 1015 76 10000 0.51 70 03:49 02.06.2022
1802 Clear 21 1015 73 10000 0.51 0 00:31 02.06.2022
1803 Clear 22 1015 71 10000 1.54 240 22:57 01.06.2022
1804 Clear 23 1015 71 10000 1.54 250 21:45 01.06.2022
1805 Clear 24 1015 69 10000 3.09 280 21:22 01.06.2022
1806 Clear 24 1015 69 10000 3.09 280 21:22 01.06.2022
1807 Clear 25 1016 67 10000 2.57 270 20:38 01.06.2022
1808 Clear 27 1014 56 10000 4.12 230 19:49 01.06.2022
1809 Clear 28 1014 51 10000 4.63 270 18:24 01.06.2022
1810 Clear 30 1014 47 10000 5.14 270 16:48 01.06.2022
1811 Clear 30 1013 45 10000 3.6 230 15:42 01.06.2022
1812 Clear 30 1014 44 10000 4.12 280 14:35 01.06.2022
1813 Clear 30 1015 42 10000 2.06 0 12:46 01.06.2022
1814 Clear 27 1015 52 10000 1.54 10 10:42 01.06.2022
1815 Clear 23 1015 69 10000 3.09 70 09:27 01.06.2022
1816 Clear 20 1014 75 10000 2.06 50 07:57 01.06.2022
1817 Clouds 19 1015 74 10000 1.54 90 06:49 01.06.2022
1818 Clear 20 1014 76 10000 1.03 110 03:22 01.06.2022
1819 Clouds 21 1013 78 10000 1.54 230 23:47 31.05.2022
1820 Clear 22 1013 73 10000 1.54 250 22:38 31.05.2022
1821 Clear 22 1014 78 10000 2.06 240 22:18 31.05.2022
1822 Clear 23 1012 72 10000 2.57 240 21:22 31.05.2022
1823 Clouds 24 1013 73 10000 4.12 230 20:41 31.05.2022
1824 Clear 26 1011 53 10000 5.14 230 19:22 31.05.2022
1825 Clear 28 1012 53 10000 5.14 230 18:19 31.05.2022
1826 Clear 28 1012 49 10000 5.66 230 17:37 31.05.2022
1827 Clear 30 1011 43 10000 6.17 210 15:42 31.05.2022
1828 Clear 30 1011 41 10000 6.69 190 15:21 31.05.2022
1829 Clear 29 1012 36 10000 7.72 190 12:39 31.05.2022
1830 Clear 29 1012 36 10000 7.72 180 12:18 31.05.2022
1831 Clear 26 1011 49 10000 4.12 140 09:53 31.05.2022
1832 Clear 21 1011 67 10000 2.57 350 07:42 31.05.2022
1833 Clear 20 1011 64 10000 4.63 150 05:38 31.05.2022
1834 Clear 20 1011 70 10000 2.57 80 03:41 31.05.2022
1835 Clear 22 1012 70 10000 2.68 175 23:39 30.05.2022
1836 Clear 22 1011 66 10000 4.63 160 23:18 30.05.2022
1837 Clear 23 1010 65 10000 5.14 170 22:32 30.05.2022
1838 Clear 23 1011 75 10000 5.66 190 21:37 30.05.2022
1839 Clear 24 1010 63 10000 5.14 190 20:41 30.05.2022
1840 Clear 25 1010 53 10000 5.66 190 19:38 30.05.2022
1841 Clear 28 1009 37 10000 6.17 190 17:44 30.05.2022
1842 Clear 29 1008 36 10000 5.66 190 17:19 30.05.2022
1843 Clear 29 1008 32 10000 5.66 180 15:44 30.05.2022
1844 Clouds 28 1008 44 10000 5.66 210 13:21 30.05.2022
1845 Clouds 26 1009 49 10000 5.66 170 11:30 30.05.2022
1846 Clouds 23 1008 67 10000 6.17 170 09:41 30.05.2022
1847 Clouds 20 1007 73 10000 4.63 180 07:29 30.05.2022
1848 Clouds 19 1008 73 10000 2.66 134 05:54 30.05.2022
1849 Clouds 20 1007 79 10000 2.45 130 03:22 30.05.2022
1850 Clear 20 1007 82 10000 3.09 190 23:58 29.05.2022
1851 Clear 21 1005 75 10000 4.12 190 22:40 29.05.2022
1852 Clear 22 1006 75 10000 3.09 210 21:44 29.05.2022
1853 Clouds 23 1004 62 10000 4.12 220 20:18 29.05.2022
1854 Clouds 25 1002 54 10000 4.63 230 19:28 29.05.2022
1855 Clouds 26 1002 53 10000 5.66 220 17:56 29.05.2022
1856 Clouds 26 1002 55 10000 6.17 230 16:20 29.05.2022
1857 Clouds 27 1001 55 10000 6.17 240 15:41 29.05.2022
1858 Clear 27 1002 55 10000 5.14 210 14:49 29.05.2022
1859 Clouds 26 1003 58 10000 4.63 260 12:21 29.05.2022
1860 Clouds 25 1002 58 10000 2.57 180 10:56 29.05.2022
1861 Clear 24 1002 57 10000 1.03 0 09:54 29.05.2022
1862 Clouds 20 1002 65 10000 2.57 80 07:55 29.05.2022
1863 Clouds 20 1004 66 10000 1.52 11 04:58 29.05.2022
1864 Clouds 20 1003 64 10000 0.45 54 04:32 29.05.2022
1865 Clear 21 1004 59 10000 4.63 220 00:53 29.05.2022
1866 Clear 22 1004 58 10000 1.03 0 23:47 28.05.2022
1867 Clear 22 1004 49 10000 3.09 350 23:19 28.05.2022
1868 Clear 24 1004 50 10000 4.12 30 21:52 28.05.2022
1869 Thunderstorm 23 1005 57 10000 2.57 20 20:46 28.05.2022
1870 Thunderstorm 24 1004 53 10000 1.54 340 19:19 28.05.2022
1871 Thunderstorm 25 1004 46 10000 2.06 260 18:23 28.05.2022
1872 Rain 26 1005 48 10000 2.57 270 17:32 28.05.2022
1873 Rain 28 1004 47 10000 5.14 220 15:49 28.05.2022
1874 Rain 29 1004 48 10000 4.12 270 15:20 28.05.2022
1875 Clear 32 1004 38 10000 4.12 290 13:29 28.05.2022
1876 Clear 31 1006 34 10000 2.68 275 12:42 28.05.2022
1877 Clear 31 1005 40 10000 1.03 0 11:37 28.05.2022
1878 Clouds 29 1005 40 10000 2.57 10 10:38 28.05.2022
1879 Clear 28 1005 46 10000 2.57 30 09:54 28.05.2022
1880 Clear 24 1005 54 10000 2.06 60 08:21 28.05.2022
1881 Clouds 21 1007 65 10000 1.54 280 06:34 28.05.2022
1882 Clouds 22 1008 64 10000 3.6 70 04:46 28.05.2022
1883 Clear 23 1008 61 10000 1.54 50 02:18 28.05.2022
1884 Clouds 24 1010 52 10000 4.63 40 23:55 27.05.2022
1885 Clouds 25 1011 49 10000 5.14 40 22:38 27.05.2022
1886 Clouds 26 1010 51 10000 5.66 40 21:22 27.05.2022
1887 Clouds 27 1012 51 6000 6.69 30 20:43 27.05.2022
1888 Clouds 28 1011 48 6000 6.69 30 20:19 27.05.2022
1889 Clouds 28 1011 51 10000 3.6 320 19:37 27.05.2022
1890 Clouds 28 1011 48 10000 3.6 320 19:19 27.05.2022
1891 Clouds 28 1011 48 10000 3.6 320 19:19 27.05.2022
1892 Clear 33 1010 33 10000 3.09 210 16:53 27.05.2022
1893 Clear 33 1011 34 10000 3.6 210 15:55 27.05.2022
1894 Clear 33 1012 32 10000 4.63 210 14:47 27.05.2022
1895 Clear 34 1012 25 10000 4.12 130 13:40 27.05.2022
1896 Clear 33 1013 30 10000 2.24 348 11:55 27.05.2022
1897 Clear 33 1013 33 10000 1.79 1 11:30 27.05.2022
1898 Clear 30 1014 38 10000 1.54 80 10:38 27.05.2022
1899 Clear 29 1014 42 10000 1.03 0 09:58 27.05.2022
1900 Clear 27 1014 49 10000 1.03 0 09:28 27.05.2022
1901 Clear 24 1013 53 10000 4.12 70 07:30 27.05.2022
1902 Clear 23 1014 58 10000 2.06 310 03:38 27.05.2022
1903 Clear 24 1016 58 10000 1.79 54 01:27 27.05.2022
1904 Clear 24 1017 58 10000 2.57 170 23:23 26.05.2022
1905 Clear 24 1017 58 10000 2.57 170 23:23 26.05.2022
1906 Clear 25 1016 55 10000 2.06 260 21:57 26.05.2022
1907 Clear 26 1016 52 10000 2.06 310 21:27 26.05.2022
1908 Clear 29 1016 41 10000 3.6 120 19:34 26.05.2022
1909 Clear 30 1015 38 10000 3.09 270 18:45 26.05.2022
1910 Clouds 31 1015 33 10000 4.63 290 17:36 26.05.2022
1911 Clouds 33 1016 30 10000 3.6 200 16:18 26.05.2022
1912 Clear 33 1015 27 10000 2.57 210 15:24 26.05.2022
1913 Clear 32 1016 27 10000 4.12 210 13:58 26.05.2022
1914 Clear 30 1016 34 10000 4.63 200 11:59 26.05.2022
1915 Clear 28 1017 38 10000 2.24 138 11:18 26.05.2022
1916 Clear 25 1016 39 10000 1.03 0 09:38 26.05.2022
1917 Clear 22 1016 52 10000 2.06 10 08:39 26.05.2022
1918 Clear 22 1016 52 10000 2.06 10 08:39 26.05.2022
1919 Clear 20 1014 56 10000 3.09 30 05:30 26.05.2022
1920 Clear 20 1016 57 10000 2.06 90 02:20 26.05.2022
1921 Clear 22 1018 49 10000 1.03 0 23:50 25.05.2022
1922 Clear 22 1014 52 10000 1.38 277 22:52 25.05.2022
1923 Clear 23 1014 48 10000 2.06 180 21:41 25.05.2022
1924 Clear 24 1014 45 10000 2.06 240 20:49 25.05.2022
1925 Clear 27 1011 33 10000 3.09 180 19:32 25.05.2022
1926 Clouds 28 1012 32 10000 5.66 200 18:47 25.05.2022
1927 Rain 29 1012 25 10000 5.14 200 16:58 25.05.2022
1928 Clouds 29 1013 25 10000 4.12 210 16:27 25.05.2022
1929 Clouds 29 1012 28 10000 6.17 210 15:36 25.05.2022
1930 Clouds 29 1012 31 10000 2.57 170 14:50 25.05.2022
1931 Clouds 28 1012 32 10000 5.66 160 14:31 25.05.2022
1932 Rain 29 1011 24 10000 7.2 200 13:23 25.05.2022
1933 Clouds 30 1011 24 10000 3.58 156 11:49 25.05.2022
1934 Clear 28 1011 32 10000 6.17 180 10:24 25.05.2022
1935 Clear 26 1010 39 10000 5.66 190 09:29 25.05.2022
1936 Clouds 21 1009 61 10000 0.89 19 07:36 25.05.2022
1937 Clear 18 1009 67 10000 1.03 360 05:41 25.05.2022
1938 Clouds 20 1009 70 10000 1.6 76 02:41 25.05.2022
1939 Clear 21 1010 71 10000 5.66 220 23:48 24.05.2022
1940 Clear 21 1009 73 10000 6.17 190 22:59 24.05.2022
1941 Clouds 22 1008 70 10000 6.17 220 21:57 24.05.2022
1942 Clouds 22 1008 69 10000 6.17 220 21:37 24.05.2022
1943 Clouds 23 1008 68 10000 5.14 160 21:18 24.05.2022
1944 Clear 25 1007 57 10000 8.23 200 19:23 24.05.2022
1945 Clear 27 1008 53 10000 8.23 200 18:29 24.05.2022
1946 Clear 28 1007 39 10000 7.72 180 16:39 24.05.2022
1947 Clear 29 1007 33 10000 8.75 200 15:45 24.05.2022
1948 Clear 29 1008 29 10000 7.72 210 14:38 24.05.2022
1949 Clear 29 1008 25 10000 8.23 190 13:46 24.05.2022
1950 Clear 29 1008 25 10000 7.72 190 12:19 24.05.2022
1951 Clear 26 1008 29 10000 5.66 180 09:52 24.05.2022
1952 Clear 23 1007 40 10000 5.66 160 08:51 24.05.2022
1953 Clear 22 1008 45 10000 2.57 170 07:56 24.05.2022
1954 Clear 18 1007 61 10000 2.57 10 06:39 24.05.2022
1955 Clear 17 1008 65 10000 1.54 160 03:38 24.05.2022
1956 Clear 18 1009 61 10000 1.54 100 01:46 24.05.2022
1957 Clear 19 1010 64 10000 1.03 0 00:30 24.05.2022
1958 Clear 21 1010 52 10000 3.6 210 22:24 23.05.2022
1959 Clear 21 1010 59 10000 4.12 210 21:50 23.05.2022
1960 Clear 24 1008 36 10000 3.09 220 20:46 23.05.2022
1961 Clear 25 1010 37 10000 4.12 210 19:55 23.05.2022
1962 Clear 26 1008 32 10000 4.63 230 19:24 23.05.2022
1963 Clear 28 1008 31 10000 5.14 220 18:41 23.05.2022
1964 Clear 28 1008 30 10000 5.14 210 17:56 23.05.2022
1965 Clear 29 1009 35 10000 4.63 250 16:29 23.05.2022
1966 Clear 28 1009 39 10000 3.09 0 14:18 23.05.2022
1967 Clear 26 1010 48 10000 3.09 240 11:53 23.05.2022
1968 Clear 25 1011 55 10000 1.03 0 10:49 23.05.2022
1969 Clear 22 1011 68 10000 2.06 360 09:48 23.05.2022
1970 Clear 20 1010 66 10000 0.51 0 08:47 23.05.2022
1971 Clear 18 1010 69 10000 0.51 0 07:37 23.05.2022
1972 Clear 18 1010 73 10000 1.03 220 06:41 23.05.2022
1973 Clear 17 1013 74 10000 1.54 190 03:51 23.05.2022
1974 Clear 18 1012 71 10000 1.54 160 02:18 23.05.2022
1975 Clear 19 1012 71 10000 1.03 0 01:32 23.05.2022
1976 Clear 20 1012 80 10000 2.06 220 23:18 22.05.2022
1977 Clear 20 1012 79 10000 1.54 240 22:27 22.05.2022
1978 Clear 21 1013 80 10000 2.57 220 21:52 22.05.2022
1979 Clear 22 1012 68 10000 2.57 250 20:46 22.05.2022
1980 Clear 23 1011 63 10000 3.09 250 20:23 22.05.2022
1981 Clear 23 1011 62 10000 3.6 220 19:39 22.05.2022
1982 Clear 24 1011 59 10000 3.6 240 18:52 22.05.2022
1983 Clear 25 1012 57 10000 4.63 230 18:21 22.05.2022
1984 Clear 26 1011 56 10000 4.12 240 17:26 22.05.2022
1985 Clear 27 1012 56 10000 4.63 240 15:57 22.05.2022
1986 Clear 28 1013 53 10000 4.63 230 14:48 22.05.2022
1987 Clear 28 1013 45 10000 4.12 260 13:22 22.05.2022
1988 Clear 28 1014 44 10000 2.57 280 12:48 22.05.2022
1989 Clear 26 1014 48 10000 1.54 0 11:29 22.05.2022
1990 Clear 22 1015 74 10000 1.54 330 09:40 22.05.2022
1991 Clear 19 1014 78 10000 1.54 50 07:54 22.05.2022
1992 Clear 18 1014 79 10000 1.54 60 07:21 22.05.2022
1993 Clouds 18 1016 85 10000 1.03 330 04:59 22.05.2022
1994 Clouds 19 1016 80 10000 1.03 220 01:21 22.05.2022
1995 Clouds 19 1017 81 10000 1.54 230 00:39 22.05.2022
1996 Clear 19 1018 77 10000 2.57 210 23:50 21.05.2022
1997 Clear 20 1016 77 10000 2.06 220 22:24 21.05.2022
1998 Clear 21 1016 76 10000 2.57 210 21:41 21.05.2022
1999 Clear 22 1017 72 10000 3.09 210 20:48 21.05.2022
2000 Clear 23 1017 64 10000 3.09 210 20:21 21.05.2022
2001 Clear 24 1017 56 10000 3.6 240 19:25 21.05.2022
2002 Clear 26 1017 45 10000 4.12 220 17:47 21.05.2022
2003 Clear 28 1018 39 10000 4.12 240 15:44 21.05.2022
2004 Clear 28 1019 37 10000 5.14 290 14:37 21.05.2022
2005 Clear 28 1020 35 10000 3.09 300 13:41 21.05.2022
2006 Clear 28 1020 34 10000 3.09 320 12:41 21.05.2022
2007 Clear 27 1020 34 10000 2.06 310 11:56 21.05.2022
2008 Clear 23 1021 48 10000 1.54 320 10:22 21.05.2022
2009 Clear 23 1021 45 10000 1.03 0 09:38 21.05.2022
2010 Clear 20 1021 55 10000 1.54 20 08:52 21.05.2022
2011 Clear 16 1022 65 10000 1.86 13 06:28 21.05.2022
2012 Clear 17 1023 67 10000 1.03 0 02:26 21.05.2022
2013 Clear 19 1024 62 10000 2.06 210 23:47 20.05.2022
2014 Clear 20 1025 60 10000 2.06 220 22:42 20.05.2022
2015 Clear 20 1025 60 10000 2.06 220 22:42 20.05.2022
2016 Clear 20 1025 59 10000 1.54 220 22:23 20.05.2022
2017 Clear 21 1024 56 10000 2.06 230 21:40 20.05.2022
2018 Clear 21 1025 52 10000 2.57 260 20:54 20.05.2022
2019 Clear 23 1024 42 10000 4.63 270 19:57 20.05.2022
2020 Clear 25 1024 38 10000 4.63 260 19:24 20.05.2022
2021 Clear 26 1024 35 10000 5.66 270 18:28 20.05.2022
2022 Clear 27 1025 32 10000 5.66 270 16:51 20.05.2022
2023 Clear 28 1024 34 10000 6.17 280 15:57 20.05.2022
2024 Clear 28 1025 35 10000 6.17 280 15:39 20.05.2022
2025 Clear 28 1025 34 10000 6.17 300 14:29 20.05.2022
2026 Clear 28 1026 34 10000 5.14 280 13:44 20.05.2022
2027 Clear 26 1027 38 10000 3.09 10 11:22 20.05.2022
2028 Clear 23 1027 57 10000 3.6 50 09:51 20.05.2022
2029 Clear 20 1027 64 10000 3.6 60 08:41 20.05.2022
2030 Clear 16 1026 67 10000 2.57 70 06:46 20.05.2022
2031 Clear 15 1027 71 10000 2.57 60 06:21 20.05.2022
2032 Clear 16 1026 73 10000 1.03 0 03:53 20.05.2022
2033 Clear 19 1026 68 10000 2.06 210 23:54 19.05.2022
2034 Clear 20 1025 73 10000 2.06 210 22:44 19.05.2022
2035 Clear 20 1026 73 10000 3.09 200 21:53 19.05.2022
2036 Clear 21 1026 67 10000 2.57 230 21:24 19.05.2022
2037 Clear 21 1026 68 10000 2.57 230 20:58 19.05.2022
2038 Clear 22 1025 56 10000 3.09 230 20:21 19.05.2022
2039 Clear 24 1024 49 10000 3.6 250 19:34 19.05.2022
2040 Clear 26 1023 42 10000 5.14 260 17:52 19.05.2022
2041 Clear 27 1022 43 10000 5.66 280 16:22 19.05.2022
2042 Clear 28 1022 35 10000 4.63 310 14:50 19.05.2022
2043 Clear 28 1022 31 10000 2.57 340 14:21 19.05.2022
2044 Clear 26 1025 38 10000 3.09 0 12:23 19.05.2022
2045 Clear 24 1025 42 10000 2.06 360 10:40 19.05.2022
2046 Clear 22 1022 47 10000 3.6 30 08:57 19.05.2022
2047 Clear 19 1022 54 10000 3.09 60 07:41 19.05.2022
2048 Clear 17 1022 58 10000 1.54 300 04:44 19.05.2022
2049 Clear 19 1020 59 10000 4.12 60 01:57 19.05.2022
2050 Clear 20 1019 62 10000 2.06 70 23:49 18.05.2022
2051 Clear 21 1019 57 10000 2.06 130 22:46 18.05.2022
2052 Clear 22 1020 50 10000 1.03 0 21:47 18.05.2022
2053 Clear 23 1020 51 10000 1.54 220 21:25 18.05.2022
2054 Clear 24 1019 48 10000 3.09 230 20:24 18.05.2022
2055 Clouds 26 1018 38 10000 4.12 230 19:37 18.05.2022
2056 Clear 26 1018 39 10000 3.6 230 18:21 18.05.2022
2057 Clear 26 1018 44 10000 4.12 240 17:41 18.05.2022
2058 Clear 26 1018 44 10000 3.6 230 17:23 18.05.2022
2059 Clouds 28 1018 44 10000 4.63 230 15:59 18.05.2022
2060 Clouds 28 1017 40 10000 4.63 230 15:39 18.05.2022
2061 Clouds 30 1016 37 10000 5.66 260 14:34 18.05.2022
2062 Clear 31 1017 32 10000 3.58 261 13:20 18.05.2022
2063 Clear 30 1017 34 10000 2.57 0 12:39 18.05.2022
2064 Clear 29 1017 38 10000 2.57 60 11:34 18.05.2022
2065 Clear 27 1017 47 10000 2.06 60 10:52 18.05.2022
2066 Clear 21 1017 62 10000 1.54 320 08:53 18.05.2022
2067 Clear 18 1016 68 10000 1.54 40 07:29 18.05.2022
2068 Clear 17 1015 68 10000 0.51 0 05:21 18.05.2022
2069 Clear 19 1016 71 10000 1.03 0 00:52 18.05.2022
2070 Clear 19 1016 63 10000 1.54 200 00:20 18.05.2022
2071 Clear 22 1017 50 10000 2.06 230 21:36 17.05.2022
2072 Clear 23 1017 49 10000 2.06 210 21:18 17.05.2022
2073 Clear 25 1015 40 10000 4.63 270 19:49 17.05.2022
2074 Clear 27 1015 36 10000 4.63 270 19:26 17.05.2022
2075 Clear 28 1014 31 10000 5.66 290 17:50 17.05.2022
2076 Clear 29 1015 32 10000 6.17 280 16:58 17.05.2022
2077 Clear 29 1015 32 10000 5.14 290 16:29 17.05.2022
2078 Clear 29 1016 34 10000 4.63 280 15:24 17.05.2022
2079 Clear 29 1017 34 10000 3.09 20 14:30 17.05.2022
2080 Clear 29 1017 34 10000 3.09 20 14:30 17.05.2022
2081 Clear 29 1017 34 10000 3.09 20 14:30 17.05.2022
2082 Clear 29 1017 34 10000 3.09 20 14:30 17.05.2022
2083 Clear 29 1017 32 10000 3.09 350 13:32 17.05.2022
2084 Clear 26 1019 44 10000 2.06 10 11:21 17.05.2022
2085 Clear 21 1018 59 10000 2.57 30 09:23 17.05.2022
2086 Clear 18 1018 68 10000 1.34 59 07:59 17.05.2022
2087 Clear 16 1017 71 10000 1.54 30 06:45 17.05.2022
2088 Clear 17 1019 75 10000 1.03 0 02:55 17.05.2022
2089 Clear 18 1018 70 10000 1.03 0 00:32 17.05.2022
2090 Clear 19 1019 63 10000 1.54 220 22:42 16.05.2022
2091 Clear 21 1019 54 10000 1.54 230 21:36 16.05.2022
2092 Clear 22 1018 51 10000 2.57 220 20:46 16.05.2022
2093 Clear 24 1017 41 10000 5.14 280 19:22 16.05.2022
2094 Clear 26 1018 39 10000 3.6 250 18:18 16.05.2022
2095 Clear 28 1017 37 10000 5.66 280 15:49 16.05.2022
2096 Clear 28 1019 39 10000 2.68 274 13:49 16.05.2022
2097 Clear 28 1019 40 10000 3.13 240 13:20 16.05.2022
2098 Clear 24 1019 53 10000 1.54 0 10:53 16.05.2022
2099 Clear 21 1020 65 10000 2.06 30 09:23 16.05.2022
2100 Clear 16 1018 79 10000 1.03 90 06:34 16.05.2022
2101 Clear 17 1019 78 10000 1.54 170 02:39 16.05.2022
2102 Clear 19 1019 74 10000 2.06 220 23:26 15.05.2022
2103 Clear 19 1019 66 10000 2.06 230 22:29 15.05.2022
2104 Clear 19 1019 71 10000 2.06 250 21:39 15.05.2022
2105 Clear 21 1018 53 10000 2.06 270 20:54 15.05.2022
2106 Clear 24 1017 42 10000 3.6 250 19:28 15.05.2022
2107 Clear 25 1016 44 10000 5.14 260 17:51 15.05.2022
2108 Clear 26 1017 47 10000 3.6 270 15:56 15.05.2022
2109 Clear 26 1018 48 10000 3.6 250 13:50 15.05.2022
2110 Clear 25 1018 51 10000 2.57 230 12:23 15.05.2022
2111 Clear 25 1018 51 10000 2.06 0 11:38 15.05.2022
2112 Clear 23 1018 58 10000 1.03 0 10:25 15.05.2022
2113 Clear 18 1018 71 10000 1.54 190 08:32 15.05.2022
2114 Clear 15 1017 72 10000 2.57 170 06:58 15.05.2022
2115 Clear 14 1017 77 10000 2.06 170 05:33 15.05.2022
2116 Clear 17 1018 75 10000 2.57 180 00:49 15.05.2022
2117 Clear 17 1020 73 10000 2.57 210 23:38 14.05.2022
2118 Clear 18 1018 67 10000 3.09 210 22:45 14.05.2022
2119 Clear 20 1018 59 10000 2.06 230 21:28 14.05.2022
2120 Clear 21 1019 49 10000 2.06 230 20:44 14.05.2022
2121 Clear 23 1017 38 10000 3.6 230 19:37 14.05.2022
2122 Clear 24 1016 33 10000 3.6 230 19:19 14.05.2022
2123 Clear 26 1016 32 10000 4.63 280 17:56 14.05.2022
2124 Clear 27 1017 34 10000 4.63 270 16:37 14.05.2022
2125 Clear 28 1018 32 10000 3.13 231 14:59 14.05.2022
2126 Clear 27 1018 32 10000 2.57 280 14:30 14.05.2022
2127 Clear 26 1019 28 10000 2.24 39 12:23 14.05.2022
2128 Clear 23 1019 45 10000 1.03 0 10:54 14.05.2022
2129 Clear 22 1019 52 10000 1.03 0 10:20 14.05.2022
2130 Clear 21 1020 55 10000 1.03 0 09:53 14.05.2022
2131 Clear 19 1018 58 10000 1.03 0 08:46 14.05.2022
2132 Clear 15 1018 71 10000 1.03 0 05:47 14.05.2022
2133 Clear 16 1017 68 10000 1.54 150 02:32 14.05.2022
2134 Clear 18 1020 63 10000 2.06 190 23:36 13.05.2022
2135 Clear 19 1019 61 10000 2.06 190 22:58 13.05.2022
2136 Clear 19 1019 59 10000 2.57 190 22:25 13.05.2022
2137 Clear 20 1020 58 10000 2.57 210 21:39 13.05.2022
2138 Clear 21 1018 50 10000 2.57 260 20:44 13.05.2022
2139 Clear 22 1019 49 10000 2.57 260 20:24 13.05.2022
2140 Clear 24 1017 42 10000 4.63 250 19:25 13.05.2022
2141 Clear 26 1018 40 10000 5.66 270 17:50 13.05.2022
2142 Clear 26 1018 40 10000 5.66 270 17:50 13.05.2022
2143 Clear 26 1018 38 10000 5.14 280 17:27 13.05.2022
2144 Clear 27 1018 40 10000 5.14 280 16:18 13.05.2022
2145 Clear 27 1018 41 10000 5.66 270 15:20 13.05.2022
2146 Clear 27 1019 36 10000 3.09 320 13:29 13.05.2022
2147 Clear 26 1020 35 10000 1.79 245 12:25 13.05.2022
2148 Clear 23 1022 54 10000 2.06 0 10:46 13.05.2022
2149 Clear 20 1021 64 10000 1.03 0 09:33 13.05.2022
2150 Clear 18 1021 66 10000 0.51 0 08:23 13.05.2022
2151 Clear 17 1020 68 10000 1.03 0 07:42 13.05.2022
2152 Clear 15 1020 70 10000 1.54 90 05:59 13.05.2022
2153 Clear 15 1022 73 10000 0.51 0 02:44 13.05.2022
2154 Clear 18 1021 64 10000 2.06 180 23:46 12.05.2022
2155 Clear 19 1021 60 10000 2.57 200 22:44 12.05.2022
2156 Clear 20 1022 57 10000 2.06 210 21:54 12.05.2022
2157 Clear 22 1021 50 10000 3.6 270 20:27 12.05.2022
2158 Clear 24 1019 42 10000 5.14 280 18:50 12.05.2022
2159 Clear 27 1019 37 10000 5.14 300 16:58 12.05.2022
2160 Clear 27 1020 38 10000 4.63 300 15:50 12.05.2022
2161 Clear 27 1021 40 10000 5.66 290 14:39 12.05.2022
2162 Clear 27 1021 36 10000 2.57 300 13:34 12.05.2022
2163 Clear 23 1022 56 10000 2.06 350 10:43 12.05.2022
2164 Clear 20 1023 72 10000 2.57 30 09:24 12.05.2022
2165 Clear 18 1021 70 10000 2.06 30 08:50 12.05.2022
2166 Clear 16 1021 76 10000 2.06 70 07:38 12.05.2022
2167 Clear 15 1021 78 10000 0.51 0 05:35 12.05.2022
2168 Clear 16 1021 75 10000 2.06 190 02:49 12.05.2022
2169 Clear 17 1021 76 10000 2.57 200 00:33 12.05.2022
2170 Clear 18 1022 74 10000 2.06 220 22:33 11.05.2022
2171 Clear 20 1021 69 10000 2.57 240 21:33 11.05.2022
2172 Clear 20 1022 67 10000 2.57 250 20:53 11.05.2022
2173 Clear 24 1020 46 10000 3.6 220 18:27 11.05.2022
2174 Clear 24 1020 50 10000 4.12 230 16:51 11.05.2022
2175 Clear 24 1020 50 10000 4.12 230 16:51 11.05.2022
2176 Clouds 25 1019 50 10000 4.63 230 14:51 11.05.2022
2177 Clouds 26 1020 51 10000 5.14 220 14:26 11.05.2022
2178 Clouds 26 1020 48 10000 3.09 260 13:51 11.05.2022
2179 Clear 25 1020 45 10000 1.54 0 11:51 11.05.2022
2180 Clear 22 1020 59 10000 2.57 40 10:32 11.05.2022
2181 Clear 18 1019 69 10000 3.6 50 08:37 11.05.2022
2182 Clear 14 1020 74 10000 1.03 100 05:19 11.05.2022
2183 Clear 17 1021 73 10000 1.54 30 00:42 11.05.2022
2184 Rain 19 1021 73 10000 2.06 260 22:30 10.05.2022
2185 Rain 20 1019 68 10000 2.06 230 21:55 10.05.2022
2186 Rain 20 1020 67 10000 1.54 190 20:54 10.05.2022
2187 Clouds 22 1017 58 10000 3.6 250 19:26 10.05.2022
2188 Clear 24 1017 48 10000 5.66 290 17:54 10.05.2022
2189 Clouds 25 1018 46 10000 4.63 280 16:56 10.05.2022
2190 Clear 26 1019 40 10000 3.58 279 14:48 10.05.2022
2191 Clear 24 1020 45 10000 2.06 30 12:39 10.05.2022
2192 Clear 23 1020 54 10000 2.57 360 11:49 10.05.2022
2193 Clear 22 1020 57 10000 2.57 360 11:20 10.05.2022
2194 Clear 21 1020 61 10000 2.57 40 10:22 10.05.2022
2195 Clear 18 1020 74 10000 3.6 30 09:25 10.05.2022
2196 Clear 13 1019 84 10000 2.57 70 06:54 10.05.2022
2197 Clouds 14 1020 89 10000 2.06 40 03:30 10.05.2022
2198 Clouds 16 1021 87 10000 3.09 20 00:38 10.05.2022
2199 Thunderstorm 17 1021 73 10000 1.54 340 22:52 09.05.2022
2200 Clouds 18 1022 64 10000 1.54 160 21:50 09.05.2022
2201 Clear 19 1019 57 10000 3.09 290 20:30 09.05.2022
2202 Clear 22 1017 46 10000 4.12 260 18:43 09.05.2022
2203 Clouds 22 1018 50 10000 4.12 310 17:44 09.05.2022
2204 Clouds 22 1018 53 10000 3.09 280 16:30 09.05.2022
2205 Clouds 22 1018 53 10000 3.09 280 16:30 09.05.2022
2206 Clouds 22 1019 53 10000 1.54 210 15:51 09.05.2022
2207 Rain 23 1019 46 10000 3.09 240 15:21 09.05.2022
2208 Clouds 23 1019 45 10000 3.6 240 14:29 09.05.2022
2209 Clouds 23 1019 47 10000 3.09 250 13:40 09.05.2022
2210 Clouds 23 1020 42 10000 2.06 250 12:21 09.05.2022
2211 Clear 22 1019 46 10000 2.06 0 11:18 09.05.2022
2212 Clear 21 1020 49 10000 2.06 350 10:42 09.05.2022
2213 Clear 17 1019 72 10000 1.03 0 08:36 09.05.2022
2214 Clouds 16 1018 80 10000 2.06 60 07:53 09.05.2022
2215 Clear 16 1017 83 10000 1.03 110 03:19 09.05.2022
2216 Clear 16 1017 85 10000 1.03 0 23:34 08.05.2022
2217 Clouds 17 1016 77 10000 1.54 160 22:52 08.05.2022
2218 Clouds 17 1017 83 10000 2.06 160 21:48 08.05.2022
2219 Clouds 17 1016 77 10000 3.09 190 20:35 08.05.2022
2220 Clouds 17 1016 80 10000 2.57 270 19:43 08.05.2022
2221 Rain 19 1015 56 10000 5.14 210 18:53 08.05.2022
2222 Clouds 21 1014 43 10000 3.09 110 17:57 08.05.2022
2223 Clouds 22 1014 40 10000 4.12 70 16:42 08.05.2022
2224 Clouds 21 1015 48 10000 4.63 60 15:26 08.05.2022
2225 Clouds 22 1013 43 10000 4.12 80 14:39 08.05.2022
2226 Clouds 22 1014 51 10000 3.6 20 12:25 08.05.2022
2227 Clouds 20 1013 57 10000 3.09 10 10:31 08.05.2022
2228 Clear 19 1013 59 10000 2.57 30 09:56 08.05.2022
2229 Clear 19 1013 59 10000 2.57 30 09:56 08.05.2022
2230 Clear 17 1013 67 10000 2.06 20 08:55 08.05.2022
2231 Clouds 14 1013 78 10000 1.54 40 06:57 08.05.2022
2232 Clouds 15 1013 76 10000 1.54 30 03:26 08.05.2022
2233 Clouds 15 1013 76 10000 1.34 6 02:41 08.05.2022
2234 Clouds 16 1014 68 10000 1.54 0 00:21 08.05.2022
2235 Rain 16 1013 66 10000 3.6 130 23:47 07.05.2022
2236 Clouds 16 1014 70 10000 3.09 130 22:46 07.05.2022
2237 Clouds 17 1012 69 10000 2.06 130 21:57 07.05.2022
2238 Clouds 17 1012 69 10000 2.06 130 21:33 07.05.2022
2239 Clouds 17 1012 67 10000 3.6 30 20:27 07.05.2022
2240 Clouds 18 1011 64 10000 4.12 160 19:22 07.05.2022
2241 Clouds 19 1012 64 10000 3.6 30 17:33 07.05.2022
2242 Rain 21 1011 46 10000 4.12 60 15:34 07.05.2022
2243 Clouds 21 1012 50 10000 2.57 90 12:34 07.05.2022
2244 Clouds 19 1013 66 10000 1.54 50 10:23 07.05.2022
2245 Clouds 16 1011 70 10000 2.57 60 08:37 07.05.2022
2246 Clear 16 1010 73 10000 2.57 40 07:43 07.05.2022
2247 Clouds 14 1011 75 10000 2.06 360 06:43 07.05.2022
2248 Clouds 15 1010 74 10000 3.09 60 04:24 07.05.2022
2249 Clouds 15 1010 78 10000 1.34 16 00:50 07.05.2022
2250 Clouds 16 1011 78 10000 3.6 40 22:55 06.05.2022
2251 Clouds 16 1011 77 10000 3.09 70 22:21 06.05.2022
2252 Clouds 16 1011 79 10000 3.6 60 21:36 06.05.2022
2253 Clouds 17 1011 74 10000 2.57 340 20:18 06.05.2022
2254 Clouds 18 1010 69 10000 2.57 330 19:28 06.05.2022
2255 Clouds 19 1010 62 10000 3.6 10 18:49 06.05.2022
2256 Clouds 20 1009 62 10000 3.6 30 17:38 06.05.2022
2257 Clouds 22 1010 44 10000 6.69 180 15:55 06.05.2022
2258 Clouds 23 1010 38 10000 6.69 180 15:33 06.05.2022
2259 Clouds 23 1009 40 10000 7.2 160 14:22 06.05.2022
2260 Clouds 24 1009 43 10000 5.66 190 12:52 06.05.2022
2261 Clouds 23 1010 45 10000 6.17 180 12:20 06.05.2022
2262 Clouds 22 1009 45 10000 8.23 160 11:31 06.05.2022
2263 Clear 21 1009 55 10000 5.14 90 09:48 06.05.2022
2264 Clear 21 1009 56 10000 5.14 90 09:48 06.05.2022
2265 Clear 20 1009 53 10000 4.63 100 09:18 06.05.2022
2266 Clouds 19 1009 53 10000 6.69 110 07:55 06.05.2022
2267 Clear 18 1010 49 10000 6.17 130 06:28 06.05.2022
2268 Clouds 17 1009 65 10000 3.58 109 04:29 06.05.2022
2269 Clouds 16 1011 74 10000 2.57 30 02:38 06.05.2022
2270 Rain 16 1013 73 10000 2.57 60 23:25 05.05.2022
2271 Rain 17 1013 75 10000 3.09 60 21:51 05.05.2022
2272 Rain 18 1014 68 9000 2.06 10 20:37 05.05.2022
2273 Rain 19 1013 60 10000 3.09 10 19:20 05.05.2022
2274 Rain 19 1016 63 10000 3.6 40 16:49 05.05.2022
2275 Rain 19 1017 66 10000 3.09 40 15:46 05.05.2022
2276 Clear 18 1018 72 8000 4.63 50 14:34 05.05.2022
2277 Mist 17 1017 70 5000 4.63 60 13:18 05.05.2022
2278 Clouds 16 1018 75 6000 3.6 30 11:46 05.05.2022
2279 Clear 15 1017 72 10000 1.54 360 09:47 05.05.2022
2280 Mist 14 1018 75 4000 1.54 350 09:26 05.05.2022
2281 Clear 13 1017 78 10000 1.54 30 06:33 05.05.2022
2282 Clear 13 1017 76 10000 0.51 0 02:28 05.05.2022
2283 Clear 14 1017 73 10000 1.54 90 01:45 05.05.2022
2284 Clear 14 1019 77 10000 1.54 100 00:57 05.05.2022
2285 Clear 15 1018 73 10000 1.03 80 23:27 04.05.2022
2286 Clear 16 1020 75 10000 0.51 0 22:18 04.05.2022
2287 Clear 16 1018 73 10000 1.03 230 21:45 04.05.2022
2288 Clear 17 1017 72 10000 1.54 250 21:18 04.05.2022
2289 Clear 17 1018 71 10000 1.54 250 20:20 04.05.2022
2290 Clear 18 1017 68 10000 3.09 230 19:35 04.05.2022
2291 Clear 19 1017 62 10000 4.12 230 18:43 04.05.2022
2292 Clear 19 1017 63 10000 4.12 230 18:20 04.05.2022
2293 Clear 21 1016 50 10000 5.14 230 17:22 04.05.2022
2294 Clouds 22 1016 49 10000 5.14 250 15:34 04.05.2022
2295 Clouds 23 1017 50 10000 3.09 250 14:45 04.05.2022
2296 Clouds 22 1017 50 10000 2.57 300 14:19 04.05.2022
2297 Clouds 21 1018 60 10000 2.06 0 12:50 04.05.2022
2298 Clouds 20 1018 62 10000 1.54 50 11:59 04.05.2022
2299 Clouds 17 1017 73 7000 1.03 0 10:28 04.05.2022
2300 Clouds 16 1018 78 6000 1.54 20 09:22 04.05.2022
2301 Clear 14 1017 73 10000 1.03 0 07:59 04.05.2022
2302 Clear 13 1016 78 10000 1.54 170 05:34 04.05.2022
2303 Clear 14 1015 78 10000 0.51 110 02:42 04.05.2022
2304 Clear 15 1017 77 10000 1.54 170 23:23 03.05.2022
2305 Clear 16 1016 79 10000 2.57 230 21:55 03.05.2022
2306 Clear 16 1016 79 10000 2.06 260 21:31 03.05.2022
2307 Clouds 17 1015 75 10000 2.57 270 20:52 03.05.2022
2308 Clouds 18 1014 64 10000 3.6 230 19:33 03.05.2022
2309 Clear 20 1012 57 10000 4.12 220 18:47 03.05.2022
2310 Clouds 20 1012 59 10000 5.66 240 17:22 03.05.2022
2311 Clouds 22 1012 60 10000 6.17 220 16:19 03.05.2022
2312 Clouds 22 1013 48 10000 2.68 278 14:25 03.05.2022
2313 Clear 21 1014 51 10000 1.79 345 12:42 03.05.2022
2314 Clear 20 1013 60 10000 1.54 0 11:39 03.05.2022
2315 Clear 18 1013 67 10000 1.03 0 10:49 03.05.2022
2316 Clear 13 1012 74 10000 1.54 60 08:29 03.05.2022
2317 Clear 11 1012 80 10000 1.54 60 06:45 03.05.2022
2318 Clear 13 1011 76 10000 0.51 0 02:48 03.05.2022
2319 Clouds 15 1012 79 10000 2.06 130 23:32 02.05.2022
2320 Clouds 15 1012 77 10000 1.03 0 22:29 02.05.2022
2321 Clouds 16 1011 75 10000 2.06 210 21:47 02.05.2022
2322 Rain 17 1012 64 10000 5.14 40 19:30 02.05.2022
2323 Thunderstorm 19 1011 55 10000 6.17 90 18:26 02.05.2022
2324 Clouds 20 1010 50 10000 4.12 270 17:41 02.05.2022
2325 Clouds 20 1010 50 10000 4.12 270 17:41 02.05.2022
2326 Clear 22 1009 44 10000 5.14 260 16:43 02.05.2022
2327 Clouds 22 1010 45 10000 4.63 270 15:44 02.05.2022
2328 Clouds 22 1010 43 10000 4.63 290 14:51 02.05.2022
2329 Clouds 21 1011 42 10000 2.57 0 13:42 02.05.2022
2330 Clear 20 1012 50 10000 1.79 256 11:41 02.05.2022
2331 Clear 16 1013 70 10000 2.06 30 09:45 02.05.2022
2332 Clear 12 1012 76 10000 2.57 60 08:29 02.05.2022
2333 Clear 10 1011 71 10000 1.54 60 06:56 02.05.2022
2334 Clear 12 1014 69 10000 0.51 0 00:47 02.05.2022
2335 Clear 12 1014 69 10000 0.51 0 00:47 02.05.2022
2336 Clear 13 1014 71 10000 1.54 150 00:22 02.05.2022
2337 Clear 14 1015 61 10000 0.51 0 22:55 01.05.2022
2338 Clear 15 1014 57 10000 1.54 210 21:43 01.05.2022
2339 Clouds 16 1014 56 10000 1.54 250 20:50 01.05.2022
2340 Clear 18 1013 46 10000 2.57 250 19:27 01.05.2022
2341 Clear 20 1012 40 10000 3.6 270 18:53 01.05.2022
2342 Clouds 20 1012 39 10000 3.09 270 17:51 01.05.2022
2343 Clear 20 1014 43 10000 1.54 0 16:38 01.05.2022
2344 Clouds 20 1013 41 10000 1.03 0 15:57 01.05.2022
2345 Clouds 19 1013 48 10000 1.03 0 14:54 01.05.2022
2346 Clear 17 1015 55 10000 2.06 360 12:52 01.05.2022
2347 Rain 16 1015 61 10000 1.54 350 10:36 01.05.2022
2348 Clouds 13 1015 70 10000 1.03 0 08:50 01.05.2022
2349 Clouds 12 1014 67 10000 1.03 0 06:50 01.05.2022
2350 Clouds 12 1015 70 10000 1.54 200 02:46 01.05.2022
2351 Clear 14 1016 75 10000 2.06 200 22:51 30.04.2022
2352 Clear 14 1016 75 10000 2.06 200 22:51 30.04.2022
2353 Clear 16 1017 71 10000 2.57 210 21:33 30.04.2022
2354 Clear 16 1017 71 10000 2.57 210 21:33 30.04.2022
2355 Clear 18 1016 58 10000 3.09 230 20:22 30.04.2022
2356 Clear 20 1015 48 10000 4.12 230 19:31 30.04.2022
2357 Clear 22 1014 43 10000 4.63 220 17:37 30.04.2022
2358 Clouds 22 1016 39 10000 4.63 230 16:28 30.04.2022
2359 Clouds 23 1015 38 10000 4.63 220 15:19 30.04.2022
2360 Clouds 22 1016 39 10000 4.63 210 14:19 30.04.2022
2361 Clear 21 1018 38 10000 5.14 200 11:59 30.04.2022
2362 Clear 20 1018 43 10000 4.63 210 11:31 30.04.2022
2363 Clear 19 1019 50 10000 3.6 200 10:25 30.04.2022
2364 Clear 14 1017 61 10000 1.54 50 08:25 30.04.2022
2365 Clear 12 1018 70 10000 1.03 40 04:58 30.04.2022
2366 Clear 13 1018 72 10000 1.03 240 00:34 30.04.2022
2367 Clear 15 1018 71 10000 2.06 200 22:58 29.04.2022
2368 Clear 15 1018 70 10000 3.09 200 22:29 29.04.2022
2369 Clear 17 1019 60 10000 3.09 200 21:26 29.04.2022
2370 Clear 18 1017 55 10000 3.09 220 20:24 29.04.2022
2371 Clear 20 1016 45 10000 4.12 240 19:28 29.04.2022
2372 Clear 22 1017 38 10000 6.17 270 17:37 29.04.2022
2373 Clear 23 1016 33 10000 5.66 280 16:43 29.04.2022
2374 Clear 24 1017 32 10000 3.6 10 14:38 29.04.2022
2375 Clear 23 1018 33 10000 4.12 20 13:51 29.04.2022
2376 Clear 23 1018 33 10000 3.09 320 12:38 29.04.2022
2377 Clear 20 1020 42 10000 4.12 10 10:44 29.04.2022
2378 Clear 14 1019 56 10000 2.06 30 07:57 29.04.2022
2379 Clear 12 1020 60 10000 2.06 60 07:26 29.04.2022
2380 Clear 12 1018 62 10000 2.57 50 06:33 29.04.2022
2381 Clear 14 1018 57 10000 2.57 10 02:50 29.04.2022
2382 Clear 15 1019 50 10000 3.09 40 00:18 29.04.2022
2383 Clear 16 1018 47 10000 1.54 60 23:26 28.04.2022
2384 Clear 16 1019 40 10000 3.09 30 22:33 28.04.2022
2385 Clear 17 1018 42 10000 3.09 350 21:43 28.04.2022
2386 Clear 19 1016 44 10000 3.09 330 20:48 28.04.2022
2387 Clear 20 1016 45 10000 2.06 260 19:57 28.04.2022
2388 Clear 20 1016 46 10000 2.57 270 19:38 28.04.2022
2389 Clear 21 1016 45 10000 3.6 270 19:19 28.04.2022
2390 Clear 23 1015 36 10000 5.14 270 17:55 28.04.2022
2391 Clear 24 1015 36 10000 5.66 280 16:58 28.04.2022
2392 Clear 24 1015 38 10000 5.66 280 16:21 28.04.2022
2393 Clear 24 1016 37 10000 4.12 290 15:49 28.04.2022
2394 Clouds 25 1017 36 10000 2.68 308 14:58 28.04.2022
2395 Clear 24 1017 37 10000 2.57 340 13:42 28.04.2022
2396 Clear 23 1017 41 10000 2.57 330 12:30 28.04.2022
2397 Clear 23 1017 41 10000 2.57 330 12:30 28.04.2022
2398 Clear 22 1018 44 10000 3.09 30 11:37 28.04.2022
2399 Clear 19 1019 51 10000 4.12 30 10:26 28.04.2022
2400 Clear 17 1018 57 10000 3.6 40 09:50 28.04.2022
2401 Clear 14 1017 67 10000 2.57 50 07:42 28.04.2022
2402 Clear 13 1016 69 10000 1.54 60 06:51 28.04.2022
2403 Clear 13 1017 72 10000 1.34 32 05:53 28.04.2022
2404 Clear 13 1016 72 10000 2.06 50 04:43 28.04.2022
2405 Clear 13 1017 77 10000 2.06 100 02:41 28.04.2022
2406 Clear 14 1016 74 10000 1.03 0 23:36 27.04.2022
2407 Clear 15 1018 70 10000 1.54 190 22:22 27.04.2022
2408 Clear 16 1016 66 10000 1.03 0 21:46 27.04.2022
2409 Clear 18 1017 60 10000 2.06 260 20:46 27.04.2022
2410 Clear 18 1017 56 10000 2.06 250 19:57 27.04.2022
2411 Clear 19 1015 51 10000 2.57 240 19:36 27.04.2022
2412 Clear 21 1016 48 10000 3.6 240 18:41 27.04.2022
2413 Clear 22 1015 44 10000 4.63 270 18:20 27.04.2022
2414 Clear 23 1015 43 10000 5.66 280 16:18 27.04.2022
2415 Clear 23 1017 42 10000 3.09 340 13:18 27.04.2022
2416 Clear 20 1017 50 10000 2.06 30 11:25 27.04.2022
2417 Clear 19 1017 54 10000 2.57 30 10:50 27.04.2022
2418 Clear 12 1016 73 10000 2.57 40 08:28 27.04.2022
2419 Clear 10 1014 73 10000 2.06 60 06:42 27.04.2022
2420 Clear 11 1016 79 10000 2.06 100 02:35 27.04.2022
2421 Clear 12 1016 74 10000 1.54 100 01:23 27.04.2022
2422 Clear 13 1016 76 10000 1.54 90 00:27 27.04.2022
2423 Clear 13 1017 75 10000 1.03 0 23:24 26.04.2022
2424 Clear 14 1015 73 10000 0.51 310 22:45 26.04.2022
2425 Clear 14 1016 71 10000 0.51 10 22:19 26.04.2022
2426 Clear 16 1017 65 10000 2.06 300 21:24 26.04.2022
2427 Clear 16 1016 63 10000 2.06 280 20:38 26.04.2022
2428 Clear 18 1015 60 10000 3.6 270 19:45 26.04.2022
2429 Clear 18 1015 57 10000 3.6 270 19:26 26.04.2022
2430 Clear 20 1014 53 10000 3.6 270 18:39 26.04.2022
2431 Clear 20 1015 51 10000 3.6 280 17:39 26.04.2022
2432 Clear 21 1015 46 10000 4.12 280 15:32 26.04.2022
2433 Clouds 21 1016 49 10000 3.13 302 13:51 26.04.2022
2434 Clouds 21 1015 50 10000 2.06 0 12:57 26.04.2022
2435 Clear 19 1016 55 10000 2.06 0 11:23 26.04.2022
2436 Clear 18 1015 60 10000 1.03 0 10:30 26.04.2022
2437 Clear 13 1015 76 10000 1.54 140 08:33 26.04.2022
2438 Clear 11 1013 74 10000 2.06 150 04:53 26.04.2022
2439 Clouds 11 1013 74 10000 1.01 24 04:22 26.04.2022
2440 Clear 13 1015 78 10000 1.03 170 00:46 26.04.2022
2441 Clear 13 1014 78 10000 1.54 150 23:48 25.04.2022
2442 Clear 15 1016 75 10000 2.57 190 21:51 25.04.2022
2443 Clear 15 1016 80 10000 2.57 200 21:25 25.04.2022
2444 Clear 17 1013 71 10000 4.12 250 19:47 25.04.2022
2445 Clouds 18 1013 64 10000 5.14 230 18:31 25.04.2022
2446 Clouds 19 1012 64 10000 5.66 230 17:39 25.04.2022
2447 Clouds 19 1013 63 10000 5.14 220 16:30 25.04.2022
2448 Clouds 20 1014 64 10000 4.63 230 15:19 25.04.2022
2449 Clouds 19 1013 63 10000 5.14 230 14:22 25.04.2022
2450 Clouds 18 1012 66 10000 4.63 240 12:40 25.04.2022
2451 Clouds 16 1011 73 10000 4.12 210 10:29 25.04.2022
2452 Clouds 16 1011 73 10000 4.12 210 10:29 25.04.2022
2453 Clouds 16 1011 77 10000 3.09 180 09:36 25.04.2022
2454 Clouds 14 1010 78 10000 2.06 180 07:34 25.04.2022
2455 Clouds 14 1009 84 10000 2.06 190 05:53 25.04.2022
2456 Clouds 14 1011 81 10000 2.57 230 01:27 25.04.2022
2457 Clouds 15 1010 79 10000 2.06 220 23:54 24.04.2022
2458 Clouds 15 1010 75 10000 1.54 220 23:20 24.04.2022
2459 Clouds 15 1009 79 10000 2.57 210 22:37 24.04.2022
2460 Clouds 15 1009 84 10000 3.09 210 21:54 24.04.2022
2461 Rain 15 1009 84 10000 2.57 230 21:20 24.04.2022
2462 Rain 15 1008 82 3000 3.6 210 20:39 24.04.2022
2463 Rain 15 1008 81 10000 4.63 210 19:57 24.04.2022
2464 Clouds 16 1008 68 9000 5.14 210 18:33 24.04.2022
2465 Clouds 17 1008 59 10000 5.66 200 17:40 24.04.2022
2466 Clouds 17 1008 55 10000 6.17 210 17:20 24.04.2022
2467 Clouds 18 1008 47 10000 6.17 210 16:49 24.04.2022
2468 Clouds 19 1009 49 10000 6.69 200 16:20 24.04.2022
2469 Clear 20 1008 39 10000 6.17 230 15:32 24.04.2022
2470 Clear 20 1009 41 10000 5.66 220 14:30 24.04.2022
2471 Clear 20 1009 42 10000 5.66 220 13:26 24.04.2022
2472 Clouds 19 1009 44 10000 5.14 250 12:38 24.04.2022
2473 Clouds 18 1009 56 10000 4.63 190 11:44 24.04.2022
2474 Clouds 17 1008 75 10000 5.66 180 10:32 24.04.2022
2475 Clear 15 1008 91 10000 3.09 190 09:41 24.04.2022
2476 Rain 14 1007 89 10000 1.34 226 07:39 24.04.2022
2477 Rain 14 1008 83 10000 4.92 119 04:56 24.04.2022
2478 Clear 16 1009 66 10000 6.17 190 01:39 24.04.2022
2479 Clear 16 1009 62 10000 5.14 180 00:33 24.04.2022
2480 Clear 16 1008 65 10000 4.12 190 23:45 23.04.2022
2481 Clear 16 1008 68 10000 4.12 190 23:22 23.04.2022
2482 Clear 16 1008 62 10000 4.47 134 21:54 23.04.2022
2483 Clear 16 1008 61 10000 4.12 160 21:34 23.04.2022
2484 Clear 17 1008 61 10000 7.72 160 20:57 23.04.2022
2485 Clear 18 1007 61 10000 6.69 170 19:49 23.04.2022
2486 Clear 18 1007 60 10000 7.2 170 19:19 23.04.2022
2487 Clear 19 1007 56 10000 6.69 180 18:53 23.04.2022
2488 Clear 20 1008 55 10000 8.23 190 17:52 23.04.2022
2489 Clear 21 1008 49 10000 8.23 180 17:30 23.04.2022
2490 Clear 21 1008 51 10000 6.69 190 16:42 23.04.2022
2491 Clouds 22 1009 46 10000 6.69 170 15:28 23.04.2022
2492 Clouds 19 1011 62 10000 4.63 190 12:49 23.04.2022
2493 Clouds 18 1011 70 10000 4.63 170 10:49 23.04.2022
2494 Clear 15 1010 76 10000 4.47 168 09:38 23.04.2022
2495 Clouds 11 1007 82 10000 3.09 130 06:41 23.04.2022
2496 Clouds 12 1007 80 10000 1.54 170 03:54 23.04.2022
2497 Clouds 13 1005 80 10000 2.06 210 01:25 23.04.2022
2498 Clouds 14 1005 80 10000 2.57 180 23:31 22.04.2022
2499 Clouds 14 1004 78 10000 2.06 190 22:20 22.04.2022
2500 Clouds 14 1005 77 10000 2.57 210 21:44 22.04.2022
2501 Clear 14 1004 79 10000 2.57 250 20:48 22.04.2022
2502 Clear 15 1003 74 10000 2.57 250 20:27 22.04.2022
2503 Clear 15 1004 74 10000 4.63 240 19:20 22.04.2022
2504 Clouds 16 1002 67 10000 5.14 250 18:45 22.04.2022
2505 Clouds 17 1002 61 10000 4.63 250 17:48 22.04.2022
2506 Clouds 18 1002 54 10000 2.57 240 16:46 22.04.2022
2507 Clouds 17 1001 61 10000 3.6 230 15:44 22.04.2022
2508 Clouds 17 1002 61 10000 2.57 230 15:18 22.04.2022
2509 Clouds 17 1000 66 10000 4.63 210 13:54 22.04.2022
2510 Clouds 16 999 75 10000 5.66 200 12:58 22.04.2022
2511 Clouds 14 999 85 10000 4.12 180 11:52 22.04.2022
2512 Clouds 13 999 90 6000 5.14 200 11:22 22.04.2022
2513 Clouds 13 998 85 4000 4.63 200 10:50 22.04.2022
2514 Clouds 12 998 86 8000 3.6 170 10:30 22.04.2022
2515 Clouds 12 998 87 8000 5.66 200 09:50 22.04.2022
2516 Rain 13 997 88 9000 3.09 200 08:50 22.04.2022
2517 Clouds 12 997 89 10000 3.09 180 07:20 22.04.2022
2518 Clouds 13 996 83 10000 2.24 171 03:30 22.04.2022
2519 Thunderstorm 15 996 85 10000 6.69 150 00:51 22.04.2022
2520 Clouds 17 996 68 10000 5.14 190 23:24 21.04.2022
2521 Clouds 17 998 65 10000 5.81 156 22:29 21.04.2022
2522 Clouds 18 998 55 10000 9.26 160 20:37 21.04.2022
2523 Clouds 19 998 53 10000 4.92 146 20:18 21.04.2022
2524 Clouds 20 998 52 9000 5.14 170 18:42 21.04.2022
2525 Clouds 20 998 54 10000 4.12 140 17:57 21.04.2022
2526 Clouds 20 999 55 9000 3.09 80 16:35 21.04.2022
2527 Rain 20 1000 61 9000 4.47 132 15:21 21.04.2022
2528 Rain 20 1002 60 10000 3.09 120 14:47 21.04.2022
2529 Clear 20 1003 52 10000 2.57 110 13:23 21.04.2022
2530 Clear 21 1003 55 10000 4.63 40 12:57 21.04.2022
2531 Clear 18 1002 63 10000 3.6 20 10:49 21.04.2022
2532 Clouds 16 1004 71 10000 3.6 10 08:56 21.04.2022
2533 Clear 15 1005 70 10000 3.6 60 07:24 21.04.2022
2534 Clear 15 1005 70 10000 4.63 120 05:42 21.04.2022
2535 Clear 15 1007 76 10000 3.09 80 03:30 21.04.2022
2536 Clear 14 1008 80 10000 2.06 40 02:47 21.04.2022
2537 Clouds 15 1009 79 10000 2.06 60 00:45 21.04.2022
2538 Rain 15 1010 76 10000 3.09 40 23:50 20.04.2022
2539 Rain 15 1009 74 10000 3.6 50 23:22 20.04.2022
2540 Clear 15 1009 72 10000 2.57 40 22:50 20.04.2022
2541 Clear 15 1009 71 10000 1.54 20 22:30 20.04.2022
2542 Clear 15 1011 75 10000 2.57 260 21:29 20.04.2022
2543 Clear 16 1009 74 10000 2.57 330 20:24 20.04.2022
2544 Clear 16 1008 70 10000 2.06 260 19:52 20.04.2022
2545 Clear 17 1007 68 10000 3.6 200 19:21 20.04.2022
2546 Clear 17 1009 67 10000 4.12 230 18:22 20.04.2022
2547 Clouds 20 1008 54 10000 4.63 210 16:54 20.04.2022
2548 Clouds 20 1009 52 10000 4.63 210 16:36 20.04.2022
2549 Clouds 20 1010 52 10000 4.63 210 13:59 20.04.2022
2550 Clear 18 1011 54 10000 4.63 190 11:50 20.04.2022
2551 Clear 18 1011 55 10000 3.58 188 11:24 20.04.2022
2552 Clear 16 1011 62 10000 3.13 170 10:22 20.04.2022
2553 Clear 14 1011 69 10000 3.58 141 09:25 20.04.2022
2554 Clear 12 1012 79 10000 2.06 350 08:22 20.04.2022
2555 Clouds 11 1011 74 10000 1.54 50 07:36 20.04.2022
2556 Clear 11 1011 75 10000 2.06 130 03:49 20.04.2022
2557 Clear 12 1011 76 10000 3.6 160 00:23 20.04.2022
2558 Clear 12 1011 71 10000 2.57 190 23:56 19.04.2022
2559 Clear 13 1012 79 10000 4.12 180 22:27 19.04.2022
2560 Clear 13 1011 80 10000 3.09 200 21:57 19.04.2022
2561 Clear 13 1011 76 10000 3.09 200 21:24 19.04.2022
2562 Clear 14 1011 71 10000 3.6 230 20:46 19.04.2022
2563 Clear 14 1012 70 10000 4.12 220 19:57 19.04.2022
2564 Clear 16 1011 58 10000 4.63 230 19:19 19.04.2022
2565 Clear 18 1009 42 10000 3.6 230 17:50 19.04.2022
2566 Clear 19 1011 41 10000 4.12 210 16:43 19.04.2022
2567 Clear 19 1011 40 10000 5.14 220 16:23 19.04.2022
2568 Clouds 18 1012 48 10000 6.69 220 14:50 19.04.2022
2569 Clear 18 1012 49 10000 6.17 230 14:27 19.04.2022
2570 Clouds 18 1012 49 10000 4.63 190 12:51 19.04.2022
2571 Clear 18 1012 51 10000 5.14 200 12:26 19.04.2022
2572 Clear 15 1013 52 10000 4.63 200 10:46 19.04.2022
2573 Clear 12 1013 55 10000 1.54 20 09:22 19.04.2022
2574 Clear 8 1013 65 10000 1.03 0 05:59 19.04.2022
2575 Clear 8 1013 57 10000 2.06 60 03:37 19.04.2022
2576 Clear 11 1014 43 10000 0.51 0 00:55 19.04.2022
2577 Clear 12 1012 40 10000 3.09 340 23:31 18.04.2022
2578 Clear 13 1012 62 10000 0.51 0 21:37 18.04.2022
2579 Clear 14 1011 65 10000 2.06 250 21:18 18.04.2022
2580 Clear 15 1010 43 10000 3.09 310 20:35 18.04.2022
2581 Clear 15 1010 51 10000 4.12 270 19:54 18.04.2022
2582 Clear 16 1010 51 10000 5.66 270 18:57 18.04.2022
2583 Clear 19 1009 36 10000 6.69 280 17:58 18.04.2022
2584 Clear 19 1009 36 10000 6.69 280 17:36 18.04.2022
2585 Clear 20 1009 32 10000 5.36 242 17:18 18.04.2022
2586 Clear 20 1010 30 10000 4.12 310 16:32 18.04.2022
2587 Clear 19 1011 29 10000 3.6 360 14:59 18.04.2022
2588 Clear 18 1011 32 10000 4.63 360 13:42 18.04.2022
2589 Clouds 17 1011 34 10000 4.63 350 12:34 18.04.2022
2590 Clear 16 1011 36 10000 4.63 10 11:35 18.04.2022
2591 Clear 14 1012 41 10000 6.69 20 10:32 18.04.2022
2592 Clear 12 1011 43 10000 5.14 360 09:31 18.04.2022
2593 Clouds 10 1010 48 10000 1.79 30 08:18 18.04.2022
2594 Clear 8 1010 54 10000 3.6 50 05:45 18.04.2022
2595 Clear 10 1010 54 10000 2.57 40 00:49 18.04.2022
2596 Clear 11 1010 51 10000 5.14 20 22:42 17.04.2022
2597 Clouds 12 1010 49 10000 5.66 20 21:49 17.04.2022
2598 Clouds 12 1009 45 10000 5.66 20 21:27 17.04.2022
2599 Clouds 13 1010 47 10000 4.63 30 20:50 17.04.2022
2600 Clear 15 1009 37 10000 7.2 20 19:40 17.04.2022
2601 Clear 17 1009 35 10000 8.23 20 18:21 17.04.2022
2602 Clouds 18 1009 37 10000 6.17 360 16:27 17.04.2022
2603 Clouds 18 1008 35 10000 7.2 20 15:26 17.04.2022
2604 Clouds 18 1009 34 10000 6.69 10 14:25 17.04.2022
2605 Clouds 18 1010 33 10000 7.2 360 13:18 17.04.2022
2606 Clear 18 1009 36 10000 6.69 30 12:27 17.04.2022
2607 Clear 16 1011 44 10000 5.66 20 10:46 17.04.2022
2608 Clear 15 1011 49 10000 5.66 20 10:28 17.04.2022
2609 Clear 14 1010 54 10000 5.66 10 09:37 17.04.2022
2610 Clear 12 1010 57 10000 5.14 30 08:53 17.04.2022
2611 Clouds 12 1011 57 10000 4.12 30 07:53 17.04.2022
2612 Clear 14 1011 54 10000 3.09 40 04:51 17.04.2022
2613 Clear 14 1013 65 10000 3.09 50 01:38 17.04.2022
2614 Clouds 16 1013 60 10000 5.66 70 23:54 16.04.2022
2615 Clouds 16 1013 59 10000 5.66 90 22:39 16.04.2022
2616 Clear 17 1012 55 10000 3.6 80 21:39 16.04.2022
2617 Clear 18 1010 44 10000 1.54 350 20:32 16.04.2022
2618 Clouds 20 1010 40 10000 3.09 270 18:59 16.04.2022
2619 Clear 22 1010 35 10000 4.12 260 17:52 16.04.2022
2620 Clear 24 1009 33 10000 3.6 250 16:40 16.04.2022
2621 Clear 24 1010 34 10000 4.12 230 15:45 16.04.2022
2622 Clear 24 1010 34 10000 4.12 230 15:45 16.04.2022
2623 Clear 25 1010 31 10000 4.12 270 14:56 16.04.2022
2624 Clear 24 1011 34 10000 4.12 230 13:58 16.04.2022
2625 Clear 24 1011 34 10000 4.12 230 13:37 16.04.2022
2626 Clear 23 1012 36 10000 1.03 0 12:26 16.04.2022
2627 Clear 20 1013 50 10000 3.09 40 10:50 16.04.2022
2628 Clear 19 1012 53 10000 3.6 40 09:56 16.04.2022
2629 Clear 16 1011 60 10000 2.06 60 08:58 16.04.2022
2630 Clear 13 1012 68 10000 1.54 50 07:57 16.04.2022
2631 Clear 12 1012 71 10000 2.06 50 06:58 16.04.2022
2632 Clear 13 1013 66 10000 1.03 100 02:52 16.04.2022
2633 Clear 14 1014 62 10000 1.03 0 00:30 16.04.2022
2634 Clear 15 1013 63 10000 0.51 0 23:21 15.04.2022
2635 Clear 16 1015 61 10000 1.03 90 22:32 15.04.2022
2636 Clear 16 1015 64 10000 1.54 30 21:50 15.04.2022
2637 Clear 17 1015 63 10000 1.03 260 21:18 15.04.2022
2638 Clear 18 1015 54 10000 3.09 230 20:22 15.04.2022
2639 Clear 19 1014 43 10000 3.6 240 19:40 15.04.2022
2640 Clear 21 1014 40 10000 3.6 230 18:54 15.04.2022
2641 Clear 21 1015 40 10000 5.14 250 18:25 15.04.2022
2642 Clear 23 1013 37 10000 5.66 220 17:34 15.04.2022
2643 Clear 24 1014 40 10000 3.09 240 16:48 15.04.2022
2644 Clear 25 1013 37 10000 3.09 240 16:18 15.04.2022
2645 Clear 24 1015 38 10000 3.09 310 14:51 15.04.2022
2646 Clear 23 1016 39 10000 2.06 300 13:41 15.04.2022
2647 Clear 22 1017 41 10000 2.57 310 12:42 15.04.2022
2648 Clear 21 1017 45 10000 2.57 20 11:57 15.04.2022
2649 Clear 20 1017 47 10000 2.57 20 11:34 15.04.2022
2650 Clear 18 1016 53 10000 2.57 50 10:43 15.04.2022
2651 Clear 16 1016 59 10000 2.06 50 09:46 15.04.2022
2652 Clear 14 1017 68 10000 2.57 30 09:21 15.04.2022
2653 Clear 13 1016 61 10000 1.54 110 07:32 15.04.2022
2654 Clear 12 1016 66 10000 1.03 50 06:36 15.04.2022
2655 Clear 14 1016 54 10000 0.51 0 02:48 15.04.2022
2656 Clear 16 1018 58 10000 1.03 90 23:31 14.04.2022
2657 Clear 16 1017 57 10000 0.51 0 22:49 14.04.2022
2658 Clear 16 1017 57 10000 0.51 0 22:30 14.04.2022
2659 Clouds 17 1018 49 10000 0.51 0 21:59 14.04.2022
2660 Clouds 18 1017 48 10000 1.54 220 20:43 14.04.2022
2661 Clouds 19 1017 45 10000 2.06 220 19:23 14.04.2022
2662 Clear 20 1015 35 10000 2.57 230 18:22 14.04.2022
2663 Clouds 21 1016 38 10000 3.6 250 17:40 14.04.2022
2664 Clear 22 1015 39 10000 4.63 250 16:46 14.04.2022
2665 Clear 24 1015 32 10000 4.12 220 15:24 14.04.2022
2666 Clear 23 1015 35 10000 2.06 260 13:47 14.04.2022
2667 Clear 23 1015 38 10000 1.54 340 12:57 14.04.2022
2668 Clear 22 1015 40 10000 2.06 60 12:31 14.04.2022
2669 Clear 20 1015 48 10000 3.6 30 11:29 14.04.2022
2670 Clear 19 1017 46 10000 3.6 20 10:53 14.04.2022
2671 Clear 18 1017 48 10000 3.09 40 10:26 14.04.2022
2672 Clear 14 1017 64 10000 2.57 40 09:24 14.04.2022
2673 Clear 10 1014 70 10000 1.54 60 07:27 14.04.2022
2674 Clear 12 1014 60 10000 1.54 70 04:28 14.04.2022
2675 Clear 13 1017 61 10000 2.57 70 23:29 13.04.2022
2676 Clear 15 1017 55 10000 2.06 50 22:23 13.04.2022
2677 Clear 15 1015 53 10000 1.03 0 21:37 13.04.2022
2678 Clear 16 1015 49 10000 2.06 330 20:23 13.04.2022
2679 Clear 18 1015 43 10000 2.06 280 19:37 13.04.2022
2680 Clear 19 1016 41 10000 3.6 220 18:36 13.04.2022
2681 Clear 20 1015 38 10000 4.12 270 17:24 13.04.2022
2682 Clear 21 1014 38 10000 4.63 230 16:37 13.04.2022
2683 Clear 21 1016 34 10000 4.12 260 15:41 13.04.2022
2684 Clear 22 1015 35 10000 1.54 0 14:51 13.04.2022
2685 Clear 22 1015 35 10000 2.06 0 14:30 13.04.2022
2686 Clear 21 1016 37 10000 1.03 0 13:29 13.04.2022
2687 Clear 20 1016 39 10000 1.03 0 12:30 13.04.2022
2688 Clear 18 1016 41 10000 1.03 0 10:55 13.04.2022
2689 Clear 13 1016 61 10000 2.06 40 09:44 13.04.2022
2690 Clear 10 1016 71 10000 1.54 330 08:43 13.04.2022
2691 Clear 9 1015 67 10000 1.54 50 07:18 13.04.2022
2692 Clear 9 1015 65 10000 1.54 70 06:46 13.04.2022
2693 Clear 9 1015 66 10000 2.06 60 06:18 13.04.2022
2694 Clear 10 1018 73 10000 2.06 60 00:24 13.04.2022
2695 Clear 11 1018 66 10000 1.54 110 23:46 12.04.2022
2696 Clear 12 1018 67 10000 0 0 22:19 12.04.2022
2697 Clear 12 1020 66 10000 0.51 260 21:32 12.04.2022
2698 Clear 13 1018 59 10000 1.54 280 20:42 12.04.2022
2699 Clear 14 1019 53 10000 3.09 240 19:53 12.04.2022
2700 Clear 14 1019 51 10000 3.09 240 19:32 12.04.2022
2701 Clear 16 1018 40 10000 3.6 240 18:42 12.04.2022
2702 Clear 17 1018 35 10000 4.63 230 17:34 12.04.2022
2703 Clear 18 1019 38 10000 4.63 240 16:25 12.04.2022
2704 Clear 19 1019 38 10000 5.14 210 15:33 12.04.2022
2705 Clear 19 1019 38 10000 5.14 210 14:32 12.04.2022
2706 Clear 18 1020 38 10000 6.17 220 13:38 12.04.2022
2707 Clear 18 1021 42 10000 5.66 200 12:53 12.04.2022
2708 Clear 16 1021 44 10000 4.12 210 11:47 12.04.2022
2709 Clear 16 1021 46 10000 1.03 0 11:20 12.04.2022
2710 Clear 11 1020 62 10000 2.06 20 09:24 12.04.2022
2711 Clear 7 1019 67 10000 1.03 0 07:59 12.04.2022
2712 Clear 6 1020 78 10000 1.54 80 06:32 12.04.2022
2713 Clear 6 1020 78 10000 1.54 80 06:32 12.04.2022
2714 Clear 6 1022 83 10000 1.03 0 05:34 12.04.2022
2715 Clear 8 1022 78 10000 2.06 110 00:59 12.04.2022
2716 Clear 10 1022 76 10000 1.54 160 22:53 11.04.2022
2717 Clear 11 1023 73 10000 1.54 220 21:49 11.04.2022
2718 Clear 12 1023 72 10000 2.57 230 20:59 11.04.2022
2719 Clear 13 1022 66 10000 3.6 230 20:29 11.04.2022
2720 Clear 13 1023 64 10000 3.6 230 19:55 11.04.2022
2721 Clear 14 1021 53 10000 4.12 250 19:18 11.04.2022
2722 Clear 15 1022 51 10000 4.12 230 18:47 11.04.2022
2723 Clear 16 1021 43 10000 4.63 210 17:57 11.04.2022
2724 Clear 17 1020 37 10000 5.14 230 16:54 11.04.2022
2725 Clear 17 1023 38 10000 4.12 230 15:58 11.04.2022
2726 Clear 17 1022 34 10000 4.63 240 14:33 11.04.2022
2727 Clear 16 1024 40 10000 2.57 0 12:53 11.04.2022
2728 Clear 16 1024 39 10000 3.6 230 12:33 11.04.2022
2729 Clear 15 1022 40 10000 3.6 200 11:33 11.04.2022
2730 Clear 13 1023 48 10000 2.06 30 10:31 11.04.2022
2731 Clear 10 1022 52 10000 2.06 30 09:20 11.04.2022
2732 Clear 6 1021 54 10000 1.54 80 06:44 11.04.2022
2733 Clear 7 1022 55 10000 2.06 90 01:55 11.04.2022
2734 Clear 10 1019 46 10000 3.09 270 22:38 10.04.2022
2735 Clear 11 1020 42 10000 2.06 120 21:55 10.04.2022
2736 Clear 12 1020 41 10000 2.06 120 21:32 10.04.2022
2737 Clear 13 1018 32 10000 5.14 360 20:31 10.04.2022
2738 Clear 15 1016 27 10000 5.66 340 19:44 10.04.2022
2739 Clear 15 1017 28 10000 5.66 340 19:22 10.04.2022
2740 Clear 16 1017 27 10000 6.69 330 18:42 10.04.2022
2741 Clear 16 1016 29 10000 6.71 323 17:54 10.04.2022
2742 Clear 16 1016 30 10000 6.69 350 17:34 10.04.2022
2743 Clear 16 1016 32 10000 7.72 340 16:22 10.04.2022
2744 Clear 16 1015 34 10000 7.72 360 15:19 10.04.2022
2745 Clear 16 1015 37 10000 7.2 360 13:58 10.04.2022
2746 Clear 15 1015 45 10000 7.72 20 12:34 10.04.2022
2747 Clear 14 1015 46 10000 7.2 10 11:46 10.04.2022
2748 Clear 13 1014 48 10000 6.69 350 11:28 10.04.2022
2749 Clear 12 1015 55 10000 8.23 20 10:48 10.04.2022
2750 Clear 11 1013 60 10000 7.72 20 09:55 10.04.2022
2751 Clear 10 1014 65 10000 6.69 20 09:21 10.04.2022
2752 Clear 8 1013 66 10000 6.17 360 08:21 10.04.2022
2753 Clear 7 1011 74 10000 3.13 356 07:18 10.04.2022
2754 Clouds 7 1010 78 10000 4.63 30 05:19 10.04.2022
2755 Clouds 10 1009 83 6000 1.79 281 02:20 10.04.2022
2756 Clear 11 1007 78 10000 2.06 160 23:54 09.04.2022
2757 Clear 12 1006 72 10000 2.06 160 23:35 09.04.2022
2758 Clouds 12 1005 66 10000 3.6 190 22:43 09.04.2022
2759 Clouds 13 1005 61 10000 3.6 210 21:32 09.04.2022
2760 Clouds 13 1007 66 8000 5.14 230 20:39 09.04.2022
2761 Clouds 13 1006 62 8000 5.14 230 20:19 09.04.2022
2762 Clouds 14 1006 58 10000 6.17 240 19:41 09.04.2022
2763 Clouds 14 1006 59 10000 5.66 240 18:54 09.04.2022
2764 Clouds 15 1005 57 10000 5.66 220 18:18 09.04.2022
2765 Clouds 16 1005 54 10000 5.66 230 17:32 09.04.2022
2766 Clouds 16 1006 59 10000 6.17 230 16:43 09.04.2022
2767 Clouds 17 1005 58 10000 5.66 220 15:53 09.04.2022
2768 Clouds 17 1005 60 10000 7.2 210 15:26 09.04.2022
2769 Clouds 17 1005 64 10000 7.72 210 14:26 09.04.2022
2770 Clouds 17 1006 65 10000 8.75 210 13:38 09.04.2022
2771 Clouds 17 1006 64 10000 6.69 210 12:59 09.04.2022
2772 Clouds 17 1005 69 10000 8.23 180 11:52 09.04.2022
2773 Clouds 16 1006 72 10000 6.69 190 10:53 09.04.2022
2774 Clouds 15 1006 82 10000 6.69 180 10:19 09.04.2022
2775 Clouds 14 1006 81 10000 6.17 180 09:36 09.04.2022
2776 Clouds 14 1006 83 10000 5.14 190 08:45 09.04.2022
2777 Clear 12 1007 86 10000 4.63 190 05:35 09.04.2022
2778 Clear 14 1009 75 10000 3.09 220 00:36 09.04.2022
2779 Clear 14 1010 72 10000 2.24 175 23:25 08.04.2022
2780 Clear 15 1010 74 10000 4.47 149 21:57 08.04.2022
2781 Clouds 16 1010 66 10000 4.47 141 20:47 08.04.2022
2782 Clear 16 1011 63 10000 4.63 190 19:57 08.04.2022
2783 Clouds 18 1009 55 10000 6.17 210 18:59 08.04.2022
2784 Clouds 19 1010 58 10000 4.63 220 18:25 08.04.2022
2785 Clouds 19 1010 60 10000 5.66 210 17:38 08.04.2022
2786 Clouds 19 1010 60 10000 5.66 210 17:19 08.04.2022
2787 Clouds 19 1011 61 10000 5.14 230 16:35 08.04.2022
2788 Clouds 18 1010 63 10000 5.66 250 15:39 08.04.2022
2789 Clouds 18 1012 64 10000 5.66 220 14:52 08.04.2022
2790 Clouds 18 1012 68 10000 6.17 200 14:21 08.04.2022
2791 Clouds 18 1012 70 10000 5.66 190 13:41 08.04.2022
2792 Clouds 17 1012 68 10000 5.66 190 13:22 08.04.2022
2793 Clouds 16 1014 73 10000 5.14 170 11:51 08.04.2022
2794 Clouds 15 1011 78 10000 5.14 170 10:31 08.04.2022
2795 Clouds 14 1011 76 10000 4.63 180 09:25 08.04.2022
2796 Clouds 12 1010 76 10000 4.12 170 08:25 08.04.2022
2797 Clouds 12 1010 82 10000 3.09 190 06:47 08.04.2022
2798 Clear 12 1011 88 10000 2.57 200 04:32 08.04.2022
2799 Clear 12 1011 82 10000 3.09 180 00:32 08.04.2022
2800 Clear 12 1011 87 10000 3.09 180 23:59 07.04.2022
2801 Clear 12 1011 81 10000 3.09 190 22:58 07.04.2022
2802 Clear 12 1011 80 10000 3.09 190 22:37 07.04.2022
2803 Clear 13 1011 80 10000 3.09 190 22:19 07.04.2022
2804 Clear 13 1011 77 10000 3.09 200 21:47 07.04.2022
2805 Clear 14 1010 72 10000 2.57 200 20:57 07.04.2022
2806 Clear 14 1009 67 10000 3.09 210 20:30 07.04.2022
2807 Clouds 18 1008 53 10000 4.63 280 17:57 07.04.2022
2808 Clouds 18 1008 55 10000 2.68 219 17:24 07.04.2022
2809 Clouds 17 1008 57 10000 1.54 310 16:43 07.04.2022
2810 Clouds 18 1008 55 10000 1.54 0 16:18 07.04.2022
2811 Clouds 16 1009 58 10000 2.06 0 14:31 07.04.2022
2812 Clouds 16 1009 63 10000 2.57 310 13:41 07.04.2022
2813 Clouds 15 1009 62 10000 1.54 90 12:40 07.04.2022
2814 Clouds 12 1009 72 10000 3.6 320 10:58 07.04.2022
2815 Clear 11 1008 81 10000 2.57 310 09:36 07.04.2022
2816 Clear 8 1007 91 10000 1.79 310 08:37 07.04.2022
2817 Clouds 8 1005 86 7000 3.09 360 06:42 07.04.2022
2818 Mist 9 1005 89 5000 3.09 350 02:43 07.04.2022
2819 Clouds 9 1005 84 10000 2.24 337 01:52 07.04.2022
2820 Clouds 11 1006 79 8000 1.03 0 23:57 06.04.2022
2821 Clouds 11 1007 73 10000 1.03 0 22:48 06.04.2022
2822 Clouds 11 1007 71 10000 2.06 160 22:25 06.04.2022
2823 Clouds 12 1006 74 10000 1.79 157 21:32 06.04.2022
2824 Clouds 12 1006 77 9000 1.54 320 20:28 06.04.2022
2825 Clouds 12 1006 76 10000 2.06 320 19:53 06.04.2022
2826 Clouds 12 1006 74 10000 2.06 120 18:51 06.04.2022
2827 Clouds 12 1007 75 10000 2.57 30 17:57 06.04.2022
2828 Clouds 12 1007 74 10000 2.57 30 17:35 06.04.2022
2829 Clouds 11 1008 78 10000 2.06 220 16:36 06.04.2022
2830 Clouds 12 1009 71 10000 3.09 210 15:48 06.04.2022
2831 Clouds 13 1010 62 10000 3.6 190 14:23 06.04.2022
2832 Rain 14 1011 60 10000 4.12 180 12:58 06.04.2022
2833 Clear 14 1010 56 10000 4.63 200 11:55 06.04.2022
2834 Clear 13 1010 61 10000 1.79 169 10:45 06.04.2022
2835 Clear 13 1010 63 10000 2.06 360 10:20 06.04.2022
2836 Clear 12 1011 65 10000 1.54 20 09:40 06.04.2022
2837 Clear 8 1011 76 10000 2.57 360 08:32 06.04.2022
2838 Clear 8 1010 69 10000 1.03 0 07:47 06.04.2022
2839 Clear 7 1011 71 10000 0.51 0 03:37 06.04.2022
2840 Clear 10 1013 73 10000 2.06 160 23:51 05.04.2022
2841 Clear 11 1013 69 10000 2.57 170 22:30 05.04.2022
2842 Clear 12 1012 62 10000 2.57 210 21:19 05.04.2022
2843 Clear 13 1012 51 10000 2.57 250 20:25 05.04.2022
2844 Clear 15 1012 46 10000 3.6 280 19:26 05.04.2022
2845 Clear 17 1012 43 10000 4.12 290 17:55 05.04.2022
2846 Clear 18 1011 42 10000 4.63 290 16:54 05.04.2022
2847 Clear 18 1011 36 10000 3.6 270 15:53 05.04.2022
2848 Clear 18 1011 34 10000 3.6 270 15:33 05.04.2022
2849 Clear 17 1013 32 10000 2.57 330 14:27 05.04.2022
2850 Clear 16 1013 36 10000 3.09 360 12:56 05.04.2022
2851 Clear 15 1014 46 10000 1.54 40 11:50 05.04.2022
2852 Clear 14 1014 53 10000 2.57 40 11:32 05.04.2022
2853 Clear 11 1013 63 10000 4.12 40 09:55 05.04.2022
2854 Clear 7 1013 79 10000 3.09 50 08:52 05.04.2022
2855 Clear 6 1012 78 10000 2.57 50 06:58 05.04.2022
2856 Clear 7 1014 79 10000 2.06 60 01:51 05.04.2022
2857 Clear 9 1014 73 10000 0.51 0 22:42 04.04.2022
2858 Clear 9 1014 72 10000 0.51 0 22:22 04.04.2022
2859 Clear 10 1015 69 10000 0.51 0 21:21 04.04.2022
2860 Clear 10 1015 68 10000 0.51 0 21:21 04.04.2022
2861 Clear 11 1015 64 10000 2.06 260 20:49 04.04.2022
2862 Clear 12 1014 56 10000 3.09 300 19:57 04.04.2022
2863 Clear 13 1014 54 10000 4.12 290 19:26 04.04.2022
2864 Clouds 14 1013 47 10000 4.12 260 18:33 04.04.2022
2865 Clouds 15 1016 43 10000 2.57 270 16:36 04.04.2022
2866 Clouds 15 1015 42 10000 2.06 230 15:44 04.04.2022
2867 Clouds 15 1015 38 10000 2.06 230 15:25 04.04.2022
2868 Clouds 15 1016 38 10000 1.54 0 14:46 04.04.2022
2869 Clouds 14 1017 43 10000 1.54 240 13:30 04.04.2022
2870 Clouds 13 1018 57 10000 2.06 0 11:55 04.04.2022
2871 Clouds 13 1018 59 10000 1.54 60 11:29 04.04.2022
2872 Clouds 8 1017 78 10000 1.54 90 09:18 04.04.2022
2873 Clear 6 1016 76 10000 2.57 160 04:45 04.04.2022
2874 Clouds 8 1017 74 10000 1.02 112 01:28 04.04.2022
2875 Clear 8 1016 75 10000 2.06 130 22:45 03.04.2022
2876 Clouds 9 1016 71 10000 3.09 160 21:47 03.04.2022
2877 Clear 9 1017 68 10000 2.06 220 20:57 03.04.2022
2878 Clear 11 1014 58 10000 3.09 240 19:51 03.04.2022
2879 Clear 13 1014 48 10000 4.63 250 18:33 03.04.2022
2880 Clouds 13 1013 49 10000 4.12 250 17:48 03.04.2022
2881 Clouds 13 1013 49 10000 4.12 250 17:21 03.04.2022
2882 Clouds 13 1013 49 10000 4.12 240 16:42 03.04.2022
2883 Clouds 13 1013 54 10000 3.09 220 15:18 03.04.2022
2884 Clouds 12 1013 59 10000 2.57 220 13:57 03.04.2022
2885 Clouds 12 1014 60 10000 3.09 270 12:48 03.04.2022
2886 Clouds 10 1013 69 10000 1.54 310 11:33 03.04.2022
2887 Clear 7 1011 83 10000 1.54 20 09:39 03.04.2022
2888 Clear 5 1010 87 10000 1.54 30 08:40 03.04.2022
2889 Clouds 4 1007 84 10000 1.03 0 05:42 03.04.2022
2890 Rain 5 1006 86 10000 1.79 100 02:54 03.04.2022
2891 Clouds 6 1004 80 10000 5.66 200 23:22 02.04.2022
2892 Rain 7 1004 79 10000 4.63 210 22:40 02.04.2022
2893 Clouds 7 1003 77 10000 3.13 224 21:54 02.04.2022
2894 Clouds 7 1003 74 10000 4.12 200 21:19 02.04.2022
2895 Clouds 8 1002 75 8000 3.09 210 20:35 02.04.2022
2896 Thunderstorm 8 1003 73 8000 5.66 170 18:45 02.04.2022
2897 Clouds 7 1003 75 10000 4.63 200 18:18 02.04.2022
2898 Snow 9 1003 64 4000 9.77 250 16:39 02.04.2022
2899 Clouds 11 1003 54 7000 7.72 240 15:23 02.04.2022
2900 Clouds 12 1003 50 10000 7.72 230 14:51 02.04.2022
2901 Clouds 12 1003 51 8000 7.72 230 14:20 02.04.2022
2902 Clouds 11 1003 49 10000 7.2 240 13:29 02.04.2022
2903 Clouds 10 1003 59 10000 5.66 250 11:56 02.04.2022
2904 Clouds 9 1002 66 10000 5.14 270 09:57 02.04.2022
2905 Clouds 8 1001 63 10000 4.63 230 07:33 02.04.2022
2906 Clouds 9 1001 59 10000 2.68 291 04:25 02.04.2022
2907 Clouds 10 1000 55 10000 5.66 260 00:27 02.04.2022
2908 Rain 10 1001 54 10000 6.69 260 23:53 01.04.2022
2909 Rain 11 1000 61 10000 6.17 280 22:34 01.04.2022
2910 Clouds 11 999 70 10000 3.09 240 20:54 01.04.2022
2911 Clouds 11 999 70 10000 5.66 240 20:32 01.04.2022
2912 Clouds 12 998 67 10000 5.66 240 19:41 01.04.2022
2913 Clouds 12 998 67 10000 5.66 240 19:23 01.04.2022
2914 Clouds 13 997 70 10000 6.17 240 18:36 01.04.2022
2915 Clouds 14 997 67 8000 6.69 240 17:36 01.04.2022
2916 Clouds 14 996 70 10000 7.2 230 15:46 01.04.2022
2917 Clouds 14 997 72 10000 7.2 230 14:51 01.04.2022
2918 Clouds 14 996 70 9000 6.26 243 13:39 01.04.2022
2919 Clouds 13 997 79 8000 5.14 180 12:33 01.04.2022
2920 Clouds 12 996 79 8000 5.66 180 11:47 01.04.2022
2921 Clouds 11 996 84 6000 5.66 210 10:49 01.04.2022
2922 Rain 12 996 79 7000 5.66 220 09:35 01.04.2022
2923 Clouds 12 994 85 6000 4.12 200 07:24 01.04.2022
2924 Clouds 12 995 92 6000 3.6 220 04:57 01.04.2022
2925 Clouds 12 995 91 6000 3.6 220 04:39 01.04.2022
2926 Clouds 12 994 81 10000 2.68 232 02:32 01.04.2022
2927 Clouds 12 995 86 6000 3.09 210 01:33 01.04.2022
2928 Clouds 12 995 86 7000 2.06 200 22:27 31.03.2022
2929 Clouds 12 995 89 4000 3.6 230 21:38 31.03.2022
2930 Clouds 12 993 86 10000 2.57 240 20:51 31.03.2022
2931 Clouds 12 993 86 10000 5.66 260 20:28 31.03.2022
2932 Clouds 14 991 83 10000 7.72 190 19:21 31.03.2022
2933 Clouds 14 991 81 10000 5.14 200 18:31 31.03.2022
2934 Clouds 15 991 81 6000 5.66 220 16:47 31.03.2022
2935 Clouds 16 991 80 10000 6.69 200 15:54 31.03.2022
2936 Clouds 16 992 80 8000 5.66 210 15:24 31.03.2022
2937 Clouds 16 992 83 8000 5.66 200 14:44 31.03.2022
2938 Mist 16 992 80 8000 6.17 190 13:28 31.03.2022
2939 Clouds 14 993 88 4000 5.66 190 11:30 31.03.2022
2940 Mist 15 993 89 5000 6.17 190 10:22 31.03.2022
2941 Clouds 14 992 87 6000 6.69 180 09:39 31.03.2022
2942 Clouds 14 992 87 5000 6.69 190 07:48 31.03.2022
2943 Clouds 13 995 94 10000 2.24 115 01:37 31.03.2022
2944 Clouds 13 997 92 10000 0.89 115 23:24 30.03.2022
2945 Rain 13 998 93 10000 2.24 164 21:55 30.03.2022
2946 Clouds 13 999 93 10000 3.13 173 21:30 30.03.2022
2947 Rain 13 999 87 4000 5.14 170 20:37 30.03.2022
2948 Rain 13 999 88 3000 5.66 130 19:47 30.03.2022
2949 Rain 13 999 91 3000 5.66 210 18:41 30.03.2022
2950 Clouds 13 999 85 10000 4.02 134 17:51 30.03.2022
2951 Rain 13 1000 89 10000 3.13 68 16:59 30.03.2022
2952 Rain 13 1001 87 5000 5.66 170 16:39 30.03.2022
2953 Rain 13 1000 83 6000 8.75 140 15:55 30.03.2022
2954 Rain 14 1002 82 6000 9.77 170 14:35 30.03.2022
2955 Clouds 12 1003 83 6000 6.17 180 13:21 30.03.2022
2956 Clouds 11 1004 91 4000 4.63 100 12:19 30.03.2022
2957 Rain 11 1005 85 5000 4.63 130 10:48 30.03.2022
2958 Rain 11 1006 85 4000 2.57 100 09:43 30.03.2022
2959 Rain 11 1007 76 6000 3.6 190 08:20 30.03.2022
2960 Rain 12 1007 66 10000 2.57 0 06:32 30.03.2022
2961 Rain 12 1007 64 10000 3.09 140 05:38 30.03.2022
2962 Clear 10 1010 69 10000 1.03 320 01:45 30.03.2022
2963 Clear 12 1012 70 10000 1.03 0 22:38 29.03.2022
2964 Clouds 12 1014 70 10000 1.41 131 21:47 29.03.2022
2965 Clear 13 1013 69 10000 3.6 160 21:20 29.03.2022
2966 Clear 14 1012 66 10000 2.06 210 20:25 29.03.2022
2967 Clear 15 1013 62 10000 4.63 220 19:27 29.03.2022
2968 Clear 16 1012 55 10000 4.63 230 18:53 29.03.2022
2969 Clear 18 1012 49 10000 4.12 230 17:40 29.03.2022
2970 Clouds 18 1013 49 10000 4.63 240 16:59 29.03.2022
2971 Clear 18 1013 49 10000 4.63 220 16:25 29.03.2022
2972 Clear 19 1014 45 10000 4.12 270 14:58 29.03.2022
2973 Clear 19 1015 44 10000 4.12 270 14:39 29.03.2022
2974 Clear 18 1017 48 10000 2.06 330 13:30 29.03.2022
2975 Clear 16 1018 59 10000 1.54 300 11:46 29.03.2022
2976 Clear 15 1017 59 10000 1.03 0 10:59 29.03.2022
2977 Clear 12 1016 66 10000 1.54 50 09:50 29.03.2022
2978 Clear 8 1017 79 10000 1.54 50 08:20 29.03.2022
2979 Clear 8 1017 77 10000 1.54 50 05:44 29.03.2022
2980 Clear 10 1020 78 10000 0.51 0 01:31 29.03.2022
2981 Clear 11 1020 73 10000 1.03 120 23:26 28.03.2022
2982 Clear 11 1021 77 10000 1.54 60 22:55 28.03.2022
2983 Clear 12 1020 71 10000 0.51 0 22:30 28.03.2022
2984 Clear 13 1020 68 10000 1.54 210 21:18 28.03.2022
2985 Clear 14 1021 66 10000 3.09 250 20:32 28.03.2022
2986 Clear 15 1021 63 10000 5.14 270 19:46 28.03.2022
2987 Clear 15 1021 56 10000 5.14 270 19:28 28.03.2022
2988 Clear 16 1021 55 10000 6.17 260 18:40 28.03.2022
2989 Clear 18 1022 50 10000 5.14 240 17:39 28.03.2022
2990 Clear 19 1021 49 10000 4.12 270 16:38 28.03.2022
2991 Clouds 19 1021 41 10000 1.54 270 14:50 28.03.2022
2992 Clear 19 1021 44 10000 2.06 270 14:22 28.03.2022
2993 Clear 18 1024 51 10000 2.57 200 12:41 28.03.2022
2994 Clear 16 1023 56 10000 1.54 0 11:38 28.03.2022
2995 Clouds 13 1023 56 10000 1.03 0 09:43 28.03.2022
2996 Clouds 13 1023 57 10000 1.54 70 09:20 28.03.2022
2997 Clouds 11 1023 59 10000 1.54 40 08:23 28.03.2022
2998 Clouds 12 1022 56 10000 1.03 0 07:56 28.03.2022
2999 Clouds 13 1023 51 10000 2.57 100 04:27 28.03.2022
3000 Clouds 15 1024 42 10000 3.6 60 23:43 27.03.2022
3001 Clouds 16 1024 41 10000 0.51 0 22:25 27.03.2022
3002 Clouds 16 1024 41 10000 0.51 0 22:25 27.03.2022
3003 Rain 17 1023 38 10000 0.51 0 21:42 27.03.2022
3004 Rain 17 1023 38 10000 0.51 0 21:42 27.03.2022
3005 Rain 17 1024 38 10000 3.6 190 20:58 27.03.2022
3006 Rain 17 1022 36 10000 3.09 330 19:53 27.03.2022
3007 Rain 17 1022 37 10000 3.09 330 19:30 27.03.2022
3008 Clouds 18 1022 34 9000 3.09 260 18:28 27.03.2022
3009 Clouds 19 1022 35 10000 3.09 240 17:40 27.03.2022
3010 Clouds 19 1021 31 10000 3.09 240 17:20 27.03.2022
3011 Clouds 22 1021 25 10000 3.6 120 15:28 27.03.2022
3012 Clear 22 1022 22 10000 3.09 240 13:56 27.03.2022
3013 Clear 21 1023 35 10000 1.54 0 12:41 27.03.2022
3014 Clear 18 1023 34 10000 3.6 30 11:30 27.03.2022
3015 Clouds 15 1023 38 10000 1.54 60 09:32 27.03.2022
3016 Clear 12 1022 58 10000 2.06 100 06:44 27.03.2022
3017 Clouds 14 1023 55 8000 4.12 30 01:41 27.03.2022
3018 Rain 13 1023 58 8000 1.54 60 00:24 27.03.2022
3019 Clear 13 1024 62 10000 2.06 80 22:45 26.03.2022
3020 Clear 14 1024 61 10000 0.51 0 21:50 26.03.2022
3021 Clear 14 1024 64 10000 1.03 20 21:26 26.03.2022
3022 Clear 15 1024 53 10000 2.57 210 19:31 26.03.2022
3023 Clear 17 1024 46 10000 1.54 260 17:54 26.03.2022
3024 Clear 17 1024 45 10000 2.06 310 17:33 26.03.2022
3025 Clear 19 1022 38 10000 3.09 260 16:27 26.03.2022
3026 Clear 19 1023 39 10000 3.6 250 15:23 26.03.2022
3027 Clear 20 1023 37 10000 4.12 240 13:54 26.03.2022
3028 Clear 21 1024 34 10000 4.12 240 13:18 26.03.2022
3029 Clear 19 1024 36 10000 2.06 280 11:41 26.03.2022
3030 Clear 15 1025 48 10000 1.54 350 10:29 26.03.2022
3031 Clear 11 1023 52 10000 2.06 30 08:44 26.03.2022
3032 Clear 7 1023 63 10000 1.54 40 06:30 26.03.2022
3033 Clear 8 1023 62 10000 1.54 60 05:28 26.03.2022
3034 Clear 9 1024 65 10000 1.03 140 00:30 26.03.2022
3035 Clouds 11 1025 59 10000 0.51 160 21:51 25.03.2022
3036 Clear 11 1025 67 10000 0.51 0 20:46 25.03.2022
3037 Clear 12 1026 66 10000 1.03 0 20:20 25.03.2022
3038 Clear 14 1025 56 10000 2.06 220 18:47 25.03.2022
3039 Clear 16 1025 41 10000 4.12 230 17:49 25.03.2022
3040 Clear 17 1024 40 10000 4.12 230 17:27 25.03.2022
3041 Clear 18 1025 35 10000 4.63 260 16:19 25.03.2022
3042 Clear 20 1025 29 10000 4.12 250 14:49 25.03.2022
3043 Clear 20 1025 27 10000 2.06 320 13:24 25.03.2022
3044 Clear 14 1026 49 10000 0.51 0 10:26 25.03.2022
3045 Clear 12 1026 56 10000 1.54 10 09:28 25.03.2022
3046 Clear 8 1026 65 10000 1.54 360 08:24 25.03.2022
3047 Clear 7 1025 70 10000 1.54 40 07:28 25.03.2022
3048 Clear 7 1025 67 10000 1.03 40 06:24 25.03.2022
3049 Clear 9 1025 69 10000 1.03 180 01:32 25.03.2022
3050 Clear 10 1026 63 10000 1.03 0 22:53 24.03.2022
3051 Clear 12 1026 59 10000 1.03 0 21:52 24.03.2022
3052 Clear 13 1027 60 10000 1.54 190 20:37 24.03.2022
3053 Clear 13 1026 54 10000 1.54 220 19:47 24.03.2022
3054 Clear 17 1024 37 10000 4.63 230 17:48 24.03.2022
3055 Clear 18 1024 39 10000 4.63 230 17:23 24.03.2022
3056 Clear 20 1025 31 10000 4.63 290 15:45 24.03.2022
3057 Clear 20 1026 32 10000 4.63 240 14:50 24.03.2022
3058 Clear 20 1026 31 10000 4.63 240 14:19 24.03.2022
3059 Clear 20 1027 29 10000 3.13 276 13:23 24.03.2022
3060 Clear 18 1028 34 10000 1.54 280 11:47 24.03.2022
3061 Clear 15 1026 35 10000 0.73 2 09:55 24.03.2022
3062 Clear 11 1027 51 10000 2.57 30 08:49 24.03.2022
3063 Clear 7 1025 58 10000 1.54 70 06:49 24.03.2022
3064 Clear 8 1025 56 10000 2.06 60 03:59 24.03.2022
3065 Clear 9 1026 62 10000 1.03 0 23:20 23.03.2022
3066 Clear 10 1026 61 10000 2.06 170 21:45 23.03.2022
3067 Clear 11 1027 61 10000 1.54 180 21:20 23.03.2022
3068 Clear 13 1026 50 10000 2.06 200 19:46 23.03.2022
3069 Clear 14 1027 48 10000 2.57 240 18:55 23.03.2022
3070 Clear 17 1024 29 10000 4.63 240 17:38 23.03.2022
3071 Clear 18 1026 30 10000 5.14 290 16:50 23.03.2022
3072 Clear 20 1025 24 10000 3.58 217 14:51 23.03.2022
3073 Clear 20 1026 23 10000 3.13 282 14:26 23.03.2022
3074 Clear 18 1027 27 10000 2.57 350 12:55 23.03.2022
3075 Clear 13 1029 41 10000 2.57 30 10:20 23.03.2022
3076 Clear 6 1028 57 10000 3.09 70 06:55 23.03.2022
3077 Clear 6 1027 60 10000 2.06 40 05:27 23.03.2022
3078 Clear 7 1029 64 10000 1.03 0 00:35 23.03.2022
3079 Clear 7 1028 65 10000 0.51 0 23:41 22.03.2022
3080 Clear 9 1029 60 10000 1.54 200 21:30 22.03.2022
3081 Clear 10 1030 57 10000 1.54 230 20:49 22.03.2022
3082 Clear 11 1029 53 10000 1.54 220 19:51 22.03.2022
3083 Clear 11 1029 52 10000 1.54 240 19:23 22.03.2022
3084 Clear 12 1030 49 10000 2.57 260 18:38 22.03.2022
3085 Clear 14 1029 41 10000 5.66 250 17:38 22.03.2022
3086 Clear 16 1028 34 10000 6.69 270 16:28 22.03.2022
3087 Clear 17 1029 26 10000 5.14 290 15:23 22.03.2022
3088 Clear 17 1029 26 10000 3.09 250 14:57 22.03.2022
3089 Clear 16 1029 25 10000 3.09 250 14:38 22.03.2022
3090 Clear 16 1030 23 10000 3.09 0 13:36 22.03.2022
3091 Clear 14 1031 23 10000 2.57 360 11:52 22.03.2022
3092 Clear 14 1031 23 10000 2.57 360 11:52 22.03.2022
3093 Clear 13 1033 29 10000 2.06 50 10:46 22.03.2022
3094 Clear 6 1031 49 10000 2.57 50 08:38 22.03.2022
3095 Clear 5 1030 50 10000 1.79 6 06:53 22.03.2022
3096 Clear 5 1031 62 10000 2.06 20 03:52 22.03.2022
3097 Clear 6 1031 61 10000 1.03 0 00:29 22.03.2022
3098 Clear 8 1031 60 10000 2.57 110 22:42 21.03.2022
3099 Clear 9 1030 62 10000 3.09 180 21:18 21.03.2022
3100 Clear 10 1031 59 10000 3.6 170 20:40 21.03.2022
3101 Clear 10 1029 55 10000 3.6 200 19:59 21.03.2022
3102 Clear 10 1029 54 10000 3.6 200 19:34 21.03.2022
3103 Clear 12 1029 43 10000 3.6 250 18:31 21.03.2022
3104 Clear 14 1028 36 10000 5.66 260 17:19 21.03.2022
3105 Clear 14 1030 37 10000 5.14 270 16:51 21.03.2022
3106 Clear 15 1028 32 10000 6.17 270 15:59 21.03.2022
3107 Clear 16 1029 31 10000 6.17 290 15:20 21.03.2022
3108 Clear 15 1030 30 10000 4.02 231 14:25 21.03.2022
3109 Clear 14 1032 31 10000 3.09 270 12:42 21.03.2022
3110 Clear 14 1032 32 10000 1.03 0 11:54 21.03.2022
3111 Clear 12 1033 44 10000 3.6 20 10:44 21.03.2022
3112 Clear 8 1032 62 10000 3.6 30 08:56 21.03.2022
3113 Clouds 5 1032 76 10000 1.03 0 06:57 21.03.2022
3114 Clouds 7 1031 73 10000 2.57 200 03:29 21.03.2022
3115 Clouds 8 1033 77 10000 3.6 180 00:35 21.03.2022
3116 Clouds 10 1031 63 10000 4.63 120 22:55 20.03.2022
3117 Clouds 10 1031 60 10000 1.54 210 21:57 20.03.2022
3118 Clouds 10 1030 60 10000 1.54 230 21:29 20.03.2022
3119 Clouds 11 1030 53 10000 1.54 260 20:45 20.03.2022
3120 Clouds 11 1032 53 10000 2.06 220 20:24 20.03.2022
3121 Rain 11 1032 50 10000 2.06 220 19:38 20.03.2022
3122 Clouds 12 1032 46 10000 2.57 240 18:44 20.03.2022
3123 Clear 13 1030 41 10000 5.66 240 17:37 20.03.2022
3124 Clouds 14 1031 41 10000 4.12 250 16:58 20.03.2022
3125 Clouds 15 1029 35 10000 4.63 250 15:52 20.03.2022
3126 Clear 16 1030 29 10000 3.09 300 14:36 20.03.2022
3127 Clear 15 1031 30 10000 3.09 310 13:18 20.03.2022
3128 Clear 14 1032 31 10000 2.06 0 11:37 20.03.2022
3129 Clouds 12 1031 39 10000 2.57 40 09:57 20.03.2022
3130 Clear 9 1030 45 10000 0.89 52 07:51 20.03.2022
3131 Clouds 7 1029 57 10000 1.03 0 05:49 20.03.2022
3132 Clouds 9 1029 52 10000 1.03 0 02:53 20.03.2022
3133 Clouds 10 1029 57 10000 2.06 90 00:48 20.03.2022
3134 Clouds 10 1029 68 10000 3.09 70 23:21 19.03.2022
3135 Clouds 12 1028 64 10000 4.12 90 21:41 19.03.2022
3136 Clouds 12 1028 61 10000 3.6 70 21:18 19.03.2022
3137 Clouds 13 1026 56 10000 2.06 210 19:21 19.03.2022
3138 Clouds 14 1026 58 10000 2.57 230 18:25 19.03.2022
3139 Clear 14 1025 59 10000 3.6 230 17:41 19.03.2022
3140 Clear 15 1026 57 10000 5.14 220 16:40 19.03.2022
3141 Clear 16 1025 49 10000 2.57 240 15:21 19.03.2022
3142 Clear 16 1026 49 10000 1.54 0 13:39 19.03.2022
3143 Clear 16 1027 51 10000 2.06 260 12:42 19.03.2022
3144 Clear 16 1027 49 10000 2.06 290 12:19 19.03.2022
3145 Clouds 15 1027 51 10000 1.54 280 11:42 19.03.2022
3146 Clouds 12 1027 59 10000 2.57 70 08:34 19.03.2022
3147 Clear 12 1027 62 10000 3.09 60 04:24 19.03.2022
3148 Rain 13 1026 55 10000 2.06 30 02:31 19.03.2022
3149 Clear 13 1027 55 10000 2.57 30 23:46 18.03.2022
3150 Clear 13 1026 56 10000 0.89 93 22:36 18.03.2022
3151 Clear 13 1027 58 10000 1.54 70 21:56 18.03.2022
3152 Clear 13 1026 66 10000 1.03 0 20:25 18.03.2022
3153 Clouds 15 1026 62 10000 1.54 170 19:23 18.03.2022
3154 Clouds 15 1026 64 10000 2.06 210 18:34 18.03.2022
3155 Clear 17 1023 47 10000 3.6 360 16:52 18.03.2022
3156 Rain 17 1023 43 8000 3.09 360 15:52 18.03.2022
3157 Clouds 17 1024 43 8000 5.14 70 14:25 18.03.2022
3158 Clouds 18 1024 43 8000 3.09 320 13:18 18.03.2022
3159 Clear 16 1025 54 8000 3.09 120 11:28 18.03.2022
3160 Clear 14 1024 60 8000 1.54 350 09:41 18.03.2022
3161 Clear 12 1023 62 10000 1.03 0 08:45 18.03.2022
3162 Clear 11 1023 68 10000 1.34 26 06:42 18.03.2022
3163 Clouds 11 1021 68 10000 2.57 60 04:38 18.03.2022
3164 Clouds 11 1021 68 10000 2.57 60 04:38 18.03.2022
3165 Clear 13 1022 67 10000 1.03 190 00:54 18.03.2022
3166 Clear 13 1021 66 10000 1.54 200 23:52 17.03.2022
3167 Clear 13 1021 66 10000 1.54 200 23:52 17.03.2022
3168 Clear 13 1021 66 10000 1.54 200 23:52 17.03.2022
3169 Clear 13 1021 65 10000 1.54 190 22:43 17.03.2022
3170 Clear 14 1020 65 10000 1.54 170 22:18 17.03.2022
3171 Clear 14 1020 62 10000 1.54 220 21:27 17.03.2022
3172 Clear 14 1021 63 10000 0.51 0 20:52 17.03.2022
3173 Clear 14 1021 64 10000 0.51 0 20:18 17.03.2022
3174 Clear 15 1021 62 10000 1.03 260 19:37 17.03.2022
3175 Clear 15 1021 63 10000 2.06 260 18:51 17.03.2022
3176 Clear 18 1019 53 10000 2.57 40 17:27 17.03.2022
3177 Clear 20 1019 46 10000 3.09 260 15:57 17.03.2022
3178 Clear 20 1020 45 10000 3.09 260 15:36 17.03.2022
3179 Clear 20 1019 44 10000 2.68 229 14:55 17.03.2022
3180 Clear 19 1021 51 10000 2.06 350 13:28 17.03.2022
3181 Clear 18 1021 51 10000 3.09 10 12:38 17.03.2022
3182 Clear 17 1021 60 10000 3.6 40 11:31 17.03.2022
3183 Clear 15 1021 64 10000 2.57 30 10:38 17.03.2022
3184 Clouds 10 1021 83 8000 2.57 350 08:42 17.03.2022
3185 Clouds 10 1021 84 8000 2.57 350 08:18 17.03.2022
3186 Clear 9 1020 82 10000 1.03 70 05:49 17.03.2022
3187 Clear 9 1020 79 10000 0.51 50 04:24 17.03.2022
3188 Clear 10 1022 77 10000 0.51 0 00:24 17.03.2022
3189 Clear 11 1022 76 10000 1.54 60 22:52 16.03.2022
3190 Clear 11 1023 81 10000 1.54 60 22:33 16.03.2022
3191 Clear 11 1022 80 10000 2.06 80 21:55 16.03.2022
3192 Clear 12 1023 79 10000 0.51 0 20:32 16.03.2022
3193 Clouds 13 1022 75 10000 1.79 301 19:22 16.03.2022
3194 Clouds 13 1023 72 10000 1.54 220 18:40 16.03.2022
3195 Clear 14 1023 70 10000 4.63 260 17:45 16.03.2022
3196 Clear 15 1022 66 10000 4.63 260 17:27 16.03.2022
3197 Clouds 18 1022 56 10000 3.6 260 15:56 16.03.2022
3198 Clear 18 1024 51 10000 1.54 0 14:35 16.03.2022
3199 Clear 17 1025 52 10000 2.57 260 13:34 16.03.2022
3200 Clear 16 1026 55 10000 1.54 0 11:59 16.03.2022
3201 Clear 15 1027 54 10000 1.03 0 11:22 16.03.2022
3202 Clear 14 1027 55 10000 1.03 0 10:28 16.03.2022
3203 Clear 13 1027 67 10000 1.54 40 09:55 16.03.2022
3204 Clear 7 1028 83 10000 1.54 50 06:47 16.03.2022
3205 Clear 8 1028 74 10000 1.54 150 02:29 16.03.2022
3206 Clear 10 1030 73 10000 1.54 140 22:54 15.03.2022
3207 Clear 10 1030 72 10000 1.54 140 22:33 15.03.2022
3208 Clear 10 1030 72 10000 1.54 140 22:33 15.03.2022
3209 Clear 11 1031 77 10000 2.57 190 20:51 15.03.2022
3210 Clear 12 1031 77 10000 3.09 210 19:34 15.03.2022
3211 Clear 15 1031 55 10000 5.14 220 17:41 15.03.2022
3212 Clear 16 1031 48 10000 5.14 230 16:34 15.03.2022
3213 Clear 17 1031 46 10000 5.66 210 15:28 15.03.2022
3214 Clear 17 1032 46 10000 5.66 190 14:47 15.03.2022
3215 Clear 17 1032 47 10000 5.66 200 13:55 15.03.2022
3216 Clear 17 1032 47 10000 5.66 200 13:55 15.03.2022
3217 Clear 17 1033 48 10000 5.14 190 13:20 15.03.2022
3218 Clear 16 1034 53 10000 5.66 200 11:32 15.03.2022
3219 Clear 14 1034 50 10000 3.13 176 10:21 15.03.2022
3220 Clear 10 1034 61 10000 1.03 0 08:53 15.03.2022
3221 Clear 8 1033 66 10000 1.54 40 07:53 15.03.2022
3222 Clear 8 1033 67 10000 1.54 40 07:35 15.03.2022
3223 Clear 6 1032 71 10000 1.54 50 05:45 15.03.2022
3224 Clouds 9 1032 61 10000 1.54 130 00:25 15.03.2022
3225 Clouds 9 1033 71 10000 1.54 60 23:26 14.03.2022
3226 Clouds 9 1032 70 10000 2.06 80 22:37 14.03.2022
3227 Clouds 10 1033 67 10000 1.54 80 21:49 14.03.2022
3228 Clouds 11 1033 68 10000 0.51 0 20:55 14.03.2022
3229 Clouds 11 1032 66 10000 1.54 240 20:24 14.03.2022
3230 Clouds 12 1032 64 10000 1.54 230 19:22 14.03.2022
3231 Clouds 14 1032 51 10000 3.6 230 17:55 14.03.2022
3232 Clear 15 1031 47 10000 4.12 230 17:25 14.03.2022
3233 Clear 17 1029 42 10000 4.12 230 16:26 14.03.2022
3234 Clear 18 1029 33 10000 3.6 220 14:41 14.03.2022
3235 Clear 16 1030 37 10000 1.54 290 12:54 14.03.2022
3236 Clear 14 1030 39 10000 1.03 0 10:54 14.03.2022
3237 Clear 11 1029 50 10000 2.06 60 09:56 14.03.2022
3238 Clear 10 1029 54 10000 2.06 40 09:22 14.03.2022
3239 Clouds 9 1028 51 10000 0.45 30 08:57 14.03.2022
3240 Clear 7 1028 60 10000 1.03 0 07:43 14.03.2022
3241 Clear 5 1028 65 10000 1.79 348 05:46 14.03.2022
3242 Clouds 7 1026 55 10000 1.62 40 02:51 14.03.2022
3243 Clear 7 1026 60 10000 0.51 0 01:29 14.03.2022
3244 Clear 7 1026 62 10000 1.03 0 22:56 13.03.2022
3245 Clear 9 1025 61 10000 3.09 140 21:31 13.03.2022
3246 Clear 9 1025 54 10000 3.6 150 20:59 13.03.2022
3247 Clear 9 1026 61 10000 3.6 150 20:37 13.03.2022
3248 Clear 10 1026 60 10000 4.63 170 20:19 13.03.2022
3249 Clear 10 1025 60 10000 4.63 180 19:39 13.03.2022
3250 Clouds 10 1024 57 10000 5.14 190 19:18 13.03.2022
3251 Clouds 11 1025 55 10000 4.63 200 18:39 13.03.2022
3252 Clear 13 1023 45 10000 6.17 200 17:47 13.03.2022
3253 Clear 14 1023 43 10000 5.66 200 17:21 13.03.2022
3254 Clear 14 1023 37 10000 5.66 200 16:33 13.03.2022
3255 Clear 15 1023 37 10000 4.12 190 15:49 13.03.2022
3256 Clear 15 1023 38 10000 2.57 0 14:58 13.03.2022
3257 Clear 14 1023 37 10000 1.54 0 13:53 13.03.2022
3258 Clear 14 1023 39 10000 2.06 100 13:19 13.03.2022
3259 Clear 13 1025 43 10000 1.54 0 12:19 13.03.2022
3260 Clear 12 1026 45 10000 2.06 60 11:36 13.03.2022
3261 Clear 11 1024 45 10000 2.06 340 10:48 13.03.2022
3262 Clear 10 1024 46 10000 2.06 50 10:25 13.03.2022
3263 Clear 9 1024 48 10000 2.24 67 09:41 13.03.2022
3264 Clear 9 1024 48 10000 2.24 67 09:41 13.03.2022
3265 Clear 9 1024 48 10000 2.24 67 09:41 13.03.2022
3266 Clouds 7 1024 54 10000 2.06 40 08:47 13.03.2022
3267 Clouds 5 1024 59 10000 1.79 45 07:47 13.03.2022
3268 Clouds 5 1022 60 10000 0.89 23 05:48 13.03.2022
3269 Clear 6 1023 55 10000 5.14 120 02:50 13.03.2022
3270 Clear 7 1024 52 10000 5.66 130 00:20 13.03.2022
3271 Clear 8 1024 56 10000 1.54 80 22:37 12.03.2022
3272 Clouds 9 1023 51 10000 2.06 150 20:58 12.03.2022
3273 Clouds 10 1023 50 10000 3.6 190 19:56 12.03.2022
3274 Clouds 10 1023 50 10000 3.6 190 19:38 12.03.2022
3275 Clouds 10 1023 50 10000 3.6 230 18:27 12.03.2022
3276 Clear 11 1022 47 10000 5.14 210 17:34 12.03.2022
3277 Clear 13 1022 48 10000 4.63 200 16:24 12.03.2022
3278 Clear 14 1022 45 10000 5.14 220 15:24 12.03.2022
3279 Clouds 14 1022 47 10000 2.68 173 14:50 12.03.2022
3280 Clear 13 1024 49 10000 3.09 330 13:47 12.03.2022
3281 Clouds 12 1024 51 10000 1.54 20 11:57 12.03.2022
3282 Clear 12 1026 55 10000 1.54 20 11:38 12.03.2022
3283 Clouds 11 1024 54 10000 1.03 0 10:58 12.03.2022
3284 Clear 9 1025 58 10000 2.57 350 09:46 12.03.2022
3285 Clear 9 1025 58 10000 2.57 350 09:46 12.03.2022
3286 Clouds 7 1024 63 10000 1.54 20 08:56 12.03.2022
3287 Clear 6 1024 69 10000 2.06 30 07:27 12.03.2022
3288 Clear 8 1023 70 10000 1.54 80 03:54 12.03.2022
3289 Clouds 9 1024 65 10000 2.06 160 23:56 11.03.2022
3290 Clouds 9 1024 65 10000 2.06 160 23:56 11.03.2022
3291 Clouds 9 1024 65 10000 2.06 160 23:56 11.03.2022
3292 Clouds 9 1024 65 10000 2.06 160 23:56 11.03.2022
3293 Clouds 9 1024 65 10000 2.06 160 23:56 11.03.2022
3294 Clouds 9 1024 65 10000 2.57 130 23:18 11.03.2022
3295 Clouds 10 1023 62 10000 2.57 180 21:41 11.03.2022
3296 Clouds 10 1023 62 10000 3.09 170 20:56 11.03.2022
3297 Clouds 10 1023 62 10000 3.09 170 20:34 11.03.2022
3298 Clear 10 1023 65 10000 2.57 180 19:49 11.03.2022
3299 Clear 10 1023 65 10000 3.6 190 19:22 11.03.2022
3300 Clouds 12 1022 59 10000 4.12 220 17:30 11.03.2022
3301 Clouds 14 1022 55 10000 5.14 220 16:36 11.03.2022
3302 Clouds 14 1021 53 10000 5.14 230 15:53 11.03.2022
3303 Clouds 14 1023 50 10000 3.09 280 14:19 11.03.2022
3304 Clouds 13 1025 55 10000 0.45 172 12:45 11.03.2022
3305 Clouds 13 1024 54 10000 3.6 230 12:21 11.03.2022
3306 Clouds 13 1024 54 10000 3.09 210 11:51 11.03.2022
3307 Clouds 10 1024 57 10000 1.54 350 09:51 11.03.2022
3308 Clouds 9 1024 61 10000 1.54 20 08:56 11.03.2022
3309 Clouds 7 1024 66 10000 1.54 20 08:24 11.03.2022
3310 Clouds 6 1023 69 10000 1.54 20 07:45 11.03.2022
3311 Clear 5 1023 66 10000 1.03 40 05:44 11.03.2022
3312 Clear 5 1022 70 10000 1.54 30 03:48 11.03.2022
3313 Clear 7 1022 62 10000 1.54 180 23:36 10.03.2022
3314 Clear 8 1022 63 10000 2.06 180 22:30 10.03.2022
3315 Clear 9 1021 62 10000 2.06 170 21:40 10.03.2022
3316 Clear 9 1022 65 10000 1.54 170 21:18 10.03.2022
3317 Clear 11 1022 59 10000 3.09 180 19:43 10.03.2022
3318 Clear 12 1022 54 10000 2.57 220 18:40 10.03.2022
3319 Clear 14 1022 43 10000 4.63 260 17:19 10.03.2022
3320 Clear 16 1021 37 10000 5.14 270 15:50 10.03.2022
3321 Clear 16 1022 35 10000 3.6 280 14:44 10.03.2022
3322 Clear 15 1022 34 10000 2.06 10 13:19 10.03.2022
3323 Clear 14 1023 46 10000 1.54 280 11:57 10.03.2022
3324 Clear 12 1024 46 10000 1.54 40 10:50 10.03.2022
3325 Clear 7 1024 53 10000 2.06 30 08:56 10.03.2022
3326 Clear 4 1023 60 10000 2.06 80 06:58 10.03.2022
3327 Clear 4 1024 61 10000 1.54 60 04:18 10.03.2022
3328 Clear 5 1023 63 10000 4.12 50 01:40 10.03.2022
3329 Clear 7 1023 53 10000 1.03 0 22:46 09.03.2022
3330 Clear 8 1021 50 10000 0.51 0 21:49 09.03.2022
3331 Clear 8 1022 50 10000 1.03 220 21:24 09.03.2022
3332 Clear 10 1021 40 10000 0.51 0 19:43 09.03.2022
3333 Clear 12 1021 41 10000 2.68 307 18:29 09.03.2022
3334 Clear 13 1019 34 10000 4.63 320 17:26 09.03.2022
3335 Clear 13 1019 34 10000 4.63 320 17:26 09.03.2022
3336 Clear 14 1019 31 10000 4.12 350 16:30 09.03.2022
3337 Clear 14 1019 33 10000 3.09 350 14:56 09.03.2022
3338 Clear 13 1020 32 10000 2.06 0 13:52 09.03.2022
3339 Clear 12 1020 34 10000 4.63 350 12:39 09.03.2022
3340 Clouds 11 1021 37 10000 4.12 50 11:52 09.03.2022
3341 Clear 10 1021 38 10000 5.66 10 11:32 09.03.2022
3342 Clear 7 1021 48 10000 4.63 70 09:45 09.03.2022
3343 Clear 5 1020 58 10000 4.12 60 08:47 09.03.2022
3344 Clear 2 1020 64 10000 0.45 78 06:51 09.03.2022
3345 Clear 3 1019 56 10000 3.09 50 01:54 09.03.2022
3346 Clear 3 1020 51 10000 2.57 80 00:27 09.03.2022
3347 Clear 3 1018 45 10000 3.09 50 22:47 08.03.2022
3348 Clear 4 1019 46 10000 3.6 30 21:52 08.03.2022
3349 Clear 4 1019 45 10000 3.6 40 21:22 08.03.2022
3350 Clear 5 1019 43 10000 5.14 20 20:24 08.03.2022
3351 Clear 6 1018 40 10000 5.66 30 19:24 08.03.2022
3352 Clear 7 1017 34 10000 6.17 40 18:23 08.03.2022
3353 Clear 10 1016 29 10000 7.72 30 16:56 08.03.2022
3354 Clouds 10 1016 32 10000 8.75 10 14:58 08.03.2022
3355 Clear 10 1015 30 10000 7.72 30 13:54 08.03.2022
3356 Clear 9 1017 36 10000 7.72 10 12:28 08.03.2022
3357 Clear 9 1015 37 10000 7.2 10 11:43 08.03.2022
3358 Clear 7 1016 42 10000 8.75 30 10:29 08.03.2022
3359 Clear 5 1016 48 10000 5.14 30 08:57 08.03.2022
3360 Clear 5 1016 48 10000 5.14 30 08:57 08.03.2022
3361 Clear 2 1016 66 10000 3.6 70 06:30 08.03.2022
3362 Clear 3 1015 67 10000 4.12 30 03:48 08.03.2022
3363 Clear 5 1016 62 10000 2.06 70 22:53 07.03.2022
3364 Clear 5 1015 59 10000 4.12 50 21:45 07.03.2022
3365 Clear 5 1015 58 10000 4.12 50 21:23 07.03.2022
3366 Clear 6 1016 56 10000 3.09 40 20:34 07.03.2022
3367 Clear 7 1013 55 10000 3.09 350 19:50 07.03.2022
3368 Clear 8 1013 54 10000 4.12 350 19:24 07.03.2022
3369 Clear 9 1013 49 10000 2.57 10 18:33 07.03.2022
3370 Clouds 10 1013 43 10000 3.6 40 17:31 07.03.2022
3371 Clear 11 1012 42 10000 2.57 10 16:54 07.03.2022
3372 Clouds 11 1013 41 10000 2.57 30 14:51 07.03.2022
3373 Clouds 11 1014 46 10000 0.45 302 12:34 07.03.2022
3374 Clear 10 1014 51 10000 4.12 40 11:36 07.03.2022
3375 Clear 9 1014 54 10000 3.6 20 10:34 07.03.2022
3376 Clouds 4 1013 71 10000 2.57 70 08:35 07.03.2022
3377 Clear 3 1014 67 10000 1.54 80 02:50 07.03.2022
3378 Clear 4 1013 57 10000 1.54 70 00:20 07.03.2022
3379 Clouds 5 1014 55 10000 1.03 80 23:26 06.03.2022
3380 Clouds 5 1013 55 10000 2.06 10 22:29 06.03.2022
3381 Clouds 6 1014 53 10000 3.09 60 21:44 06.03.2022
3382 Clouds 7 1012 49 10000 4.12 20 20:29 06.03.2022
3383 Clouds 8 1012 48 10000 6.17 20 19:43 06.03.2022
3384 Clear 8 1012 46 10000 2.57 180 18:50 06.03.2022
3385 Clouds 10 1010 45 10000 4.63 200 17:49 06.03.2022
3386 Clouds 11 1011 43 10000 4.63 190 17:20 06.03.2022
3387 Clouds 11 1011 42 10000 5.14 210 16:39 06.03.2022
3388 Clouds 12 1010 37 10000 3.09 230 15:31 06.03.2022
3389 Clouds 12 1011 38 10000 2.06 0 14:42 06.03.2022
3390 Clouds 12 1011 40 10000 2.57 330 13:49 06.03.2022
3391 Clear 11 1012 43 10000 3.09 10 12:40 06.03.2022
3392 Clear 11 1013 47 10000 3.09 40 11:46 06.03.2022
3393 Clear 9 1012 50 10000 4.63 10 10:43 06.03.2022
3394 Clear 6 1012 59 10000 4.12 40 09:21 06.03.2022
3395 Clear 4 1012 63 10000 3.6 70 08:28 06.03.2022
3396 Clear 3 1011 67 10000 3.09 70 07:26 06.03.2022
3397 Clear 3 1011 62 10000 3.09 50 02:45 06.03.2022
3398 Clear 4 1010 56 10000 2.57 50 00:36 06.03.2022
3399 Clear 5 1010 55 10000 3.6 50 00:18 06.03.2022
3400 Clear 5 1011 57 10000 3.09 40 23:19 05.03.2022
3401 Clear 6 1010 54 10000 4.12 30 22:34 05.03.2022
3402 Clear 6 1009 52 10000 3.6 30 21:29 05.03.2022
3403 Clear 7 1010 51 10000 3.6 20 20:32 05.03.2022
3404 Clear 8 1008 47 10000 2.68 54 19:19 05.03.2022
3405 Clouds 9 1009 45 10000 4.12 60 18:37 05.03.2022
3406 Clear 11 1007 39 10000 5.14 30 17:34 05.03.2022
3407 Clouds 12 1006 35 10000 8.23 20 16:18 05.03.2022
3408 Clouds 13 1007 35 10000 7.72 10 15:20 05.03.2022
3409 Clear 13 1008 35 10000 7.2 10 14:36 05.03.2022
3410 Clear 13 1007 35 10000 5.66 10 13:42 05.03.2022
3411 Clear 12 1009 38 10000 5.66 10 12:40 05.03.2022
3412 Clear 11 1008 39 10000 6.17 360 11:20 05.03.2022
3413 Clear 10 1009 45 10000 6.17 20 10:52 05.03.2022
3414 Clear 8 1009 57 10000 5.66 30 09:31 05.03.2022
3415 Clear 6 1009 70 10000 3.6 360 08:24 05.03.2022
3416 Clear 4 1008 78 10000 2.06 70 06:33 05.03.2022
3417 Clear 4 1008 77 10000 3.6 60 05:22 05.03.2022
3418 Clear 5 1010 81 10000 3.09 30 00:30 05.03.2022
3419 Clouds 6 1010 82 10000 2.06 60 22:45 04.03.2022
3420 Clouds 6 1010 83 10000 2.57 80 22:25 04.03.2022
3421 Clouds 7 1010 80 10000 3.09 70 21:43 04.03.2022
3422 Clouds 7 1011 80 10000 2.57 50 20:39 04.03.2022
3423 Rain 8 1010 77 10000 4.12 90 19:37 04.03.2022
3424 Rain 8 1010 77 10000 3.6 50 18:54 04.03.2022
3425 Rain 8 1010 77 10000 3.6 50 18:33 04.03.2022
3426 Rain 9 1010 75 10000 4.12 300 17:29 04.03.2022
3427 Thunderstorm 12 1010 60 5000 5.66 320 15:48 04.03.2022
3428 Thunderstorm 12 1010 55 5000 5.66 320 15:24 04.03.2022
3429 Clouds 14 1011 46 10000 1.79 244 13:35 04.03.2022
3430 Clear 13 1011 48 10000 2.06 280 12:38 04.03.2022
3431 Clear 12 1012 52 10000 2.06 320 11:37 04.03.2022
3432 Clear 11 1012 63 10000 2.06 350 10:24 04.03.2022
3433 Clear 8 1012 70 10000 1.54 20 09:27 04.03.2022
3434 Clear 5 1012 79 10000 1.54 50 07:48 04.03.2022
3435 Clear 4 1012 78 10000 1.54 50 05:49 04.03.2022
3436 Clear 6 1013 76 10000 2.06 130 01:23 04.03.2022
3437 Clear 7 1013 74 10000 2.57 130 23:31 03.03.2022
3438 Clear 7 1015 75 10000 2.06 140 22:18 03.03.2022
3439 Clear 8 1014 71 10000 1.03 0 21:36 03.03.2022
3440 Clear 9 1014 64 10000 1.54 220 20:32 03.03.2022
3441 Clear 10 1014 64 10000 2.06 210 19:22 03.03.2022
3442 Clear 11 1014 62 10000 2.57 240 18:25 03.03.2022
3443 Clear 12 1015 55 10000 4.12 240 17:31 03.03.2022
3444 Clear 12 1014 45 10000 3.6 230 16:41 03.03.2022
3445 Clear 13 1016 38 10000 4.12 230 15:44 03.03.2022
3446 Clear 13 1015 38 10000 3.6 260 14:44 03.03.2022
3447 Clear 13 1016 39 10000 1.54 270 14:25 03.03.2022
3448 Clear 12 1017 40 10000 2.06 240 12:33 03.03.2022
3449 Clear 10 1017 55 10000 1.03 0 11:23 03.03.2022
3450 Clear 8 1018 56 10000 1.03 0 10:21 03.03.2022
3451 Clear 5 1017 64 10000 1.54 80 08:42 03.03.2022
3452 Clear 3 1018 73 10000 0.51 0 06:55 03.03.2022
3453 Clear 3 1017 67 10000 1.03 0 05:37 03.03.2022
3454 Clear 4 1019 70 10000 1.03 0 23:57 02.03.2022
3455 Clear 5 1019 67 10000 2.06 190 23:00 02.03.2022
3456 Clear 5 1019 64 10000 2.06 190 22:40 02.03.2022
3457 Clear 7 1019 61 10000 2.57 170 21:22 02.03.2022
3458 Clear 7 1019 61 10000 2.57 170 20:30 02.03.2022
3459 Clear 8 1019 62 10000 2.57 170 19:43 02.03.2022
3460 Clear 8 1019 60 10000 2.06 190 19:24 02.03.2022
3461 Clear 9 1020 58 10000 2.06 220 18:37 02.03.2022
3462 Clear 11 1019 52 10000 4.12 250 17:45 02.03.2022
3463 Clear 12 1019 45 10000 4.63 270 16:54 02.03.2022
3464 Clear 13 1019 42 10000 4.12 260 16:25 02.03.2022
3465 Clear 13 1020 35 10000 3.13 233 14:39 02.03.2022
3466 Clear 12 1021 35 10000 3.09 320 13:18 02.03.2022
3467 Clear 11 1022 36 10000 0.89 34 12:39 02.03.2022
3468 Clear 10 1022 39 10000 2.57 50 11:28 02.03.2022
3469 Clear 9 1022 45 10000 3.09 30 10:58 02.03.2022
3470 Clear 6 1023 56 10000 3.6 30 09:40 02.03.2022
3471 Clear 4 1023 59 10000 3.09 50 08:50 02.03.2022
3472 Clear 2 1023 66 10000 3.09 60 07:25 02.03.2022
3473 Clear 1 1023 67 10000 4.12 50 05:43 02.03.2022
3474 Clear 3 1023 57 10000 1.79 356 00:51 02.03.2022
3475 Clear 4 1024 56 10000 2.57 40 23:45 01.03.2022
3476 Clear 4 1023 53 10000 3.09 50 22:42 01.03.2022
3477 Clouds 4 1024 52 10000 3.6 40 21:56 01.03.2022
3478 Clear 5 1023 49 10000 5.14 30 20:56 01.03.2022
3479 Clear 5 1023 48 10000 5.14 20 20:24 01.03.2022
3480 Clear 6 1022 41 10000 6.17 10 19:21 01.03.2022
3481 Clear 7 1022 40 10000 6.69 10 18:32 01.03.2022
3482 Clear 8 1022 39 10000 8.75 10 17:55 01.03.2022
3483 Clear 10 1022 39 10000 8.23 360 16:54 01.03.2022
3484 Clouds 11 1021 40 10000 8.23 10 15:59 01.03.2022
3485 Clouds 11 1023 35 10000 5.81 315 14:55 01.03.2022
3486 Clouds 11 1024 36 10000 5.14 10 14:34 01.03.2022
3487 Clear 11 1023 36 10000 7.2 30 13:27 01.03.2022
3488 Clear 10 1025 35 10000 7.72 30 12:39 01.03.2022
3489 Clouds 10 1023 33 10000 7.2 60 11:58 01.03.2022
3490 Clear 8 1024 43 10000 7.72 10 10:26 01.03.2022
3491 Clear 4 1024 55 10000 6.69 360 08:36 01.03.2022
3492 Clear 3 1023 59 10000 7.2 40 07:36 01.03.2022
3493 Clear 5 1022 46 10000 4.63 20 04:28 01.03.2022
3494 Clear 6 1024 54 10000 3.13 11 00:59 01.03.2022
3495 Clear 6 1022 50 10000 3.6 50 23:48 28.02.2022
3496 Clear 7 1023 50 10000 3.6 50 22:52 28.02.2022
3497 Clear 8 1021 45 10000 5.14 40 21:48 28.02.2022
3498 Clear 8 1021 44 10000 3.09 30 21:24 28.02.2022
3499 Clear 9 1020 46 10000 2.68 11 19:52 28.02.2022
3500 Clear 9 1020 45 10000 2.68 25 19:22 28.02.2022
3501 Clear 10 1020 45 10000 3.6 360 18:36 28.02.2022
3502 Clear 13 1020 38 10000 6.69 350 17:23 28.02.2022
3503 Clear 13 1020 37 10000 4.63 310 16:32 28.02.2022
3504 Clouds 14 1021 39 10000 4.02 333 15:23 28.02.2022
3505 Clouds 14 1020 37 10000 1.54 0 14:30 28.02.2022
3506 Clear 14 1021 39 10000 1.34 247 13:34 28.02.2022
3507 Clear 13 1022 43 10000 3.6 10 12:37 28.02.2022
3508 Clear 13 1021 43 10000 5.14 20 11:40 28.02.2022
3509 Clear 11 1021 50 10000 4.12 20 10:44 28.02.2022
3510 Clear 10 1021 52 10000 4.63 50 10:19 28.02.2022
3511 Clear 8 1022 65 10000 3.09 40 09:31 28.02.2022
3512 Clear 5 1021 73 10000 4.12 60 08:29 28.02.2022
3513 Clear 4 1020 72 10000 0.89 64 07:20 28.02.2022
3514 Clear 5 1020 69 10000 3.09 70 04:32 28.02.2022
3515 Clear 5 1021 70 10000 0.89 51 03:58 28.02.2022
3516 Clear 6 1020 70 10000 3.6 70 23:27 27.02.2022
3517 Clear 6 1020 68 10000 4.12 60 22:33 27.02.2022
3518 Clouds 6 1020 67 10000 4.12 50 21:49 27.02.2022
3519 Clear 6 1019 67 10000 5.66 40 20:55 27.02.2022
3520 Clear 6 1019 66 10000 5.14 40 20:27 27.02.2022
3521 Clear 6 1020 65 10000 5.14 40 19:57 27.02.2022
3522 Clear 7 1019 64 10000 5.66 40 19:26 27.02.2022
3523 Clear 8 1018 62 10000 3.58 1 18:40 27.02.2022
3524 Clear 8 1018 59 10000 7.2 10 17:54 27.02.2022
3525 Clear 10 1017 57 10000 8.23 360 16:38 27.02.2022
3526 Clear 10 1017 54 10000 7.2 10 15:59 27.02.2022
3527 Clear 11 1017 49 10000 7.72 360 13:25 27.02.2022
3528 Clear 11 1017 47 10000 4.47 277 12:32 27.02.2022
3529 Clear 10 1016 52 10000 5.66 30 10:56 27.02.2022
3530 Clear 9 1016 54 10000 7.2 10 10:18 27.02.2022
3531 Clear 9 1016 56 10000 6.69 10 09:44 27.02.2022
3532 Clear 8 1016 58 10000 6.69 10 09:19 27.02.2022
3533 Clear 6 1015 63 10000 4.63 60 07:34 27.02.2022
3534 Clear 6 1014 64 10000 5.14 30 05:38 27.02.2022
3535 Clear 7 1014 56 10000 7.72 20 00:53 27.02.2022
3536 Clear 7 1014 59 10000 8.75 20 23:22 26.02.2022
3537 Clear 7 1014 60 10000 7.2 10 21:49 26.02.2022
3538 Clear 7 1013 60 10000 8.23 10 20:58 26.02.2022
3539 Clear 7 1013 60 10000 9.26 10 20:20 26.02.2022
3540 Clear 7 1013 59 10000 7.72 360 19:46 26.02.2022
3541 Rain 7 1013 58 10000 7.72 360 19:22 26.02.2022
3542 Rain 8 1013 57 10000 8.23 360 17:46 26.02.2022
3543 Rain 9 1012 51 10000 6.17 50 16:52 26.02.2022
3544 Rain 9 1013 50 10000 7.72 60 15:57 26.02.2022
3545 Rain 9 1013 51 10000 8.23 60 15:23 26.02.2022
3546 Rain 10 1011 51 10000 8.75 70 14:55 26.02.2022
3547 Clouds 10 1012 52 10000 8.75 70 14:36 26.02.2022
3548 Clouds 9 1013 58 10000 9.26 10 13:24 26.02.2022
3549 Clouds 9 1013 63 10000 11.32 60 12:31 26.02.2022
3550 Clouds 8 1013 67 10000 8.75 10 11:29 26.02.2022
3551 Clouds 8 1013 68 10000 6.69 20 10:51 26.02.2022
3552 Clouds 6 1014 78 10000 4.12 50 08:59 26.02.2022
3553 Clouds 5 1014 84 10000 4.63 40 07:43 26.02.2022
3554 Clouds 10 1016 87 8000 2.06 210 01:53 26.02.2022
3555 Rain 10 1016 80 10000 2.06 180 22:57 25.02.2022
3556 Clouds 11 1017 80 10000 2.06 180 21:48 25.02.2022
3557 Clouds 11 1017 79 10000 2.06 190 21:29 25.02.2022
3558 Clouds 11 1016 77 10000 2.06 200 20:33 25.02.2022
3559 Clouds 12 1016 71 10000 2.57 200 19:39 25.02.2022
3560 Clouds 13 1017 72 10000 3.6 220 17:33 25.02.2022
3561 Clouds 14 1016 68 10000 4.12 210 16:45 25.02.2022
3562 Clouds 15 1016 63 10000 5.14 210 15:48 25.02.2022
3563 Clouds 15 1016 61 10000 4.63 220 15:23 25.02.2022
3564 Clouds 15 1017 60 10000 5.66 220 14:45 25.02.2022
3565 Clouds 15 1017 57 10000 5.66 240 14:18 25.02.2022
3566 Clouds 16 1018 56 10000 4.12 200 13:20 25.02.2022
3567 Clouds 16 1018 56 10000 4.12 200 13:20 25.02.2022
3568 Clear 15 1018 62 10000 3.6 200 11:39 25.02.2022
3569 Clear 14 1018 65 10000 3.6 200 11:18 25.02.2022
3570 Clouds 12 1019 68 10000 3.09 200 10:23 25.02.2022
3571 Clouds 11 1020 71 10000 2.06 180 09:36 25.02.2022
3572 Clouds 7 1018 73 10000 2.06 80 07:47 25.02.2022
3573 Clear 7 1018 75 10000 0.51 0 06:45 25.02.2022
3574 Clear 7 1018 69 10000 1.54 170 05:37 25.02.2022
3575 Clear 8 1020 67 10000 1.54 170 00:31 25.02.2022
3576 Clear 9 1020 74 10000 1.54 120 22:30 24.02.2022
3577 Clear 10 1020 71 10000 1.54 160 21:43 24.02.2022
3578 Clear 10 1020 69 10000 1.03 180 21:21 24.02.2022
3579 Clear 11 1020 67 10000 2.06 160 20:42 24.02.2022
3580 Clear 12 1021 70 10000 2.06 180 19:29 24.02.2022
3581 Clear 13 1021 63 10000 2.57 220 18:20 24.02.2022
3582 Clear 14 1020 54 10000 2.57 240 17:51 24.02.2022
3583 Clear 15 1021 50 10000 3.6 230 17:18 24.02.2022
3584 Clear 16 1020 49 10000 5.14 250 16:25 24.02.2022
3585 Clear 17 1021 49 10000 4.63 240 15:41 24.02.2022
3586 Clear 17 1022 46 10000 4.12 240 14:44 24.02.2022
3587 Clear 17 1022 46 10000 4.12 230 13:56 24.02.2022
3588 Clear 18 1022 45 10000 4.12 230 13:35 24.02.2022
3589 Clear 16 1024 46 10000 4.12 220 11:32 24.02.2022
3590 Clear 13 1025 54 10000 2.06 360 10:31 24.02.2022
3591 Clear 9 1024 60 10000 0.51 0 08:43 24.02.2022
3592 Clear 7 1024 61 10000 1.03 70 06:28 24.02.2022
3593 Clear 7 1024 59 10000 0.51 0 05:40 24.02.2022
3594 Clear 10 1024 51 10000 0.51 0 00:30 24.02.2022
3595 Clear 11 1024 58 10000 2.06 150 22:19 23.02.2022
3596 Clear 12 1024 62 10000 2.57 160 20:44 23.02.2022
3597 Clear 12 1024 62 10000 2.06 160 20:23 23.02.2022
3598 Clear 13 1023 60 10000 2.06 170 19:34 23.02.2022
3599 Clear 14 1024 53 10000 2.57 250 18:22 23.02.2022
3600 Clear 19 1022 32 10000 2.57 350 16:27 23.02.2022
3601 Clear 18 1022 31 10000 2.06 50 13:58 23.02.2022
3602 Clear 16 1022 36 10000 2.57 40 12:31 23.02.2022
3603 Clear 13 1023 40 10000 4.12 30 10:58 23.02.2022
3604 Clear 10 1022 49 10000 3.09 60 09:49 23.02.2022
3605 Clear 9 1021 48 10000 3.09 70 08:54 23.02.2022
3606 Clear 6 1021 55 10000 2.06 80 07:53 23.02.2022
3607 Clear 7 1019 50 10000 2.57 60 02:58 23.02.2022
3608 Clear 8 1019 45 10000 2.57 60 00:18 23.02.2022
3609 Clear 8 1020 40 10000 2.57 110 23:33 22.02.2022
3610 Clear 9 1019 39 10000 2.06 80 22:28 22.02.2022
3611 Clear 9 1019 39 10000 2.06 80 22:28 22.02.2022
3612 Clear 10 1018 38 10000 4.12 30 21:44 22.02.2022
3613 Clear 10 1017 39 10000 5.14 20 21:21 22.02.2022
3614 Clear 10 1018 31 10000 5.66 10 20:41 22.02.2022
3615 Clear 11 1018 31 10000 4.12 10 20:22 22.02.2022
3616 Clear 11 1016 34 10000 3.6 360 19:34 22.02.2022
3617 Clear 13 1016 31 10000 6.17 10 18:35 22.02.2022
3618 Clear 15 1013 25 10000 8.23 10 17:34 22.02.2022
3619 Clear 15 1014 25 10000 8.23 20 16:56 22.02.2022
3620 Clear 16 1014 25 10000 7.72 20 16:21 22.02.2022
3621 Clear 16 1012 23 10000 9.26 30 15:30 22.02.2022
3622 Clear 16 1012 25 10000 8.75 360 14:28 22.02.2022
3623 Clear 14 1011 40 10000 10.29 20 11:39 22.02.2022
3624 Clear 11 1010 60 10000 7.72 10 09:45 22.02.2022
3625 Clear 7 1009 74 10000 3.13 348 07:38 22.02.2022
3626 Clear 7 1008 73 10000 4.02 1 07:19 22.02.2022
3627 Clouds 8 1006 73 10000 2.57 360 02:51 22.02.2022
3628 Rain 8 1005 79 10000 7.72 10 23:42 21.02.2022
3629 Clouds 9 1004 83 10000 6.17 10 22:37 21.02.2022
3630 Rain 9 1003 81 10000 4.12 330 21:21 21.02.2022
3631 Clouds 13 1005 78 10000 3.6 250 18:58 21.02.2022
3632 Clouds 13 1004 74 10000 3.6 250 18:39 21.02.2022
3633 Clouds 15 1006 59 10000 5.14 280 16:30 21.02.2022
3634 Clouds 15 1008 71 10000 5.66 230 14:23 21.02.2022
3635 Clouds 14 1009 72 10000 6.17 210 13:31 21.02.2022
3636 Clouds 14 1010 73 10000 1.79 296 12:46 21.02.2022
3637 Clouds 14 1011 71 10000 5.66 230 12:21 21.02.2022
3638 Clouds 13 1013 84 6000 5.66 190 10:29 21.02.2022
3639 Clouds 11 1014 80 10000 3.6 180 07:48 21.02.2022
3640 Clouds 12 1018 83 10000 2.06 170 00:36 21.02.2022
3641 Clouds 12 1019 83 10000 2.06 240 22:32 20.02.2022
3642 Clouds 12 1018 79 10000 2.57 150 21:44 20.02.2022
3643 Clouds 12 1018 79 10000 2.57 170 21:25 20.02.2022
3644 Clouds 12 1019 80 10000 3.09 200 20:43 20.02.2022
3645 Clouds 13 1018 77 10000 3.09 220 19:51 20.02.2022
3646 Clear 13 1018 73 10000 3.09 210 18:56 20.02.2022
3647 Clear 14 1018 72 10000 3.09 210 18:36 20.02.2022
3648 Clouds 15 1018 72 10000 3.09 230 17:55 20.02.2022
3649 Clear 15 1017 68 10000 3.6 200 17:23 20.02.2022
3650 Clouds 17 1018 62 10000 4.12 220 15:27 20.02.2022
3651 Clouds 16 1017 71 10000 2.24 224 13:59 20.02.2022
3652 Mist 15 1018 81 5000 1.03 0 12:45 20.02.2022
3653 Clouds 14 1019 85 10000 0.89 319 11:50 20.02.2022
3654 Drizzle 13 1018 88 2000 2.06 280 10:21 20.02.2022
3655 Mist 13 1018 85 3500 1.54 240 09:24 20.02.2022
3656 Clouds 12 1017 89 10000 1.03 160 06:28 20.02.2022
3657 Clear 12 1017 82 10000 2.57 110 00:32 20.02.2022
3658 Clear 12 1017 82 10000 0.51 0 23:32 19.02.2022
3659 Clouds 12 1017 84 10000 3.09 160 22:24 19.02.2022
3660 Clouds 13 1017 81 10000 3.13 167 21:45 19.02.2022
3661 Clouds 13 1016 81 10000 4.12 200 20:26 19.02.2022
3662 Clouds 13 1016 82 10000 4.63 180 19:34 19.02.2022
3663 Clouds 13 1015 79 10000 5.14 200 18:39 19.02.2022
3664 Clouds 14 1015 77 10000 3.09 200 17:57 19.02.2022
3665 Clouds 15 1016 76 10000 5.14 180 16:47 19.02.2022
3666 Clouds 15 1016 73 10000 7.2 200 15:59 19.02.2022
3667 Clouds 16 1016 71 10000 6.17 190 14:53 19.02.2022
3668 Clouds 16 1015 71 10000 5.66 190 13:55 19.02.2022
3669 Clouds 15 1017 73 10000 6.17 180 11:47 19.02.2022
3670 Clear 14 1017 77 8000 4.63 170 10:48 19.02.2022
3671 Clear 11 1017 86 10000 1.54 10 08:56 19.02.2022
3672 Clear 9 1016 87 10000 1.54 120 06:45 19.02.2022
3673 Clear 11 1018 84 10000 1.79 132 00:23 19.02.2022
3674 Clear 12 1017 82 10000 3.09 170 22:24 18.02.2022
3675 Clear 12 1017 78 10000 3.13 151 21:18 18.02.2022
3676 Clouds 13 1017 74 10000 3.09 150 19:56 18.02.2022
3677 Clouds 14 1018 77 10000 3.09 200 18:51 18.02.2022
3678 Clouds 14 1018 77 10000 3.09 220 18:28 18.02.2022
3679 Clouds 14 1018 76 10000 3.09 220 17:56 18.02.2022
3680 Clouds 16 1017 69 10000 3.09 180 15:57 18.02.2022
3681 Clouds 15 1018 69 10000 3.6 210 13:56 18.02.2022
3682 Clouds 15 1018 69 10000 3.6 210 13:32 18.02.2022
3683 Clouds 15 1018 74 10000 3.09 190 12:48 18.02.2022
3684 Clouds 14 1018 73 10000 0.51 0 11:56 18.02.2022
3685 Clouds 12 1018 80 10000 2.06 330 10:42 18.02.2022
3686 Clouds 9 1016 82 10000 1.54 40 07:20 18.02.2022
3687 Clouds 9 1016 82 10000 0.51 0 05:43 18.02.2022
3688 Clouds 10 1015 79 10000 1.03 0 03:47 18.02.2022
3689 Clouds 12 1016 85 10000 2.57 160 21:56 17.02.2022
3690 Clouds 12 1015 81 10000 2.06 180 21:27 17.02.2022
3691 Clouds 12 1014 79 10000 2.06 180 20:40 17.02.2022
3692 Clouds 12 1014 79 10000 2.57 190 19:54 17.02.2022
3693 Clouds 13 1014 79 10000 3.09 210 18:57 17.02.2022
3694 Clouds 13 1014 77 10000 3.09 210 17:59 17.02.2022
3695 Clouds 14 1013 69 10000 3.6 230 16:43 17.02.2022
3696 Clouds 15 1014 59 10000 4.12 230 15:44 17.02.2022
3697 Clear 16 1015 51 10000 1.54 0 14:29 17.02.2022
3698 Clear 15 1015 51 10000 2.57 230 12:51 17.02.2022
3699 Clear 12 1016 66 10000 2.57 350 11:30 17.02.2022
3700 Clear 8 1015 77 10000 0.51 0 09:30 17.02.2022
3701 Clear 5 1014 82 10000 1.03 0 04:41 17.02.2022
3702 Clear 7 1015 75 10000 1.03 0 23:21 16.02.2022
3703 Clear 8 1015 72 10000 1.03 0 22:20 16.02.2022
3704 Clear 9 1015 74 10000 1.03 0 20:19 16.02.2022
3705 Clear 10 1015 70 10000 1.03 0 18:43 16.02.2022
3706 Clouds 12 1014 64 10000 3.09 290 17:53 16.02.2022
3707 Clouds 13 1014 57 10000 3.09 300 15:55 16.02.2022
3708 Clouds 13 1014 59 10000 4.12 290 15:19 16.02.2022
3709 Clouds 13 1015 60 10000 2.57 270 13:31 16.02.2022
3710 Clouds 13 1016 63 10000 2.06 310 12:20 16.02.2022
3711 Clouds 12 1016 70 10000 2.06 340 11:31 16.02.2022
3712 Clear 11 1016 75 10000 2.06 340 10:34 16.02.2022
3713 Clouds 7 1016 84 10000 2.57 150 08:24 16.02.2022
3714 Clouds 7 1015 85 10000 2.06 150 06:43 16.02.2022
3715 Clouds 9 1015 77 10000 2.57 180 23:45 15.02.2022
3716 Clouds 10 1016 75 10000 2.57 190 22:33 15.02.2022
3717 Clouds 10 1015 75 10000 2.57 190 21:48 15.02.2022
3718 Clouds 10 1015 73 10000 3.6 200 21:29 15.02.2022
3719 Clouds 10 1015 73 10000 3.09 200 20:56 15.02.2022
3720 Clouds 11 1015 73 10000 3.09 210 19:59 15.02.2022
3721 Clouds 11 1015 73 10000 3.09 230 19:21 15.02.2022
3722 Clouds 11 1014 72 10000 4.63 220 18:23 15.02.2022
3723 Clouds 12 1014 73 10000 5.14 240 17:50 15.02.2022
3724 Clouds 12 1014 73 10000 4.63 230 17:19 15.02.2022
3725 Clouds 12 1014 76 10000 5.14 240 15:30 15.02.2022
3726 Clouds 13 1014 72 5000 6.69 210 13:28 15.02.2022
3727 Clouds 13 1014 73 10000 6.17 230 12:37 15.02.2022
3728 Clouds 13 1014 76 10000 5.66 230 11:40 15.02.2022
3729 Clouds 12 1013 86 8000 4.12 240 09:47 15.02.2022
3730 Clouds 12 1011 82 10000 3.58 193 06:59 15.02.2022
3731 Clouds 12 1013 87 8000 6.69 200 05:32 15.02.2022
3732 Clouds 11 1016 82 10000 6.17 180 23:34 14.02.2022
3733 Clouds 11 1016 80 10000 6.69 170 21:54 14.02.2022
3734 Clouds 11 1017 82 10000 5.14 170 20:40 14.02.2022
3735 Rain 12 1016 78 10000 5.66 170 19:45 14.02.2022
3736 Rain 12 1017 78 10000 4.63 170 19:26 14.02.2022
3737 Clouds 12 1017 73 10000 4.12 190 18:23 14.02.2022
3738 Clouds 13 1017 69 10000 6.17 180 17:27 14.02.2022
3739 Clouds 14 1017 70 10000 5.66 190 16:25 14.02.2022
3740 Clouds 14 1017 74 10000 5.14 170 14:39 14.02.2022
3741 Clouds 13 1019 75 10000 5.66 180 13:34 14.02.2022
3742 Clouds 13 1019 72 10000 5.66 180 12:55 14.02.2022
3743 Clouds 13 1020 71 10000 4.63 180 11:55 14.02.2022
3744 Clouds 13 1020 70 10000 5.14 180 11:18 14.02.2022
3745 Clouds 11 1020 80 8000 3.6 170 09:19 14.02.2022
3746 Clouds 9 1020 81 10000 2.57 170 07:33 14.02.2022
3747 Clouds 10 1020 79 10000 2.57 180 06:32 14.02.2022
3748 Clouds 10 1022 78 8000 2.57 180 22:43 13.02.2022
3749 Clouds 10 1022 76 8000 2.06 200 22:25 13.02.2022
3750 Clouds 11 1022 78 8000 2.57 180 21:36 13.02.2022
3751 Clouds 11 1022 79 8000 4.63 180 20:42 13.02.2022
3752 Clouds 12 1022 76 8000 2.57 190 19:51 13.02.2022
3753 Clouds 12 1022 72 10000 4.12 210 18:54 13.02.2022
3754 Clouds 12 1022 72 10000 4.12 210 18:35 13.02.2022
3755 Clouds 14 1022 59 10000 4.63 220 16:38 13.02.2022
3756 Clouds 15 1022 57 10000 4.63 210 15:27 13.02.2022
3757 Clouds 15 1022 55 10000 4.12 210 14:37 13.02.2022
3758 Clouds 15 1024 53 10000 3.09 190 12:52 13.02.2022
3759 Clear 14 1024 57 10000 1.54 20 11:59 13.02.2022
3760 Clouds 11 1025 66 10000 2.57 10 10:35 13.02.2022
3761 Clouds 9 1025 69 10000 2.06 350 09:49 13.02.2022
3762 Clouds 8 1025 68 10000 2.06 50 07:52 13.02.2022
3763 Clear 9 1025 66 10000 1.54 40 00:36 13.02.2022
3764 Clear 10 1025 62 10000 1.03 0 23:54 12.02.2022
3765 Clouds 10 1024 61 10000 1.54 70 22:33 12.02.2022
3766 Clear 10 1024 63 10000 0.89 11 21:36 12.02.2022
3767 Clear 11 1024 60 10000 1.03 210 20:52 12.02.2022
3768 Clouds 11 1023 57 10000 1.54 190 19:48 12.02.2022
3769 Clouds 12 1025 63 10000 1.54 180 18:53 12.02.2022
3770 Clouds 13 1025 63 10000 1.54 180 18:35 12.02.2022
3771 Clear 14 1023 55 10000 4.12 260 17:37 12.02.2022
3772 Clear 15 1022 52 10000 3.6 280 16:43 12.02.2022
3773 Clear 16 1023 48 10000 2.24 270 15:52 12.02.2022
3774 Clear 16 1023 45 10000 2.06 0 14:55 12.02.2022
3775 Clear 16 1023 47 10000 2.06 350 14:25 12.02.2022
3776 Clear 13 1025 65 10000 1.03 0 11:20 12.02.2022
3777 Clear 11 1024 73 10000 2.06 40 10:28 12.02.2022
3778 Clear 9 1023 77 10000 2.06 60 09:33 12.02.2022
3779 Clear 7 1022 81 10000 1.54 50 08:46 12.02.2022
3780 Clear 6 1021 85 10000 1.54 60 06:46 12.02.2022
3781 Clear 6 1021 84 10000 2.06 60 04:38 12.02.2022
3782 Clear 7 1022 83 10000 1.54 30 02:19 12.02.2022
3783 Clear 9 1022 80 10000 1.03 140 23:20 11.02.2022
3784 Clear 8 1023 82 10000 1.54 160 22:20 11.02.2022
3785 Clear 9 1023 76 10000 1.03 0 21:18 11.02.2022
3786 Clear 10 1022 77 10000 2.06 170 20:21 11.02.2022
3787 Clear 11 1022 67 10000 1.03 0 19:27 11.02.2022
3788 Clear 12 1021 67 10000 2.06 230 18:29 11.02.2022
3789 Clear 14 1021 57 10000 2.57 240 17:26 11.02.2022
3790 Clear 15 1021 53 10000 2.57 240 16:37 11.02.2022
3791 Clear 16 1021 52 10000 3.09 230 15:18 11.02.2022
3792 Clouds 15 1023 56 10000 3.6 260 14:37 11.02.2022
3793 Clouds 15 1022 57 10000 3.6 260 14:19 11.02.2022
3794 Clear 15 1022 59 10000 2.57 260 13:40 11.02.2022
3795 Clear 14 1022 61 10000 1.03 0 12:37 11.02.2022
3796 Clear 12 1025 56 10000 1.54 30 10:30 11.02.2022
3797 Fog 8 1026 83 50 2.06 360 09:22 11.02.2022
3798 Fog 5 1024 72 50 1.54 80 08:28 11.02.2022
3799 Clear 5 1023 61 10000 1.54 70 07:39 11.02.2022
3800 Clear 7 1024 57 10000 0.51 0 02:40 11.02.2022
3801 Clear 7 1024 57 10000 1.03 0 02:20 11.02.2022
3802 Clear 8 1025 60 10000 2.06 150 23:40 10.02.2022
3803 Clear 9 1026 66 10000 1.54 150 21:55 10.02.2022
3804 Clear 9 1026 65 10000 2.06 150 21:26 10.02.2022
3805 Clear 10 1026 62 10000 2.06 170 20:48 10.02.2022
3806 Clear 10 1026 56 10000 1.54 190 19:49 10.02.2022
3807 Clear 11 1026 56 10000 1.54 200 19:20 10.02.2022
3808 Clear 14 1026 47 10000 3.09 240 17:43 10.02.2022
3809 Clear 15 1027 38 10000 3.09 240 17:20 10.02.2022
3810 Clear 17 1026 31 10000 3.6 250 16:23 10.02.2022
3811 Clear 17 1026 32 10000 3.6 270 15:37 10.02.2022
3812 Clear 17 1026 32 10000 2.57 240 15:18 10.02.2022
3813 Clear 17 1027 30 10000 2.57 270 14:33 10.02.2022
3814 Clear 17 1027 33 10000 2.06 260 13:33 10.02.2022
3815 Clear 16 1029 37 10000 1.54 320 12:53 10.02.2022
3816 Clear 14 1029 54 10000 1.54 20 11:48 10.02.2022
3817 Clear 13 1028 55 10000 1.54 20 11:28 10.02.2022
3818 Clear 10 1028 69 10000 2.57 20 10:21 10.02.2022
3819 Clear 8 1028 73 10000 1.54 50 09:27 10.02.2022
3820 Clear 7 1028 73 10000 2.57 90 07:57 10.02.2022
3821 Clouds 6 1028 73 10000 0.51 0 05:53 10.02.2022
3822 Clear 7 1029 70 10000 1.03 0 01:58 10.02.2022
3823 Clear 8 1029 68 10000 1.03 0 00:51 10.02.2022
3824 Clear 8 1029 69 10000 1.54 170 00:29 10.02.2022
3825 Clear 8 1030 74 10000 1.54 170 23:49 09.02.2022
3826 Clear 9 1030 71 10000 1.54 170 22:45 09.02.2022
3827 Clear 9 1030 70 10000 1.54 200 22:25 09.02.2022
3828 Clear 10 1030 65 10000 1.03 180 21:38 09.02.2022
3829 Clear 10 1030 68 10000 2.06 190 21:18 09.02.2022
3830 Clear 10 1030 70 10000 1.03 0 20:41 09.02.2022
3831 Clear 11 1031 69 10000 1.03 0 20:20 09.02.2022
3832 Clear 11 1031 72 10000 1.03 0 19:38 09.02.2022
3833 Clear 14 1030 54 10000 3.09 10 17:43 09.02.2022
3834 Clear 16 1031 45 10000 3.09 340 16:53 09.02.2022
3835 Clear 17 1030 38 10000 3.6 360 15:54 09.02.2022
3836 Clear 17 1031 40 10000 4.63 20 14:43 09.02.2022
3837 Clear 15 1032 39 10000 2.06 360 12:41 09.02.2022
3838 Clear 12 1033 41 10000 2.57 40 11:20 09.02.2022
3839 Clear 10 1032 50 10000 2.06 60 10:31 09.02.2022
3840 Clear 8 1033 54 10000 2.06 60 09:42 09.02.2022
3841 Clear 7 1033 56 10000 2.57 70 09:19 09.02.2022
3842 Clear 5 1032 55 10000 3.6 100 07:56 09.02.2022
3843 Clear 5 1031 46 10000 0.51 0 05:30 09.02.2022
3844 Clear 5 1031 47 10000 2.57 50 03:50 09.02.2022
3845 Clear 6 1031 50 10000 1.54 340 01:27 09.02.2022
3846 Clear 7 1032 55 10000 3.6 40 23:34 08.02.2022
3847 Clear 8 1031 50 10000 3.09 70 22:50 08.02.2022
3848 Clear 8 1031 53 10000 3.09 60 22:22 08.02.2022
3849 Clear 7 1032 51 10000 2.06 80 21:50 08.02.2022
3850 Clear 8 1032 49 10000 1.03 0 21:21 08.02.2022
3851 Clear 9 1031 50 10000 1.03 0 20:45 08.02.2022
3852 Clear 9 1032 46 10000 2.57 160 19:47 08.02.2022
3853 Clear 11 1030 37 10000 3.13 315 18:48 08.02.2022
3854 Clear 12 1029 27 10000 3.09 340 17:50 08.02.2022
3855 Clear 14 1030 17 10000 4.63 10 16:34 08.02.2022
3856 Clear 15 1029 21 10000 5.14 350 15:30 08.02.2022
3857 Clear 14 1029 21 10000 4.63 360 14:44 08.02.2022
3858 Clear 14 1030 22 10000 3.13 325 13:29 08.02.2022
3859 Clear 12 1030 30 10000 3.09 360 11:55 08.02.2022
3860 Clear 9 1029 46 10000 2.06 10 10:23 08.02.2022
3861 Clear 9 1029 46 10000 2.06 10 10:23 08.02.2022
3862 Clear 8 1029 45 10000 2.57 10 09:45 08.02.2022
3863 Clear 5 1027 49 10000 2.06 80 07:55 08.02.2022
3864 Clear 4 1027 47 10000 0.89 75 05:41 08.02.2022
3865 Clear 5 1025 43 10000 1.03 110 04:39 08.02.2022
3866 Clear 6 1025 43 10000 0.89 73 04:21 08.02.2022
3867 Clear 6 1025 43 10000 1.79 23 03:36 08.02.2022
3868 Clear 6 1025 43 10000 1.79 1 03:18 08.02.2022
3869 Clear 6 1025 40 10000 2.57 60 02:59 08.02.2022
3870 Clear 6 1025 43 10000 2.57 60 02:36 08.02.2022
3871 Clear 6 1025 43 10000 2.57 60 02:18 08.02.2022
3872 Clear 6 1025 44 10000 2.57 60 02:18 08.02.2022
3873 Clear 6 1024 45 10000 1.54 100 01:44 08.02.2022
3874 Clear 7 1024 44 10000 2.68 21 01:24 08.02.2022
3875 Clear 7 1025 43 10000 2.24 6 00:54 08.02.2022
3876 Clear 7 1023 47 10000 2.68 354 23:57 07.02.2022
3877 Clear 8 1023 47 10000 2.24 348 23:39 07.02.2022
3878 Clear 8 1022 44 10000 3.13 33 23:18 07.02.2022
3879 Clear 9 1022 41 10000 3.09 350 22:42 07.02.2022
3880 Clear 9 1021 36 10000 4.63 360 22:18 07.02.2022
3881 Clear 9 1021 43 10000 4.63 360 21:43 07.02.2022
3882 Clear 9 1020 41 10000 4.63 10 21:25 07.02.2022
3883 Clear 10 1019 36 10000 5.14 10 20:41 07.02.2022
3884 Clear 11 1018 35 10000 5.14 20 19:54 07.02.2022
3885 Clear 11 1017 34 10000 5.14 20 19:36 07.02.2022
3886 Clear 12 1015 30 10000 4.02 304 18:18 07.02.2022
3887 Clouds 14 1013 51 10000 7.2 10 16:53 07.02.2022
3888 Clouds 15 1012 53 10000 7.2 360 15:49 07.02.2022
3889 Clouds 16 1011 54 10000 6.17 20 14:56 07.02.2022
3890 Clouds 16 1012 68 10000 4.12 60 13:28 07.02.2022
3891 Clouds 15 1011 70 10000 1.34 42 12:52 07.02.2022
3892 Clouds 14 1011 70 10000 0.89 285 11:58 07.02.2022
3893 Clouds 14 1011 70 8000 3.09 120 11:36 07.02.2022
3894 Clouds 13 1010 76 9000 0.89 160 10:51 07.02.2022
3895 Clouds 13 1010 82 8000 1.79 152 10:31 07.02.2022
3896 Clouds 12 1011 88 9000 1.79 221 09:53 07.02.2022
3897 Clouds 11 1011 89 9000 0.89 146 09:18 07.02.2022
3898 Mist 10 1011 86 5000 0.89 181 08:38 07.02.2022
3899 Clouds 10 1012 81 10000 2.68 188 06:58 07.02.2022
3900 Clouds 10 1012 79 10000 2.24 198 06:34 07.02.2022
3901 Clouds 11 1016 84 10000 3.13 237 03:27 07.02.2022
3902 Clouds 10 1018 81 10000 0.45 194 00:45 07.02.2022
3903 Clouds 10 1019 85 10000 3.09 180 23:48 06.02.2022
3904 Clouds 10 1019 80 10000 1.79 150 22:48 06.02.2022
3905 Clouds 11 1020 85 10000 2.57 170 21:55 06.02.2022
3906 Clouds 11 1020 78 10000 0.45 160 21:35 06.02.2022
3907 Clear 11 1020 77 10000 1.79 170 20:54 06.02.2022
3908 Clear 11 1020 77 10000 0.89 148 20:31 06.02.2022
3909 Clear 12 1020 78 10000 1.79 181 19:38 06.02.2022
3910 Clear 12 1020 77 10000 2.06 220 18:40 06.02.2022
3911 Clear 13 1020 69 10000 0.45 234 17:56 06.02.2022
3912 Clear 14 1020 64 10000 1.34 223 17:19 06.02.2022
3913 Clear 15 1020 62 10000 0.45 235 16:38 06.02.2022
3914 Clear 15 1020 62 10000 0.89 190 15:49 06.02.2022
3915 Clear 16 1021 59 10000 0.89 240 15:26 06.02.2022
3916 Clouds 16 1022 53 10000 1.79 208 14:36 06.02.2022
3917 Clear 15 1022 64 10000 0.51 0 13:26 06.02.2022
3918 Clear 16 1022 60 10000 0.89 315 12:52 06.02.2022
3919 Clear 13 1023 74 10000 2.06 340 11:32 06.02.2022
3920 Clear 12 1022 79 10000 0.89 54 10:30 06.02.2022
3921 Clear 10 1021 74 10000 1.54 50 08:59 06.02.2022
3922 Clear 8 1022 82 10000 0.45 73 08:30 06.02.2022
3923 Clear 8 1021 77 10000 1.03 70 05:31 06.02.2022
3924 Clear 8 1021 77 10000 1.03 70 05:31 06.02.2022
3925 Clouds 9 1021 80 10000 0.45 32 02:49 06.02.2022
3926 Clouds 10 1020 78 10000 0.45 34 02:24 06.02.2022
3927 Clouds 11 1020 84 10000 0.89 22 00:27 06.02.2022
3928 Clouds 11 1020 86 10000 0.51 80 22:31 05.02.2022
3929 Clouds 11 1020 81 10000 1.03 0 21:32 05.02.2022
3930 Clouds 12 1020 79 10000 1.03 0 20:24 05.02.2022
3931 Clouds 12 1018 78 10000 1.54 280 19:46 05.02.2022
3932 Clouds 12 1018 73 10000 1.54 360 18:58 05.02.2022
3933 Clouds 14 1018 68 10000 2.06 350 17:39 05.02.2022
3934 Clouds 14 1018 68 10000 2.06 350 17:39 05.02.2022
3935 Clouds 14 1018 68 10000 2.06 350 17:39 05.02.2022
3936 Clouds 14 1017 62 10000 2.06 360 16:58 05.02.2022
3937 Clouds 15 1016 66 10000 4.63 20 15:34 05.02.2022
3938 Clouds 15 1016 66 10000 0.45 293 14:55 05.02.2022
3939 Clouds 15 1017 70 8000 0.45 195 12:47 05.02.2022
3940 Clouds 14 1017 73 8000 1.54 360 12:22 05.02.2022
3941 Clouds 13 1017 75 7000 0.45 212 10:48 05.02.2022
3942 Clouds 12 1017 83 10000 2.57 170 09:53 05.02.2022
3943 Clouds 11 1016 83 7000 1.54 360 09:30 05.02.2022
3944 Clouds 10 1016 82 10000 1.34 146 07:51 05.02.2022
3945 Clouds 10 1016 87 10000 2.57 150 06:57 05.02.2022
3946 Clouds 10 1016 82 10000 1.79 164 04:29 05.02.2022
3947 Clear 10 1016 80 10000 0.51 0 01:19 05.02.2022
3948 Clear 10 1016 77 10000 1.54 70 00:52 05.02.2022
3949 Clear 10 1016 77 10000 1.03 0 23:41 04.02.2022
3950 Clouds 10 1016 74 7000 1.03 0 23:23 04.02.2022
3951 Clear 11 1016 69 10000 1.54 160 21:54 04.02.2022
3952 Clear 11 1016 72 10000 1.54 160 21:36 04.02.2022
3953 Clear 11 1016 77 10000 1.54 150 21:18 04.02.2022
3954 Clear 11 1016 77 10000 0.89 133 19:39 04.02.2022
3955 Clouds 13 1017 73 10000 3.13 171 17:40 04.02.2022
3956 Clouds 14 1016 67 10000 5.36 163 15:39 04.02.2022
3957 Clouds 14 1017 65 10000 4.92 146 14:54 04.02.2022
3958 Clouds 14 1018 67 9000 4.02 214 13:31 04.02.2022
3959 Clouds 13 1018 69 9000 3.13 187 12:43 04.02.2022
3960 Clouds 13 1019 68 10000 5.36 132 11:41 04.02.2022
3961 Clouds 12 1019 70 10000 4.02 92 10:36 04.02.2022
3962 Clouds 10 1019 74 10000 1.79 91 08:34 04.02.2022
3963 Clear 9 1019 71 10000 1.79 159 06:18 04.02.2022
3964 Clear 8 1021 68 10000 1.03 0 02:42 04.02.2022
3965 Clear 8 1021 67 10000 2.57 160 01:22 04.02.2022
3966 Clear 8 1022 66 10000 1.03 0 23:29 03.02.2022
3967 Clear 9 1022 64 10000 3.09 150 22:33 03.02.2022
3968 Clear 8 1023 70 10000 0.45 92 21:49 03.02.2022
3969 Clear 9 1023 67 10000 0.89 105 20:36 03.02.2022
3970 Clear 9 1023 67 10000 3.6 170 20:18 03.02.2022
3971 Clear 10 1022 65 10000 1.79 144 19:26 03.02.2022
3972 Clear 11 1022 60 10000 0.45 179 18:28 03.02.2022
3973 Clear 12 1024 58 10000 0.45 182 17:32 03.02.2022
3974 Clear 14 1022 52 10000 1.79 229 16:24 03.02.2022
3975 Clear 15 1023 51 10000 1.79 215 14:28 03.02.2022
3976 Clear 15 1022 51 10000 2.24 206 12:40 03.02.2022
3977 Clear 13 1023 54 10000 1.54 30 10:36 03.02.2022
3978 Clear 6 1021 65 10000 0.45 34 08:35 03.02.2022
3979 Clear 7 1017 65 10000 1.34 6 03:57 03.02.2022
3980 Clear 9 1016 58 10000 2.06 70 00:30 03.02.2022
3981 Clear 8 1016 71 10000 0.45 54 22:55 02.02.2022
3982 Clear 9 1016 59 10000 3.6 70 21:53 02.02.2022
3983 Clear 9 1016 59 10000 0.45 31 21:30 02.02.2022
3984 Clear 10 1015 67 10000 3.6 70 20:33 02.02.2022
3985 Clear 10 1014 64 10000 3.09 60 19:51 02.02.2022
3986 Clear 11 1014 63 10000 0.45 11 19:26 02.02.2022
3987 Clear 12 1013 56 10000 0.45 292 18:34 02.02.2022
3988 Clear 13 1012 58 10000 3.09 350 17:38 02.02.2022
3989 Clear 14 1012 47 10000 3.09 350 17:19 02.02.2022
3990 Clear 15 1010 40 10000 1.79 250 16:30 02.02.2022
3991 Clear 14 1011 46 10000 1.79 37 12:54 02.02.2022
3992 Clear 11 1012 48 10000 0.45 30 11:51 02.02.2022
3993 Clear 10 1012 49 10000 0.45 53 11:31 02.02.2022
3994 Clear 9 1012 45 10000 3.6 60 09:46 02.02.2022
3995 Clear 4 1011 50 10000 0.45 17 06:18 02.02.2022
3996 Clear 7 1014 48 10000 0.89 11 22:46 01.02.2022
3997 Clear 7 1014 36 10000 0.89 328 21:36 01.02.2022
3998 Clear 9 1012 37 10000 1.79 50 19:57 01.02.2022
3999 Clear 11 1011 31 10000 3.13 24 17:38 01.02.2022
4000 Clear 13 1009 25 10000 4.47 41 16:33 01.02.2022
4001 Clear 13 1008 30 10000 3.58 11 13:32 01.02.2022
4002 Clear 13 1007 33 10000 5.36 287 12:30 01.02.2022
4003 Clear 12 1007 38 10000 4.02 140 11:19 01.02.2022
4004 Clear 7 1001 74 10000 4.02 351 02:32 01.02.2022
4005 Mist 8 1001 88 5000 2.68 1 23:40 31.01.2022
4006 Mist 8 1001 87 5000 2.68 6 22:48 31.01.2022
4007 Mist 9 1001 92 5000 1.34 350 21:38 31.01.2022
4008 Clouds 9 1001 92 9000 1.34 30 20:45 31.01.2022
4009 Clouds 9 1001 92 10000 0.45 126 20:26 31.01.2022
4010 Clouds 9 1002 92 10000 0.89 134 19:20 31.01.2022
4011 Clouds 9 1003 92 9000 1.79 124 18:20 31.01.2022
4012 Mist 9 1004 91 5000 2.68 156 17:25 31.01.2022
4013 Mist 9 1005 92 3000 3.13 173 16:25 31.01.2022
4014 Mist 10 1008 85 2000 2.68 175 14:54 31.01.2022
4015 Drizzle 10 1009 80 9000 2.24 176 13:51 31.01.2022
4016 Clouds 10 1010 79 9000 4.02 173 12:38 31.01.2022
4017 Clouds 9 1012 82 10000 0.45 154 11:42 31.01.2022
4018 Clouds 9 1013 82 10000 3.6 180 10:49 31.01.2022
4019 Clouds 8 1014 76 10000 2.06 180 09:45 31.01.2022
4020 Clouds 9 1016 71 10000 2.57 150 08:58 31.01.2022
4021 Clouds 8 1016 71 10000 2.57 150 08:38 31.01.2022
4022 Clouds 7 1014 77 10000 0.51 0 08:19 31.01.2022
4023 Clouds 6 1014 75 10000 0.51 0 06:18 31.01.2022
4024 Clouds 6 1018 76 10000 1.54 170 00:44 31.01.2022
4025 Clear 7 1018 75 10000 1.03 140 22:34 30.01.2022
4026 Clear 7 1019 73 10000 0.51 0 21:56 30.01.2022
4027 Clear 8 1019 72 10000 0.51 0 21:37 30.01.2022
4028 Clear 8 1018 71 10000 1.54 50 21:18 30.01.2022
4029 Clear 9 1018 69 10000 1.54 170 20:43 30.01.2022
4030 Clear 9 1018 70 10000 1.54 150 20:25 30.01.2022
4031 Clear 9 1018 67 10000 2.06 170 19:23 30.01.2022
4032 Clear 10 1018 68 10000 2.06 180 18:35 30.01.2022
4033 Clear 11 1018 61 10000 1.34 167 17:40 30.01.2022
4034 Clear 12 1018 61 10000 2.57 220 17:19 30.01.2022
4035 Clear 13 1019 56 10000 0.45 165 16:36 30.01.2022
4036 Clear 13 1019 55 10000 0.45 176 16:18 30.01.2022
4037 Clear 13 1019 53 10000 3.6 220 15:45 30.01.2022
4038 Clear 13 1019 55 10000 3.6 220 15:25 30.01.2022
4039 Clear 13 1020 56 10000 1.54 200 14:44 30.01.2022
4040 Clear 12 1022 56 10000 0.51 0 12:46 30.01.2022
4041 Clouds 11 1022 54 10000 2.57 60 11:52 30.01.2022
4042 Clear 8 1022 59 10000 0 0 10:26 30.01.2022
4043 Clear 8 1021 46 10000 1.03 0 09:41 30.01.2022
4044 Clear 5 1022 55 10000 1.03 60 08:44 30.01.2022
4045 Clear 5 1025 47 10000 2.06 90 02:58 30.01.2022
4046 Clear 5 1025 50 10000 1.03 0 01:55 30.01.2022
4047 Clear 6 1025 47 10000 3.09 80 23:50 29.01.2022
4048 Clear 6 1027 54 10000 1.54 90 22:58 29.01.2022
4049 Clear 7 1027 49 10000 0.89 302 21:44 29.01.2022
4050 Clear 8 1026 43 10000 0.89 322 21:20 29.01.2022
4051 Clear 8 1026 42 10000 1.34 299 20:21 29.01.2022
4052 Clear 8 1028 41 10000 0.89 336 19:33 29.01.2022
4053 Clear 9 1028 39 10000 0.45 1 18:51 29.01.2022
4054 Clear 10 1028 43 10000 1.54 300 18:18 29.01.2022
4055 Clear 12 1028 33 10000 1.79 294 17:27 29.01.2022
4056 Clear 13 1028 26 10000 2.68 331 15:44 29.01.2022
4057 Clear 13 1029 29 10000 3.09 30 13:58 29.01.2022
4058 Clear 13 1029 30 10000 0.89 50 13:38 29.01.2022
4059 Clear 13 1029 33 10000 0.89 79 13:20 29.01.2022
4060 Clear 10 1029 47 10000 0.89 11 11:40 29.01.2022
4061 Clear 9 1028 51 10000 0.89 25 10:38 29.01.2022
4062 Clear 5 1028 61 10000 0.89 65 08:36 29.01.2022
4063 Clear 5 1026 54 10000 1.34 19 03:53 29.01.2022
4064 Clear 7 1026 50 10000 1.79 22 00:32 29.01.2022
4065 Clear 7 1026 58 10000 1.79 315 23:43 28.01.2022
4066 Clear 8 1026 68 10000 0.45 337 22:48 28.01.2022
4067 Clear 8 1026 69 10000 1.79 333 22:20 28.01.2022
4068 Clear 8 1025 80 10000 1.03 0 20:41 28.01.2022
4069 Clear 9 1024 82 10000 1.03 0 19:59 28.01.2022
4070 Clear 10 1024 74 10000 2.24 313 19:18 28.01.2022
4071 Clear 11 1023 68 10000 1.34 325 18:35 28.01.2022
4072 Clouds 13 1023 66 10000 0.89 230 16:37 28.01.2022
4073 Clouds 14 1023 63 10000 2.68 245 14:58 28.01.2022
4074 Clouds 13 1025 60 10000 0.51 0 13:21 28.01.2022
4075 Mist 11 1025 70 5000 0.51 0 11:52 28.01.2022
4076 Clouds 9 1025 78 10000 1.54 10 10:27 28.01.2022
4077 Clouds 9 1025 81 10000 1.03 0 09:47 28.01.2022
4078 Clouds 7 1025 82 10000 0.51 0 07:42 28.01.2022
4079 Clouds 6 1026 82 9000 0.45 20 06:29 28.01.2022
4080 Clouds 6 1025 76 10000 1.03 0 03:51 28.01.2022
4081 Clouds 7 1025 75 10000 1.54 100 02:27 28.01.2022
4082 Clouds 7 1026 77 10000 1.54 80 01:37 28.01.2022
4083 Clear 7 1026 75 10000 0.51 0 00:46 28.01.2022
4084 Clouds 8 1026 72 10000 1.03 160 22:20 27.01.2022
4085 Clear 8 1026 72 10000 1.03 0 21:37 27.01.2022
4086 Clear 8 1026 71 10000 1.03 170 20:59 27.01.2022
4087 Clear 8 1026 71 10000 1.03 170 20:59 27.01.2022
4088 Clear 9 1026 68 10000 1.03 180 19:38 27.01.2022
4089 Clear 10 1027 67 10000 1.03 250 18:20 27.01.2022
4090 Clear 12 1026 68 10000 2.06 30 16:55 27.01.2022
4091 Clear 13 1026 58 10000 0.45 11 13:58 27.01.2022
4092 Clear 12 1027 58 7000 0.45 94 12:49 27.01.2022
4093 Clear 12 1027 58 7000 0.45 94 12:49 27.01.2022
4094 Clear 10 1027 63 10000 3.09 60 11:54 27.01.2022
4095 Clear 7 1027 70 10000 0.45 44 09:48 27.01.2022
4096 Clear 5 1027 76 8000 0.45 30 08:40 27.01.2022
4097 Clear 5 1026 72 10000 0.45 1 07:52 27.01.2022
4098 Clouds 6 1026 80 10000 0.45 350 03:34 27.01.2022
4099 Clouds 8 1028 74 10000 2.06 70 00:24 27.01.2022
4100 Clouds 8 1027 76 10000 1.54 60 22:28 26.01.2022
4101 Clouds 9 1028 76 10000 2.06 60 21:44 26.01.2022
4102 Clouds 9 1027 72 10000 0.89 307 20:49 26.01.2022
4103 Clouds 9 1027 71 10000 0.51 0 20:31 26.01.2022
4104 Clouds 9 1026 69 10000 1.03 30 19:38 26.01.2022
4105 Clouds 10 1027 67 10000 2.06 30 18:47 26.01.2022
4106 Clouds 10 1027 69 10000 0.89 288 18:18 26.01.2022
4107 Clouds 10 1027 62 10000 0.89 286 17:33 26.01.2022
4108 Clouds 11 1027 62 10000 0.45 312 16:47 26.01.2022
4109 Clouds 11 1027 62 10000 1.54 320 16:22 26.01.2022
4110 Clear 12 1027 57 10000 0.89 321 14:32 26.01.2022
4111 Clear 10 1029 58 10000 1.03 0 12:20 26.01.2022
4112 Clear 8 1029 54 10000 0.45 25 10:50 26.01.2022
4113 Clear 5 1028 61 10000 1.79 35 09:52 26.01.2022
4114 Clear 3 1027 59 10000 2.57 60 08:49 26.01.2022
4115 Clear 2 1028 64 10000 2.06 70 06:36 26.01.2022
4116 Clear 4 1029 59 10000 1.03 0 00:21 26.01.2022
4117 Clear 4 1029 57 10000 1.03 140 23:37 25.01.2022
4118 Clear 5 1030 57 10000 1.03 160 22:48 25.01.2022
4119 Clear 5 1030 58 10000 1.54 170 22:18 25.01.2022
4120 Clear 5 1030 59 10000 1.54 160 21:27 25.01.2022
4121 Clear 5 1030 61 10000 1.54 160 20:45 25.01.2022
4122 Clear 6 1030 58 10000 2.06 150 19:54 25.01.2022
4123 Clear 6 1030 55 10000 1.54 180 19:23 25.01.2022
4124 Clear 8 1031 43 10000 0.45 244 17:56 25.01.2022
4125 Clear 9 1030 40 10000 0.89 242 17:18 25.01.2022
4126 Clear 10 1030 33 10000 0.51 0 16:34 25.01.2022
4127 Clear 11 1030 34 10000 0.89 296 15:39 25.01.2022
4128 Clear 11 1030 36 10000 0.45 354 15:18 25.01.2022
4129 Clear 11 1030 35 10000 0.45 188 14:43 25.01.2022
4130 Clear 9 1031 42 10000 0.45 26 11:52 25.01.2022
4131 Clear 4 1031 60 10000 1.79 37 09:21 25.01.2022
4132 Clear 2 1029 62 10000 3.6 50 07:47 25.01.2022
4133 Clear 3 1029 58 10000 1.34 1 06:54 25.01.2022
4134 Clear 3 1030 66 10000 0.45 309 05:23 25.01.2022
4135 Clear 6 1029 62 10000 1.34 6 00:28 25.01.2022
4136 Clear 6 1029 60 10000 2.24 73 23:36 24.01.2022
4137 Clear 6 1029 60 10000 1.79 89 23:18 24.01.2022
4138 Clear 6 1029 60 10000 1.79 89 23:18 24.01.2022
4139 Clear 7 1029 58 10000 1.79 35 22:42 24.01.2022
4140 Clear 7 1029 55 10000 3.13 77 21:57 24.01.2022
4141 Clear 7 1029 56 10000 1.79 87 21:32 24.01.2022
4142 Clear 8 1029 53 10000 2.68 29 20:38 24.01.2022
4143 Clear 8 1029 53 10000 0.89 51 20:20 24.01.2022
4144 Clear 9 1029 48 10000 1.79 1 19:38 24.01.2022
4145 Clear 9 1028 49 10000 2.24 20 18:47 24.01.2022
4146 Clear 12 1027 43 10000 1.34 78 17:25 24.01.2022
4147 Clear 12 1027 44 10000 1.34 42 16:58 24.01.2022
4148 Clouds 13 1026 38 10000 0.89 17 16:30 24.01.2022
4149 Clear 14 1027 42 10000 3.13 23 14:56 24.01.2022
4150 Clear 13 1027 42 10000 2.68 43 13:39 24.01.2022
4151 Clear 12 1027 50 10000 0.89 97 12:33 24.01.2022
4152 Clear 9 1027 57 10000 1.34 1 11:21 24.01.2022
4153 Clear 7 1027 65 10000 0.89 62 10:18 24.01.2022
4154 Clear 6 1026 67 10000 0.45 23 09:44 24.01.2022
4155 Clear 3 1026 76 10000 0.89 54 07:40 24.01.2022
4156 Clear 5 1027 73 10000 1.54 50 01:38 24.01.2022
4157 Clear 5 1027 72 10000 0.45 57 00:47 24.01.2022
4158 Clear 5 1027 74 10000 2.06 60 00:28 24.01.2022
4159 Clear 5 1027 81 10000 1.03 120 22:46 23.01.2022
4160 Clear 6 1027 74 10000 1.03 0 21:51 23.01.2022
4161 Clear 6 1027 73 10000 1.03 170 21:27 23.01.2022
4162 Clear 6 1027 73 10000 1.03 160 20:54 23.01.2022
4163 Clear 7 1027 72 10000 1.03 140 19:55 23.01.2022
4164 Clear 8 1027 64 10000 1.03 280 18:52 23.01.2022
4165 Clear 10 1027 60 10000 1.03 280 17:56 23.01.2022
4166 Clear 12 1028 58 10000 0.89 285 16:54 23.01.2022
4167 Clear 13 1028 51 10000 0.89 240 15:45 23.01.2022
4168 Clear 12 1029 51 10000 0.51 0 14:34 23.01.2022
4169 Clear 12 1030 57 10000 0.45 277 13:43 23.01.2022
4170 Clear 11 1029 55 10000 1.03 0 12:40 23.01.2022
4171 Clear 11 1029 55 10000 0.89 170 12:18 23.01.2022
4172 Clear 9 1030 58 10000 2.06 330 11:25 23.01.2022
4173 Clear 9 1031 59 10000 2.57 40 10:57 23.01.2022
4174 Clear 6 1029 62 10000 1.54 340 10:23 23.01.2022
4175 Clear 4 1029 68 10000 1.54 20 09:25 23.01.2022
4176 Clear 2 1027 68 10000 1.79 66 05:59 23.01.2022
4177 Clear 3 1027 70 10000 1.34 11 03:20 23.01.2022
4178 Clear 3 1026 66 10000 2.06 40 01:36 23.01.2022
4179 Clear 4 1026 67 10000 0.45 29 00:42 23.01.2022
4180 Clear 4 1026 68 10000 1.54 70 23:57 22.01.2022
4181 Clear 5 1026 65 10000 0.45 11 22:48 22.01.2022
4182 Clear 5 1026 66 10000 0.51 0 22:19 22.01.2022
4183 Clear 6 1026 61 10000 1.03 0 20:29 22.01.2022
4184 Clear 7 1025 57 10000 0.51 0 19:37 22.01.2022
4185 Clear 8 1025 54 10000 0.45 343 18:37 22.01.2022
4186 Clear 8 1025 54 10000 0.45 343 18:37 22.01.2022
4187 Clear 9 1026 51 10000 2.24 304 17:45 22.01.2022
4188 Clear 9 1025 50 10000 1.34 292 17:18 22.01.2022
4189 Clear 10 1026 55 10000 3.13 298 16:54 22.01.2022
4190 Clear 11 1025 45 10000 3.58 235 15:45 22.01.2022
4191 Clear 11 1026 46 10000 4.02 235 14:42 22.01.2022
4192 Clear 11 1025 41 10000 2.24 312 13:28 22.01.2022
4193 Clear 10 1025 41 10000 0.89 22 12:37 22.01.2022
4194 Clear 10 1025 43 10000 0.45 317 12:18 22.01.2022
4195 Clear 7 1025 51 10000 0.51 0 10:39 22.01.2022
4196 Clear 7 1025 53 10000 0.45 80 10:20 22.01.2022
4197 Clear 5 1025 54 10000 1.34 6 08:56 22.01.2022
4198 Clear 4 1025 55 10000 1.34 28 08:38 22.01.2022
4199 Clouds 4 1023 59 10000 1.79 19 06:46 22.01.2022
4200 Clouds 5 1022 61 10000 1.79 308 02:39 22.01.2022
4201 Clear 6 1022 66 10000 2.24 39 23:50 21.01.2022
4202 Clear 6 1021 66 10000 2.24 95 22:59 21.01.2022
4203 Clear 7 1021 68 10000 1.79 46 21:18 21.01.2022
4204 Clear 9 1019 64 10000 1.34 47 19:30 21.01.2022
4205 Clear 10 1018 61 10000 2.68 1 17:51 21.01.2022
4206 Clouds 12 1017 59 10000 0.89 48 15:56 21.01.2022
4207 Clouds 12 1018 68 10000 1.34 1 14:58 21.01.2022
4208 Clouds 12 1018 72 10000 0.89 328 12:48 21.01.2022
4209 Clear 10 1019 84 10000 0.45 41 11:29 21.01.2022
4210 Clear 9 1019 90 10000 0.89 38 10:47 21.01.2022
4211 Clouds 7 1018 91 10000 0.89 32 08:59 21.01.2022
4212 Clouds 7 1017 90 10000 0.45 67 07:58 21.01.2022
4213 Clouds 8 1017 89 10000 3.6 180 01:55 21.01.2022
4214 Clouds 9 1018 86 10000 3.09 160 22:51 20.01.2022
4215 Clouds 9 1018 86 10000 3.6 160 21:49 20.01.2022
4216 Clouds 9 1018 85 10000 0.89 142 21:25 20.01.2022
4217 Clouds 10 1018 85 10000 1.34 165 19:55 20.01.2022
4218 Clouds 10 1018 85 10000 3.09 200 19:18 20.01.2022
4219 Clouds 10 1018 82 10000 1.54 220 17:37 20.01.2022
4220 Clouds 11 1018 84 10000 2.06 170 16:24 20.01.2022
4221 Clouds 11 1019 90 10000 3.09 160 15:31 20.01.2022
4222 Clouds 10 1019 90 10000 2.06 180 14:37 20.01.2022
4223 Clouds 10 1020 86 10000 3.6 190 12:53 20.01.2022
4224 Mist 10 1021 87 4000 4.12 160 12:29 20.01.2022
4225 Mist 10 1021 85 4000 0.45 180 11:19 20.01.2022
4226 Mist 10 1021 85 4000 1.54 0 10:19 20.01.2022
4227 Clouds 9 1021 85 7000 1.54 240 09:18 20.01.2022
4228 Clouds 8 1022 88 10000 2.57 200 07:23 20.01.2022
4229 Clouds 9 1025 74 10000 2.57 180 00:41 20.01.2022
4230 Clouds 9 1026 70 10000 3.09 180 22:40 19.01.2022
4231 Clouds 9 1026 71 10000 2.57 180 21:40 19.01.2022
4232 Clouds 9 1026 72 10000 2.57 180 21:21 19.01.2022
4233 Clouds 9 1026 71 10000 3.09 170 20:45 19.01.2022
4234 Clear 9 1027 70 10000 3.6 170 19:18 19.01.2022
4235 Clouds 11 1028 65 10000 0.45 180 17:51 19.01.2022
4236 Clouds 11 1027 61 10000 0.51 330 17:28 19.01.2022
4237 Clouds 13 1028 55 10000 1.03 0 15:36 19.01.2022
4238 Clouds 13 1030 59 10000 1.54 350 13:38 19.01.2022
4239 Clouds 12 1030 64 10000 2.57 340 12:20 19.01.2022
4240 Clouds 11 1029 62 10000 1.54 40 11:38 19.01.2022
4241 Clear 8 1031 74 10000 1.03 40 09:52 19.01.2022
4242 Mist 6 1030 81 5000 2.06 360 09:33 19.01.2022
4243 Clear 4 1030 82 10000 0.89 38 06:34 19.01.2022
4244 Clear 5 1031 78 10000 0.45 50 00:33 19.01.2022
4245 Clear 6 1031 76 10000 0.51 0 23:18 18.01.2022
4246 Clear 7 1031 79 10000 1.03 0 21:55 18.01.2022
4247 Clear 8 1031 74 8000 1.03 160 20:44 18.01.2022
4248 Clear 8 1031 74 10000 2.06 160 19:52 18.01.2022
4249 Clear 8 1031 73 10000 2.06 160 19:33 18.01.2022
4250 Clear 9 1031 69 10000 1.03 0 18:26 18.01.2022
4251 Clear 11 1031 67 10000 0.45 235 17:48 18.01.2022
4252 Clear 13 1029 55 10000 0.51 0 16:33 18.01.2022
4253 Clear 14 1030 53 10000 0.51 0 15:26 18.01.2022
4254 Clear 14 1030 53 10000 0.51 0 14:34 18.01.2022
4255 Clear 12 1030 55 10000 0.47 29 11:52 18.01.2022
4256 Clear 9 1028 72 10000 2.57 20 10:40 18.01.2022
4257 Clear 4 1028 86 6000 1.03 340 08:49 18.01.2022
4258 Clear 4 1027 84 10000 0.89 43 07:45 18.01.2022
4259 Clear 5 1026 83 9000 1.54 40 02:20 18.01.2022
4260 Clear 7 1025 73 10000 0.51 0 23:22 17.01.2022
4261 Clear 7 1026 75 10000 2.57 100 21:58 17.01.2022
4262 Clear 7 1025 74 10000 3.09 100 21:31 17.01.2022
4263 Clear 9 1024 75 10000 1.03 0 19:42 17.01.2022
4264 Clear 10 1024 64 10000 1.54 120 18:27 17.01.2022
4265 Clear 12 1025 59 10000 1.54 30 17:24 17.01.2022
4266 Clear 13 1024 57 10000 1.34 340 16:24 17.01.2022
4267 Clear 14 1024 55 10000 0.89 41 14:58 17.01.2022
4268 Clear 13 1025 56 10000 0.89 6 14:33 17.01.2022
4269 Clear 13 1025 63 10000 2.24 320 13:19 17.01.2022
4270 Clear 12 1025 66 10000 1.34 1 12:52 17.01.2022
4271 Clear 10 1026 73 10000 2.68 31 11:47 17.01.2022
4272 Clear 8 1025 80 10000 0.89 56 10:21 17.01.2022
4273 Clear 5 1025 88 10000 0.89 69 08:44 17.01.2022
4274 Clear 4 1024 87 10000 1.54 50 07:22 17.01.2022
4275 Clouds 6 1025 83 10000 1.03 50 02:20 17.01.2022
4276 Clouds 7 1025 83 10000 0.89 24 00:43 17.01.2022
4277 Clear 8 1025 81 10000 2.57 170 21:22 16.01.2022
4278 Clear 8 1025 79 10000 1.54 180 20:30 16.01.2022
4279 Clear 10 1024 74 10000 2.06 170 18:48 16.01.2022
4280 Clear 11 1025 70 10000 1.54 270 17:51 16.01.2022
4281 Clear 12 1025 70 10000 2.57 290 16:55 16.01.2022
4282 Clear 14 1024 57 10000 1.34 251 15:43 16.01.2022
4283 Clear 14 1025 56 10000 1.03 0 14:29 16.01.2022
4284 Clear 14 1024 61 10000 1.03 0 13:33 16.01.2022
4285 Clear 12 1025 65 10000 2.06 10 12:21 16.01.2022
4286 Clear 11 1026 69 10000 1.54 350 11:29 16.01.2022
4287 Clear 9 1026 77 10000 0.45 37 10:28 16.01.2022
4288 Clear 9 1025 77 10000 2.57 40 09:58 16.01.2022
4289 Clear 7 1025 83 10000 1.03 30 09:37 16.01.2022
4290 Clear 6 1024 84 10000 0.89 61 09:19 16.01.2022
4291 Clear 4 1022 83 10000 1.34 6 06:35 16.01.2022
4292 Clear 6 1022 78 8000 0.89 37 00:19 16.01.2022
4293 Clear 7 1023 79 10000 0.45 75 22:50 15.01.2022
4294 Clear 8 1023 71 10000 1.03 180 21:21 15.01.2022
4295 Clear 8 1022 70 10000 0.51 0 20:44 15.01.2022
4296 Clear 9 1022 67 10000 0.51 180 20:21 15.01.2022
4297 Clear 8 1022 69 10000 0.89 257 19:26 15.01.2022
4298 Clear 10 1023 67 10000 0.51 0 17:58 15.01.2022
4299 Clear 13 1023 50 10000 0.89 252 16:49 15.01.2022
4300 Clear 14 1023 48 10000 0.51 0 14:36 15.01.2022
4301 Clear 12 1023 51 10000 2.06 40 12:39 15.01.2022
4302 Clear 10 1025 58 10000 0.89 11 11:21 15.01.2022
4303 Clear 6 1023 77 10000 0.51 0 09:46 15.01.2022
4304 Clear 4 1025 65 10000 1.54 80 01:27 15.01.2022
4305 Clear 5 1025 66 10000 0.45 23 22:40 14.01.2022
4306 Clear 6 1026 71 10000 1.54 160 20:57 14.01.2022
4307 Clear 6 1026 68 10000 1.54 170 20:24 14.01.2022
4308 Clear 6 1026 69 10000 2.06 140 19:49 14.01.2022
4309 Clear 8 1028 61 10000 0.51 150 18:33 14.01.2022
4310 Clear 10 1028 54 10000 0.89 280 16:57 14.01.2022
4311 Clear 11 1028 49 10000 1.34 229 16:38 14.01.2022
4312 Clear 12 1029 40 10000 1.03 0 14:50 14.01.2022
4313 Clear 12 1029 39 10000 0.45 293 14:20 14.01.2022
4314 Clear 10 1029 43 10000 1.03 0 12:37 14.01.2022
4315 Clear 8 1030 54 10000 0.45 1 11:34 14.01.2022
4316 Clear 6 1031 64 10000 1.34 48 10:22 14.01.2022
4317 Clear 3 1030 67 10000 0.89 94 08:52 14.01.2022
4318 Clear 2 1030 59 10000 0.45 21 07:29 14.01.2022
4319 Clear 3 1032 69 10000 2.06 90 01:43 14.01.2022
4320 Clear 4 1033 62 10000 1.34 21 23:39 13.01.2022
4321 Clear 5 1032 60 10000 1.34 71 21:45 13.01.2022
4322 Clear 5 1032 62 10000 1.79 16 21:27 13.01.2022
4323 Clear 7 1032 55 10000 1.54 180 19:44 13.01.2022
4324 Clear 7 1032 53 10000 1.03 0 19:22 13.01.2022
4325 Clear 8 1031 54 10000 1.34 338 18:33 13.01.2022
4326 Clear 12 1029 42 10000 3.6 10 16:43 13.01.2022
4327 Clear 12 1030 38 10000 0.45 199 15:38 13.01.2022
4328 Clear 13 1030 42 10000 0.45 144 14:50 13.01.2022
4329 Clear 13 1030 42 10000 0.45 144 14:50 13.01.2022
4330 Clear 12 1029 36 10000 0.45 77 12:54 13.01.2022
4331 Clear 7 1029 47 10000 1.79 53 10:29 13.01.2022
4332 Clear 5 1028 55 10000 1.79 21 09:22 13.01.2022
4333 Clear 3 1029 55 10000 2.68 23 08:28 13.01.2022
4334 Clear 2 1028 57 10000 0.89 11 07:25 13.01.2022
4335 Clear 2 1028 57 10000 3.13 33 06:41 13.01.2022
4336 Clear 4 1028 64 10000 2.24 35 05:20 13.01.2022
4337 Clear 4 1028 64 10000 1.79 64 03:24 13.01.2022
4338 Clear 5 1027 62 10000 2.24 6 00:56 13.01.2022
4339 Clear 5 1027 60 10000 2.24 87 23:53 12.01.2022
4340 Clear 5 1027 58 10000 2.24 11 23:32 12.01.2022
4341 Clear 6 1026 57 10000 1.34 49 21:58 12.01.2022
4342 Clear 6 1026 56 10000 2.24 31 21:23 12.01.2022
4343 Clear 7 1025 59 10000 0.89 47 20:57 12.01.2022
4344 Clear 7 1025 59 10000 2.24 356 20:19 12.01.2022
4345 Clear 8 1024 52 10000 1.79 345 18:48 12.01.2022
4346 Clear 9 1023 54 10000 3.58 88 17:53 12.01.2022
4347 Clear 11 1022 46 10000 6.17 20 16:42 12.01.2022
4348 Clear 13 1021 43 10000 2.68 28 14:49 12.01.2022
4349 Clear 12 1021 46 10000 3.58 23 13:37 12.01.2022
4350 Clear 12 1020 47 10000 4.47 319 12:35 12.01.2022
4351 Clouds 5 1016 73 10000 4.12 60 08:55 12.01.2022
4352 Clouds 5 1017 78 10000 3.13 58 07:55 12.01.2022
4353 Rain 4 1016 80 10000 3.09 30 07:32 12.01.2022
4354 Clear 5 1016 48 10000 5.36 331 01:34 12.01.2022
4355 Clear 6 1017 50 10000 4.02 20 23:25 11.01.2022
4356 Clear 7 1016 54 10000 3.13 61 22:24 11.01.2022
4357 Clear 7 1016 57 10000 3.58 6 21:28 11.01.2022
4358 Clear 7 1016 59 10000 3.13 350 20:36 11.01.2022
4359 Clear 8 1014 56 10000 3.13 65 19:23 11.01.2022
4360 Clear 9 1013 58 10000 2.68 6 17:46 11.01.2022
4361 Clear 10 1012 56 10000 1.79 65 16:39 11.01.2022
4362 Clear 10 1012 55 10000 2.24 312 16:18 11.01.2022
4363 Clear 12 1011 51 10000 2.68 355 14:48 11.01.2022
4364 Clear 12 1012 51 10000 2.24 322 14:30 11.01.2022
4365 Clear 12 1011 50 10000 4.47 321 13:46 11.01.2022
4366 Clear 12 1011 50 10000 3.13 66 13:25 11.01.2022
4367 Clouds 11 1011 49 10000 3.13 15 12:24 11.01.2022
4368 Clear 9 1012 51 10000 4.92 16 10:31 11.01.2022
4369 Clouds 7 1009 57 10000 5.81 352 07:50 11.01.2022
4370 Clear 8 1007 57 10000 3.13 109 03:47 11.01.2022
4371 Clear 8 1005 61 10000 3.58 1 00:25 11.01.2022
4372 Clear 8 1005 58 10000 2.68 11 23:38 10.01.2022
4373 Clear 8 1005 61 10000 3.58 356 22:20 10.01.2022
4374 Clouds 7 1004 57 10000 4.02 21 21:57 10.01.2022
4375 Clear 8 1004 61 10000 3.58 27 21:33 10.01.2022
4376 Clear 8 1004 61 10000 3.58 329 20:58 10.01.2022
4377 Clear 8 1004 60 10000 4.47 39 20:36 10.01.2022
4378 Clear 8 1003 59 10000 4.02 38 20:18 10.01.2022
4379 Clear 8 1003 58 10000 4.02 350 19:37 10.01.2022
4380 Clear 8 1003 58 10000 3.13 20 19:18 10.01.2022
4381 Clear 8 1003 60 10000 3.58 6 18:46 10.01.2022
4382 Clear 9 1001 58 10000 4.02 44 16:48 10.01.2022
4383 Clear 9 1001 53 10000 3.13 15 16:20 10.01.2022
4384 Clear 11 1000 54 10000 4.02 24 14:42 10.01.2022
4385 Clear 9 999 63 10000 4.92 11 12:50 10.01.2022
4386 Clear 8 999 68 10000 4.47 37 11:55 10.01.2022
4387 Clear 7 1000 69 10000 4.92 6 10:46 10.01.2022
4388 Clear 6 999 73 10000 3.58 325 09:33 10.01.2022
4389 Clear 5 998 79 10000 3.13 346 05:51 10.01.2022
4390 Clouds 4 998 81 10000 3.13 22 02:30 10.01.2022
4391 Rain 4 998 82 10000 4.47 42 01:20 10.01.2022
4392 Clouds 4 998 85 10000 2.68 31 00:19 10.01.2022
4393 Clouds 4 998 86 10000 3.13 1 22:44 09.01.2022
4394 Clouds 4 998 86 10000 2.68 17 21:57 09.01.2022
4395 Clouds 4 998 86 10000 2.24 318 21:37 09.01.2022
4396 Clouds 4 998 86 10000 2.24 318 21:37 09.01.2022
4397 Clouds 4 998 87 10000 4.02 317 21:18 09.01.2022
4398 Clouds 4 998 89 10000 1.79 331 20:45 09.01.2022
4399 Clouds 4 998 88 10000 2.68 1 20:26 09.01.2022
4400 Clouds 5 998 89 10000 2.68 26 19:38 09.01.2022
4401 Clouds 5 998 89 10000 2.24 11 19:20 09.01.2022
4402 Clouds 5 998 89 10000 2.24 348 18:37 09.01.2022
4403 Clouds 6 997 90 10000 0.89 327 17:48 09.01.2022
4404 Clouds 6 998 89 10000 0.45 321 17:29 09.01.2022
4405 Clouds 6 998 89 8000 5.14 120 16:43 09.01.2022
4406 Clouds 6 998 89 5000 3.6 120 15:42 09.01.2022
4407 Clouds 6 998 89 5000 3.6 120 15:42 09.01.2022
4408 Rain 5 998 87 5000 4.12 360 14:58 09.01.2022
4409 Rain 6 999 85 3500 4.12 360 14:24 09.01.2022
4410 Clouds 6 999 84 3500 4.92 345 13:48 09.01.2022
4411 Rain 7 1000 80 10000 4.47 188 11:56 09.01.2022
4412 Rain 7 1001 77 10000 3.13 160 11:28 09.01.2022
4413 Clouds 6 1003 69 10000 1.03 0 09:55 09.01.2022
4414 Clouds 5 1004 72 10000 1.03 0 09:20 09.01.2022
4415 Clear 4 1005 72 10000 1.03 0 06:57 09.01.2022
4416 Clear 3 1009 66 10000 1.54 340 01:30 09.01.2022
4417 Clear 3 1010 67 10000 1.54 330 00:38 09.01.2022
4418 Clear 4 1010 64 10000 0.45 78 23:34 08.01.2022
4419 Clear 4 1010 60 10000 0.45 6 22:48 08.01.2022
4420 Clear 5 1011 56 10000 2.06 80 21:28 08.01.2022
4421 Clear 5 1011 54 10000 1.54 70 20:44 08.01.2022
4422 Clear 5 1011 54 10000 1.54 70 20:44 08.01.2022
4423 Clear 6 1011 54 10000 1.03 0 20:22 08.01.2022
4424 Clear 6 1010 50 10000 1.34 330 19:22 08.01.2022
4425 Clear 8 1010 47 10000 1.34 11 17:38 08.01.2022
4426 Clear 9 1010 45 10000 0.45 334 16:57 08.01.2022
4427 Clear 10 1010 46 10000 2.68 325 15:34 08.01.2022
4428 Clear 10 1011 49 10000 1.34 6 14:25 08.01.2022
4429 Clear 7 1012 64 10000 1.54 30 11:43 08.01.2022
4430 Clear 5 1012 74 10000 0.89 85 10:40 08.01.2022
4431 Clear 5 1012 76 10000 0.45 48 10:22 08.01.2022
4432 Clear 4 1011 78 10000 0.45 6 09:34 08.01.2022
4433 Clear 4 1010 77 10000 0.45 346 06:22 08.01.2022
4434 Clear 5 1012 74 10000 2.57 50 01:46 08.01.2022
4435 Clear 7 1012 73 10000 2.06 50 23:36 07.01.2022
4436 Clouds 8 1014 72 10000 2.57 30 21:49 07.01.2022
4437 Clouds 10 1014 66 10000 1.34 53 20:35 07.01.2022
4438 Clear 10 1014 62 10000 1.54 60 19:27 07.01.2022
4439 Clear 11 1014 58 10000 1.03 40 18:49 07.01.2022
4440 Clear 11 1014 58 10000 1.03 0 18:24 07.01.2022
4441 Clear 11 1013 61 10000 0.89 322 17:24 07.01.2022
4442 Clear 14 1014 56 10000 0.45 339 14:56 07.01.2022
4443 Clear 13 1014 58 10000 0.45 30 13:52 07.01.2022
4444 Clear 13 1014 58 10000 0.45 30 13:52 07.01.2022
4445 Clear 12 1014 56 10000 3.09 20 12:51 07.01.2022
4446 Clear 11 1014 62 10000 0.45 42 11:58 07.01.2022
4447 Clouds 6 1013 76 10000 0.45 56 04:56 07.01.2022
4448 Clear 6 1012 75 10000 0.45 36 02:53 07.01.2022
4449 Clear 6 1012 76 10000 1.34 24 01:50 07.01.2022
4450 Clear 7 1012 74 10000 1.79 53 01:26 07.01.2022
4451 Clear 7 1012 74 10000 2.24 58 00:34 07.01.2022
4452 Clear 7 1011 72 10000 0.89 19 22:42 06.01.2022
4453 Clouds 9 1010 70 10000 0.89 35 20:54 06.01.2022
4454 Clouds 9 1010 69 10000 0.89 57 20:18 06.01.2022
4455 Clouds 9 1010 68 10000 2.24 6 19:39 06.01.2022
4456 Clouds 10 1008 64 10000 1.54 310 17:52 06.01.2022
4457 Clouds 11 1008 64 10000 1.54 320 17:28 06.01.2022
4458 Clouds 12 1008 60 10000 1.03 0 16:38 06.01.2022
4459 Clouds 13 1008 58 10000 2.06 230 15:44 06.01.2022
4460 Clouds 13 1008 58 10000 2.06 230 15:23 06.01.2022
4461 Clouds 13 1007 56 10000 0.45 245 14:20 06.01.2022
4462 Clouds 12 1008 60 9000 3.09 220 13:44 06.01.2022
4463 Clouds 12 1007 61 10000 2.24 182 12:32 06.01.2022
4464 Clouds 11 1007 58 8000 4.02 142 11:41 06.01.2022
4465 Clouds 11 1007 60 10000 2.24 187 11:19 06.01.2022
4466 Clear 9 1005 65 10000 0.89 188 06:59 06.01.2022
4467 Clouds 11 1005 67 10000 1.79 229 00:35 06.01.2022
4468 Clouds 11 1006 68 10000 3.58 315 23:35 05.01.2022
4469 Clouds 11 1006 68 10000 3.58 315 23:35 05.01.2022
4470 Clouds 11 1005 68 10000 4.02 188 22:50 05.01.2022
4471 Clouds 11 1004 68 10000 3.13 227 22:29 05.01.2022
4472 Clouds 11 1003 72 10000 2.68 253 21:44 05.01.2022
4473 Clouds 12 1003 79 10000 3.58 213 20:44 05.01.2022
4474 Rain 13 1002 78 10000 4.92 217 19:53 05.01.2022
4475 Clouds 14 1000 84 7000 4.92 238 18:27 05.01.2022
4476 Clouds 15 999 75 7000 9.26 170 16:59 05.01.2022
4477 Clouds 15 1001 73 10000 6.69 160 16:22 05.01.2022
4478 Clouds 15 1001 67 10000 6.17 170 15:20 05.01.2022
4479 Clouds 16 1002 71 10000 8.75 170 13:37 05.01.2022
4480 Clouds 16 1004 68 10000 6.17 170 12:49 05.01.2022
4481 Clouds 13 1004 84 10000 8.75 180 08:57 05.01.2022
4482 Clouds 12 1006 85 10000 5.14 170 07:31 05.01.2022
4483 Clear 12 1008 81 10000 5.14 170 01:59 05.01.2022
4484 Clouds 12 1009 81 10000 6.69 180 23:50 04.01.2022
4485 Clouds 12 1010 81 10000 5.66 180 23:26 04.01.2022
4486 Clouds 12 1010 80 10000 5.66 170 22:21 04.01.2022
4487 Clouds 13 1011 77 10000 4.63 190 20:50 04.01.2022
4488 Clouds 13 1011 74 10000 6.17 180 18:46 04.01.2022
4489 Clouds 14 1013 71 8000 3.09 190 17:37 04.01.2022
4490 Clouds 14 1013 73 8000 5.14 200 16:40 04.01.2022
4491 Clouds 14 1013 71 8000 5.14 200 16:21 04.01.2022
4492 Clouds 15 1012 68 10000 6.17 200 14:51 04.01.2022
4493 Clouds 15 1013 69 8000 3.09 170 14:33 04.01.2022
4494 Clouds 15 1014 66 8000 1.54 70 13:26 04.01.2022
4495 Clouds 13 1017 84 8000 0.51 350 10:29 04.01.2022
4496 Clouds 12 1015 82 10000 2.57 180 08:59 04.01.2022
4497 Clouds 12 1016 84 10000 2.06 170 06:46 04.01.2022
4498 Clouds 12 1018 87 10000 2.06 160 00:50 04.01.2022
4499 Clouds 12 1018 84 10000 1.54 160 00:31 04.01.2022
4500 Clouds 12 1018 84 10000 1.54 170 22:30 03.01.2022
4501 Clouds 12 1019 83 10000 1.03 170 21:41 03.01.2022
4502 Clouds 12 1019 83 10000 1.03 0 20:51 03.01.2022
4503 Clouds 12 1019 86 10000 1.03 170 19:44 03.01.2022
4504 Clouds 13 1019 81 10000 1.54 170 18:32 03.01.2022
4505 Clouds 13 1020 79 10000 1.54 210 17:40 03.01.2022
4506 Clouds 14 1019 77 10000 2.57 260 16:56 03.01.2022
4507 Clouds 14 1020 78 8000 2.06 300 14:54 03.01.2022
4508 Drizzle 14 1022 81 8000 0.51 0 13:25 03.01.2022
4509 Clouds 14 1022 75 10000 0.51 0 12:28 03.01.2022
4510 Clear 13 1023 77 10000 1.03 0 11:30 03.01.2022
4511 Clouds 10 1022 89 6000 0.51 0 09:42 03.01.2022
4512 Mist 9 1022 87 5000 1.03 0 08:18 03.01.2022
4513 Clouds 9 1022 86 9000 1.03 0 06:31 03.01.2022
4514 Mist 10 1024 85 5000 0.51 0 23:45 02.01.2022
4515 Mist 10 1024 87 5000 2.06 110 22:57 02.01.2022
4516 Mist 10 1024 85 5000 2.06 110 22:38 02.01.2022
4517 Mist 10 1025 88 5000 1.54 340 21:26 02.01.2022
4518 Mist 10 1024 82 5000 1.03 0 20:30 02.01.2022
4519 Mist 10 1024 81 5000 1.54 20 19:49 02.01.2022
4520 Mist 10 1024 86 5000 2.06 330 19:25 02.01.2022
4521 Mist 10 1024 82 5000 2.06 90 18:31 02.01.2022
4522 Mist 10 1026 85 9000 1.03 350 17:43 02.01.2022
4523 Clouds 10 1026 85 9000 1.03 350 17:21 02.01.2022
4524 Clouds 10 1025 81 10000 3.6 60 16:33 02.01.2022
4525 Clouds 11 1026 83 10000 2.57 40 15:49 02.01.2022
4526 Clouds 10 1025 92 8000 2.57 10 13:58 02.01.2022
4527 Mist 10 1029 90 4000 1.54 60 12:34 02.01.2022
4528 Clouds 10 1028 93 7000 2.57 30 11:56 02.01.2022
4529 Mist 9 1027 98 3000 2.06 80 10:56 02.01.2022
4530 Mist 9 1027 87 2000 2.06 80 10:22 02.01.2022
4531 Mist 8 1027 86 1000 1.03 0 08:22 02.01.2022
4532 Mist 8 1026 87 4000 3.09 40 02:58 02.01.2022
4533 Clear 9 1025 84 10000 1.45 20 23:55 01.01.2022
4534 Clear 9 1025 80 10000 1.45 20 23:36 01.01.2022
4535 Mist 9 1026 85 4000 1.54 80 22:41 01.01.2022
4536 Mist 9 1026 85 4000 2.06 90 22:18 01.01.2022
4537 Mist 9 1025 87 4000 1.03 0 21:42 01.01.2022
4538 Mist 9 1025 87 5000 2.57 160 20:50 01.01.2022
4539 Clear 10 1025 79 6000 2.06 170 19:47 01.01.2022
4540 Clear 10 1024 83 6000 1.54 180 18:53 01.01.2022
4541 Clear 12 1025 74 10000 1.03 280 17:45 01.01.2022
4542 Clear 14 1025 68 10000 0.51 0 16:35 01.01.2022
4543 Clear 14 1024 66 10000 1.54 350 15:45 01.01.2022
4544 Clear 15 1025 67 10000 1.54 350 14:40 01.01.2022
4545 Clear 14 1025 73 10000 1.54 350 13:42 01.01.2022
4546 Clear 14 1025 73 10000 1.54 350 13:42 01.01.2022
4547 Clouds 14 1026 70 7000 0.51 0 12:26 01.01.2022
4548 Mist 11 1027 86 1500 1.03 0 11:30 01.01.2022
4549 Fog 12 1026 100 200 2.57 60 10:59 01.01.2022
4550 Fog 11 1026 100 100 2.57 20 09:48 01.01.2022
4551 Fog 9 1024 86 150 1.54 30 08:49 01.01.2022
4552 Fog 9 1024 86 100 1.54 50 08:21 01.01.2022
4553 Fog 9 1023 84 150 1.54 70 07:40 01.01.2022
4554 Fog 10 1023 86 50 2.06 80 06:44 01.01.2022
4555 Fog 10 1023 85 50 1.54 360 05:25 01.01.2022
4556 Fog 10 1023 85 50 1.03 10 04:36 01.01.2022
4557 Fog 12 1023 83 100 1.03 0 00:37 01.01.2022
4558 Fog 12 1024 82 200 1.03 0 22:40 31.12.2021
4559 Fog 13 1024 88 150 0.51 0 21:49 31.12.2021
4560 Fog 12 1024 77 150 2.06 260 19:56 31.12.2021
4561 Clouds 12 1024 75 7000 1.54 250 19:28 31.12.2021
4562 Clear 12 1025 67 10000 1.03 0 18:24 31.12.2021
4563 Clear 14 1025 65 10000 0.51 10 17:37 31.12.2021
4564 Clear 14 1025 65 10000 0.51 10 17:18 31.12.2021
4565 Clear 18 1023 54 10000 0.51 0 16:19 31.12.2021
4566 Clear 19 1022 44 10000 2.06 30 15:51 31.12.2021
4567 Clear 19 1023 50 10000 0.51 0 15:28 31.12.2021
4568 Clear 18 1025 50 10000 1.03 0 14:41 31.12.2021
4569 Clear 18 1023 50 10000 2.06 10 13:56 31.12.2021
4570 Clear 17 1024 61 10000 1.54 10 13:23 31.12.2021
4571 Clear 16 1023 59 10000 2.06 30 12:33 31.12.2021
4572 Clear 15 1026 63 10000 1.03 0 11:42 31.12.2021
4573 Clear 15 1025 69 10000 2.57 40 10:58 31.12.2021
4574 Clear 12 1026 79 10000 0.51 0 10:29 31.12.2021
4575 Clear 9 1024 89 10000 0.51 0 09:35 31.12.2021
4576 Fog 9 1023 90 10000 1.03 310 08:54 31.12.2021
4577 Fog 8 1023 87 200 0.51 0 08:25 31.12.2021
4578 Clear 8 1022 90 10000 1.54 60 06:39 31.12.2021
4579 Clouds 10 1021 86 6000 2.06 30 23:23 30.12.2021
4580 Clear 11 1020 85 10000 1.54 120 22:32 30.12.2021
4581 Clear 11 1020 85 10000 0.51 0 21:41 30.12.2021
4582 Clear 11 1020 86 10000 0.51 0 21:22 30.12.2021
4583 Clear 11 1019 82 10000 1.54 170 20:43 30.12.2021
4584 Clouds 11 1019 82 7000 1.03 0 20:23 30.12.2021
4585 Clear 12 1019 82 10000 0.51 0 19:36 30.12.2021
4586 Clear 12 1018 77 10000 1.03 0 18:29 30.12.2021
4587 Clear 14 1018 72 10000 1.54 20 17:34 30.12.2021
4588 Clear 16 1016 66 10000 1.54 70 15:54 30.12.2021
4589 Clear 16 1017 66 10000 1.03 0 15:22 30.12.2021
4590 Clear 16 1017 67 10000 1.03 0 14:36 30.12.2021
4591 Clear 16 1016 67 10000 2.06 50 13:31 30.12.2021
4592 Clear 14 1015 76 10000 1.54 20 11:58 30.12.2021
4593 Clear 13 1015 87 10000 1.03 0 10:40 30.12.2021
4594 Clear 11 1015 93 10000 1.03 0 09:50 30.12.2021
4595 Clear 11 1015 93 10000 1.03 0 09:50 30.12.2021
4596 Clouds 9 1013 90 10000 1.03 80 07:25 30.12.2021
4597 Clouds 9 1012 86 10000 1.54 120 06:32 30.12.2021
4598 Clear 10 1012 87 10000 1.03 0 03:41 30.12.2021
4599 Clear 10 1012 88 9000 1.03 0 02:35 30.12.2021
4600 Clear 11 1011 87 10000 2.06 50 23:40 29.12.2021
4601 Clear 12 1011 86 10000 1.34 64 22:59 29.12.2021
4602 Clear 12 1011 88 10000 0.45 79 22:18 29.12.2021
4603 Clear 12 1011 86 10000 1.34 83 21:19 29.12.2021
4604 Clear 13 1010 87 10000 0.45 19 20:31 29.12.2021
4605 Clear 13 1010 86 10000 0.89 335 19:43 29.12.2021
4606 Clear 14 1010 86 10000 2.24 333 18:44 29.12.2021
4607 Clear 14 1009 88 10000 2.24 272 17:53 29.12.2021
4608 Clouds 14 1009 85 10000 2.24 34 17:27 29.12.2021
4609 Clouds 16 1008 76 10000 1.79 280 16:23 29.12.2021
4610 Clouds 16 1009 72 10000 0.89 235 15:42 29.12.2021
4611 Clouds 17 1009 72 10000 2.24 316 13:53 29.12.2021
4612 Clouds 16 1009 76 10000 1.34 321 12:36 29.12.2021
4613 Clouds 14 1011 82 10000 1.54 10 11:26 29.12.2021
4614 Clouds 13 1010 86 10000 0.89 33 09:56 29.12.2021
4615 Clouds 11 1009 88 10000 0.89 69 07:51 29.12.2021
4616 Clouds 11 1009 88 10000 1.54 20 06:38 29.12.2021
4617 Clouds 11 1009 88 10000 0.89 40 05:58 29.12.2021
4618 Clouds 11 1008 88 10000 1.03 0 05:36 29.12.2021
4619 Clear 11 1007 90 10000 1.34 45 02:22 29.12.2021
4620 Clouds 11 1008 86 10000 0.89 38 00:19 29.12.2021
4621 Clouds 11 1009 86 10000 0.89 80 23:31 28.12.2021
4622 Clear 11 1008 84 10000 0.89 117 22:42 28.12.2021
4623 Clear 11 1008 86 10000 0.89 129 22:23 28.12.2021
4624 Clear 11 1008 84 10000 0.45 150 21:36 28.12.2021
4625 Clouds 11 1009 87 10000 1.03 180 20:36 28.12.2021
4626 Clouds 12 1009 87 10000 1.03 170 19:22 28.12.2021
4627 Clouds 13 1009 87 10000 0.45 87 18:35 28.12.2021
4628 Clouds 13 1009 88 10000 0.89 86 17:57 28.12.2021
4629 Clouds 14 1009 77 10000 0.51 0 16:34 28.12.2021
4630 Clouds 14 1008 80 10000 2.06 300 15:49 28.12.2021
4631 Clouds 14 1008 80 10000 0.45 300 15:20 28.12.2021
4632 Clouds 14 1008 84 10000 1.34 1 14:46 28.12.2021
4633 Clouds 14 1008 86 10000 1.34 279 14:20 28.12.2021
4634 Clouds 14 1009 84 10000 1.34 268 13:42 28.12.2021
4635 Clouds 14 1009 85 10000 0.45 268 13:24 28.12.2021
4636 Clouds 14 1009 85 10000 1.34 261 12:48 28.12.2021
4637 Clouds 13 1009 87 10000 0.51 0 11:33 28.12.2021
4638 Clouds 11 1008 89 6000 2.57 50 07:41 28.12.2021
4639 Rain 11 1007 89 10000 0.89 11 06:41 28.12.2021
4640 Clouds 12 1005 87 10000 0.45 78 23:43 27.12.2021
4641 Rain 12 1006 87 10000 1.79 78 22:59 27.12.2021
4642 Clouds 12 1006 85 10000 2.24 157 21:38 27.12.2021
4643 Clouds 12 1007 88 10000 3.13 150 20:57 27.12.2021
4644 Rain 12 1007 88 10000 0.45 153 19:58 27.12.2021
4645 Clouds 12 1007 88 10000 0.45 165 19:39 27.12.2021
4646 Rain 13 1008 90 10000 1.34 152 18:23 27.12.2021
4647 Clouds 13 1008 89 10000 0.45 175 17:46 27.12.2021
4648 Clouds 13 1008 90 10000 1.34 168 16:38 27.12.2021
4649 Clouds 14 1008 89 10000 2.06 220 15:51 27.12.2021
4650 Clouds 14 1008 86 10000 0.45 185 14:32 27.12.2021
4651 Clouds 14 1009 89 10000 1.54 10 13:39 27.12.2021
4652 Clouds 13 1009 92 10000 1.03 0 12:19 27.12.2021
4653 Clouds 12 1011 88 9000 1.03 0 10:31 27.12.2021
4654 Fog 10 1009 83 8000 0.45 107 09:47 27.12.2021
4655 Clear 8 1008 88 10000 3.09 160 07:35 27.12.2021
4656 Fog 8 1008 90 5000 1.03 0 06:56 27.12.2021
4657 Fog 10 1007 86 3000 1.54 60 02:18 27.12.2021
4658 Clouds 11 1007 85 10000 0.45 23 23:58 26.12.2021
4659 Clouds 11 1007 87 10000 0.45 23 23:36 26.12.2021
4660 Clouds 11 1007 88 10000 0.89 17 22:23 26.12.2021
4661 Rain 12 1007 89 8000 3.09 60 20:54 26.12.2021
4662 Rain 12 1007 89 8000 0.45 355 19:47 26.12.2021
4663 Clouds 12 1006 89 8000 1.79 169 18:24 26.12.2021
4664 Clouds 13 1006 90 8000 1.03 210 16:55 26.12.2021
4665 Rain 14 1007 88 6000 1.34 233 14:28 26.12.2021
4666 Rain 14 1007 87 9000 3.6 200 13:40 26.12.2021
4667 Rain 14 1007 89 9000 2.24 142 13:19 26.12.2021
4668 Clouds 14 1007 87 8000 1.79 198 12:33 26.12.2021
4669 Clouds 14 1008 87 8000 1.54 180 10:34 26.12.2021
4670 Clouds 13 1008 86 8000 2.68 198 09:21 26.12.2021
4671 Clouds 13 1008 85 7000 1.34 123 08:44 26.12.2021
4672 Clouds 12 1008 86 10000 2.24 172 07:49 26.12.2021
4673 Clouds 14 1007 86 10000 1.34 195 01:29 26.12.2021
4674 Clouds 14 1007 87 10000 2.24 159 23:56 25.12.2021
4675 Clouds 14 1008 85 10000 1.79 164 23:27 25.12.2021
4676 Clouds 13 1007 84 10000 4.47 138 22:26 25.12.2021
4677 Rain 14 1008 81 10000 4.02 166 20:59 25.12.2021
4678 Clouds 14 1008 82 10000 4.92 168 19:26 25.12.2021
4679 Clouds 14 1008 85 10000 3.13 181 18:56 25.12.2021
4680 Clouds 14 1008 84 6000 3.58 142 17:38 25.12.2021
4681 Clouds 14 1008 87 5000 4.12 170 16:41 25.12.2021
4682 Clouds 14 1009 87 5000 3.13 169 15:24 25.12.2021
4683 Rain 14 1009 84 5000 4.02 193 13:41 25.12.2021
4684 Rain 14 1011 84 5000 3.58 155 11:54 25.12.2021
4685 Clouds 14 1011 84 6000 5.36 187 10:18 25.12.2021
4686 Clouds 14 1011 85 5000 5.81 165 09:42 25.12.2021
4687 Clear 13 1012 88 10000 4.47 156 04:36 25.12.2021
4688 Clear 13 1014 86 10000 4.47 175 01:27 25.12.2021
4689 Clouds 13 1015 86 10000 3.13 155 23:48 24.12.2021
4690 Clouds 13 1016 86 10000 2.68 147 19:50 24.12.2021
4691 Clouds 13 1016 88 10000 1.79 167 19:24 24.12.2021
4692 Clouds 13 1016 87 10000 2.24 185 18:23 24.12.2021
4693 Clouds 13 1016 90 6000 1.79 170 16:29 24.12.2021
4694 Clouds 13 1016 90 8000 1.34 200 15:49 24.12.2021
4695 Clouds 13 1016 90 8000 1.34 200 15:20 24.12.2021
4696 Clouds 13 1017 88 8000 1.34 206 14:31 24.12.2021
4697 Clouds 13 1017 88 2000 2.68 156 13:44 24.12.2021
4698 Clouds 12 1018 90 1000 2.68 143 12:49 24.12.2021
4699 Rain 12 1018 87 5000 2.68 192 12:23 24.12.2021
4700 Clouds 12 1018 83 10000 3.13 155 11:40 24.12.2021
4701 Clouds 12 1019 83 10000 3.58 172 11:18 24.12.2021
4702 Clouds 12 1019 84 10000 2.68 196 10:33 24.12.2021
4703 Clouds 11 1019 88 10000 2.68 156 08:36 24.12.2021
4704 Drizzle 11 1019 88 10000 3.13 153 07:58 24.12.2021
4705 Rain 10 1019 86 10000 2.24 142 06:18 24.12.2021
4706 Clouds 10 1021 85 10000 0.89 159 00:20 24.12.2021
4707 Clouds 10 1021 85 10000 1.34 161 23:33 23.12.2021
4708 Clouds 10 1021 86 10000 2.57 180 22:44 23.12.2021
4709 Clouds 10 1021 87 10000 1.79 191 22:22 23.12.2021
4710 Clouds 10 1021 87 10000 0.89 180 21:39 23.12.2021
4711 Clouds 10 1021 88 10000 2.24 171 20:22 23.12.2021
4712 Clouds 10 1021 86 10000 2.24 170 19:28 23.12.2021
4713 Clouds 11 1021 82 10000 0.89 171 17:58 23.12.2021
4714 Clouds 11 1021 80 10000 0.51 0 17:18 23.12.2021
4715 Clouds 12 1021 81 10000 2.57 160 16:26 23.12.2021
4716 Clouds 12 1021 78 10000 1.03 0 15:32 23.12.2021
4717 Drizzle 12 1021 77 7000 4.12 190 14:58 23.12.2021
4718 Drizzle 12 1021 79 7000 4.12 190 14:38 23.12.2021
4719 Clouds 12 1022 72 10000 1.79 161 13:25 23.12.2021
4720 Clouds 10 1023 79 10000 2.06 10 11:20 23.12.2021
4721 Clouds 9 1024 89 10000 2.57 50 09:53 23.12.2021
4722 Clouds 7 1023 82 10000 0.89 32 09:33 23.12.2021
4723 Clouds 6 1023 85 10000 1.34 21 08:25 23.12.2021
4724 Clear 6 1022 86 10000 0.89 36 05:23 23.12.2021
4725 Clear 6 1023 83 10000 0.45 29 00:34 23.12.2021
4726 Clear 7 1022 82 10000 1.03 0 22:50 22.12.2021
4727 Clear 8 1022 81 10000 1.03 130 21:59 22.12.2021
4728 Clear 8 1022 81 10000 1.54 80 21:30 22.12.2021
4729 Clear 8 1022 82 10000 1.54 120 20:58 22.12.2021
4730 Clear 8 1022 80 10000 1.54 120 20:40 22.12.2021
4731 Clear 8 1022 79 10000 2.06 140 19:42 22.12.2021
4732 Clear 9 1021 79 10000 3.09 140 18:25 22.12.2021
4733 Clear 10 1021 71 10000 1.54 90 17:38 22.12.2021
4734 Clear 12 1021 70 10000 2.06 340 15:56 22.12.2021
4735 Clear 11 1021 77 10000 0.45 34 14:23 22.12.2021
4736 Drizzle 10 1022 80 10000 0.89 21 12:53 22.12.2021
4737 Rain 9 1022 85 10000 1.03 0 11:39 22.12.2021
4738 Clouds 9 1021 84 8000 0.89 11 09:52 22.12.2021
4739 Clouds 8 1020 86 8000 1.54 90 07:56 22.12.2021
4740 Clouds 8 1020 83 10000 1.03 0 05:51 22.12.2021
4741 Clouds 8 1020 84 10000 1.03 0 05:33 22.12.2021
4742 Rain 8 1020 84 10000 1.03 0 04:55 22.12.2021
4743 Rain 8 1020 83 10000 1.03 0 04:35 22.12.2021
4744 Rain 8 1020 77 10000 1.78 112 03:37 22.12.2021
4745 Rain 8 1020 75 10000 1.03 0 03:18 22.12.2021
4746 Clear 8 1021 70 10000 2.57 150 23:47 21.12.2021
4747 Clouds 8 1022 75 10000 0.51 0 22:36 21.12.2021
4748 Clouds 9 1022 68 10000 0.51 0 21:55 21.12.2021
4749 Clouds 9 1022 67 10000 0.45 49 21:31 21.12.2021
4750 Clouds 9 1021 61 10000 2.57 170 20:24 21.12.2021
4751 Clouds 9 1020 64 10000 2.57 170 19:52 21.12.2021
4752 Clouds 9 1020 64 10000 2.57 160 19:31 21.12.2021
4753 Clouds 10 1020 65 10000 1.54 130 18:23 21.12.2021
4754 Clouds 10 1020 62 10000 1.54 130 17:53 21.12.2021
4755 Clear 11 1020 62 10000 1.54 350 16:47 21.12.2021
4756 Clear 12 1020 60 10000 0.89 149 15:34 21.12.2021
4757 Clouds 12 1021 60 10000 1.34 136 13:55 21.12.2021
4758 Clear 12 1021 59 10000 0.89 144 13:36 21.12.2021
4759 Clear 11 1021 66 10000 2.57 360 12:25 21.12.2021
4760 Clouds 9 1021 79 10000 0.45 120 10:38 21.12.2021
4761 Clouds 7 1022 88 10000 1.03 0 09:41 21.12.2021
4762 Clouds 6 1021 83 10000 0.45 15 08:39 21.12.2021
4763 Clouds 6 1020 82 10000 1.54 80 07:42 21.12.2021
4764 Clear 5 1020 81 10000 0.45 38 07:19 21.12.2021
4765 Clear 6 1019 79 10000 0.45 1 03:24 21.12.2021
4766 Clear 7 1019 81 10000 0.45 123 01:19 21.12.2021
4767 Clouds 8 1019 75 10000 0.51 0 23:54 20.12.2021
4768 Clouds 9 1018 75 10000 1.03 0 22:35 20.12.2021
4769 Clouds 8 1018 76 10000 1.54 80 21:48 20.12.2021
4770 Clouds 9 1018 71 10000 1.54 80 21:24 20.12.2021
4771 Clouds 8 1018 71 10000 1.03 0 20:50 20.12.2021
4772 Clouds 9 1017 69 10000 1.54 40 19:55 20.12.2021
4773 Clouds 9 1017 69 10000 1.54 40 19:36 20.12.2021
4774 Clouds 9 1017 70 10000 0.45 323 19:18 20.12.2021
4775 Clouds 10 1017 67 10000 0.89 306 18:28 20.12.2021
4776 Clouds 10 1017 71 10000 0.51 0 17:49 20.12.2021
4777 Clouds 11 1017 65 10000 0.51 0 16:45 20.12.2021
4778 Clouds 12 1016 62 10000 2.06 10 15:55 20.12.2021
4779 Clouds 12 1017 62 9000 0.51 0 15:31 20.12.2021
4780 Clouds 12 1017 67 10000 0.45 1 13:31 20.12.2021
4781 Clear 10 1017 65 10000 2.06 50 11:36 20.12.2021
4782 Clear 8 1018 72 10000 2.06 50 09:56 20.12.2021
4783 Clear 6 1017 73 10000 2.06 50 09:32 20.12.2021
4784 Clear 5 1017 77 10000 2.06 60 08:43 20.12.2021
4785 Clear 4 1017 76 10000 3.09 70 07:59 20.12.2021
4786 Clear 4 1017 76 10000 2.57 60 07:31 20.12.2021
4787 Clear 4 1017 75 10000 2.57 60 05:25 20.12.2021
4788 Clear 5 1018 75 7000 0.45 17 00:19 20.12.2021
4789 Clear 6 1019 73 10000 1.54 350 22:55 19.12.2021
4790 Clear 7 1019 65 10000 0.51 130 21:55 19.12.2021
4791 Clear 7 1019 64 10000 1.03 0 21:31 19.12.2021
4792 Clear 7 1020 64 10000 1.03 170 20:34 19.12.2021
4793 Clear 8 1020 61 10000 2.06 130 19:52 19.12.2021
4794 Clear 8 1020 62 10000 2.06 130 19:32 19.12.2021
4795 Clear 9 1020 56 10000 1.54 160 18:30 19.12.2021
4796 Clear 10 1022 54 10000 0.51 0 17:53 19.12.2021
4797 Clear 10 1022 53 10000 0 0 17:21 19.12.2021
4798 Clear 12 1022 47 10000 0.89 302 16:27 19.12.2021
4799 Clear 12 1022 54 10000 0.89 254 15:50 19.12.2021
4800 Clear 13 1021 37 10000 0.51 0 15:23 19.12.2021
4801 Clear 13 1023 36 10000 1.03 0 14:44 19.12.2021
4802 Clear 12 1022 42 10000 1.03 0 13:26 19.12.2021
4803 Clear 11 1023 42 10000 1.54 50 12:47 19.12.2021
4804 Clear 11 1023 43 10000 1.54 50 12:28 19.12.2021
4805 Clear 9 1024 49 10000 0.89 54 11:26 19.12.2021
4806 Clear 8 1025 57 10000 0.45 57 10:28 19.12.2021
4807 Clear 6 1024 57 10000 0.89 19 09:48 19.12.2021
4808 Clear 5 1025 60 10000 1.34 17 08:45 19.12.2021
4809 Clear 5 1025 58 10000 1.34 36 04:45 19.12.2021
4810 Clear 6 1026 50 10000 0.89 33 01:34 19.12.2021
4811 Clear 5 1027 51 10000 1.34 44 00:53 19.12.2021
4812 Clear 7 1027 43 10000 1.34 28 22:42 18.12.2021
4813 Clear 7 1026 42 10000 2.24 52 22:20 18.12.2021
4814 Clear 7 1026 40 10000 1.79 6 21:41 18.12.2021
4815 Clear 7 1026 40 10000 1.79 357 21:22 18.12.2021
4816 Clear 8 1027 39 10000 2.68 11 20:20 18.12.2021
4817 Clear 9 1026 38 10000 1.34 21 19:25 18.12.2021
4818 Clear 10 1026 36 10000 3.13 26 18:22 18.12.2021
4819 Clear 11 1027 37 10000 1.34 21 17:48 18.12.2021
4820 Clear 13 1027 33 10000 2.68 28 16:26 18.12.2021
4821 Clear 15 1025 31 10000 2.24 298 15:28 18.12.2021
4822 Clear 14 1027 33 10000 1.34 348 14:51 18.12.2021
4823 Clear 15 1026 37 10000 2.24 327 13:28 18.12.2021
4824 Clear 12 1028 53 10000 1.79 28 11:23 18.12.2021
4825 Clear 8 1026 64 10000 1.34 68 09:40 18.12.2021
4826 Clear 6 1026 72 10000 0.45 69 08:47 18.12.2021
4827 Clear 6 1025 71 10000 0.45 6 08:27 18.12.2021
4828 Clear 5 1024 77 10000 1.34 61 05:56 18.12.2021
4829 Clear 7 1025 82 10000 0.89 50 00:34 18.12.2021
4830 Clear 7 1025 81 10000 1.03 0 23:46 17.12.2021
4831 Clear 8 1025 78 10000 1.03 0 21:58 17.12.2021
4832 Clear 9 1025 76 10000 1.03 160 21:20 17.12.2021
4833 Clear 9 1025 74 10000 1.54 170 20:41 17.12.2021
4834 Clear 9 1025 73 10000 0.45 306 19:45 17.12.2021
4835 Clear 10 1027 74 10000 0.45 302 18:39 17.12.2021
4836 Clear 12 1027 66 10000 1.54 300 17:40 17.12.2021
4837 Clear 13 1027 63 10000 2.06 290 16:50 17.12.2021
4838 Clear 14 1027 62 10000 2.06 290 16:25 17.12.2021
4839 Clear 15 1027 57 10000 1.03 0 15:25 17.12.2021
4840 Clear 15 1028 56 10000 2.06 330 14:41 17.12.2021
4841 Clear 14 1027 52 10000 0.89 1 13:22 17.12.2021
4842 Clear 13 1028 60 10000 1.34 342 12:21 17.12.2021
4843 Clear 11 1028 66 10000 1.79 142 10:38 17.12.2021
4844 Clear 9 1027 71 10000 0.45 102 09:34 17.12.2021
4845 Clear 9 1027 71 10000 0.45 102 09:34 17.12.2021
4846 Clouds 7 1027 75 10000 1.79 21 08:30 17.12.2021
4847 Clouds 6 1027 77 10000 1.34 32 07:18 17.12.2021
4848 Clouds 5 1026 79 10000 0.45 48 04:39 17.12.2021
4849 Clear 7 1027 74 10000 0.45 62 23:47 16.12.2021
4850 Clear 8 1026 73 10000 1.54 60 22:24 16.12.2021
4851 Clear 9 1025 70 10000 2.06 100 21:51 16.12.2021
4852 Clear 9 1025 71 10000 1.54 40 21:30 16.12.2021
4853 Clear 9 1024 68 10000 1.03 0 20:31 16.12.2021
4854 Clouds 9 1024 67 10000 3.09 130 19:49 16.12.2021
4855 Clear 10 1024 69 10000 2.06 100 18:41 16.12.2021
4856 Clear 11 1024 65 10000 1.03 90 17:57 16.12.2021
4857 Clear 12 1025 62 10000 1.03 340 17:31 16.12.2021
4858 Clear 14 1026 57 10000 0.51 0 16:22 16.12.2021
4859 Clear 15 1025 53 10000 1.03 0 14:51 16.12.2021
4860 Clear 14 1026 54 10000 2.06 20 13:43 16.12.2021
4861 Clear 11 1025 69 10000 2.06 350 11:21 16.12.2021
4862 Clouds 11 1024 68 10000 2.06 70 10:59 16.12.2021
4863 Clouds 9 1024 72 10000 2.57 50 10:22 16.12.2021
4864 Clear 6 1024 78 10000 2.06 60 08:25 16.12.2021
4865 Clouds 6 1022 74 10000 2.32 25 06:22 16.12.2021
4866 Clear 7 1024 77 10000 2.57 60 01:25 16.12.2021
4867 Clear 8 1025 74 10000 0.45 21 23:33 15.12.2021
4868 Clear 8 1024 70 10000 1.03 0 22:44 15.12.2021
4869 Clear 9 1025 70 10000 0.51 0 21:56 15.12.2021
4870 Clear 9 1025 70 10000 0.51 0 21:27 15.12.2021
4871 Clear 9 1024 71 10000 1.03 160 20:18 15.12.2021
4872 Clear 10 1024 70 10000 1.54 150 19:50 15.12.2021
4873 Clear 10 1024 69 10000 1.54 80 18:38 15.12.2021
4874 Clear 12 1025 63 10000 1.03 20 17:54 15.12.2021
4875 Clear 12 1025 64 10000 1.03 340 17:36 15.12.2021
4876 Clear 14 1025 63 10000 2.06 350 16:28 15.12.2021
4877 Clear 14 1025 63 10000 1.54 360 15:47 15.12.2021
4878 Clear 15 1025 62 10000 1.54 360 15:27 15.12.2021
4879 Clear 15 1025 61 10000 0.45 11 14:29 15.12.2021
4880 Clear 13 1024 61 10000 0.89 46 12:46 15.12.2021
4881 Clear 12 1025 64 10000 2.06 40 10:42 15.12.2021
4882 Clear 7 1023 73 10000 1.54 50 08:55 15.12.2021
4883 Clouds 6 1022 73 10000 0.89 44 07:25 15.12.2021
4884 Clear 8 1021 67 10000 0.45 104 01:35 15.12.2021
4885 Clear 9 1021 66 10000 0.45 35 23:42 14.12.2021
4886 Clear 10 1021 63 10000 0.89 107 22:49 14.12.2021
4887 Clear 10 1021 64 10000 2.06 110 22:24 14.12.2021
4888 Clear 11 1021 62 10000 1.34 36 20:29 14.12.2021
4889 Clear 11 1021 61 10000 0.45 19 19:44 14.12.2021
4890 Clear 12 1022 61 10000 0.89 47 19:19 14.12.2021
4891 Clear 12 1022 59 10000 1.79 42 18:28 14.12.2021
4892 Clear 13 1021 53 10000 0.89 29 17:33 14.12.2021
4893 Clear 15 1021 47 10000 4.12 10 16:40 14.12.2021
4894 Clear 16 1021 50 10000 0.89 333 15:36 14.12.2021
4895 Clear 15 1021 55 10000 2.57 360 13:31 14.12.2021
4896 Clear 13 1022 57 10000 0.89 21 12:21 14.12.2021
4897 Clear 11 1022 66 10000 0.45 59 11:24 14.12.2021
4898 Clear 9 1023 71 10000 1.79 55 10:24 14.12.2021
4899 Clear 9 1022 68 10000 0.89 44 09:51 14.12.2021
4900 Clear 6 1022 71 10000 2.24 86 08:28 14.12.2021
4901 Clear 6 1022 73 10000 2.24 82 07:43 14.12.2021
4902 Clear 6 1021 73 10000 1.34 60 05:35 14.12.2021
4903 Clear 8 1023 65 10000 1.34 85 22:56 13.12.2021
4904 Clear 8 1023 62 10000 0.89 65 21:53 13.12.2021
4905 Clear 9 1023 63 10000 0.89 16 21:33 13.12.2021
4906 Clear 9 1023 64 10000 0.45 46 20:43 13.12.2021
4907 Clear 9 1022 59 10000 1.34 19 19:53 13.12.2021
4908 Clear 10 1022 52 10000 3.09 70 18:33 13.12.2021
4909 Clear 11 1023 49 10000 0.45 110 17:26 13.12.2021
4910 Clear 13 1023 45 10000 0.45 88 15:54 13.12.2021
4911 Clear 13 1022 38 10000 0.45 57 15:32 13.12.2021
4912 Clear 13 1022 38 10000 2.57 70 13:45 13.12.2021
4913 Clear 11 1023 42 10000 0.89 300 12:49 13.12.2021
4914 Clear 11 1023 45 10000 1.34 306 11:59 13.12.2021
4915 Clear 10 1023 49 10000 0.89 1 11:35 13.12.2021
4916 Clear 8 1024 54 10000 1.34 42 10:47 13.12.2021
4917 Clear 6 1023 60 10000 0.45 85 09:32 13.12.2021
4918 Clear 3 1023 69 10000 0.45 86 07:53 13.12.2021
4919 Clear 3 1022 70 10000 4.12 70 05:36 13.12.2021
4920 Clear 4 1022 64 10000 0.89 1 03:28 13.12.2021
4921 Clear 6 1022 59 10000 1.34 60 23:22 12.12.2021
4922 Clear 6 1022 55 10000 0.89 52 21:40 12.12.2021
4923 Clear 7 1021 53 10000 1.34 66 20:18 12.12.2021
4924 Clear 8 1020 52 10000 1.79 46 18:43 12.12.2021
4925 Clear 9 1019 51 10000 3.13 44 17:38 12.12.2021
4926 Clear 11 1019 46 10000 2.68 356 16:28 12.12.2021
4927 Clear 12 1018 44 10000 3.58 309 15:46 12.12.2021
4928 Clear 12 1018 43 10000 2.24 312 15:25 12.12.2021
4929 Clear 12 1018 43 10000 4.47 42 14:36 12.12.2021
4930 Clear 12 1017 45 10000 4.47 82 13:26 12.12.2021
4931 Clear 11 1017 50 10000 4.92 18 12:30 12.12.2021
4932 Clear 11 1017 53 10000 4.47 57 11:44 12.12.2021
4933 Clear 10 1017 55 10000 4.47 57 11:22 12.12.2021
4934 Clear 9 1017 60 10000 4.02 343 10:28 12.12.2021
4935 Clear 8 1016 64 10000 4.02 19 09:38 12.12.2021
4936 Clear 7 1015 67 10000 3.58 19 08:33 12.12.2021
4937 Clear 7 1013 66 10000 4.02 22 06:19 12.12.2021
4938 Clear 7 1011 64 10000 3.58 320 04:56 12.12.2021
4939 Clear 7 1011 64 10000 1.34 42 03:57 12.12.2021
4940 Clear 8 1008 61 10000 3.58 20 23:47 11.12.2021
4941 Clear 8 1007 61 10000 3.58 21 22:23 11.12.2021
4942 Clear 8 1006 62 10000 4.92 1 21:52 11.12.2021
4943 Clear 8 1005 65 10000 3.13 344 20:51 11.12.2021
4944 Clear 8 1004 67 10000 3.58 340 19:27 11.12.2021
4945 Clouds 8 1004 67 10000 4.92 77 18:52 11.12.2021
4946 Rain 8 1003 67 10000 4.92 292 18:25 11.12.2021
4947 Clear 8 1002 68 10000 4.02 26 17:21 11.12.2021
4948 Clouds 9 1000 67 10000 4.02 25 15:55 11.12.2021
4949 Clouds 9 1000 66 10000 5.36 292 15:30 11.12.2021
4950 Clouds 9 997 69 10000 4.02 303 12:59 11.12.2021
4951 Clouds 9 998 74 10000 4.02 23 11:26 11.12.2021
4952 Clear 7 995 84 10000 2.68 94 09:47 11.12.2021
4953 Clouds 6 994 89 9000 1.79 31 08:28 11.12.2021
4954 Clouds 7 990 90 10000 2.06 100 02:40 11.12.2021
4955 Clouds 7 991 90 10000 1.54 90 00:40 11.12.2021
4956 Rain 7 992 89 10000 2.06 160 23:23 10.12.2021
4957 Rain 7 992 90 10000 0.89 73 21:57 10.12.2021
4958 Rain 8 993 89 10000 1.34 355 21:31 10.12.2021
4959 Rain 8 993 89 10000 1.34 142 19:22 10.12.2021
4960 Rain 7 994 89 10000 4.02 109 18:39 10.12.2021
4961 Rain 7 998 89 8000 1.34 123 16:57 10.12.2021
4962 Rain 8 998 90 8000 1.79 87 16:29 10.12.2021
4963 Mist 8 1000 85 2000 1.34 130 15:41 10.12.2021
4964 Mist 8 1000 83 2000 1.34 130 15:21 10.12.2021
4965 Clouds 8 1001 81 10000 4.92 167 13:52 10.12.2021
4966 Clouds 9 1002 79 7000 4.02 155 13:26 10.12.2021
4967 Clouds 9 1002 77 10000 3.13 172 12:45 10.12.2021
4968 Clear 8 1004 84 10000 0.45 129 11:30 10.12.2021
4969 Clear 7 1004 86 10000 1.03 0 10:38 10.12.2021
4970 Clear 5 1006 86 10000 0.45 89 08:58 10.12.2021
4971 Clear 3 1005 90 10000 1.03 0 06:59 10.12.2021
4972 Clear 5 1005 89 10000 1.03 0 02:50 10.12.2021
4973 Clear 6 1004 86 10000 1.03 0 00:55 10.12.2021
4974 Clear 6 1004 84 10000 2.57 150 23:37 09.12.2021
4975 Clear 7 1003 85 10000 3.09 170 22:32 09.12.2021
4976 Clouds 7 1004 83 10000 1.79 146 21:59 09.12.2021
4977 Clouds 7 1004 82 10000 2.57 10 21:19 09.12.2021
4978 Clouds 7 1003 80 10000 2.06 330 20:29 09.12.2021
4979 Clouds 8 1002 82 10000 3.6 100 19:22 09.12.2021
4980 Drizzle 8 1002 82 10000 0.45 44 18:49 09.12.2021
4981 Rain 8 1001 78 10000 0.45 19 17:57 09.12.2021
4982 Clouds 8 1001 76 10000 0.89 55 17:27 09.12.2021
4983 Clouds 9 1002 77 10000 2.24 30 16:56 09.12.2021
4984 Clouds 10 1000 71 10000 1.79 319 15:57 09.12.2021
4985 Clouds 11 1001 71 10000 0.89 246 14:51 09.12.2021
4986 Clouds 12 1000 67 10000 3.58 229 13:39 09.12.2021
4987 Clouds 11 1000 76 10000 4.47 236 12:47 09.12.2021
4988 Clouds 11 1001 84 10000 0.89 213 11:24 09.12.2021
4989 Clouds 9 1002 82 10000 1.54 90 09:44 09.12.2021
4990 Clouds 8 1000 91 10000 1.79 92 06:51 09.12.2021
4991 Clouds 10 1000 80 10000 0.89 246 03:46 09.12.2021
4992 Clouds 12 1001 89 10000 1.79 229 23:46 08.12.2021
4993 Clouds 12 1001 89 10000 1.34 251 23:26 08.12.2021
4994 Clouds 12 1000 90 10000 0.89 221 22:50 08.12.2021
4995 Clouds 12 1001 92 10000 1.79 242 21:46 08.12.2021
4996 Clouds 12 1000 91 9000 0.89 237 21:28 08.12.2021
4997 Clouds 12 1000 87 7000 1.79 235 20:18 08.12.2021
4998 Clouds 12 1000 89 7000 1.79 241 19:37 08.12.2021
4999 Rain 13 999 87 7000 2.68 279 18:53 08.12.2021
5000 Rain 13 999 87 7000 2.68 279 18:53 08.12.2021
5001 Rain 12 1000 87 7000 4.47 145 17:52 08.12.2021
5002 Clouds 10 1002 87 10000 6.26 136 15:59 08.12.2021
5003 Clouds 10 1003 85 8000 5.36 171 15:29 08.12.2021
5004 Clouds 10 1003 83 8000 4.02 132 14:52 08.12.2021
5005 Clouds 11 1005 62 10000 5.36 161 12:39 08.12.2021
5006 Clouds 10 1008 57 10000 4.92 120 10:32 08.12.2021
5007 Clear 9 1009 53 10000 3.58 173 09:31 08.12.2021
5008 Clouds 8 1009 56 10000 0.89 156 07:34 08.12.2021
5009 Clear 5 1011 64 10000 0.51 0 04:58 08.12.2021
5010 Clear 5 1012 66 10000 1.34 89 23:48 07.12.2021
5011 Clear 5 1012 66 10000 1.54 180 22:37 07.12.2021
5012 Clear 5 1012 61 10000 0.45 82 21:24 07.12.2021
5013 Clear 6 1012 56 10000 2.57 80 20:24 07.12.2021
5014 Clear 7 1012 51 10000 0.89 332 18:56 07.12.2021
5015 Clear 8 1012 49 10000 2.06 100 18:18 07.12.2021
5016 Clear 8 1013 46 10000 0.45 357 17:20 07.12.2021
5017 Clear 11 1011 40 10000 0.45 354 16:36 07.12.2021
5018 Clear 11 1011 37 10000 1.34 67 15:35 07.12.2021
5019 Clear 11 1011 42 10000 1.79 350 14:36 07.12.2021
5020 Clear 11 1011 44 10000 4.02 311 13:18 07.12.2021
5021 Clear 10 1011 51 10000 0.45 319 12:21 07.12.2021
5022 Clear 8 1011 63 10000 1.34 11 10:44 07.12.2021
5023 Clear 4 1011 73 10000 0.45 63 08:46 07.12.2021
5024 Clear 4 1009 71 10000 0.45 19 06:22 07.12.2021
5025 Clear 4 1008 71 10000 0.45 21 05:42 07.12.2021
5026 Clear 6 1007 68 10000 1.79 340 23:58 06.12.2021
5027 Clear 6 1007 73 10000 4.02 24 22:58 06.12.2021
5028 Clear 6 1007 73 10000 3.58 310 22:38 06.12.2021
5029 Clear 6 1006 73 10000 4.02 324 21:54 06.12.2021
5030 Clear 7 1005 72 10000 2.24 356 20:44 06.12.2021
5031 Clear 7 1005 67 10000 2.24 19 20:26 06.12.2021
5032 Clouds 7 1004 71 10000 2.68 276 19:23 06.12.2021
5033 Clouds 8 1004 66 10000 2.24 352 18:29 06.12.2021
5034 Clouds 8 1003 69 10000 4.47 41 17:51 06.12.2021
5035 Clear 9 1003 65 10000 3.13 288 16:49 06.12.2021
5036 Drizzle 9 1002 71 10000 1.79 243 15:45 06.12.2021
5037 Clear 9 1002 70 10000 0.45 326 13:46 06.12.2021
5038 Rain 8 1002 77 10000 0.89 41 12:40 06.12.2021
5039 Clear 8 1002 80 10000 0.89 23 11:48 06.12.2021
5040 Clouds 7 1001 82 10000 0.45 34 09:20 06.12.2021
5041 Clouds 6 999 84 10000 1.79 21 06:43 06.12.2021
5042 Clear 8 1000 79 10000 0.89 47 23:52 05.12.2021
5043 Clouds 9 1000 82 10000 0.89 46 21:52 05.12.2021
5044 Clouds 9 1001 81 10000 5.14 130 21:24 05.12.2021
5045 Clouds 9 1001 79 10000 1.79 88 20:19 05.12.2021
5046 Clouds 9 1001 79 10000 1.34 79 19:36 05.12.2021
5047 Clouds 10 1001 80 10000 0.89 83 19:18 05.12.2021
5048 Clouds 10 1001 74 10000 0.45 109 18:20 05.12.2021
5049 Clouds 11 1001 74 10000 0.45 158 17:49 05.12.2021
5050 Clouds 12 1001 70 10000 0.89 149 16:50 05.12.2021
5051 Clouds 12 1001 66 10000 0.89 213 16:27 05.12.2021
5052 Clouds 13 1001 65 10000 0.89 201 15:58 05.12.2021
5053 Clouds 14 1001 62 10000 0.89 225 14:45 05.12.2021
5054 Clouds 14 1001 61 10000 3.58 241 14:26 05.12.2021
5055 Clouds 14 1002 68 10000 4.02 238 13:27 05.12.2021
5056 Clouds 14 1002 69 10000 3.58 200 12:40 05.12.2021
5057 Clouds 14 1002 67 10000 4.02 238 12:18 05.12.2021
5058 Clouds 14 1003 70 9000 4.47 233 11:34 05.12.2021
5059 Clouds 14 1004 73 9000 4.02 279 10:19 05.12.2021
5060 Clouds 13 1003 83 8000 0.45 181 08:45 05.12.2021
5061 Clear 13 1004 84 10000 2.24 211 04:56 05.12.2021
5062 Clouds 13 1006 84 10000 2.24 242 01:22 05.12.2021
5063 Clouds 13 1008 82 10000 3.13 227 22:24 04.12.2021
5064 Clouds 12 1008 83 10000 2.68 224 21:20 04.12.2021
5065 Clouds 12 1009 84 8000 1.79 192 20:27 04.12.2021
5066 Clouds 11 1010 85 8000 1.34 175 19:32 04.12.2021
5067 Clouds 10 1010 83 7000 2.24 188 18:22 04.12.2021
5068 Clouds 11 1010 72 10000 4.02 153 17:42 04.12.2021
5069 Rain 11 1010 71 10000 1.79 101 17:19 04.12.2021
5070 Clouds 12 1010 63 10000 1.79 160 16:42 04.12.2021
5071 Clouds 12 1011 61 10000 0.89 150 16:23 04.12.2021
5072 Clear 10 1013 74 10000 1.03 0 11:56 04.12.2021
5073 Clear 10 1013 78 10000 1.03 0 11:33 04.12.2021
5074 Clear 9 1013 80 10000 1.54 80 10:56 04.12.2021
5075 Clear 5 1013 88 10000 0.89 49 08:52 04.12.2021
5076 Clear 4 1013 90 10000 0.51 0 08:27 04.12.2021
5077 Clear 5 1011 85 10000 2.57 70 04:42 04.12.2021
5078 Clear 6 1010 81 10000 3.6 80 00:49 04.12.2021
5079 Clear 7 1010 80 10000 0.45 42 23:29 03.12.2021
5080 Clear 7 1010 82 10000 0.89 20 22:50 03.12.2021
5081 Clear 8 1009 81 10000 0.45 56 21:50 03.12.2021
5082 Clear 9 1008 80 10000 0.89 6 20:56 03.12.2021
5083 Clear 9 1008 80 10000 0.45 84 20:26 03.12.2021
5084 Clear 10 1007 76 10000 2.24 1 18:49 03.12.2021
5085 Clear 10 1006 76 10000 1.79 18 18:20 03.12.2021
5086 Clear 11 1006 74 10000 2.68 319 17:29 03.12.2021
5087 Clouds 13 1005 80 10000 3.6 60 13:35 03.12.2021
5088 Clear 12 1004 84 10000 3.09 20 12:20 03.12.2021
5089 Clouds 11 1003 87 10000 1.79 71 10:58 03.12.2021
5090 Clouds 9 1001 85 10000 3.09 140 08:31 03.12.2021
5091 Clouds 9 1001 84 10000 0.45 143 07:43 03.12.2021
5092 Clear 9 1000 87 10000 3.6 160 06:40 03.12.2021
5093 Clouds 11 999 86 10000 2.06 180 00:49 03.12.2021
5094 Clouds 11 999 84 10000 0.89 270 23:48 02.12.2021
5095 Clear 11 998 82 10000 1.79 235 22:48 02.12.2021
5096 Clouds 12 998 88 10000 2.24 240 21:41 02.12.2021
5097 Clouds 12 998 86 10000 3.09 200 20:45 02.12.2021
5098 Clouds 12 998 87 10000 3.09 210 20:22 02.12.2021
5099 Clouds 12 999 88 10000 1.79 200 18:47 02.12.2021
5100 Rain 12 998 85 8000 1.79 232 16:43 02.12.2021
5101 Rain 12 998 89 5000 1.79 215 15:41 02.12.2021
5102 Thunderstorm 12 997 89 7000 6.69 220 14:52 02.12.2021
5103 Thunderstorm 13 999 91 4000 3.58 258 13:39 02.12.2021
5104 Rain 13 1000 89 5000 3.58 161 12:25 02.12.2021
5105 Rain 13 1002 90 4500 1.79 179 10:42 02.12.2021
5106 Clouds 13 1002 90 10000 2.24 150 09:26 02.12.2021
5107 Rain 12 1003 92 10000 1.79 183 07:19 02.12.2021
5108 Clouds 12 1007 90 10000 1.79 154 01:26 02.12.2021
5109 Clouds 12 1008 90 10000 2.24 161 00:26 02.12.2021
5110 Clouds 12 1010 89 8000 1.34 161 22:31 01.12.2021
5111 Rain 12 1010 90 8000 0.89 144 21:44 01.12.2021
5112 Rain 11 1011 86 10000 0.89 191 20:24 01.12.2021
5113 Rain 11 1011 86 10000 4.02 150 19:43 01.12.2021
5114 Rain 11 1011 85 10000 1.79 154 18:47 01.12.2021
5115 Clouds 11 1012 87 4000 3.09 150 17:24 01.12.2021
5116 Rain 12 1013 87 6000 3.09 150 16:21 01.12.2021
5117 Clouds 11 1014 86 9000 5.14 160 14:30 01.12.2021
5118 Clouds 11 1015 81 10000 3.09 120 13:37 01.12.2021
5119 Clouds 10 1017 83 10000 1.54 120 10:44 01.12.2021
5120 Clouds 9 1017 81 10000 1.54 120 10:22 01.12.2021
5121 Clouds 9 1014 75 10000 5.33 145 08:52 01.12.2021
5122 Clouds 9 1016 73 10000 6.69 140 07:59 01.12.2021
5123 Clouds 8 1016 72 10000 6.17 150 07:31 01.12.2021
5124 Clouds 7 1018 63 10000 3.09 140 03:57 01.12.2021
5125 Clouds 7 1018 58 10000 3.09 150 03:27 01.12.2021
5126 Clear 5 1019 73 10000 2.57 100 00:34 01.12.2021
5127 Clear 5 1019 71 10000 2.57 90 23:29 30.11.2021
5128 Clear 5 1019 70 10000 3.09 90 22:32 30.11.2021
5129 Clear 5 1021 75 10000 2.06 100 20:47 30.11.2021
5130 Clear 6 1019 66 10000 2.57 90 20:26 30.11.2021
5131 Clear 6 1019 68 10000 2.57 110 19:39 30.11.2021
5132 Clear 7 1019 65 10000 2.57 110 18:54 30.11.2021
5133 Clear 8 1019 59 10000 1.03 0 17:46 30.11.2021
5134 Clear 11 1018 39 10000 2.06 340 16:19 30.11.2021
5135 Clear 11 1019 34 10000 1.54 10 14:35 30.11.2021
5136 Clear 11 1020 46 10000 1.54 100 13:41 30.11.2021
5137 Clear 10 1017 58 10000 3.09 10 12:54 30.11.2021
5138 Clear 10 1019 63 10000 3.09 360 12:21 30.11.2021
5139 Clear 9 1019 64 10000 3.6 30 11:26 30.11.2021
5140 Clear 7 1018 70 10000 3.6 30 10:36 30.11.2021
5141 Clear 4 1016 77 10000 2.57 60 08:58 30.11.2021
5142 Clear 4 1016 80 10000 0.51 0 08:32 30.11.2021
5143 Clear 3 1015 80 10000 3.09 20 07:59 30.11.2021
5144 Clear 3 1013 80 10000 3.6 40 06:38 30.11.2021
5145 Clear 5 1011 75 10000 1.34 346 01:50 30.11.2021
5146 Clear 5 1010 75 10000 1.34 341 01:28 30.11.2021
5147 Clouds 5 1008 78 10000 2.24 11 23:40 29.11.2021
5148 Clouds 5 1007 78 10000 1.79 325 23:19 29.11.2021
5149 Clear 5 1006 80 10000 2.68 350 22:38 29.11.2021
5150 Clear 5 1005 80 10000 1.79 1 21:56 29.11.2021
5151 Clear 5 1005 76 10000 3.13 350 21:20 29.11.2021
5152 Clouds 5 1004 76 10000 2.24 316 20:48 29.11.2021
5153 Clouds 6 1002 82 10000 1.34 11 19:59 29.11.2021
5154 Clouds 5 1002 82 10000 1.34 297 19:41 29.11.2021
5155 Clouds 6 1001 82 10000 0.89 342 19:21 29.11.2021
5156 Clouds 6 1001 80 10000 5.53 344 18:42 29.11.2021
5157 Clouds 6 998 85 10000 5.52 347 17:22 29.11.2021
5158 Clouds 6 998 85 10000 5.52 347 16:50 29.11.2021
5159 Clouds 8 997 84 10000 4.8 353 16:24 29.11.2021
5160 Clouds 9 995 74 10000 3.18 35 14:47 29.11.2021
5161 Clouds 10 995 71 10000 2.55 84 14:23 29.11.2021
5162 Clouds 10 994 69 10000 2.33 120 12:59 29.11.2021
5163 Clouds 11 994 65 10000 2.33 180 12:19 29.11.2021
5164 Clouds 11 995 64 8965 3.18 200 11:28 29.11.2021
5165 Rain 10 995 68 8356 3.84 206 09:59 29.11.2021
5166 Clouds 8 995 81 10000 2.57 140 07:47 29.11.2021
5167 Rain 10 995 61 10000 2.57 240 05:51 29.11.2021
5168 Clouds 10 996 71 10000 2.57 210 01:24 29.11.2021
5169 Rain 9 997 71 10000 2.57 190 23:59 28.11.2021
5170 Clouds 11 997 66 10000 2.57 200 23:40 28.11.2021
5171 Clouds 10 997 66 10000 2.57 210 22:20 28.11.2021
5172 Clouds 11 997 66 10000 2.06 220 21:39 28.11.2021
5173 Clouds 11 997 66 10000 2.57 220 20:44 28.11.2021
5174 Clouds 11 997 66 10000 2.57 180 19:51 28.11.2021
5175 Clouds 11 997 66 10000 2.57 170 18:40 28.11.2021
5176 Clouds 11 997 62 10000 2.06 200 18:22 28.11.2021
5177 Clouds 11 996 58 10000 3.09 250 17:45 28.11.2021
5178 Clouds 12 996 56 10000 4.63 230 16:48 28.11.2021
5179 Clouds 12 996 56 10000 4.63 230 16:28 28.11.2021
5180 Clouds 13 996 56 10000 5.14 250 15:50 28.11.2021
5181 Clouds 13 996 60 10000 5.14 240 14:55 28.11.2021
5182 Clouds 13 996 60 10000 5.14 240 14:28 28.11.2021
5183 Clouds 13 996 60 10000 5.14 240 14:28 28.11.2021
5184 Clouds 13 997 66 10000 2.57 240 12:54 28.11.2021
5185 Clouds 13 997 71 10000 1.54 190 11:51 28.11.2021
5186 Clouds 13 997 74 10000 1.54 210 10:37 28.11.2021
5187 Drizzle 12 997 82 8000 2.06 230 09:56 28.11.2021
5188 Drizzle 12 997 82 8000 2.06 230 09:36 28.11.2021
5189 Clouds 11 998 82 10000 3.6 180 00:53 28.11.2021
5190 Clouds 12 998 71 10000 4.63 170 22:58 27.11.2021
5191 Clouds 12 999 81 10000 2.57 170 19:51 27.11.2021
5192 Clouds 13 999 71 10000 2.57 200 18:44 27.11.2021
5193 Clouds 15 998 60 10000 3.6 230 16:19 27.11.2021
5194 Clouds 15 998 58 10000 4.12 240 15:32 27.11.2021
5195 Clouds 15 998 63 10000 3.6 220 13:40 27.11.2021
5196 Clouds 15 998 63 10000 4.12 240 12:19 27.11.2021
5197 Clouds 14 999 77 10000 2.06 250 10:30 27.11.2021
5198 Clouds 13 999 77 10000 1.54 190 09:25 27.11.2021
5199 Clouds 14 999 71 10000 3.6 210 07:43 27.11.2021
5200 Clouds 12 1000 76 10000 3.09 200 04:53 27.11.2021
5201 Clouds 13 1000 82 10000 4.12 250 00:26 27.11.2021
5202 Clouds 12 999 87 10000 3.6 220 22:51 26.11.2021
5203 Clouds 12 999 87 10000 2.57 170 22:24 26.11.2021
5204 Drizzle 11 999 87 7000 3.6 210 21:33 26.11.2021
5205 Clouds 10 999 87 10000 1.03 0 20:42 26.11.2021
5206 Clouds 10 998 87 10000 2.06 190 19:56 26.11.2021
5207 Rain 12 998 93 10000 2.57 170 19:27 26.11.2021
5208 Rain 12 996 87 6000 3.6 0 17:54 26.11.2021
5209 Rain 12 996 87 6000 3.6 0 17:21 26.11.2021
5210 Clouds 12 997 87 7000 2.06 170 15:29 26.11.2021
5211 Rain 13 998 85 8000 0.89 154 13:35 26.11.2021
5212 Mist 12 998 89 1200 0.89 145 11:58 26.11.2021
5213 Rain 13 999 87 9000 1.34 171 10:37 26.11.2021
5214 Clouds 11 998 84 10000 0.89 150 08:57 26.11.2021
5215 Clouds 11 999 83 10000 1.34 152 08:21 26.11.2021
5216 Clouds 10 999 82 10000 2.24 156 07:25 26.11.2021
5217 Clouds 11 999 80 10000 2.24 183 06:26 26.11.2021
5218 Fog 10 1000 86 5000 0.89 125 03:56 26.11.2021
5219 Fog 11 1001 82 1200 0.51 0 01:53 26.11.2021
5220 Clouds 11 1003 85 6000 0.51 0 22:46 25.11.2021
5221 Rain 12 1004 87 4000 2.57 60 21:26 25.11.2021
5222 Rain 12 1005 88 3000 0.89 72 20:27 25.11.2021
5223 Rain 12 1004 89 6000 1.54 310 18:46 25.11.2021
5224 Rain 12 1005 90 4000 3.09 110 17:47 25.11.2021
5225 Rain 13 1005 88 4000 3.09 110 17:25 25.11.2021
5226 Rain 13 1005 83 6000 4.63 110 16:32 25.11.2021
5227 Clouds 14 1005 80 10000 3.6 150 14:59 25.11.2021
5228 Clouds 14 1007 83 10000 6.69 120 13:26 25.11.2021
5229 Clouds 14 1008 86 10000 5.14 110 12:23 25.11.2021
5230 Rain 13 1007 89 10000 4.12 100 11:48 25.11.2021
5231 Clouds 12 1010 86 3000 0.51 0 09:26 25.11.2021
5232 Clear 13 1008 76 10000 5.66 140 05:48 25.11.2021
5233 Clear 14 1010 62 10000 6.69 150 02:48 25.11.2021
5234 Clouds 14 1013 63 10000 2.68 63 22:55 24.11.2021
5235 Clouds 14 1013 63 10000 3.58 36 22:23 24.11.2021
5236 Clouds 14 1013 66 10000 1.34 97 21:29 24.11.2021
5237 Clouds 14 1014 66 10000 6.17 130 20:50 24.11.2021
5238 Clouds 14 1014 68 10000 0.89 72 20:19 24.11.2021
5239 Clear 14 1014 66 10000 0.89 97 18:30 24.11.2021
5240 Clear 15 1014 61 10000 0.45 31 17:53 24.11.2021
5241 Clear 18 1015 53 10000 0.45 11 15:23 24.11.2021
5242 Clear 18 1016 54 10000 1.54 40 14:47 24.11.2021
5243 Clear 18 1017 54 10000 0.89 57 14:20 24.11.2021
5244 Clear 17 1017 57 10000 0.89 30 12:34 24.11.2021
5245 Clear 15 1017 64 10000 0.45 36 11:21 24.11.2021
5246 Clear 14 1018 67 10000 0.45 37 10:48 24.11.2021
5247 Clear 14 1018 68 10000 0.45 44 10:22 24.11.2021
5248 Clear 10 1017 80 10000 0.45 64 07:54 24.11.2021
5249 Clear 10 1017 77 10000 0.89 11 06:54 24.11.2021
5250 Clear 11 1018 78 10000 1.34 19 03:51 24.11.2021
5251 Clear 13 1018 73 10000 0.89 27 00:43 24.11.2021
5252 Clouds 13 1018 74 10000 0.89 1 22:40 23.11.2021
5253 Clouds 13 1018 75 10000 1.34 346 22:18 23.11.2021
5254 Clear 13 1018 69 10000 1.34 57 21:44 23.11.2021
5255 Clouds 14 1015 69 10000 1.79 39 19:37 23.11.2021
5256 Clouds 14 1015 69 10000 0.89 11 18:42 23.11.2021
5257 Clouds 14 1015 69 10000 1.34 353 18:20 23.11.2021
5258 Clouds 15 1016 70 10000 1.79 52 16:58 23.11.2021
5259 Clouds 16 1015 65 10000 0.89 327 15:59 23.11.2021
5260 Clouds 16 1015 65 10000 1.79 52 15:22 23.11.2021
5261 Clouds 16 1015 71 10000 3.6 340 14:22 23.11.2021
5262 Clear 15 1015 78 10000 1.34 36 11:42 23.11.2021
5263 Clouds 14 1013 85 10000 0.89 59 09:59 23.11.2021
5264 Clear 13 1013 88 10000 0.89 11 09:18 23.11.2021
5265 Drizzle 13 1011 87 10000 1.79 66 06:41 23.11.2021
5266 Clear 13 1011 88 10000 2.24 52 03:51 23.11.2021
5267 Clear 13 1011 87 10000 1.54 50 00:58 23.11.2021
5268 Clear 13 1011 88 10000 1.03 0 23:21 22.11.2021
5269 Clouds 13 1010 86 10000 2.06 100 22:34 22.11.2021
5270 Clouds 13 1010 86 10000 2.06 80 21:49 22.11.2021
5271 Clouds 13 1010 86 10000 2.57 110 21:31 22.11.2021
5272 Clouds 14 1010 85 10000 2.06 90 20:52 22.11.2021
5273 Clouds 14 1009 82 10000 2.06 90 19:55 22.11.2021
5274 Clouds 14 1009 84 10000 0.45 45 19:19 22.11.2021
5275 Clouds 14 1010 82 10000 0.89 78 18:39 22.11.2021
5276 Clouds 15 1008 79 10000 6.69 110 17:20 22.11.2021
5277 Clouds 16 1007 76 10000 3.09 100 15:47 22.11.2021
5278 Clouds 16 1007 73 10000 0.45 65 13:58 22.11.2021
5279 Clouds 16 1008 75 10000 2.57 90 11:59 22.11.2021
5280 Clouds 15 1008 87 10000 0.45 117 10:41 22.11.2021
5281 Clouds 13 1008 87 6000 0.45 64 09:26 22.11.2021
5282 Mist 13 1008 87 4000 0.45 75 08:40 22.11.2021
5283 Clouds 13 1007 86 10000 3.09 180 04:36 22.11.2021
5284 Clouds 13 1010 82 10000 1.54 130 23:26 21.11.2021
5285 Clouds 13 1010 82 10000 2.06 130 22:48 21.11.2021
5286 Clouds 13 1010 82 10000 2.06 150 21:53 21.11.2021
5287 Clouds 13 1011 81 8000 1.54 170 20:42 21.11.2021
5288 Clouds 13 1011 83 10000 1.03 0 19:48 21.11.2021
5289 Clouds 14 1011 76 10000 0.51 170 18:24 21.11.2021
5290 Clear 15 1011 76 10000 0.51 0 17:38 21.11.2021
5291 Clear 17 1012 67 10000 2.06 210 15:49 21.11.2021
5292 Clear 17 1012 72 10000 1.03 0 14:45 21.11.2021
5293 Clear 17 1014 75 10000 0.45 259 13:46 21.11.2021
5294 Clear 17 1014 77 10000 2.06 340 12:37 21.11.2021
5295 Clear 16 1014 77 10000 1.54 350 11:43 21.11.2021
5296 Clear 15 1014 80 10000 1.54 350 11:24 21.11.2021
5297 Clear 14 1016 81 10000 1.54 40 10:18 21.11.2021
5298 Fog 10 1016 100 100 1.03 0 08:42 21.11.2021
5299 Fog 9 1015 93 100 1.03 0 08:23 21.11.2021
5300 Clear 9 1015 90 7000 1.54 60 07:47 21.11.2021
5301 Fog 9 1015 89 7000 0.89 67 05:53 21.11.2021
5302 Fog 9 1015 91 7000 0.45 50 05:25 21.11.2021
5303 Clear 10 1017 88 7000 0.45 11 03:19 21.11.2021
5304 Clear 10 1016 83 10000 1.52 30 02:51 21.11.2021
5305 Clear 11 1018 87 7000 2.06 360 00:59 21.11.2021
5306 Clear 11 1018 88 8000 0.51 0 23:47 20.11.2021
5307 Clear 12 1019 87 10000 1.03 140 21:41 20.11.2021
5308 Clear 12 1019 87 10000 0.45 101 21:23 20.11.2021
5309 Clear 14 1019 78 10000 1.54 170 18:46 20.11.2021
5310 Clear 14 1020 76 10000 1.54 210 18:26 20.11.2021
5311 Clear 16 1020 68 10000 0.89 273 17:26 20.11.2021
5312 Clear 17 1020 61 10000 0.45 255 16:46 20.11.2021
5313 Clear 19 1021 59 10000 0.89 306 14:46 20.11.2021
5314 Clear 19 1021 59 10000 1.03 0 14:23 20.11.2021
5315 Clear 17 1023 67 10000 0.45 11 12:22 20.11.2021
5316 Clear 15 1025 77 10000 2.57 10 10:35 20.11.2021
5317 Clear 14 1024 83 10000 1.03 0 09:39 20.11.2021
5318 Clear 9 1023 85 10000 1.03 80 07:28 20.11.2021
5319 Clear 10 1023 85 10000 1.34 24 05:27 20.11.2021
5320 Clear 10 1023 84 10000 0.45 67 04:50 20.11.2021
5321 Clear 11 1024 81 10000 0.51 0 01:55 20.11.2021
5322 Clear 12 1025 80 10000 0.45 36 00:40 20.11.2021
5323 Clear 12 1025 83 10000 1.03 0 22:58 19.11.2021
5324 Clear 13 1025 83 10000 1.54 100 21:58 19.11.2021
5325 Clear 13 1024 84 10000 1.03 180 20:58 19.11.2021
5326 Clear 13 1024 84 10000 1.03 180 20:36 19.11.2021
5327 Clear 13 1025 84 10000 1.03 0 19:55 19.11.2021
5328 Clear 14 1025 82 10000 1.03 150 18:54 19.11.2021
5329 Clear 15 1025 81 10000 1.03 180 18:23 19.11.2021
5330 Clear 16 1024 73 10000 1.03 0 17:31 19.11.2021
5331 Clear 18 1024 62 10000 1.34 304 15:51 19.11.2021
5332 Clear 18 1026 62 10000 1.54 360 13:28 19.11.2021
5333 Clear 14 1026 84 10000 0.89 331 10:27 19.11.2021
5334 Clear 13 1026 89 10000 0.51 0 09:37 19.11.2021
5335 Clear 11 1026 88 10000 0.45 22 08:20 19.11.2021
5336 Clear 11 1024 83 10000 0.45 75 04:52 19.11.2021
5337 Clear 11 1024 84 10000 0.45 23 02:35 19.11.2021
5338 Clear 12 1024 82 10000 0.89 46 23:51 18.11.2021
5339 Clear 13 1024 82 10000 0.45 29 21:56 18.11.2021
5340 Clear 14 1023 81 10000 0.45 15 20:49 18.11.2021
5341 Clear 14 1023 82 10000 0.51 0 20:31 18.11.2021
5342 Clear 14 1023 81 10000 2.06 160 19:52 18.11.2021
5343 Clear 14 1022 81 10000 2.06 160 19:33 18.11.2021
5344 Clear 15 1022 77 10000 1.54 220 18:33 18.11.2021
5345 Clear 15 1021 76 10000 2.06 260 17:51 18.11.2021
5346 Clear 18 1021 63 10000 0.45 250 16:44 18.11.2021
5347 Clear 19 1020 57 10000 2.06 320 15:46 18.11.2021
5348 Clear 19 1021 61 10000 0.45 317 13:40 18.11.2021
5349 Clear 18 1021 65 10000 0.89 67 12:34 18.11.2021
5350 Clear 17 1021 70 10000 0.45 40 11:43 18.11.2021
5351 Clear 16 1021 75 10000 1.79 87 11:24 18.11.2021
5352 Clear 14 1021 83 10000 0.51 0 09:44 18.11.2021
5353 Clear 11 1019 88 10000 0.45 39 07:35 18.11.2021
5354 Clouds 12 1018 86 10000 3.09 70 05:57 18.11.2021
5355 Clouds 12 1018 86 10000 0.45 44 05:38 18.11.2021
5356 Clear 13 1017 88 10000 2.24 58 01:24 18.11.2021
5357 Clear 13 1017 88 10000 2.24 34 01:24 18.11.2021
5358 Clouds 14 1017 85 10000 1.03 80 23:19 17.11.2021
5359 Clouds 14 1017 86 10000 0.51 0 22:34 17.11.2021
5360 Clouds 14 1017 85 10000 1.54 80 21:54 17.11.2021
5361 Clouds 14 1017 85 10000 1.54 80 21:34 17.11.2021
5362 Clouds 15 1015 85 10000 0.45 67 19:22 17.11.2021
5363 Clear 15 1014 82 10000 1.54 350 17:31 17.11.2021
5364 Clouds 17 1014 75 10000 0.89 59 14:53 17.11.2021
5365 Clear 17 1014 80 10000 1.34 53 12:42 17.11.2021
5366 Clouds 16 1014 84 10000 3.6 50 11:52 17.11.2021
5367 Clouds 14 1014 95 10000 1.03 0 10:50 17.11.2021
5368 Clouds 12 1015 86 10000 0.89 59 09:27 17.11.2021
5369 Clouds 12 1013 87 10000 1.34 1 07:46 17.11.2021
5370 Clear 12 1013 88 10000 0.89 17 06:20 17.11.2021
5371 Clear 11 1013 87 10000 1.79 16 02:43 17.11.2021
5372 Clear 12 1013 89 10000 0.89 65 23:27 16.11.2021
5373 Clear 13 1013 87 10000 1.79 11 21:51 16.11.2021
5374 Clouds 13 1013 87 10000 2.68 48 20:19 16.11.2021
5375 Clouds 13 1013 89 10000 0.45 85 19:23 16.11.2021
5376 Clouds 13 1013 90 10000 1.34 1 18:38 16.11.2021
5377 Clouds 14 1013 88 9000 1.54 10 17:44 16.11.2021
5378 Clouds 14 1013 89 8000 0.45 44 16:59 16.11.2021
5379 Clouds 14 1013 89 9000 0.45 37 16:19 16.11.2021
5380 Clouds 15 1013 90 8000 3.6 20 15:41 16.11.2021
5381 Rain 14 1013 86 2000 0.45 32 12:43 16.11.2021
5382 Drizzle 14 1013 89 10000 0.51 0 10:21 16.11.2021
5383 Rain 13 1013 88 10000 1.03 0 09:38 16.11.2021
5384 Rain 13 1012 87 7000 0.89 77 07:41 16.11.2021
5385 Rain 13 1012 89 8000 0.89 88 06:43 16.11.2021
5386 Clear 13 1014 85 10000 0.51 0 23:26 15.11.2021
5387 Clear 13 1014 85 10000 0.51 0 22:40 15.11.2021
5388 Clear 13 1014 83 10000 0.51 0 21:56 15.11.2021
5389 Clear 14 1014 84 10000 0.51 0 21:30 15.11.2021
5390 Clear 14 1014 83 10000 0.51 0 20:32 15.11.2021
5391 Clear 15 1013 79 10000 0.51 0 19:18 15.11.2021
5392 Clear 17 1013 70 10000 1.03 0 17:31 15.11.2021
5393 Clear 19 1012 59 10000 0.45 220 15:50 15.11.2021
5394 Clear 19 1012 54 10000 0.45 240 15:32 15.11.2021
5395 Clear 20 1014 50 10000 0.45 179 14:18 15.11.2021
5396 Clouds 19 1013 61 10000 0.89 135 12:21 15.11.2021
5397 Clouds 15 1013 86 10000 1.54 50 09:59 15.11.2021
5398 Clouds 14 1014 87 10000 0.89 55 09:19 15.11.2021
5399 Clouds 14 1012 84 10000 1.74 113 06:54 15.11.2021
5400 Clear 13 1012 86 10000 3.13 63 00:37 15.11.2021
5401 Clouds 13 1012 86 8000 2.24 52 22:44 14.11.2021
5402 Rain 13 1013 85 7000 0.45 27 21:18 14.11.2021
5403 Thunderstorm 13 1013 88 4000 0.89 92 19:18 14.11.2021
5404 Thunderstorm 14 1013 88 5000 1.34 77 18:54 14.11.2021
5405 Thunderstorm 14 1013 90 5000 2.06 80 18:36 14.11.2021
5406 Rain 14 1012 90 5000 1.03 0 18:18 14.11.2021
5407 Rain 14 1012 88 8000 0.45 98 17:58 14.11.2021
5408 Rain 14 1012 87 10000 1.34 96 17:39 14.11.2021
5409 Rain 14 1012 89 10000 0.89 112 17:21 14.11.2021
5410 Rain 14 1011 88 8000 2.68 59 16:57 14.11.2021
5411 Rain 14 1012 86 10000 3.58 106 16:39 14.11.2021
5412 Rain 14 1011 84 10000 5.66 120 16:18 14.11.2021
5413 Rain 15 1013 86 10000 4.63 110 15:19 14.11.2021
5414 Rain 16 1013 75 10000 3.6 110 14:43 14.11.2021
5415 Rain 16 1012 78 10000 3.6 110 14:20 14.11.2021
5416 Rain 17 1012 74 10000 2.68 147 13:51 14.11.2021
5417 Clouds 17 1012 72 10000 4.02 126 13:26 14.11.2021
5418 Clear 17 1012 76 10000 3.58 153 12:22 14.11.2021
5419 Clouds 16 1012 79 10000 2.68 38 10:58 14.11.2021
5420 Clouds 16 1012 82 10000 0.89 77 10:36 14.11.2021
5421 Clear 14 1012 87 10000 0.89 56 09:26 14.11.2021
5422 Clear 13 1012 84 10000 3.6 100 08:51 14.11.2021
5423 Clear 12 1013 89 10000 0.51 0 04:46 14.11.2021
5424 Clouds 13 1015 85 8000 2.06 140 22:31 13.11.2021
5425 Clouds 14 1015 83 8000 2.06 130 21:59 13.11.2021
5426 Clouds 14 1015 83 8000 2.06 130 21:32 13.11.2021
5427 Clouds 14 1015 86 6000 2.06 120 20:43 13.11.2021
5428 Clouds 15 1015 83 10000 1.54 180 18:54 13.11.2021
5429 Clouds 15 1015 80 10000 1.54 180 18:32 13.11.2021
5430 Clear 16 1015 74 10000 0.45 233 17:34 13.11.2021
5431 Clouds 19 1015 61 10000 0.89 257 15:45 13.11.2021
5432 Clear 19 1015 65 10000 0.45 142 14:43 13.11.2021
5433 Clear 19 1017 71 10000 1.34 248 13:47 13.11.2021
5434 Clear 19 1017 77 10000 1.54 340 12:43 13.11.2021
5435 Clouds 17 1018 84 8000 0.45 282 11:46 13.11.2021
5436 Clouds 17 1017 86 8000 1.54 350 11:18 13.11.2021
5437 Clear 17 1019 82 10000 1.54 20 10:32 13.11.2021
5438 Clear 15 1016 89 10000 1.54 30 09:45 13.11.2021
5439 Fog 14 1017 91 400 2.06 350 09:22 13.11.2021
5440 Clear 13 1018 82 10000 1.54 70 08:42 13.11.2021
5441 Clear 11 1017 86 10000 1.03 0 07:26 13.11.2021
5442 Clear 12 1017 89 10000 0.89 25 04:40 13.11.2021
5443 Clear 12 1017 88 10000 1.34 51 02:59 13.11.2021
5444 Clear 14 1018 89 10000 0.45 34 23:35 12.11.2021
5445 Clouds 14 1018 87 10000 1.54 130 21:54 12.11.2021
5446 Clouds 15 1017 85 10000 3.09 130 20:46 12.11.2021
5447 Clouds 15 1017 85 10000 2.06 170 19:32 12.11.2021
5448 Clouds 16 1017 82 10000 2.57 220 18:57 12.11.2021
5449 Clouds 16 1017 81 10000 1.54 230 18:18 12.11.2021
5450 Clouds 16 1017 81 10000 1.54 230 18:18 12.11.2021
5451 Clouds 19 1016 70 10000 1.79 191 15:54 12.11.2021
5452 Clouds 19 1016 78 10000 0.89 163 13:27 12.11.2021
5453 Clouds 17 1017 82 10000 0.45 22 11:24 12.11.2021
5454 Clouds 17 1017 82 10000 0.45 22 11:24 12.11.2021
5455 Clouds 16 1017 87 10000 1.54 360 10:20 12.11.2021
5456 Clouds 16 1017 87 10000 1.54 360 10:20 12.11.2021
5457 Clouds 14 1016 83 10000 0.45 78 08:55 12.11.2021
5458 Rain 14 1016 86 10000 0.89 78 06:37 12.11.2021
5459 Clouds 16 1016 87 10000 1.79 11 00:21 12.11.2021
5460 Clouds 16 1017 88 8000 1.79 22 23:27 11.11.2021
5461 Drizzle 17 1017 87 8000 1.34 87 21:57 11.11.2021
5462 Rain 16 1018 88 8000 0.45 40 21:26 11.11.2021
5463 Clouds 17 1018 86 8000 1.54 200 19:56 11.11.2021
5464 Rain 17 1018 89 10000 2.06 70 18:27 11.11.2021
5465 Rain 17 1018 89 10000 2.06 70 18:27 11.11.2021
5466 Clear 17 1018 88 10000 0.89 26 17:41 11.11.2021
5467 Clear 19 1018 86 10000 1.34 75 15:41 11.11.2021
5468 Clear 19 1018 86 10000 0.45 57 14:39 11.11.2021
5469 Rain 19 1018 86 10000 0.89 59 14:21 11.11.2021
5470 Clear 18 1019 88 10000 0.45 102 13:35 11.11.2021
5471 Clear 18 1019 82 10000 0.45 156 12:27 11.11.2021
5472 Clouds 16 1020 82 7000 1.34 53 09:58 11.11.2021
5473 Clouds 16 1020 86 3000 1.79 40 09:22 11.11.2021
5474 Rain 15 1021 84 1500 1.79 36 07:33 11.11.2021
5475 Rain 16 1021 85 10000 3.6 90 00:40 11.11.2021
5476 Clouds 16 1021 87 10000 2.68 63 22:46 10.11.2021
5477 Clouds 16 1021 88 6000 2.68 77 21:54 10.11.2021
5478 Rain 16 1021 85 9000 1.79 83 20:56 10.11.2021
5479 Rain 16 1020 89 9000 4.12 110 20:25 10.11.2021
5480 Rain 16 1023 84 8000 4.12 90 19:45 10.11.2021
5481 Rain 18 1021 82 2000 8.23 200 17:28 10.11.2021
5482 Clouds 22 1020 55 10000 4.92 171 15:47 10.11.2021
5483 Clouds 22 1019 55 10000 4.92 152 14:25 10.11.2021
5484 Clear 23 1019 50 10000 4.02 144 13:37 10.11.2021
5485 Clear 23 1020 50 10000 5.81 175 12:24 10.11.2021
5486 Clouds 19 1020 69 10000 2.57 350 09:21 10.11.2021
5487 Clouds 18 1020 74 10000 2.68 179 08:41 10.11.2021
5488 Clear 15 1019 83 10000 4.02 69 06:45 10.11.2021
5489 Clear 15 1019 85 10000 2.68 57 05:58 10.11.2021
5490 Clear 15 1019 84 10000 2.24 54 01:57 10.11.2021
5491 Clouds 17 1020 82 10000 0.45 24 22:29 09.11.2021
5492 Clouds 17 1020 83 10000 0.45 6 20:43 09.11.2021
5493 Rain 17 1020 81 10000 0.89 81 19:33 09.11.2021
5494 Rain 17 1020 81 8000 1.34 45 18:49 09.11.2021
5495 Clouds 18 1019 80 10000 0.89 67 16:54 09.11.2021
5496 Clouds 19 1018 76 10000 1.79 57 15:36 09.11.2021
5497 Clouds 20 1017 78 10000 0.89 44 13:50 09.11.2021
5498 Clear 19 1017 80 10000 0.89 47 12:47 09.11.2021
5499 Clouds 17 1017 86 10000 0.89 1 11:18 09.11.2021
5500 Clouds 16 1016 87 10000 1.34 11 09:59 09.11.2021
5501 Clouds 15 1016 89 10000 1.79 11 09:21 09.11.2021
5502 Clouds 13 1015 85 10000 1.34 80 07:52 09.11.2021
5503 Clouds 14 1012 86 10000 2.24 59 02:50 09.11.2021
5504 Clouds 14 1012 83 10000 0.89 64 01:55 09.11.2021
5505 Clouds 14 1012 83 10000 1.79 333 01:36 09.11.2021
5506 Clouds 15 1012 85 10000 0.89 57 23:31 08.11.2021
5507 Clouds 15 1011 83 10000 1.34 1 22:45 08.11.2021
5508 Clouds 15 1011 85 10000 0.89 6 21:45 08.11.2021
5509 Clouds 15 1010 85 10000 0.89 357 20:36 08.11.2021
5510 Clouds 15 1010 85 10000 1.34 11 19:40 08.11.2021
5511 Mist 16 1010 87 4000 1.79 51 17:44 08.11.2021
5512 Rain 16 1010 86 3000 2.06 10 15:56 08.11.2021
5513 Clouds 16 1010 87 1400 2.06 150 14:56 08.11.2021
5514 Rain 16 1010 87 1400 2.06 150 14:33 08.11.2021
5515 Thunderstorm 18 1010 78 6000 1.34 238 13:18 08.11.2021
5516 Clouds 19 1010 77 10000 2.06 30 11:55 08.11.2021
5517 Clouds 18 1011 82 10000 1.34 92 10:50 08.11.2021
5518 Clouds 17 1011 85 10000 1.34 135 09:26 08.11.2021
5519 Mist 16 1011 88 4000 1.54 320 08:42 08.11.2021
5520 Clouds 16 1011 87 10000 0.51 0 06:56 08.11.2021
5521 Clear 16 1012 83 10000 1.54 190 03:35 08.11.2021
5522 Clear 17 1012 82 10000 0.45 155 01:35 08.11.2021
5523 Clouds 18 1012 79 10000 0.45 187 23:25 07.11.2021
5524 Clouds 19 1012 71 10000 2.24 134 21:26 07.11.2021
5525 Clouds 20 1011 67 10000 1.79 108 20:28 07.11.2021
5526 Clouds 21 1011 59 10000 3.58 177 18:47 07.11.2021
5527 Clouds 22 1012 57 10000 1.79 119 17:44 07.11.2021
5528 Clear 23 1012 53 10000 1.79 144 16:42 07.11.2021
5529 Clear 24 1011 47 10000 2.68 80 15:41 07.11.2021
5530 Clear 25 1011 45 10000 4.02 147 14:27 07.11.2021
5531 Clear 24 1011 47 10000 5.36 132 12:50 07.11.2021
5532 Clear 23 1013 60 10000 3.13 178 11:42 07.11.2021
5533 Clouds 17 1014 79 10000 2.24 55 09:21 07.11.2021
5534 Clear 15 1013 84 10000 3.13 138 03:40 07.11.2021
5535 Clouds 15 1013 85 10000 3.13 17 02:25 07.11.2021
5536 Clouds 15 1015 86 10000 3.58 41 22:56 06.11.2021
5537 Clouds 15 1015 86 8000 3.13 1 21:59 06.11.2021
5538 Clouds 15 1015 87 8000 4.02 42 21:27 06.11.2021
5539 Rain 15 1015 86 10000 3.13 43 20:30 06.11.2021
5540 Rain 16 1016 77 8000 0.89 71 17:50 06.11.2021
5541 Rain 17 1016 71 9000 2.68 73 16:38 06.11.2021
5542 Clear 19 1017 62 10000 1.34 85 14:31 06.11.2021
5543 Clear 18 1017 64 10000 2.24 40 13:37 06.11.2021
5544 Clouds 16 1018 75 10000 1.79 21 11:24 06.11.2021
5545 Clear 13 1017 82 10000 1.34 40 09:20 06.11.2021
5546 Clouds 11 1016 85 10000 0.45 27 04:55 06.11.2021
5547 Clouds 13 1016 82 10000 1.34 1 00:58 06.11.2021
5548 Clouds 13 1016 84 10000 1.34 27 23:33 05.11.2021
5549 Clouds 13 1015 85 10000 0.89 56 22:33 05.11.2021
5550 Clear 13 1015 82 10000 1.34 354 20:41 05.11.2021
5551 Clouds 13 1015 81 10000 1.79 32 20:18 05.11.2021
5552 Clouds 14 1015 78 10000 0.45 99 18:59 05.11.2021
5553 Clouds 14 1015 78 10000 0.45 61 18:38 05.11.2021
5554 Clouds 15 1015 69 10000 0.45 332 16:50 05.11.2021
5555 Clouds 16 1015 67 10000 2.06 30 14:41 05.11.2021
5556 Clouds 15 1014 73 10000 1.76 113 12:50 05.11.2021
5557 Rain 13 1014 83 10000 1.54 10 09:51 05.11.2021
5558 Clouds 12 1013 83 10000 2.57 30 08:38 05.11.2021
5559 Clear 10 1012 82 10000 0.45 61 06:50 05.11.2021
5560 Clear 11 1012 83 10000 0.45 52 04:42 05.11.2021
5561 Clear 11 1012 81 10000 0.45 20 02:22 05.11.2021
5562 Clear 11 1012 84 10000 0.45 75 00:30 05.11.2021
5563 Clouds 11 1012 83 10000 1.54 130 22:37 04.11.2021
5564 Clouds 12 1012 79 10000 1.54 0 22:18 04.11.2021
5565 Clouds 12 1012 79 10000 1.54 0 22:18 04.11.2021
5566 Clouds 12 1012 85 10000 2.57 150 21:29 04.11.2021
5567 Clouds 13 1012 84 10000 2.06 150 20:29 04.11.2021
5568 Clouds 13 1012 83 10000 2.57 150 19:50 04.11.2021
5569 Clouds 13 1012 83 10000 2.57 140 19:28 04.11.2021
5570 Clouds 14 1011 79 10000 2.57 150 18:30 04.11.2021
5571 Clouds 15 1010 77 10000 0.45 165 17:27 04.11.2021
5572 Clouds 17 1010 69 10000 2.06 210 16:23 04.11.2021
5573 Clouds 17 1010 72 10000 0.45 180 14:19 04.11.2021
5574 Clouds 16 1010 84 10000 1.34 170 10:52 04.11.2021
5575 Rain 15 1009 83 10000 1.34 150 08:48 04.11.2021
5576 Rain 15 1009 80 10000 0.45 156 08:26 04.11.2021
5577 Clouds 14 1008 86 10000 0.45 161 07:33 04.11.2021
5578 Thunderstorm 16 1003 85 2000 3.13 206 23:23 03.11.2021
5579 Thunderstorm 17 1002 85 8000 4.02 234 22:29 03.11.2021
5580 Rain 18 1001 87 6000 1.79 179 21:37 03.11.2021
5581 Clouds 18 1001 86 10000 4.02 149 20:45 03.11.2021
5582 Clouds 18 1002 86 10000 4.47 141 20:26 03.11.2021
5583 Clouds 18 1002 83 10000 2.68 162 19:37 03.11.2021
5584 Clouds 18 1002 85 10000 4.92 129 18:27 03.11.2021
5585 Clouds 18 1002 85 8000 3.58 140 17:48 03.11.2021
5586 Clouds 18 1002 85 4000 4.92 165 16:49 03.11.2021
5587 Clouds 17 1002 85 900 5.36 162 15:51 03.11.2021
5588 Rain 17 1002 86 6000 4.47 169 15:30 03.11.2021
5589 Rain 17 1002 86 6000 4.47 169 15:30 03.11.2021
5590 Rain 17 1002 84 10000 3.13 178 13:42 03.11.2021
5591 Clouds 16 1004 87 8000 5.81 154 11:37 03.11.2021
5592 Rain 16 1004 87 8000 4.02 161 10:50 03.11.2021
5593 Drizzle 17 1005 84 8000 2.68 163 09:47 03.11.2021
5594 Rain 17 1005 84 10000 2.24 223 08:53 03.11.2021
5595 Rain 17 1005 81 8000 4.02 166 07:59 03.11.2021
5596 Rain 17 1005 81 8000 3.58 154 07:34 03.11.2021
5597 Clouds 16 1006 74 8000 3.6 160 04:23 03.11.2021
5598 Clouds 15 1008 75 10000 3.09 170 00:58 03.11.2021
5599 Clear 15 1010 76 10000 0.45 152 23:24 02.11.2021
5600 Clouds 16 1010 75 10000 1.34 163 21:59 02.11.2021
5601 Clouds 15 1010 80 10000 3.6 170 20:43 02.11.2021
5602 Clouds 16 1010 78 10000 0.89 156 19:58 02.11.2021
5603 Clouds 16 1009 78 10000 1.34 144 19:31 02.11.2021
5604 Clouds 16 1009 75 10000 0.89 184 18:36 02.11.2021
5605 Clear 17 1008 65 10000 0.89 193 17:46 02.11.2021
5606 Clear 18 1007 62 10000 1.34 202 17:21 02.11.2021
5607 Clouds 20 1007 60 10000 2.24 250 15:58 02.11.2021
5608 Clouds 20 1006 58 10000 2.24 280 14:57 02.11.2021
5609 Clouds 21 1007 63 10000 1.79 231 13:30 02.11.2021
5610 Clouds 21 1007 69 10000 1.34 246 12:59 02.11.2021
5611 Clear 20 1006 75 10000 0.89 132 11:40 02.11.2021
5612 Clear 19 1007 75 10000 1.34 186 10:59 02.11.2021
5613 Clear 19 1007 71 10000 0.89 88 10:32 02.11.2021
5614 Clouds 17 1007 75 10000 1.54 330 09:45 02.11.2021
5615 Clouds 13 1004 96 10000 1.54 150 07:47 02.11.2021
5616 Clear 13 1004 80 10000 0.45 223 05:55 02.11.2021
5617 Fog 14 1002 86 10000 0.45 285 03:24 02.11.2021
5618 Drizzle 17 1001 90 9000 0.89 339 23:58 01.11.2021
5619 Rain 17 1000 84 10000 3.58 184 21:57 01.11.2021
5620 Rain 17 1001 83 9000 2.68 113 20:45 01.11.2021
5621 Rain 17 1001 83 10000 3.13 150 20:19 01.11.2021
5622 Rain 17 1001 85 9000 3.13 134 19:41 01.11.2021
5623 Rain 18 1002 83 10000 1.34 195 18:34 01.11.2021
5624 Clouds 18 1002 83 3000 2.68 177 17:49 01.11.2021
5625 Rain 18 1002 82 6000 4.92 151 16:57 01.11.2021
5626 Rain 18 1002 80 6000 4.92 155 16:25 01.11.2021
5627 Clouds 18 1003 80 10000 4.92 150 15:37 01.11.2021
5628 Clouds 18 1003 79 10000 4.92 132 15:18 01.11.2021
5629 Clouds 18 1004 78 10000 5.36 159 14:37 01.11.2021
5630 Clouds 18 1004 79 10000 5.36 179 14:18 01.11.2021
5631 Clouds 18 1005 79 10000 2.68 133 12:38 01.11.2021
5632 Drizzle 18 1006 74 10000 4.47 130 11:34 01.11.2021
5633 Clouds 18 1007 73 10000 3.58 123 10:20 01.11.2021
5634 Drizzle 17 1008 77 8000 0.45 92 08:18 01.11.2021
5635 Drizzle 17 1008 78 8000 2.06 0 07:46 01.11.2021
5636 Clouds 16 1009 81 10000 0.45 103 03:51 01.11.2021
5637 Clouds 17 1010 80 10000 0.45 128 01:44 01.11.2021
5638 Drizzle 17 1011 75 10000 1.79 179 23:18 31.10.2021
5639 Clouds 17 1011 70 10000 1.54 360 20:51 31.10.2021
5640 Clouds 18 1012 72 10000 0.45 126 19:24 31.10.2021
5641 Drizzle 18 1012 72 10000 0.89 98 18:42 31.10.2021
5642 Drizzle 18 1012 71 10000 1.79 149 17:54 31.10.2021
5643 Clear 19 1013 63 10000 0.89 144 16:25 31.10.2021
5644 Clear 20 1013 59 10000 1.79 174 14:41 31.10.2021
5645 Clouds 20 1014 55 10000 2.68 137 12:54 31.10.2021
5646 Clear 19 1015 62 10000 0.45 40 11:42 31.10.2021
5647 Clear 17 1016 64 10000 2.06 350 10:48 31.10.2021
5648 Clear 15 1016 71 10000 1.54 10 09:23 31.10.2021
5649 Clear 13 1016 77 10000 1.54 340 08:41 31.10.2021
5650 Clear 13 1017 73 10000 1.54 80 02:19 31.10.2021
5651 Clear 14 1017 73 10000 0.51 0 23:42 30.10.2021
5652 Clear 14 1017 77 10000 2.06 110 21:36 30.10.2021
5653 Clear 15 1017 77 10000 1.54 110 21:18 30.10.2021
5654 Clear 17 1016 69 10000 1.54 230 19:23 30.10.2021
5655 Clear 19 1016 60 10000 0.45 158 17:42 30.10.2021
5656 Clear 21 1015 51 10000 1.03 0 15:30 30.10.2021
5657 Clear 21 1016 55 10000 1.54 70 13:56 30.10.2021
5658 Clear 20 1016 57 10000 0.51 0 13:22 30.10.2021
5659 Clear 20 1016 62 10000 1.03 0 12:57 30.10.2021
5660 Clear 18 1018 60 10000 2.06 340 11:49 30.10.2021
5661 Clear 16 1018 72 10000 1.03 0 10:34 30.10.2021
5662 Clear 12 1016 76 10000 2.06 30 08:55 30.10.2021
5663 Clear 12 1015 77 10000 1.34 21 07:55 30.10.2021
5664 Rain 13 1015 76 10000 1.03 20 05:45 30.10.2021
5665 Clouds 13 1016 75 10000 1.03 160 01:57 30.10.2021
5666 Clear 14 1016 77 10000 1.54 160 22:54 29.10.2021
5667 Clear 14 1016 72 10000 2.06 140 22:32 29.10.2021
5668 Clear 15 1015 78 10000 2.06 160 20:55 29.10.2021
5669 Clear 15 1015 77 10000 2.06 170 20:31 29.10.2021
5670 Clear 17 1014 67 10000 1.54 250 18:49 29.10.2021
5671 Clear 19 1014 59 10000 0.89 263 17:28 29.10.2021
5672 Clear 20 1015 54 10000 1.54 0 15:22 29.10.2021
5673 Clear 17 1016 64 10000 1.54 340 12:29 29.10.2021
5674 Clear 15 1017 87 10000 2.06 50 10:46 29.10.2021
5675 Clear 11 1015 78 10000 1.03 0 08:47 29.10.2021
5676 Clear 13 1017 76 10000 1.03 130 00:55 29.10.2021
5677 Clear 14 1017 76 10000 1.54 160 23:46 28.10.2021
5678 Clear 14 1017 76 10000 1.54 140 22:20 28.10.2021
5679 Clear 15 1018 80 10000 1.54 140 20:57 28.10.2021
5680 Clear 16 1017 76 10000 0.51 0 19:52 28.10.2021
5681 Clear 18 1017 68 10000 1.54 260 18:30 28.10.2021
5682 Clear 20 1017 59 10000 1.34 248 17:20 28.10.2021
5683 Clear 21 1017 53 10000 3.13 283 16:24 28.10.2021
5684 Clear 21 1018 50 10000 0.45 158 14:40 28.10.2021
5685 Clear 20 1019 53 10000 0.45 153 13:32 28.10.2021
5686 Clear 19 1020 56 10000 2.06 10 12:49 28.10.2021
5687 Clear 16 1020 64 10000 0.45 42 11:26 28.10.2021
5688 Clouds 15 1017 63 10000 1.7 23 09:55 28.10.2021
5689 Clear 13 1019 75 10000 0.51 0 09:35 28.10.2021
5690 Clear 12 1019 73 10000 0.45 57 08:36 28.10.2021
5691 Clear 11 1019 75 10000 0.45 48 07:40 28.10.2021
5692 Clear 14 1020 75 10000 0.89 6 00:41 28.10.2021
5693 Clear 14 1021 76 10000 1.79 19 22:47 27.10.2021
5694 Clear 15 1020 74 10000 0.89 32 21:52 27.10.2021
5695 Clear 15 1020 75 10000 2.06 170 21:18 27.10.2021
5696 Clear 16 1020 73 10000 2.06 170 20:40 27.10.2021
5697 Clear 17 1019 71 10000 1.03 0 19:45 27.10.2021
5698 Clear 18 1019 65 10000 0.89 293 18:55 27.10.2021
5699 Clear 21 1020 57 10000 0.45 305 16:55 27.10.2021
5700 Clear 21 1019 50 10000 0.89 286 16:24 27.10.2021
5701 Clear 21 1020 54 10000 0.89 303 15:24 27.10.2021
5702 Clear 21 1020 57 10000 0.45 281 14:19 27.10.2021
5703 Clear 17 1021 78 10000 0.89 52 11:18 27.10.2021
5704 Clear 16 1021 81 10000 1.03 0 10:36 27.10.2021
5705 Clear 13 1020 88 10000 0.89 22 08:58 27.10.2021
5706 Clouds 13 1019 84 6000 0.89 11 07:39 27.10.2021
5707 Clouds 13 1019 84 6000 0.45 57 07:39 27.10.2021
5708 Clouds 13 1019 85 8000 1.34 32 05:37 27.10.2021
5709 Clouds 15 1019 83 10000 0.89 30 01:21 27.10.2021
5710 Clouds 15 1019 84 10000 0.45 1 00:54 27.10.2021
5711 Clouds 15 1019 84 8000 1.03 0 23:52 26.10.2021
5712 Clouds 15 1019 85 8000 1.03 0 22:44 26.10.2021
5713 Drizzle 15 1019 87 7000 1.03 0 22:21 26.10.2021
5714 Drizzle 15 1019 87 8000 1.03 80 21:32 26.10.2021
5715 Rain 15 1018 86 6000 0.45 77 19:34 26.10.2021
5716 Rain 16 1018 84 4000 0.89 85 18:54 26.10.2021
5717 Rain 16 1017 77 10000 2.06 30 17:45 26.10.2021
5718 Rain 18 1017 74 7000 3.09 330 15:46 26.10.2021
5719 Clear 18 1018 67 10000 1.03 0 12:33 26.10.2021
5720 Clear 17 1018 68 10000 1.54 360 10:48 26.10.2021
5721 Clear 15 1018 77 10000 1.54 350 08:24 26.10.2021
5722 Clouds 15 1017 73 10000 2.06 30 07:22 26.10.2021
5723 Rain 16 1018 68 10000 0.89 1 00:19 26.10.2021
5724 Rain 16 1018 68 10000 0.89 1 00:19 26.10.2021
5725 Clouds 17 1018 67 10000 0.89 1 23:28 25.10.2021
5726 Clear 17 1018 68 10000 0.51 0 22:29 25.10.2021
5727 Clear 17 1018 66 10000 0.51 0 21:42 25.10.2021
5728 Clear 18 1017 62 10000 0.51 0 20:28 25.10.2021
5729 Clear 18 1017 62 10000 0.51 0 19:43 25.10.2021
5730 Clear 18 1017 61 10000 0.51 0 19:22 25.10.2021
5731 Clear 19 1017 59 10000 0.51 270 18:38 25.10.2021
5732 Clear 20 1017 51 10000 1.03 0 17:26 25.10.2021
5733 Clear 21 1017 47 10000 0.45 78 14:48 25.10.2021
5734 Clear 19 1018 49 10000 0.45 18 12:33 25.10.2021
5735 Clear 16 1018 59 10000 1.03 0 10:47 25.10.2021
5736 Clear 13 1018 67 10000 1.03 0 08:58 25.10.2021
5737 Clear 13 1017 66 10000 0.45 11 06:28 25.10.2021
5738 Clear 13 1017 66 10000 0.45 11 06:28 25.10.2021
5739 Clear 13 1017 66 10000 0.45 11 06:28 25.10.2021
5740 Clear 14 1017 65 10000 3.13 11 04:35 25.10.2021
5741 Clear 16 1018 58 10000 3.13 6 00:52 25.10.2021
5742 Clear 16 1018 58 10000 2.24 39 00:33 25.10.2021
5743 Clear 17 1018 56 10000 2.24 17 23:41 24.10.2021
5744 Clear 17 1018 56 10000 1.79 54 22:38 24.10.2021
5745 Clear 17 1018 55 10000 1.34 44 22:19 24.10.2021
5746 Clear 18 1018 55 10000 0.45 36 21:18 24.10.2021
5747 Clear 19 1018 61 10000 0.45 329 20:34 24.10.2021
5748 Clear 20 1018 56 10000 0.45 91 19:39 24.10.2021
5749 Clear 21 1017 50 10000 0.45 107 18:29 24.10.2021
5750 Clear 23 1017 43 10000 1.34 335 17:44 24.10.2021
5751 Clear 24 1018 45 10000 2.68 339 15:56 24.10.2021
5752 Clear 24 1019 47 10000 1.34 69 14:41 24.10.2021
5753 Clouds 23 1019 49 10000 2.24 57 12:58 24.10.2021
5754 Clear 21 1020 61 10000 1.79 327 11:45 24.10.2021
5755 Clear 21 1020 62 10000 2.24 36 11:25 24.10.2021
5756 Clouds 18 1020 71 10000 3.13 19 10:27 24.10.2021
5757 Clouds 15 1019 86 10000 3.13 52 07:51 24.10.2021
5758 Clear 17 1020 84 10000 2.68 32 01:22 24.10.2021
5759 Clouds 17 1020 81 8000 2.24 356 23:48 23.10.2021
5760 Clouds 17 1020 81 7000 0.45 42 22:18 23.10.2021
5761 Clear 18 1019 80 10000 2.06 50 20:37 23.10.2021
5762 Clear 19 1019 76 10000 2.06 40 18:59 23.10.2021
5763 Clear 19 1019 76 10000 1.54 20 18:30 23.10.2021
5764 Clear 20 1019 74 10000 2.06 20 17:43 23.10.2021
5765 Clear 21 1018 72 10000 0.89 21 16:24 23.10.2021
5766 Clouds 21 1019 75 10000 2.57 360 14:32 23.10.2021
5767 Clouds 17 1016 82 8000 1.54 170 03:34 23.10.2021
5768 Clouds 18 1017 81 10000 1.03 0 00:19 23.10.2021
5769 Clouds 18 1016 81 10000 1.03 170 22:53 22.10.2021
5770 Clouds 19 1016 79 10000 2.06 220 20:50 22.10.2021
5771 Clouds 20 1015 76 10000 4.12 200 18:45 22.10.2021
5772 Clouds 21 1014 73 10000 1.34 167 17:43 22.10.2021
5773 Clouds 23 1014 64 10000 1.79 154 15:26 22.10.2021
5774 Clouds 23 1015 58 10000 2.68 200 13:52 22.10.2021
5775 Clouds 21 1015 69 10000 4.02 140 11:26 22.10.2021
5776 Clouds 20 1015 77 10000 2.24 174 10:41 22.10.2021
5777 Clear 19 1015 78 10000 1.34 115 09:56 22.10.2021
5778 Clear 17 1014 81 10000 1.79 132 08:36 22.10.2021
5779 Clear 17 1014 83 10000 0.45 121 07:22 22.10.2021
5780 Clear 17 1015 82 10000 1.34 147 02:57 22.10.2021
5781 Clear 18 1016 80 10000 2.24 142 23:55 21.10.2021
5782 Clear 18 1016 80 10000 2.24 144 23:35 21.10.2021
5783 Clear 18 1016 79 10000 3.13 158 21:52 21.10.2021
5784 Clear 19 1016 78 10000 2.24 171 20:40 21.10.2021
5785 Clouds 19 1016 77 10000 1.79 186 20:18 21.10.2021
5786 Clouds 19 1016 80 10000 1.34 159 19:29 21.10.2021
5787 Clouds 20 1015 78 10000 1.34 146 18:45 21.10.2021
5788 Clouds 20 1016 74 10000 1.34 204 17:56 21.10.2021
5789 Clouds 21 1016 72 10000 2.24 176 17:37 21.10.2021
5790 Clouds 21 1016 67 10000 4.92 138 15:49 21.10.2021
5791 Clouds 21 1016 67 10000 2.68 160 15:20 21.10.2021
5792 Clouds 21 1017 66 10000 5.36 154 14:38 21.10.2021
5793 Clouds 21 1018 64 10000 5.36 166 13:19 21.10.2021
5794 -273 0 0 0 0 0 10:44 21.10.2021
5795 -273 0 0 0 0 0 10:43 21.10.2021
5796 -273 0 0 0 0 0 10:43 21.10.2021
5797 -273 0 0 0 0 0 10:43 21.10.2021
5798 Clouds 14 1019 76 10000 0.45 148 08:34 21.10.2021
5799 Clear 14 1020 77 10000 0.89 119 07:28 21.10.2021
5800 Clear 13 1022 72 10000 3.6 160 03:29 21.10.2021
5801 Clear 14 1024 74 10000 2.57 160 23:25 20.10.2021
5802 Clear 14 1024 77 10000 2.57 170 21:51 20.10.2021
5803 Clear 15 1024 76 10000 3.09 160 21:29 20.10.2021
5804 Clear 16 1024 74 10000 0.89 140 20:49 20.10.2021
5805 Clear 16 1024 73 10000 2.06 190 20:28 20.10.2021
5806 Clear 17 1024 72 10000 2.06 210 19:51 20.10.2021
5807 Clear 18 1024 69 10000 0.45 203 18:54 20.10.2021
5808 Clear 19 1024 62 10000 0.45 204 17:45 20.10.2021
5809 Clear 21 1025 56 10000 1.79 252 15:26 20.10.2021
5810 Clear 17 1028 69 10000 1.03 0 10:25 20.10.2021
5811 Clear 12 1025 76 10000 1.54 30 08:37 20.10.2021
5812 Clear 12 1027 66 10000 2.06 150 02:58 20.10.2021
5813 Clear 14 1027 63 10000 2.57 150 00:43 20.10.2021
5814 Clear 14 1028 65 10000 1.54 160 23:45 19.10.2021
5815 Clouds 15 1027 68 10000 2.57 160 21:41 19.10.2021
5816 Clouds 16 1027 66 10000 1.54 160 20:48 19.10.2021
5817 Clouds 16 1027 63 10000 1.03 0 20:22 19.10.2021
5818 Clouds 17 1027 60 10000 1.54 210 19:40 19.10.2021
5819 Clouds 18 1026 56 10000 0.45 254 18:52 19.10.2021
5820 Clouds 20 1026 50 10000 1.79 241 17:58 19.10.2021
5821 Clear 22 1026 39 10000 2.24 306 15:38 19.10.2021
5822 Clear 22 1026 35 10000 2.24 231 15:19 19.10.2021
5823 Clear 22 1027 43 10000 1.79 248 14:23 19.10.2021
5824 Clear 20 1027 47 10000 1.03 0 12:38 19.10.2021
5825 Clear 18 1029 59 10000 2.57 340 11:31 19.10.2021
5826 Clouds 17 1028 67 10000 1.82 15 09:56 19.10.2021
5827 Clear 13 1025 68 10000 2.06 80 08:57 19.10.2021
5828 Clear 11 1025 69 10000 0.45 11 05:23 19.10.2021
5829 Clear 14 1025 58 10000 1.03 90 00:24 19.10.2021
5830 Clear 14 1025 58 10000 0.45 22 23:49 18.10.2021
5831 Clear 15 1024 62 10000 1.54 80 23:19 18.10.2021
5832 Clear 14 1024 64 10000 2.06 80 22:51 18.10.2021
5833 Clear 15 1024 66 10000 1.03 170 21:18 18.10.2021
5834 Clear 16 1023 67 10000 0.51 120 20:41 18.10.2021
5835 Clear 17 1023 64 10000 2.06 310 19:50 18.10.2021
5836 Clear 17 1023 63 10000 2.06 310 19:50 18.10.2021
5837 Clear 18 1023 59 10000 0.45 302 19:28 18.10.2021
5838 Clear 19 1022 56 10000 1.34 298 18:50 18.10.2021
5839 Clouds 22 1022 40 10000 3.09 10 15:25 18.10.2021
5840 Clear 21 1022 43 10000 0.89 77 12:55 18.10.2021
5841 Clear 17 1023 62 10000 0.51 0 10:36 18.10.2021
5842 Clear 12 1022 73 10000 2.24 30 09:27 18.10.2021
5843 Clear 12 1020 72 10000 0.45 23 02:30 18.10.2021
5844 Clear 14 1020 73 10000 1.54 170 23:30 17.10.2021
5845 Clear 15 1019 69 10000 2.06 160 21:52 17.10.2021
5846 Clear 16 1019 65 10000 1.03 0 21:00 17.10.2021
5847 Clear 16 1019 64 10000 0.45 274 20:36 17.10.2021
5848 Clear 17 1018 59 10000 1.54 240 19:39 17.10.2021
5849 Clouds 18 1018 55 10000 0.89 249 18:58 17.10.2021
5850 Clear 20 1017 51 10000 1.34 242 17:32 17.10.2021
5851 Clouds 21 1017 45 10000 0.89 271 15:41 17.10.2021
5852 Clouds 21 1018 45 10000 2.68 248 14:24 17.10.2021
5853 Clear 21 1018 47 10000 0.89 257 13:42 17.10.2021
5854 Clouds 18 1018 57 10000 2.06 30 11:57 17.10.2021
5855 Clouds 15 1018 66 10000 1.03 0 10:34 17.10.2021
5856 Clouds 14 1018 70 10000 0.89 21 09:41 17.10.2021
5857 Clouds 11 1017 74 10000 2.06 50 07:19 17.10.2021
5858 Clear 13 1016 74 10000 1.03 150 00:53 17.10.2021
5859 Clear 13 1016 71 10000 1.03 160 00:22 17.10.2021
5860 Clear 15 1016 71 10000 0.51 190 21:49 16.10.2021
5861 Clear 16 1015 65 10000 1.54 230 20:32 16.10.2021
5862 Clear 17 1015 63 10000 1.54 220 19:46 16.10.2021
5863 Clear 17 1015 61 10000 1.54 250 19:23 16.10.2021
5864 Clouds 18 1016 63 10000 2.06 240 18:56 16.10.2021
5865 Clear 18 1015 58 10000 0.45 203 18:38 16.10.2021
5866 Clear 18 1015 58 10000 0.45 203 18:38 16.10.2021
5867 Clear 19 1014 53 10000 0.89 209 18:18 16.10.2021
5868 Clear 20 1014 49 10000 0.89 176 17:25 16.10.2021
5869 Clouds 20 1014 43 10000 1.54 0 15:33 16.10.2021
5870 Clouds 18 1015 46 10000 1.34 17 12:26 16.10.2021
5871 Clear 15 1016 54 10000 2.24 340 10:47 16.10.2021
5872 Clear 10 1013 66 10000 2.24 70 08:23 16.10.2021
5873 Clear 11 1013 58 10000 0.89 41 01:25 16.10.2021
5874 Clear 12 1013 50 10000 2.24 1 23:57 15.10.2021
5875 Clear 12 1014 54 10000 1.34 11 23:24 15.10.2021
5876 Clear 13 1013 49 10000 2.68 19 22:19 15.10.2021
5877 Clear 14 1013 46 10000 2.24 319 21:29 15.10.2021
5878 Clear 15 1012 48 10000 2.24 17 20:49 15.10.2021
5879 Clear 16 1012 44 10000 2.24 334 19:37 15.10.2021
5880 Clear 17 1011 41 10000 3.13 356 18:40 15.10.2021
5881 Clear 19 1011 32 10000 3.58 315 16:43 15.10.2021
5882 Clear 20 1011 30 10000 4.92 337 15:36 15.10.2021
5883 Clear 19 1012 32 10000 3.13 11 13:31 15.10.2021
5884 Clear 16 1013 38 10000 2.68 1 11:37 15.10.2021
5885 Clear 15 1013 43 10000 1.34 314 10:57 15.10.2021
5886 Clear 14 1014 54 10000 1.34 11 09:59 15.10.2021
5887 Clear 10 1015 57 10000 0.45 51 05:44 15.10.2021
5888 Clear 10 1018 50 10000 2.68 344 01:47 15.10.2021
5889 Clear 11 1017 41 10000 1.34 18 00:22 15.10.2021
5890 Clear 12 1018 43 10000 4.02 350 22:52 14.10.2021
5891 Clear 13 1018 42 10000 3.58 44 21:45 14.10.2021
5892 Clear 13 1017 40 10000 2.68 11 20:49 14.10.2021
5893 Clear 13 1017 39 10000 3.58 6 20:19 14.10.2021
5894 Clear 15 1017 35 10000 4.02 11 19:38 14.10.2021
5895 Clear 18 1016 30 10000 5.81 50 17:37 14.10.2021
5896 Clear 18 1016 30 10000 4.02 59 16:51 14.10.2021
5897 Clear 19 1016 28 10000 3.13 355 16:20 14.10.2021
5898 Clear 19 1017 28 10000 2.68 11 14:43 14.10.2021
5899 Clear 19 1017 28 10000 3.58 27 14:21 14.10.2021
5900 Clear 17 1017 32 10000 3.58 15 11:44 14.10.2021
5901 Clear 14 1017 42 10000 3.13 46 09:55 14.10.2021
5902 Clear 14 1017 42 10000 3.13 46 09:55 14.10.2021
5903 Clear 11 1016 44 10000 3.58 40 07:32 14.10.2021
5904 Clouds 13 1014 53 10000 2.24 53 01:29 14.10.2021
5905 Clouds 13 1015 54 10000 3.58 11 00:28 14.10.2021
5906 Clouds 15 1016 51 10000 1.34 23 21:58 13.10.2021
5907 Clouds 15 1016 51 10000 2.68 71 21:32 13.10.2021
5908 Clouds 16 1015 45 10000 1.79 20 20:21 13.10.2021
5909 Clouds 18 1013 50 10000 0.45 135 18:57 13.10.2021
5910 Clear 19 1012 41 10000 0.45 135 18:35 13.10.2021
5911 Clear 21 1012 33 10000 3.6 30 15:32 13.10.2021
5912 Clear 21 1012 36 10000 3.13 6 14:45 13.10.2021
5913 Clear 21 1012 39 10000 0.45 33 14:21 13.10.2021
5914 Clear 19 1012 49 10000 1.34 49 12:22 13.10.2021
5915 Clear 18 1012 57 10000 1.79 30 11:35 13.10.2021
5916 Clear 12 1011 75 10000 2.06 30 08:42 13.10.2021
5917 Clear 11 1011 76 10000 0.45 50 07:36 13.10.2021
5918 Clear 13 1012 75 10000 1.03 0 02:29 13.10.2021
5919 Clear 13 1012 77 10000 1.54 50 01:45 13.10.2021
5920 Clear 13 1012 78 10000 1.54 150 23:30 12.10.2021
5921 Clear 14 1012 76 10000 2.06 140 22:47 12.10.2021
5922 Clouds 15 1012 69 10000 0.51 0 21:52 12.10.2021
5923 Clouds 15 1012 69 10000 0.51 230 20:46 12.10.2021
5924 Clouds 16 1012 66 10000 1.03 0 20:18 12.10.2021
5925 Clouds 18 1012 61 10000 1.79 238 18:45 12.10.2021
5926 Clouds 19 1011 56 10000 0.89 231 17:57 12.10.2021
5927 Clear 21 1011 47 10000 0.45 211 16:39 12.10.2021
5928 Clouds 21 1011 43 10000 0.45 205 15:58 12.10.2021
5929 Clear 20 1012 49 10000 1.03 0 14:46 12.10.2021
5930 Clear 20 1013 50 10000 3.09 350 13:44 12.10.2021
5931 Clear 18 1014 54 10000 0.45 356 12:40 12.10.2021
5932 Clouds 13 1013 72 10000 0.45 343 09:59 12.10.2021
5933 Clear 11 1014 74 10000 0.89 34 08:44 12.10.2021
5934 Clear 11 1014 76 10000 1.34 60 07:54 12.10.2021
5935 Clear 10 1014 79 10000 0.45 56 05:31 12.10.2021
5936 Clear 11 1014 76 10000 1.34 6 04:33 12.10.2021
5937 Clear 12 1015 71 10000 0.45 40 00:28 12.10.2021
5938 Clear 12 1015 70 10000 0.89 22 23:41 11.10.2021
5939 Clear 13 1015 67 10000 0.89 29 22:57 11.10.2021
5940 Clear 13 1015 65 10000 3.6 30 21:46 11.10.2021
5941 Clear 13 1016 67 10000 3.09 40 21:18 11.10.2021
5942 Clear 14 1014 61 10000 0.45 315 19:46 11.10.2021
5943 Clear 15 1014 57 10000 0.89 315 18:43 11.10.2021
5944 Clear 17 1014 53 10000 0.45 315 17:49 11.10.2021
5945 Clouds 18 1014 51 10000 1.34 338 16:39 11.10.2021
5946 Clouds 18 1014 53 10000 1.34 315 15:51 11.10.2021
5947 Clouds 17 1014 60 10000 0.89 315 14:55 11.10.2021
5948 Clouds 17 1014 62 10000 0.45 315 14:33 11.10.2021
5949 Clouds 16 1015 68 10000 0.45 45 13:36 11.10.2021
5950 Clouds 12 1016 86 10000 1.03 0 11:39 11.10.2021
5951 Rain 11 1015 86 8000 2.06 350 10:34 11.10.2021
5952 Rain 11 1015 81 6000 4.63 330 09:22 11.10.2021
5953 Clouds 11 1014 67 10000 3.58 21 06:30 11.10.2021
5954 Clear 12 1014 63 10000 1.79 1 01:38 11.10.2021
5955 Clear 12 1014 61 10000 2.24 348 00:46 11.10.2021
5956 Clear 12 1014 63 10000 2.68 19 00:23 11.10.2021
5957 Clear 13 1014 59 10000 2.68 27 21:52 10.10.2021
5958 Clear 13 1014 57 10000 2.68 352 21:31 10.10.2021
5959 Clear 13 1014 55 10000 3.13 60 20:43 10.10.2021
5960 Clouds 14 1013 53 10000 3.13 6 20:21 10.10.2021
5961 Clouds 14 1013 52 10000 3.13 6 19:59 10.10.2021
5962 Clear 14 1013 50 10000 0.89 338 19:35 10.10.2021
5963 Clear 16 1013 49 10000 4.47 11 18:35 10.10.2021
5964 Clear 18 1013 45 10000 4.02 107 16:46 10.10.2021
5965 Clear 18 1014 43 10000 3.58 333 15:44 10.10.2021
5966 Clear 19 1014 44 10000 0.89 338 13:53 10.10.2021
5967 Clear 19 1014 44 10000 0.89 293 13:32 10.10.2021
5968 Clear 19 1014 44 10000 1.79 25 12:33 10.10.2021
5969 Clear 16 1014 56 10000 1.79 54 10:43 10.10.2021
5970 Clear 14 1014 63 10000 4.63 10 09:29 10.10.2021
5971 Clouds 13 1013 67 10000 0.45 68 08:53 10.10.2021
5972 Clouds 13 1013 71 10000 3.6 30 07:27 10.10.2021
5973 Clouds 15 1015 66 10000 1.34 1 02:42 10.10.2021
5974 Clouds 15 1015 79 10000 0.45 42 00:55 10.10.2021
5975 Clouds 15 1015 79 10000 0.45 54 23:57 09.10.2021
5976 Clouds 16 1015 79 10000 1.79 70 22:45 09.10.2021
5977 Clouds 17 1015 71 10000 1.34 31 21:39 09.10.2021
5978 Clouds 17 1015 69 10000 0.89 51 21:20 09.10.2021
5979 Clear 19 1014 56 10000 4.12 10 19:44 09.10.2021
5980 Clouds 19 1014 52 10000 2.24 357 18:59 09.10.2021
5981 Clouds 20 1014 50 10000 3.13 323 18:32 09.10.2021
5982 Clouds 22 1015 42 10000 0.89 30 16:37 09.10.2021
5983 Clear 23 1015 42 10000 0.89 65 15:32 09.10.2021
5984 Clear 22 1016 45 10000 4.12 350 13:44 09.10.2021
5985 Clear 22 1015 46 10000 0.45 332 12:40 09.10.2021
5986 Clear 22 1015 46 10000 0.45 332 12:40 09.10.2021
5987 Clear 21 1015 48 10000 5.14 20 11:48 09.10.2021
5988 Clear 19 1015 55 10000 1.34 11 10:42 09.10.2021
5989 Clear 19 1015 55 10000 1.34 11 10:42 09.10.2021
5990 Clear 17 1015 66 10000 1.34 341 09:36 09.10.2021
5991 Clear 15 1014 71 10000 3.09 70 08:30 09.10.2021
5992 Clear 14 1014 74 10000 3.6 70 07:47 09.10.2021
5993 Clouds 14 1014 72 10000 0.45 42 05:29 09.10.2021
5994 Clear 14 1014 72 10000 3.6 50 02:57 09.10.2021
5995 Clear 15 1014 72 10000 0.45 75 02:38 09.10.2021
5996 Clear 16 1014 65 10000 2.24 89 23:41 08.10.2021
5997 Clouds 17 1013 66 10000 0.89 47 22:54 08.10.2021
5998 Clouds 17 1013 66 10000 1.79 48 22:23 08.10.2021
5999 Clouds 18 1013 64 10000 2.68 1 20:53 08.10.2021
6000 Clouds 20 1012 54 10000 1.79 11 18:53 08.10.2021
6001 Clear 21 1011 53 10000 2.24 11 17:28 08.10.2021
6002 Clouds 21 1011 49 10000 1.79 19 16:50 08.10.2021
6003 Clear 22 1011 49 10000 0.89 29 16:23 08.10.2021
6004 Clouds 21 1011 53 10000 0.89 26 13:57 08.10.2021
6005 Clouds 19 1011 61 10000 1.79 285 12:48 08.10.2021
6006 Rain 18 1011 64 10000 3.58 311 11:31 08.10.2021
6007 Clouds 17 1011 71 10000 2.68 69 10:40 08.10.2021
6008 Clouds 15 1010 80 10000 3.58 37 08:27 08.10.2021
6009 Clear 15 1008 79 10000 2.24 1 23:38 07.10.2021
6010 Clear 15 1008 78 10000 3.13 42 22:59 07.10.2021
6011 Rain 15 1007 76 10000 1.79 38 21:36 07.10.2021
6012 Clouds 16 1007 75 10000 4.47 11 20:58 07.10.2021
6013 Rain 16 1007 71 10000 1.79 94 19:57 07.10.2021
6014 Clouds 17 1007 69 10000 4.92 50 19:28 07.10.2021
6015 Clouds 18 1007 68 10000 4.02 329 18:22 07.10.2021
6016 Clouds 18 1007 65 10000 4.47 350 17:18 07.10.2021
6017 Clouds 20 1007 61 10000 1.79 15 15:24 07.10.2021
6018 Clouds 20 1007 63 10000 2.68 11 13:45 07.10.2021
6019 Clouds 19 1007 64 10000 1.79 1 13:27 07.10.2021
6020 Clouds 19 1006 63 10000 4.47 11 12:39 07.10.2021
6021 Clear 16 1007 71 10000 1.79 11 10:49 07.10.2021
6022 Clear 16 1007 74 10000 0.89 301 10:19 07.10.2021
6023 Clear 13 1007 82 10000 0.89 329 08:56 07.10.2021
6024 Clear 13 1007 83 10000 1.03 0 08:35 07.10.2021
6025 Clouds 13 1007 82 10000 0.89 21 07:42 07.10.2021
6026 Clouds 13 1007 81 10000 0.45 107 06:57 07.10.2021
6027 Clouds 14 1008 81 10000 2.06 70 02:23 07.10.2021
6028 Rain 16 1009 71 10000 0.45 252 23:39 06.10.2021
6029 Clouds 17 1009 67 10000 3.6 150 22:45 06.10.2021
6030 Clouds 17 1009 66 10000 1.34 144 21:49 06.10.2021
6031 Clouds 18 1010 62 10000 0.89 224 20:35 06.10.2021
6032 Clouds 18 1010 59 10000 1.34 196 19:46 06.10.2021
6033 Clouds 19 1011 57 10000 5.36 203 18:34 06.10.2021
6034 Clouds 20 1011 66 10000 3.13 258 16:54 06.10.2021
6035 Clouds 21 1012 69 10000 1.34 229 15:26 06.10.2021
6036 Clouds 20 1012 82 10000 1.34 180 13:51 06.10.2021
6037 Clouds 19 1013 89 10000 2.24 148 12:55 06.10.2021
6038 Clouds 19 1014 88 10000 3.58 146 12:31 06.10.2021
6039 Clouds 18 1014 86 9000 2.24 142 11:49 06.10.2021
6040 Rain 18 1015 83 4000 2.68 141 09:57 06.10.2021
6041 Rain 19 1015 81 10000 3.6 130 09:38 06.10.2021
6042 Rain 18 1015 80 10000 2.68 165 08:40 06.10.2021
6043 Clouds 18 1015 79 10000 2.06 180 06:48 06.10.2021
6044 Clear 18 1015 80 10000 0.45 169 05:19 06.10.2021
6045 Clear 17 1017 78 10000 3.09 170 00:26 06.10.2021
6046 Clear 18 1017 76 10000 1.34 164 23:52 05.10.2021
6047 Clear 18 1017 76 10000 1.34 164 23:52 05.10.2021
6048 Clear 18 1017 76 10000 0.89 152 23:32 05.10.2021
6049 Clouds 18 1017 74 10000 0.89 165 22:44 05.10.2021
6050 Clear 18 1017 74 10000 3.6 160 21:58 05.10.2021
6051 Clear 18 1017 74 10000 3.6 160 21:58 05.10.2021
6052 Clear 18 1017 73 10000 3.6 160 21:35 05.10.2021
6053 Clouds 19 1017 74 10000 0.51 0 20:38 05.10.2021
6054 Clouds 19 1017 71 10000 0.45 140 20:19 05.10.2021
6055 Clouds 20 1016 65 10000 1.54 220 19:26 05.10.2021
6056 Clear 21 1016 61 10000 3.6 230 18:45 05.10.2021
6057 Clouds 23 1017 61 10000 1.34 245 16:35 05.10.2021
6058 Clouds 22 1017 80 10000 0.45 254 14:29 05.10.2021
6059 Clouds 21 1018 88 10000 3.09 180 13:29 05.10.2021
6060 Clouds 19 1018 92 1500 2.24 149 12:36 05.10.2021
6061 Clouds 19 1019 94 3000 2.57 220 11:58 05.10.2021
6062 Rain 19 1017 86 5000 1.03 0 10:39 05.10.2021
6063 Clouds 18 1016 83 10000 1.54 240 08:39 05.10.2021
6064 Rain 17 1016 77 10000 5.14 180 03:38 05.10.2021
6065 Clouds 23 1016 65 10000 4.02 164 23:52 04.10.2021
6066 Clouds 23 1016 66 10000 2.68 146 21:54 04.10.2021
6067 Clouds 24 1016 64 10000 3.13 144 18:54 04.10.2021
6068 Clouds 25 1016 61 10000 3.58 177 17:58 04.10.2021
6069 Clouds 26 1017 54 10000 3.13 182 16:20 04.10.2021
6070 Clouds 27 1017 51 10000 4.02 161 15:30 04.10.2021
6071 Clouds 27 1017 50 10000 3.13 182 14:39 04.10.2021
6072 Clouds 27 1018 53 10000 2.24 196 13:48 04.10.2021
6073 Clouds 27 1018 51 10000 4.92 165 13:23 04.10.2021
6074 Clouds 26 1018 54 10000 4.02 163 11:34 04.10.2021
6075 Clear 24 1018 57 10000 2.68 173 10:47 04.10.2021
6076 Clear 22 1018 66 10000 2.68 142 09:47 04.10.2021
6077 Clear 19 1018 75 10000 1.03 0 08:30 04.10.2021
6078 Clear 19 1018 76 10000 0.89 85 06:51 04.10.2021
6079 Clear 20 1018 76 10000 2.06 160 23:41 03.10.2021
6080 Clear 21 1018 74 10000 0.45 152 22:32 03.10.2021
6081 Clear 21 1017 71 10000 3.6 170 21:35 03.10.2021
6082 Clouds 21 1017 71 10000 0.45 150 20:50 03.10.2021
6083 Clouds 22 1017 69 10000 1.79 162 19:50 03.10.2021
6084 Clouds 24 1017 59 10000 1.79 145 18:30 03.10.2021
6085 Clouds 25 1016 55 10000 3.13 197 17:39 03.10.2021
6086 Clouds 25 1016 55 10000 2.68 134 15:30 03.10.2021
6087 Clouds 26 1017 52 10000 2.24 177 14:35 03.10.2021
6088 Clouds 26 1017 48 10000 4.47 154 13:36 03.10.2021
6089 Clouds 25 1017 57 10000 4.02 147 12:50 03.10.2021
6090 Clouds 23 1018 61 10000 2.24 148 11:40 03.10.2021
6091 Clouds 23 1018 61 10000 3.13 173 10:21 03.10.2021
6092 Clear 17 1017 71 10000 1.03 0 06:42 03.10.2021
6093 Clear 19 1018 68 10000 0.51 0 22:59 02.10.2021
6094 Clear 20 1018 62 10000 3.6 210 22:18 02.10.2021
6095 Clouds 22 1017 59 10000 2.24 144 20:34 02.10.2021
6096 Clouds 23 1017 59 10000 1.79 145 18:57 02.10.2021
6097 Clear 24 1017 53 10000 1.34 161 18:20 02.10.2021
6098 Clear 24 1016 56 10000 3.09 170 17:38 02.10.2021
6099 Clear 24 1016 47 10000 1.03 0 16:39 02.10.2021
6100 Clear 24 1017 54 10000 1.03 0 14:35 02.10.2021
6101 Clouds 29 1018 46 10000 3.13 245 15:37 30.09.2021
6102 Clear 29 1018 39 10000 3.13 321 14:22 30.09.2021
6103 Clear 26 1019 52 10000 1.03 0 11:58 30.09.2021
6104 Clear 25 1019 57 10000 2.57 0 11:23 30.09.2021
6105 Clear 22 1019 67 10000 0.89 1 10:25 30.09.2021
6106 Clear 22 1019 67 10000 0.89 1 10:25 30.09.2021
6107 Clear 19 1018 79 6000 1.34 356 08:32 30.09.2021
6108 Clear 18 1018 76 10000 0.89 42 07:45 30.09.2021
6109 Clear 18 1017 76 10000 0.89 6 05:25 30.09.2021
6110 Clear 19 1017 85 10000 2.06 200 02:33 30.09.2021
6111 Clear 21 1017 82 10000 1.54 210 00:31 30.09.2021
6112 Clear 21 1018 80 10000 0.89 237 22:41 29.09.2021
6113 Clear 22 1017 76 10000 1.34 243 21:28 29.09.2021
6114 Clear 23 1017 71 10000 1.34 238 20:30 29.09.2021
6115 Clear 23 1016 67 10000 0.45 229 19:56 29.09.2021
6116 Clear 25 1017 62 10000 2.68 244 18:54 29.09.2021
6117 Clear 26 1016 53 10000 1.34 292 17:55 29.09.2021
6118 Clouds 27 1016 49 10000 1.79 229 16:55 29.09.2021
6119 Clouds 28 1016 48 10000 2.68 246 16:22 29.09.2021
6120 Clear 28 1016 49 10000 2.68 175 14:42 29.09.2021
6121 Clear 28 1016 50 10000 3.13 265 14:18 29.09.2021
6122 Clouds 27 1017 58 10000 0.89 279 13:27 29.09.2021
6123 Clear 27 1017 61 10000 0.89 248 12:36 29.09.2021
6124 Clouds 24 1017 68 9000 1.54 200 10:50 29.09.2021
6125 Clouds 23 1017 71 9000 1.03 0 09:58 29.09.2021
6126 Clouds 22 1017 76 8000 0.51 0 09:36 29.09.2021
6127 Clear 20 1016 73 10000 1.03 300 07:39 29.09.2021
6128 Clouds 20 1015 71 10000 0.74 342 05:50 29.09.2021
6129 Clear 22 1016 71 10000 1.54 160 23:36 28.09.2021
6130 Clear 23 1016 68 10000 0.45 188 22:24 28.09.2021
6131 Clear 23 1016 68 10000 1.54 210 21:45 28.09.2021
6132 Clear 24 1016 63 10000 0.45 257 20:44 28.09.2021
6133 Clear 24 1016 62 10000 0.45 277 19:47 28.09.2021
6134 Clear 26 1016 60 10000 0.89 243 18:51 28.09.2021
6135 Clear 27 1015 56 10000 1.79 237 18:18 28.09.2021
6136 Clear 29 1015 48 10000 2.24 323 16:41 28.09.2021
6137 Clouds 29 1015 49 10000 0.89 300 14:37 28.09.2021
6138 Clear 28 1016 51 10000 2.24 304 13:19 28.09.2021
6139 Clear 27 1016 59 10000 0.45 109 12:21 28.09.2021
6140 Clear 26 1016 59 10000 0.45 183 11:47 28.09.2021
6141 Clear 25 1017 66 10000 0.45 321 11:23 28.09.2021
6142 Clear 23 1016 72 10000 1.34 1 10:21 28.09.2021
6143 Clear 23 1016 72 10000 1.34 1 10:21 28.09.2021
6144 Clear 23 1016 71 10000 1.34 1 10:21 28.09.2021
6145 Clear 21 1016 80 10000 1.34 87 09:18 28.09.2021
6146 Clouds 21 1016 81 6000 0.89 66 08:39 28.09.2021
6147 Mist 20 1015 81 5000 0.89 46 07:48 28.09.2021
6148 Fog 20 1015 85 3000 0.89 28 05:31 28.09.2021
6149 Clouds 22 1016 82 10000 1.03 0 01:25 28.09.2021
6150 Clouds 22 1016 83 10000 1.54 200 00:26 28.09.2021
6151 Clouds 22 1016 82 9000 1.03 0 23:42 27.09.2021
6152 Clouds 22 1016 81 10000 1.03 170 23:22 27.09.2021
6153 Clear 23 1016 79 10000 1.03 0 22:19 27.09.2021
6154 Clouds 24 1015 76 10000 1.54 250 20:45 27.09.2021
6155 Clouds 25 1015 74 10000 2.06 250 19:57 27.09.2021
6156 Clouds 25 1015 71 10000 2.06 250 19:29 27.09.2021
6157 Clouds 26 1015 71 10000 1.79 247 18:51 27.09.2021
6158 Clouds 27 1015 62 10000 1.79 251 17:30 27.09.2021
6159 Clouds 27 1015 64 10000 1.34 206 16:51 27.09.2021
6160 Clouds 27 1016 63 10000 1.34 224 15:45 27.09.2021
6161 Clouds 27 1016 66 10000 0.89 215 15:19 27.09.2021
6162 Clouds 25 1016 73 10000 2.24 134 13:34 27.09.2021
6163 Rain 24 1018 83 10000 2.57 180 11:59 27.09.2021
6164 Rain 23 1017 74 10000 1.03 0 10:38 27.09.2021
6165 Rain 23 1017 76 10000 1.34 150 09:28 27.09.2021
6166 Clear 22 1016 79 10000 2.68 193 06:30 27.09.2021
6167 Clear 23 1017 76 10000 0.89 153 03:29 27.09.2021
6168 Clouds 23 1019 82 10000 1.79 161 22:39 26.09.2021
6169 Clear 24 1019 80 10000 2.06 200 21:53 26.09.2021
6170 Clear 24 1019 79 10000 3.6 190 21:26 26.09.2021
6171 Clear 25 1018 74 10000 1.34 144 20:24 26.09.2021
6172 Clear 25 1018 69 10000 1.79 250 19:52 26.09.2021
6173 Clouds 26 1017 63 10000 2.24 148 18:48 26.09.2021
6174 Clouds 27 1017 57 10000 1.79 188 17:59 26.09.2021
6175 Clouds 27 1018 56 10000 1.79 151 17:36 26.09.2021
6176 Clouds 28 1018 58 10000 2.68 190 17:18 26.09.2021
6177 Clouds 28 1018 55 10000 1.79 225 16:21 26.09.2021
6178 Clouds 28 1019 61 10000 1.34 140 15:22 26.09.2021
6179 Clouds 27 1021 61 10000 0.45 173 13:59 26.09.2021
6180 Clouds 27 1021 58 10000 1.54 290 13:31 26.09.2021
6181 Clouds 26 1021 57 10000 2.24 244 12:25 26.09.2021
6182 Clouds 26 1021 51 10000 0.45 260 11:52 26.09.2021
6183 Clouds 25 1022 58 10000 1.03 0 10:52 26.09.2021
6184 Clouds 22 1020 65 10000 1.03 20 09:37 26.09.2021
6185 Clouds 20 1020 73 10000 1.03 50 08:20 26.09.2021
6186 Clear 21 1021 78 10000 2.57 90 00:28 26.09.2021
6187 Clear 21 1020 79 10000 1.54 100 23:41 25.09.2021
6188 Clear 22 1020 76 10000 2.57 190 22:39 25.09.2021
6189 Clear 22 1020 77 10000 2.06 210 22:18 25.09.2021
6190 Clear 23 1020 73 10000 2.06 230 21:33 25.09.2021
6191 Clear 23 1020 70 10000 0.45 203 20:51 25.09.2021
6192 Clear 24 1019 62 10000 0.45 214 19:33 25.09.2021
6193 Clear 26 1020 53 10000 0.45 196 18:27 25.09.2021
6194 Clear 28 1019 49 10000 1.79 242 17:18 25.09.2021
6195 Clear 28 1020 42 10000 0.89 204 14:25 25.09.2021
6196 Clear 29 1020 40 10000 2.24 233 13:54 25.09.2021
6197 Clear 27 1020 46 10000 1.03 0 12:36 25.09.2021
6198 Clear 23 1020 64 10000 1.54 350 10:36 25.09.2021
6199 Clear 22 1020 66 10000 1.54 20 09:56 25.09.2021
6200 Clear 20 1020 72 10000 1.03 40 08:52 25.09.2021
6201 Clear 18 1019 73 10000 1.54 70 07:46 25.09.2021
6202 Clear 19 1019 77 10000 2.57 120 00:50 25.09.2021
6203 Clear 19 1019 77 10000 2.57 120 00:50 25.09.2021
6204 Clear 21 1019 71 10000 1.54 210 21:58 24.09.2021
6205 Clear 21 1019 70 10000 1.03 220 21:25 24.09.2021
6206 Clear 22 1019 67 10000 1.54 230 20:31 24.09.2021
6207 Clear 25 1018 59 10000 0.45 180 18:36 24.09.2021
6208 Clouds 25 1018 57 10000 1.79 248 17:56 24.09.2021
6209 Clear 26 1018 56 10000 1.79 240 17:38 24.09.2021
6210 Clear 26 1018 56 10000 2.24 159 17:19 24.09.2021
6211 Clouds 27 1018 53 10000 2.68 218 15:38 24.09.2021
6212 Clouds 26 1020 52 10000 2.06 170 13:20 24.09.2021
6213 Clear 26 1020 55 10000 1.03 0 12:42 24.09.2021
6214 Clear 25 1020 57 10000 0.89 258 12:24 24.09.2021
6215 Clear 23 1020 64 10000 1.54 50 10:49 24.09.2021
6216 Clear 19 1019 75 10000 1.03 0 08:59 24.09.2021
6217 Clear 17 1019 79 10000 0.45 104 07:55 24.09.2021
6218 Clear 16 1019 80 10000 0.45 26 06:57 24.09.2021
6219 Clear 17 1019 82 10000 0.51 0 05:22 24.09.2021
6220 Clear 18 1019 79 10000 2.57 120 02:29 24.09.2021
6221 Clear 20 1020 73 10000 2.06 160 22:37 23.09.2021
6222 Clear 20 1019 72 10000 1.19 290 21:58 23.09.2021
6223 Clear 21 1019 68 10000 2.06 200 20:52 23.09.2021
6224 Clear 21 1019 68 10000 1.54 230 20:27 23.09.2021
6225 Clear 24 1019 59 10000 1.34 276 18:27 23.09.2021
6226 Clouds 26 1019 48 10000 2.68 318 15:37 23.09.2021
6227 Clouds 26 1019 48 10000 1.79 250 15:18 23.09.2021
6228 Clouds 26 1020 40 10000 1.79 234 13:57 23.09.2021
6229 Clouds 25 1021 40 10000 1.79 298 13:23 23.09.2021
6230 Clouds 25 1021 45 10000 0.45 78 12:54 23.09.2021
6231 Clouds 24 1021 45 10000 2.06 10 12:24 23.09.2021
6232 Clouds 24 1021 48 10000 1.34 279 11:56 23.09.2021
6233 Clouds 22 1020 47 10000 1.34 40 10:29 23.09.2021
6234 Clouds 21 1020 49 10000 1.34 29 09:53 23.09.2021
6235 Clear 19 1020 54 10000 2.24 150 08:55 23.09.2021
6236 Clouds 17 1019 62 10000 1.79 68 05:29 23.09.2021
6237 Clear 20 1019 60 10000 0.45 18 23:48 22.09.2021
6238 Clear 20 1019 64 10000 0.45 56 22:49 22.09.2021
6239 Clear 21 1018 69 10000 1.03 0 22:18 22.09.2021
6240 Clear 21 1017 66 10000 2.06 160 21:41 22.09.2021
6241 Clear 22 1017 65 10000 2.06 240 20:57 22.09.2021
6242 Clear 23 1017 58 10000 0.89 245 19:34 22.09.2021
6243 Clear 25 1017 53 10000 1.79 306 18:47 22.09.2021
6244 Clear 25 1017 52 10000 2.24 306 18:25 22.09.2021
6245 Clear 28 1016 46 10000 2.68 260 16:57 22.09.2021
6246 Clouds 28 1017 38 10000 4.02 269 15:38 22.09.2021
6247 Clear 28 1019 39 10000 0.45 270 14:25 22.09.2021
6248 Clear 26 1020 49 10000 0.45 47 12:55 22.09.2021
6249 Clear 24 1019 56 10000 2.57 40 10:59 22.09.2021
6250 Clear 20 1020 64 10000 0.45 57 09:30 22.09.2021
6251 Clear 19 1019 65 10000 1.34 43 08:36 22.09.2021
6252 Clear 17 1019 70 10000 0.89 11 07:31 22.09.2021
6253 Clear 17 1019 69 10000 1.34 40 06:23 22.09.2021
6254 Clear 18 1019 70 10000 0.89 75 05:45 22.09.2021
6255 Clear 19 1020 70 10000 1.54 50 03:58 22.09.2021
6256 Clear 19 1020 72 10000 0.45 84 02:55 22.09.2021
6257 Clear 21 1020 77 10000 1.54 130 23:31 21.09.2021
6258 Clear 22 1020 74 10000 1.54 210 21:49 21.09.2021
6259 Clouds 23 1019 70 10000 0.45 225 20:28 21.09.2021
6260 Clouds 24 1018 62 10000 1.34 238 19:24 21.09.2021
6261 Clouds 26 1019 55 10000 0.45 238 18:35 21.09.2021
6262 Clouds 27 1019 53 10000 0.89 221 16:47 21.09.2021
6263 Clouds 26 1019 56 10000 2.24 235 15:56 21.09.2021
6264 Clouds 26 1019 57 10000 1.34 177 14:59 21.09.2021
6265 Clouds 27 1020 49 10000 1.79 219 13:58 21.09.2021
6266 Clouds 27 1020 47 10000 1.79 190 13:39 21.09.2021
6267 Clouds 26 1020 49 10000 0.45 293 12:44 21.09.2021
6268 Clear 22 1019 68 10000 1.54 10 10:42 21.09.2021
6269 Clouds 18 1019 79 10000 1.03 350 08:57 21.09.2021
6270 Clear 18 1019 77 10000 1.54 160 07:37 21.09.2021
6271 Clear 18 1018 82 10000 1.54 110 05:18 21.09.2021
6272 Clouds 22 1017 73 10000 2.57 190 22:54 20.09.2021
6273 Clouds 23 1017 73 10000 3.09 190 21:43 20.09.2021
6274 Clouds 23 1017 73 10000 3.09 190 21:25 20.09.2021
6275 Clouds 23 1014 67 10000 0.45 180 19:48 20.09.2021
6276 Clouds 24 1013 59 10000 2.24 235 17:55 20.09.2021
6277 Clouds 24 1013 59 10000 2.24 235 17:55 20.09.2021
6278 Clear 25 1013 57 10000 1.34 189 17:19 20.09.2021
6279 Clouds 26 1013 53 10000 0.89 206 16:23 20.09.2021
6280 Clouds 26 1013 52 10000 2.24 209 15:36 20.09.2021
6281 Clouds 27 1013 52 10000 3.13 195 14:38 20.09.2021
6282 Clouds 26 1013 49 10000 1.79 179 12:44 20.09.2021
6283 Clouds 26 1013 51 10000 0.89 200 12:24 20.09.2021
6284 Clouds 24 1013 57 10000 2.68 152 10:52 20.09.2021
6285 Clear 23 1013 64 10000 2.06 190 09:51 20.09.2021
6286 Clear 22 1013 67 10000 2.06 190 09:32 20.09.2021
6287 Clear 20 1014 76 10000 0.51 0 08:48 20.09.2021
6288 Clear 19 1012 74 10000 3.09 170 06:22 20.09.2021
6289 Clouds 22 1013 63 10000 3.13 235 22:58 19.09.2021
6290 Clouds 23 1013 62 10000 2.24 261 21:50 19.09.2021
6291 Clouds 23 1012 67 10000 0.89 231 21:19 19.09.2021
6292 Clouds 24 1012 72 10000 0.45 206 20:19 19.09.2021
6293 Clouds 25 1012 66 10000 1.79 149 18:54 19.09.2021
6294 Clouds 26 1012 60 10000 2.68 191 17:49 19.09.2021
6295 Clouds 27 1012 58 10000 1.79 252 16:51 19.09.2021
6296 Clouds 27 1012 57 10000 2.68 229 15:32 19.09.2021
6297 Clouds 27 1013 56 10000 4.47 217 14:49 19.09.2021
6298 Clouds 28 1013 56 10000 3.58 242 13:58 19.09.2021
6299 Clouds 27 1014 60 10000 3.13 197 12:56 19.09.2021
6300 Clouds 27 1014 60 10000 1.79 238 12:18 19.09.2021
6301 Rain 26 1013 64 10000 1.79 226 11:23 19.09.2021
6302 Clouds 24 1013 75 10000 1.54 130 09:52 19.09.2021
6303 Clouds 23 1013 75 10000 0.51 0 09:26 19.09.2021
6304 Clouds 19 1012 82 10000 0.51 0 06:49 19.09.2021
6305 Clear 21 1013 81 10000 1.54 160 01:38 19.09.2021
6306 Clear 22 1012 79 10000 1.54 200 23:25 18.09.2021
6307 Clear 23 1013 77 10000 1.34 191 21:56 18.09.2021
6308 Clouds 23 1012 77 10000 0.45 180 20:47 18.09.2021
6309 Clouds 24 1012 75 10000 1.79 167 19:58 18.09.2021
6310 Clouds 24 1012 73 10000 0.45 180 19:37 18.09.2021
6311 Clouds 25 1012 71 10000 0.45 192 19:19 18.09.2021
6312 Clear 26 1012 60 10000 2.24 206 18:30 18.09.2021
6313 Clear 29 1011 45 10000 0.89 180 16:35 18.09.2021
6314 Clouds 29 1013 47 10000 1.34 206 14:32 18.09.2021
6315 Clouds 28 1013 49 10000 2.06 240 13:45 18.09.2021
6316 Clouds 29 1013 49 10000 1.34 233 13:21 18.09.2021
6317 Clouds 28 1013 54 10000 0.89 192 12:18 18.09.2021
6318 Clouds 27 1013 61 10000 0.89 152 11:30 18.09.2021
6319 Clear 25 1013 70 10000 0.89 121 10:30 18.09.2021
6320 Clouds 23 1013 79 10000 0.45 15 09:24 18.09.2021
6321 Clouds 21 1012 85 10000 0.45 356 08:28 18.09.2021
6322 Clouds 22 1012 86 10000 1.79 146 00:53 18.09.2021
6323 Clouds 22 1012 85 10000 1.17 134 23:56 17.09.2021
6324 Clear 22 1012 83 10000 0.78 142 22:54 17.09.2021
6325 Clear 23 1012 82 10000 1.32 160 22:25 17.09.2021
6326 Clear 23 1012 81 10000 0.51 0 21:33 17.09.2021
6327 Clouds 25 1012 75 10000 3.09 280 19:34 17.09.2021
6328 Clouds 26 1011 65 10000 0.89 250 18:42 17.09.2021
6329 Clouds 27 1011 63 10000 1.34 144 16:42 17.09.2021
6330 Clouds 28 1012 60 10000 4.47 155 15:21 17.09.2021
6331 Clouds 25 1013 73 10000 4.47 204 11:51 17.09.2021
6332 Clouds 23 1013 85 10000 1.03 0 10:21 17.09.2021
6333 Rain 22 1012 85 10000 2.16 140 07:48 17.09.2021
6334 Rain 23 1012 80 10000 2.68 124 05:45 17.09.2021
6335 Clear 25 1015 68 10000 0.89 150 00:32 17.09.2021
6336 Clear 25 1015 62 10000 4.92 136 22:42 16.09.2021
6337 Clear 25 1015 59 10000 4.47 156 22:23 16.09.2021
6338 Clear 25 1015 59 10000 2.24 161 21:35 16.09.2021
6339 Clear 26 1015 54 10000 5.36 152 20:29 16.09.2021
6340 Clouds 27 1016 49 10000 4.02 177 18:52 16.09.2021
6341 Clouds 27 1016 46 10000 2.68 197 18:18 16.09.2021
6342 Clear 30 1017 39 10000 2.68 146 16:37 16.09.2021
6343 Clear 30 1016 40 10000 0.45 113 14:49 16.09.2021
6344 Clear 29 1017 45 10000 1.79 136 13:33 16.09.2021
6345 Clear 29 1018 47 10000 1.79 154 12:42 16.09.2021
6346 Clear 28 1018 49 10000 2.24 177 11:49 16.09.2021
6347 Clear 27 1018 50 10000 2.24 92 10:54 16.09.2021
6348 Clear 26 1018 58 10000 2.68 177 10:21 16.09.2021
6349 Clear 23 1018 70 10000 1.79 215 09:18 16.09.2021
6350 Clear 21 1018 74 10000 1.03 0 07:48 16.09.2021
6351 Clear 21 1018 72 10000 0.51 0 06:56 16.09.2021
6352 Clear 21 1017 72 10000 0.51 0 06:37 16.09.2021
6353 Clear 22 1018 68 10000 0.51 0 03:22 16.09.2021
6354 Clear 22 1017 69 10000 0.51 0 00:49 16.09.2021
6355 Clouds 23 1018 81 10000 2.24 104 23:24 15.09.2021
6356 Rain 23 1020 75 10000 1.54 280 22:26 15.09.2021
6357 Clear 24 1019 72 10000 1.54 190 21:31 15.09.2021
6358 Clear 24 1018 67 10000 0.45 166 20:34 15.09.2021
6359 Clear 25 1019 60 10000 0.89 245 19:33 15.09.2021
6360 Clear 27 1019 52 10000 1.34 248 18:41 15.09.2021
6361 Clear 28 1018 45 10000 3.13 194 17:39 15.09.2021
6362 Clear 29 1018 37 10000 2.24 254 16:29 15.09.2021
6363 Clear 30 1018 41 10000 1.79 252 14:59 15.09.2021
6364 Clear 30 1019 40 10000 1.79 280 14:40 15.09.2021
6365 Clear 30 1019 39 10000 1.34 293 13:45 15.09.2021
6366 Clear 30 1019 37 10000 1.79 306 13:26 15.09.2021
6367 Clear 28 1019 40 10000 1.34 226 12:29 15.09.2021
6368 Clear 27 1018 43 10000 0.45 325 11:50 15.09.2021
6369 Clear 26 1018 51 10000 0.45 6 10:57 15.09.2021
6370 Clear 24 1018 60 10000 1.54 20 09:59 15.09.2021
6371 Clear 20 1018 67 10000 0.45 20 08:46 15.09.2021
6372 Clear 19 1019 68 10000 0.51 0 07:25 15.09.2021
6373 Clear 21 1018 73 10000 1.54 170 00:41 15.09.2021
6374 Clear 22 1018 71 10000 1.54 230 22:22 14.09.2021
6375 Clear 23 1018 66 10000 1.54 260 21:19 14.09.2021
6376 Clear 24 1018 60 10000 0.89 260 20:18 14.09.2021
6377 Clear 26 1017 52 10000 0.89 244 18:44 14.09.2021
6378 Clear 27 1017 45 10000 2.68 288 17:32 14.09.2021
6379 Clear 29 1017 37 10000 4.02 272 15:59 14.09.2021
6380 Clear 30 1017 33 10000 1.79 278 14:32 14.09.2021
6381 Clear 30 1017 35 10000 2.68 202 13:33 14.09.2021
6382 Clear 27 1017 49 10000 0.89 26 10:57 14.09.2021
6383 Clear 24 1017 58 10000 0.45 32 09:52 14.09.2021
6384 Clear 22 1017 66 10000 0.45 80 09:18 14.09.2021
6385 Clouds 18 1016 72 10000 1.03 0 07:28 14.09.2021
6386 Clear 22 1016 79 10000 2.06 170 00:57 14.09.2021
6387 Clear 23 1016 79 10000 0.45 203 23:18 13.09.2021
6388 Clear 23 1016 78 10000 2.57 200 22:27 13.09.2021
6389 Clear 23 1016 76 10000 0.45 203 21:54 13.09.2021
6390 Clear 24 1015 73 10000 0.45 180 21:19 13.09.2021
6391 Clear 24 1015 73 10000 0.45 180 21:19 13.09.2021
6392 Clear 26 1014 61 10000 2.24 293 19:34 13.09.2021
6393 Clear 28 1014 48 10000 3.13 285 18:43 13.09.2021
6394 Clear 30 1015 36 10000 3.58 281 17:18 13.09.2021
6395 Clouds 30 1014 38 10000 3.13 233 15:55 13.09.2021
6396 Clear 31 1015 35 10000 2.24 258 14:19 13.09.2021
6397 Clear 27 1016 44 10000 1.34 354 11:21 13.09.2021
6398 Clear 24 1015 51 10000 0.89 83 09:54 13.09.2021
6399 Clear 20 1014 66 10000 0.89 38 07:46 13.09.2021
6400 Clear 22 1014 75 10000 2.06 170 23:50 12.09.2021
6401 Clear 23 1014 68 10000 0.45 180 22:27 12.09.2021
6402 Clear 23 1014 67 10000 2.57 210 21:51 12.09.2021
6403 Clear 24 1013 59 10000 1.03 210 20:41 12.09.2021
6404 Clouds 25 1013 57 10000 1.34 252 19:54 12.09.2021
6405 Clear 26 1013 46 10000 1.34 204 19:28 12.09.2021
6406 Clear 28 1013 42 10000 2.24 234 18:32 12.09.2021
6407 Clouds 29 1012 35 10000 2.68 279 16:42 12.09.2021
6408 Clouds 30 1013 30 10000 3.58 259 15:29 12.09.2021
6409 Clear 29 1014 32 10000 0.89 203 13:55 12.09.2021
6410 Clear 28 1014 44 10000 0.45 310 11:49 12.09.2021
6411 Clear 25 1014 52 10000 0.89 84 10:18 12.09.2021
6412 Clear 22 1014 61 10000 0.89 11 08:38 12.09.2021
6413 Clear 20 1013 71 10000 0.45 65 02:56 12.09.2021
6414 Clear 21 1014 71 10000 1.54 170 00:44 12.09.2021
6415 Clear 22 1014 63 10000 1.03 210 22:29 11.09.2021
6416 Clear 23 1014 60 10000 0.51 0 21:37 11.09.2021
6417 Rain 25 1013 56 10000 1.03 0 19:33 11.09.2021
6418 Clouds 28 1012 39 10000 4.63 260 17:56 11.09.2021
6419 Clouds 29 1012 39 10000 3.58 249 16:24 11.09.2021
6420 Clouds 30 1013 33 10000 3.13 225 14:27 11.09.2021
6421 Clear 30 1014 35 10000 0.45 225 13:20 11.09.2021
6422 Clear 28 1014 45 10000 0.89 346 11:34 11.09.2021
6423 Clear 23 1014 61 10000 1.34 44 09:41 11.09.2021
6424 Clear 20 1014 72 10000 0.45 17 07:53 11.09.2021
6425 Clear 20 1014 73 10000 0.45 21 07:34 11.09.2021
6426 Clear 22 1016 73 10000 0.51 0 01:20 11.09.2021
6427 Clear 23 1015 66 10000 1.54 120 22:27 10.09.2021
6428 Clear 23 1015 63 10000 1.54 60 21:56 10.09.2021
6429 Clear 24 1015 59 10000 1.54 240 20:41 10.09.2021
6430 Clear 26 1015 51 10000 0.45 248 18:34 10.09.2021
6431 Clouds 26 1015 45 10000 1.34 254 17:27 10.09.2021
6432 Clear 28 1015 45 10000 1.79 156 15:37 10.09.2021
6433 Clouds 28 1015 41 10000 0.45 203 13:18 10.09.2021
6434 Clear 25 1016 57 10000 3.09 360 10:21 10.09.2021
6435 Clear 20 1015 68 10000 1.54 30 07:51 10.09.2021
6436 Clear 19 1016 68 10000 1.03 0 04:21 10.09.2021
6437 Clear 22 1016 64 10000 1.54 130 22:33 09.09.2021
6438 Clear 23 1017 68 10000 1.54 220 21:46 09.09.2021
6439 Clear 24 1015 59 10000 0.45 203 20:47 09.09.2021
6440 Clear 24 1015 58 10000 0.45 180 20:22 09.09.2021
6441 Clear 27 1014 43 10000 0.89 248 18:35 09.09.2021
6442 Clouds 29 1014 34 10000 1.34 203 16:41 09.09.2021
6443 Clouds 29 1014 36 10000 2.68 242 16:21 09.09.2021
6444 Clouds 28 1016 39 10000 1.34 140 13:22 09.09.2021
6445 Clear 27 1016 44 10000 1.54 0 11:49 09.09.2021
6446 Clear 24 1016 54 10000 1.03 0 10:31 09.09.2021
6447 Clear 22 1017 64 10000 1.31 55 08:58 09.09.2021
6448 Clear 18 1016 69 10000 0.45 57 06:39 09.09.2021
6449 Clear 18 1016 70 10000 1.54 60 03:44 09.09.2021
6450 Clear 21 1017 66 10000 2.06 60 22:53 08.09.2021
6451 Clear 21 1016 65 10000 2.24 23 21:36 08.09.2021
6452 Drizzle 22 1016 65 10000 1.34 114 20:19 08.09.2021
6453 Rain 24 1017 59 10000 4.12 0 19:23 08.09.2021
6454 Clear 24 1015 53 10000 3.09 220 18:31 08.09.2021
6455 Clear 24 1015 53 10000 3.09 220 18:30 08.09.2021
6456 Clouds 25 1015 50 10000 4.12 240 17:57 08.09.2021
6457 Clear 26 1016 51 10000 1.79 235 16:38 08.09.2021
6458 Clouds 29 1017 40 10000 2.68 144 14:30 08.09.2021
6459 Clouds 29 1017 40 10000 2.68 144 14:30 08.09.2021
6460 Clouds 29 1017 40 10000 2.68 144 14:30 08.09.2021
6461 Clear 29 1018 41 10000 0.45 253 12:57 08.09.2021
6462 Clear 28 1018 40 10000 1.79 235 12:28 08.09.2021
6463 Clear 27 1018 44 10000 1.79 149 11:38 08.09.2021
6464 Clear 26 1018 50 10000 1.34 144 10:50 08.09.2021
6465 Clear 25 1018 55 10000 1.54 0 10:25 08.09.2021
6466 Clear 22 1018 64 10000 0.45 43 09:21 08.09.2021
6467 Clear 20 1017 68 10000 2.06 60 07:38 08.09.2021
6468 Clear 21 1017 65 10000 1.54 30 05:35 08.09.2021
6469 Clear 23 1018 65 10000 0.51 0 22:50 07.09.2021
6470 Clear 23 1018 65 10000 1.03 0 22:18 07.09.2021
6471 Clear 25 1017 60 10000 0.45 248 20:23 07.09.2021
6472 Clear 26 1017 48 10000 0.89 310 18:45 07.09.2021
6473 Clear 27 1017 41 10000 1.34 246 18:18 07.09.2021
6474 Clear 29 1017 36 10000 2.68 224 16:47 07.09.2021
6475 Clear 29 1018 33 10000 2.68 279 15:40 07.09.2021
6476 Clouds 29 1018 33 10000 2.24 265 14:44 07.09.2021
6477 Clear 28 1020 39 10000 1.79 323 12:44 07.09.2021
6478 Clear 28 1019 40 10000 1.79 93 11:51 07.09.2021
6479 Clear 26 1019 47 10000 0.89 340 10:41 07.09.2021
6480 Clear 22 1019 61 10000 0.89 62 08:39 07.09.2021
6481 Clear 20 1019 62 10000 0.89 58 07:44 07.09.2021
6482 Clear 20 1018 68 10000 1.34 36 05:41 07.09.2021
6483 Clear 21 1019 65 10000 1.03 0 02:38 07.09.2021
6484 Clear 22 1019 63 10000 1.54 140 00:52 07.09.2021
6485 Clear 22 1019 62 10000 2.57 170 23:35 06.09.2021
6486 Clear 23 1018 60 10000 2.06 180 22:54 06.09.2021
6487 Clouds 24 1018 60 10000 2.06 180 22:35 06.09.2021
6488 Clouds 24 1018 57 10000 2.06 240 21:25 06.09.2021
6489 Clouds 26 1018 48 10000 0.45 275 19:31 06.09.2021
6490 Clear 27 1017 46 10000 1.79 231 18:50 06.09.2021
6491 Clear 28 1017 46 10000 2.24 254 18:24 06.09.2021
6492 Clouds 29 1017 44 10000 2.24 269 17:36 06.09.2021
6493 Clouds 29 1017 42 10000 3.13 240 15:52 06.09.2021
6494 Clouds 29 1018 42 10000 2.68 252 14:25 06.09.2021
6495 Clear 28 1019 44 10000 1.34 275 12:48 06.09.2021
6496 Clear 26 1018 46 10000 2.06 40 10:54 06.09.2021
6497 Clear 21 1017 66 10000 1.79 85 08:35 06.09.2021
6498 Clear 18 1016 73 10000 0.89 40 06:47 06.09.2021
6499 Clear 21 1017 67 10000 0.45 81 23:37 05.09.2021
6500 Clear 21 1017 68 10000 0.45 82 22:50 05.09.2021
6501 Clear 22 1017 68 10000 1.34 92 22:28 05.09.2021
6502 Clear 22 1016 67 10000 2.57 180 21:49 05.09.2021
6503 Clear 24 1015 56 10000 1.34 171 20:33 05.09.2021
6504 Clouds 26 1014 49 10000 0.45 152 18:56 05.09.2021
6505 Clouds 28 1014 39 10000 3.13 232 17:34 05.09.2021
6506 Clear 30 1014 37 10000 4.02 311 15:28 05.09.2021
6507 Clouds 30 1014 37 10000 1.34 221 14:19 05.09.2021
6508 Clear 28 1015 49 10000 1.34 17 12:29 05.09.2021
6509 Clear 26 1015 54 10000 0.89 32 10:53 05.09.2021
6510 Clear 25 1015 57 10000 0.45 19 10:23 05.09.2021
6511 Clear 23 1015 66 10000 0.89 334 09:22 05.09.2021
6512 Clear 20 1014 75 10000 1.03 70 07:51 05.09.2021
6513 Clear 22 1014 73 10000 2.57 170 01:22 05.09.2021
6514 Clear 22 1013 70 10000 1.54 170 00:27 05.09.2021
6515 Clear 22 1014 73 10000 2.57 190 23:39 04.09.2021
6516 Clear 23 1014 69 10000 2.06 170 22:36 04.09.2021
6517 Clear 24 1014 69 10000 2.06 200 21:56 04.09.2021
6518 Clear 25 1012 57 10000 4.12 260 19:42 04.09.2021
6519 Clear 27 1012 54 10000 4.63 250 18:43 04.09.2021
6520 Clouds 29 1012 44 10000 3.58 269 16:23 04.09.2021
6521 Clear 29 1014 47 10000 2.57 70 13:22 04.09.2021
6522 Clouds 27 1014 53 10000 1.34 63 11:19 04.09.2021
6523 Clouds 23 1013 67 10000 2.06 330 09:19 04.09.2021
6524 Clear 20 1012 77 10000 1.03 10 05:53 04.09.2021
6525 Clear 21 1014 74 10000 1.54 210 00:27 04.09.2021
6526 Clear 22 1014 74 10000 1.03 0 23:32 03.09.2021
6527 Clear 23 1014 71 10000 0.45 1 22:35 03.09.2021
6528 Clear 24 1014 67 10000 2.57 200 21:35 03.09.2021
6529 Clear 24 1014 67 10000 2.57 200 21:35 03.09.2021
6530 Clear 25 1014 63 10000 1.54 260 20:42 03.09.2021
6531 Clear 26 1014 60 10000 0.45 180 19:50 03.09.2021
6532 Clear 26 1014 59 10000 0.45 180 19:18 03.09.2021
6533 Clouds 28 1015 46 10000 1.79 222 17:47 03.09.2021
6534 Clouds 29 1016 39 10000 3.09 220 16:34 03.09.2021
6535 Clouds 28 1016 45 10000 0.45 180 14:53 03.09.2021
6536 Clouds 26 1018 56 10000 0.89 6 11:59 03.09.2021
6537 Clouds 23 1018 62 10000 1.34 6 10:27 03.09.2021
6538 Clear 22 1018 64 10000 0.45 91 08:46 03.09.2021
6539 Clear 21 1018 66 10000 0.45 48 07:43 03.09.2021
6540 Clouds 22 1018 76 10000 1.03 90 01:39 03.09.2021
6541 Clear 23 1019 77 10000 1.54 160 22:57 02.09.2021
6542 Clouds 24 1019 75 10000 2.06 210 21:31 02.09.2021
6543 Clear 25 1019 67 10000 0.45 225 19:55 02.09.2021
6544 Clear 28 1019 51 10000 2.68 226 17:32 02.09.2021
6545 Clear 30 1019 40 10000 1.79 319 15:50 02.09.2021
6546 Clear 30 1019 37 10000 2.68 23 13:57 02.09.2021
6547 Clear 29 1021 44 10000 0.89 284 12:42 02.09.2021
6548 Clear 27 1021 48 10000 0.45 18 11:34 02.09.2021
6549 Clear 24 1020 58 10000 0.45 65 09:40 02.09.2021
6550 Clear 20 1020 65 10000 0.45 48 07:47 02.09.2021
6551 Clear 19 1020 70 10000 0.45 74 07:18 02.09.2021
6552 Clear 19 1020 70 10000 0.45 74 07:18 02.09.2021
6553 Clear 20 1018 66 10000 0.45 21 02:54 02.09.2021
6554 Clear 21 1018 69 10000 0.51 160 01:55 02.09.2021
6555 Clear 21 1019 68 10000 1.54 190 01:23 02.09.2021
6556 Clear 22 1019 66 10000 1.54 170 23:37 01.09.2021
6557 Clear 23 1018 64 10000 0.45 180 22:34 01.09.2021
6558 Clear 24 1018 60 10000 0.45 180 21:35 01.09.2021
6559 Clear 25 1018 53 10000 0.45 220 20:28 01.09.2021
6560 Clouds 28 1017 45 10000 1.79 262 18:29 01.09.2021
6561 Clouds 29 1017 41 10000 2.24 182 17:37 01.09.2021
6562 Clear 30 1017 38 10000 4.02 199 16:46 01.09.2021
6563 Clouds 30 1017 32 10000 3.13 264 15:25 01.09.2021
6564 Clouds 27 1018 49 10000 2.24 306 11:50 01.09.2021
6565 Clouds 26 1018 54 10000 0.45 300 10:59 01.09.2021
6566 Clear 21 1017 71 10000 2.06 20 08:46 01.09.2021
6567 Clear 18 1017 75 10000 3.09 80 07:51 01.09.2021
6568 Clear 20 1016 73 10000 1.03 150 01:48 01.09.2021
6569 Clear 22 1017 73 10000 0.51 0 22:33 31.08.2021
6570 Clouds 23 1016 65 10000 2.06 210 21:22 31.08.2021
6571 Clear 25 1015 60 10000 1.34 304 19:45 31.08.2021
6572 Clouds 27 1014 53 10000 3.13 244 18:27 31.08.2021
6573 Clouds 27 1014 49 10000 1.79 180 17:36 31.08.2021
6574 Clouds 28 1014 48 10000 5.14 250 16:52 31.08.2021
6575 Clouds 28 1014 46 10000 2.24 200 16:23 31.08.2021
6576 Clear 29 1015 36 10000 3.13 157 12:56 31.08.2021
6577 Clear 27 1015 34 10000 2.06 300 11:26 31.08.2021
6578 Clear 26 1015 37 10000 2.06 60 10:52 31.08.2021
6579 Clear 24 1015 47 10000 0.89 50 09:43 31.08.2021
6580 Clear 19 1015 61 10000 1.54 350 08:37 31.08.2021
6581 Clear 18 1014 59 10000 0.51 0 05:58 31.08.2021
6582 Clear 19 1015 65 10000 1.54 140 01:36 31.08.2021
6583 Clear 21 1014 63 10000 2.06 160 23:35 30.08.2021
6584 Clear 22 1014 59 10000 2.06 210 21:43 30.08.2021
6585 Clear 24 1013 53 10000 2.06 230 20:42 30.08.2021
6586 Clear 24 1013 49 10000 0.89 259 20:18 30.08.2021
6587 Clear 26 1013 41 10000 1.34 250 19:29 30.08.2021
6588 Clear 27 1012 37 10000 2.24 186 18:29 30.08.2021
6589 Clear 28 1012 32 10000 2.24 308 17:44 30.08.2021
6590 Clear 28 1013 29 10000 2.24 238 16:19 30.08.2021
6591 Clouds 28 1013 36 10000 1.79 44 14:51 30.08.2021
6592 Clear 28 1013 35 10000 2.24 262 13:27 30.08.2021
6593 Clear 27 1014 37 10000 0.89 150 11:57 30.08.2021
6594 Clear 19 1012 61 10000 1.54 360 08:27 30.08.2021
6595 Clear 21 1011 49 10000 0.89 312 22:20 29.08.2021
6596 Clear 22 1011 50 10000 1.34 286 21:31 29.08.2021
6597 Clear 26 1009 33 10000 1.34 275 19:33 29.08.2021
6598 Clear 27 1009 32 10000 3.13 307 18:30 29.08.2021
6599 Clear 29 1008 27 10000 2.24 321 16:33 29.08.2021
6600 Clear 29 1009 26 10000 2.24 59 15:25 29.08.2021
6601 Clear 28 1010 30 10000 2.24 18 13:57 29.08.2021
6602 Clear 27 1010 34 10000 3.13 328 12:58 29.08.2021
6603 Clear 26 1010 38 10000 1.79 318 12:21 29.08.2021
6604 Clear 25 1009 41 10000 2.24 15 11:41 29.08.2021
6605 Clear 24 1009 45 10000 1.34 69 10:49 29.08.2021
6606 Clear 23 1010 50 10000 0.89 352 10:30 29.08.2021
6607 Clear 21 1009 54 10000 1.34 68 09:44 29.08.2021
6608 Clear 18 1008 64 10000 1.34 32 04:39 29.08.2021
6609 Clear 20 1010 69 10000 0.45 62 23:33 28.08.2021
6610 Clear 23 1008 61 10000 2.57 10 20:46 28.08.2021
6611 Clear 25 1008 58 10000 3.09 20 19:36 28.08.2021
6612 Clouds 26 1008 58 10000 3.6 20 18:27 28.08.2021
6613 Clouds 26 1008 60 10000 1.79 51 17:47 28.08.2021
6614 Clouds 27 1008 56 10000 0.89 1 16:56 28.08.2021
6615 Clouds 27 1007 54 10000 3.58 238 15:20 28.08.2021
6616 Clouds 27 1007 62 10000 1.79 238 13:59 28.08.2021
6617 Clouds 26 1007 63 10000 2.68 269 13:41 28.08.2021
6618 Rain 27 1007 62 10000 4.47 254 12:35 28.08.2021
6619 Clouds 27 1006 58 10000 0.89 203 11:40 28.08.2021
6620 Clouds 26 1007 61 10000 3.13 163 10:18 28.08.2021
6621 Clouds 22 1007 69 10000 1.79 113 07:57 28.08.2021
6622 Clouds 23 1009 71 10000 0.89 148 00:59 28.08.2021
6623 Clouds 24 1009 69 10000 0.45 208 21:45 27.08.2021
6624 Clouds 25 1009 66 10000 0.89 203 20:53 27.08.2021
6625 Clouds 26 1008 59 10000 1.34 180 19:43 27.08.2021
6626 Clouds 27 1008 55 10000 0.89 203 18:39 27.08.2021
6627 Clouds 28 1009 54 10000 2.24 212 17:54 27.08.2021
6628 Clouds 28 1008 52 10000 1.79 180 16:41 27.08.2021
6629 Clouds 28 1008 55 10000 1.79 180 14:50 27.08.2021
6630 Clouds 28 1008 55 10000 1.79 180 14:31 27.08.2021
6631 Clouds 27 1008 59 10000 1.79 180 12:27 27.08.2021
6632 Clouds 26 1009 62 10000 0.89 180 10:58 27.08.2021
6633 Clouds 26 1008 65 10000 1.34 180 10:36 27.08.2021
6634 Clouds 24 1009 75 10000 0.45 180 09:19 27.08.2021
6635 Clouds 23 1008 80 10000 0.51 0 08:35 27.08.2021
6636 Clouds 21 1007 80 10000 1.48 174 05:38 27.08.2021
6637 Clear 22 1009 78 10000 1.54 200 00:48 27.08.2021
6638 Clear 22 1009 77 10000 1.54 160 00:28 27.08.2021
6639 Clear 22 1009 77 10000 1.54 160 00:28 27.08.2021
6640 Clouds 23 1009 73 10000 2.06 200 22:27 26.08.2021
6641 Clouds 24 1009 73 10000 2.06 230 21:48 26.08.2021
6642 Clear 26 1008 60 10000 0.89 180 19:43 26.08.2021
6643 Clear 27 1008 56 10000 0.89 158 18:34 26.08.2021
6644 Clouds 28 1008 51 10000 1.34 248 17:25 26.08.2021
6645 Clouds 28 1008 51 10000 1.34 248 17:25 26.08.2021
6646 Clear 29 1008 49 10000 1.79 248 16:29 26.08.2021
6647 Clouds 29 1010 47 10000 1.34 248 14:47 26.08.2021
6648 Clouds 30 1010 42 10000 0.45 135 13:21 26.08.2021
6649 Clouds 29 1010 46 10000 0.45 225 12:33 26.08.2021
6650 Clear 28 1010 52 10000 2.06 250 11:38 26.08.2021
6651 Clear 24 1010 77 10000 1.54 40 08:51 26.08.2021
6652 Clouds 23 1010 80 10000 1.54 50 08:19 26.08.2021
6653 Clear 23 1010 72 10000 1.03 130 23:43 25.08.2021
6654 Clear 24 1010 71 10000 1.54 10 22:41 25.08.2021
6655 Clear 24 1010 70 10000 0.51 0 22:23 25.08.2021